<?xml version="1.0" encoding="utf-8"?>
<gpx xmlns:xsi="http://www.w3.org/2001/XMLSchema-instance" xmlns:xsd="http://www.w3.org/2001/XMLSchema" version="1.1" creator="Shapelink.com" xmlns="http://www.topografix.com/GPX/1/1" xmlns:gpxtpx="http://www.garmin.com/xmlschemas/TrackPointExtension/v1">
  <metadata>
    <name>Löpning 7.49 km, 2017-11-27</name>
    <desc></desc>
    <author><name>Bengt-Åke Forslund</name></author> 
    <time>2017-11-27T18:05:25Z</time>
  </metadata>
  <trk>
    <name>Löpning 7.49 km, 2017-11-27</name>
    <trkseg>
      <trkpt lat="62.637232022011" lon="17.965928493783">
        <ele>52.6</ele>
        <time>2017-11-27T18:05:25Z</time>
      </trkpt>
      <trkpt lat="62.63723964954" lon="17.965933690561">
        <ele>52.8</ele>
        <time>2017-11-27T18:05:26Z</time>
      </trkpt>
      <trkpt lat="62.637279966479" lon="17.966015497905">
        <ele>52.8</ele>
        <time>2017-11-27T18:05:34Z</time>
      </trkpt>
      <trkpt lat="62.637278457737" lon="17.96602346071">
        <ele>52.8</ele>
        <time>2017-11-27T18:05:35Z</time>
      </trkpt>
      <trkpt lat="62.637282061954" lon="17.966039805415">
        <ele>53</ele>
        <time>2017-11-27T18:05:36Z</time>
      </trkpt>
      <trkpt lat="62.637314499907" lon="17.966071572816">
        <ele>53</ele>
        <time>2017-11-27T18:05:37Z</time>
      </trkpt>
      <trkpt lat="62.63732765949" lon="17.966092108471">
        <ele>53</ele>
        <time>2017-11-27T18:05:38Z</time>
      </trkpt>
      <trkpt lat="62.637331515164" lon="17.966107698805">
        <ele>53.2</ele>
        <time>2017-11-27T18:05:39Z</time>
      </trkpt>
      <trkpt lat="62.637333945915" lon="17.966129156469">
        <ele>53</ele>
        <time>2017-11-27T18:05:40Z</time>
      </trkpt>
      <trkpt lat="62.63734023234" lon="17.966161845879">
        <ele>52.8</ele>
        <time>2017-11-27T18:05:41Z</time>
      </trkpt>
      <trkpt lat="62.637343082186" lon="17.966193780918">
        <ele>52.8</ele>
        <time>2017-11-27T18:05:42Z</time>
      </trkpt>
      <trkpt lat="62.637345680575" lon="17.966233427305">
        <ele>52.8</ele>
        <time>2017-11-27T18:05:43Z</time>
      </trkpt>
      <trkpt lat="62.63734777605" lon="17.966266787267">
        <ele>52.6</ele>
        <time>2017-11-27T18:05:44Z</time>
      </trkpt>
      <trkpt lat="62.637357499054" lon="17.966297381202">
        <ele>52.6</ele>
        <time>2017-11-27T18:05:45Z</time>
      </trkpt>
      <trkpt lat="62.637371999741" lon="17.966344738937">
        <ele>52.6</ele>
        <time>2017-11-27T18:05:46Z</time>
      </trkpt>
      <trkpt lat="62.637382225659" lon="17.966378182718">
        <ele>52.4</ele>
        <time>2017-11-27T18:05:47Z</time>
      </trkpt>
      <trkpt lat="62.637464787374" lon="17.967395242464">
        <ele>52.8</ele>
        <time>2017-11-27T18:06:08Z</time>
      </trkpt>
      <trkpt lat="62.637486831771" lon="17.967506637915">
        <ele>52.8</ele>
        <time>2017-11-27T18:06:09Z</time>
      </trkpt>
      <trkpt lat="62.637497141508" lon="17.967508481933">
        <ele>52.8</ele>
        <time>2017-11-27T18:06:10Z</time>
      </trkpt>
      <trkpt lat="62.637508121797" lon="17.96756824488">
        <ele>52.8</ele>
        <time>2017-11-27T18:06:11Z</time>
      </trkpt>
      <trkpt lat="62.637503427933" lon="17.967550559071">
        <ele>52.8</ele>
        <time>2017-11-27T18:06:12Z</time>
      </trkpt>
      <trkpt lat="62.637491525635" lon="17.967507727562">
        <ele>52.8</ele>
        <time>2017-11-27T18:06:13Z</time>
      </trkpt>
      <trkpt lat="62.637487586142" lon="17.967542596266">
        <ele>52.8</ele>
        <time>2017-11-27T18:06:14Z</time>
      </trkpt>
      <trkpt lat="62.637482892278" lon="17.967504458621">
        <ele>52.6</ele>
        <time>2017-11-27T18:06:15Z</time>
      </trkpt>
      <trkpt lat="62.637468140134" lon="17.967481659853">
        <ele>52.6</ele>
        <time>2017-11-27T18:06:16Z</time>
      </trkpt>
      <trkpt lat="62.637459925872" lon="17.967500100033">
        <ele>52.6</ele>
        <time>2017-11-27T18:06:17Z</time>
      </trkpt>
      <trkpt lat="62.637459087682" lon="17.967479145283">
        <ele>52.4</ele>
        <time>2017-11-27T18:06:18Z</time>
      </trkpt>
      <trkpt lat="62.637445760461" lon="17.967401025975">
        <ele>52.4</ele>
        <time>2017-11-27T18:06:19Z</time>
      </trkpt>
      <trkpt lat="62.6374441679" lon="17.967401361251">
        <ele>52.4</ele>
        <time>2017-11-27T18:06:20Z</time>
      </trkpt>
      <trkpt lat="62.637455483465" lon="17.96741485611">
        <ele>52.4</ele>
        <time>2017-11-27T18:06:21Z</time>
      </trkpt>
      <trkpt lat="62.637446263375" lon="17.967420136707">
        <ele>52.2</ele>
        <time>2017-11-27T18:06:22Z</time>
      </trkpt>
      <trkpt lat="62.6374609317" lon="17.967414101739">
        <ele>52.2</ele>
        <time>2017-11-27T18:06:23Z</time>
      </trkpt>
      <trkpt lat="62.637441820968" lon="17.967378562483">
        <ele>52.2</ele>
        <time>2017-11-27T18:06:24Z</time>
      </trkpt>
      <trkpt lat="62.637287007275" lon="17.965940898995">
        <ele>52.2</ele>
        <time>2017-11-27T18:06:25Z</time>
      </trkpt>
      <trkpt lat="62.637290108578" lon="17.965939474072">
        <ele>52.2</ele>
        <time>2017-11-27T18:06:26Z</time>
      </trkpt>
      <trkpt lat="62.637292790786" lon="17.965935199303">
        <ele>52.2</ele>
        <time>2017-11-27T18:06:27Z</time>
      </trkpt>
      <trkpt lat="62.637280134117" lon="17.965938719701">
        <ele>52.4</ele>
        <time>2017-11-27T18:06:28Z</time>
      </trkpt>
      <trkpt lat="62.637289689483" lon="17.965940731357">
        <ele>52.4</ele>
        <time>2017-11-27T18:06:29Z</time>
      </trkpt>
      <trkpt lat="62.637292706967" lon="17.965940815176">
        <ele>52.6</ele>
        <time>2017-11-27T18:06:30Z</time>
      </trkpt>
      <trkpt lat="62.637297819926" lon="17.966059921975">
        <ele>52.8</ele>
        <time>2017-11-27T18:06:31Z</time>
      </trkpt>
      <trkpt lat="62.637294802442" lon="17.96604860641">
        <ele>53</ele>
        <time>2017-11-27T18:06:32Z</time>
      </trkpt>
      <trkpt lat="62.637287677827" lon="17.966038967225">
        <ele>52.8</ele>
        <time>2017-11-27T18:06:33Z</time>
      </trkpt>
      <trkpt lat="62.637287007275" lon="17.966037961397">
        <ele>52.6</ele>
        <time>2017-11-27T18:06:34Z</time>
      </trkpt>
      <trkpt lat="62.637286336723" lon="17.966037961397">
        <ele>52.6</ele>
        <time>2017-11-27T18:06:35Z</time>
      </trkpt>
      <trkpt lat="62.637189274321" lon="17.965702350121">
        <ele>51.8</ele>
        <time>2017-11-27T18:06:52Z</time>
      </trkpt>
      <trkpt lat="62.637173013435" lon="17.965674270756">
        <ele>51.8</ele>
        <time>2017-11-27T18:06:53Z</time>
      </trkpt>
      <trkpt lat="62.63716085968" lon="17.965637390396">
        <ele>51.8</ele>
        <time>2017-11-27T18:06:54Z</time>
      </trkpt>
      <trkpt lat="62.637150214667" lon="17.965603192244">
        <ele>51.8</ele>
        <time>2017-11-27T18:06:55Z</time>
      </trkpt>
      <trkpt lat="62.637139988749" lon="17.965571592481">
        <ele>51.8</ele>
        <time>2017-11-27T18:06:56Z</time>
      </trkpt>
      <trkpt lat="62.637129259917" lon="17.965540830908">
        <ele>51.8</ele>
        <time>2017-11-27T18:06:57Z</time>
      </trkpt>
      <trkpt lat="62.637119201637" lon="17.96550797386">
        <ele>51.8</ele>
        <time>2017-11-27T18:06:58Z</time>
      </trkpt>
      <trkpt lat="62.637108640443" lon="17.965480481228">
        <ele>51.8</ele>
        <time>2017-11-27T18:06:59Z</time>
      </trkpt>
      <trkpt lat="62.637095145584" lon="17.965448965284">
        <ele>52</ele>
        <time>2017-11-27T18:07:00Z</time>
      </trkpt>
      <trkpt lat="62.63708290801" lon="17.965421305014">
        <ele>52</ele>
        <time>2017-11-27T18:07:01Z</time>
      </trkpt>
      <trkpt lat="62.637072430635" lon="17.965384592292">
        <ele>52.2</ele>
        <time>2017-11-27T18:07:02Z</time>
      </trkpt>
      <trkpt lat="62.637061785622" lon="17.965334133254">
        <ele>52.2</ele>
        <time>2017-11-27T18:07:03Z</time>
      </trkpt>
      <trkpt lat="62.63704938041" lon="17.965275459954">
        <ele>52.2</ele>
        <time>2017-11-27T18:07:04Z</time>
      </trkpt>
      <trkpt lat="62.637040411777" lon="17.965240926526">
        <ele>52</ele>
        <time>2017-11-27T18:07:05Z</time>
      </trkpt>
      <trkpt lat="62.637030269678" lon="17.965198095017">
        <ele>52</ele>
        <time>2017-11-27T18:07:06Z</time>
      </trkpt>
      <trkpt lat="62.637018786475" lon="17.965153838585">
        <ele>52.2</ele>
        <time>2017-11-27T18:07:07Z</time>
      </trkpt>
      <trkpt lat="62.63700747091" lon="17.96511570094">
        <ele>52</ele>
        <time>2017-11-27T18:07:08Z</time>
      </trkpt>
      <trkpt lat="62.636995903888" lon="17.965077647114">
        <ele>52</ele>
        <time>2017-11-27T18:07:09Z</time>
      </trkpt>
      <trkpt lat="62.636983414857" lon="17.96503858746">
        <ele>52</ele>
        <time>2017-11-27T18:07:10Z</time>
      </trkpt>
      <trkpt lat="62.636969919998" lon="17.964991984096">
        <ele>52.2</ele>
        <time>2017-11-27T18:07:11Z</time>
      </trkpt>
      <trkpt lat="62.636957347148" lon="17.96495476846">
        <ele>52</ele>
        <time>2017-11-27T18:07:12Z</time>
      </trkpt>
      <trkpt lat="62.636944439022" lon="17.964917636643">
        <ele>52</ele>
        <time>2017-11-27T18:07:13Z</time>
      </trkpt>
      <trkpt lat="62.636930692706" lon="17.964877571161">
        <ele>52.2</ele>
        <time>2017-11-27T18:07:14Z</time>
      </trkpt>
      <trkpt lat="62.636912587802" lon="17.964843373009">
        <ele>52.2</ele>
        <time>2017-11-27T18:07:15Z</time>
      </trkpt>
      <trkpt lat="62.636898087115" lon="17.964810348323">
        <ele>52</ele>
        <time>2017-11-27T18:07:16Z</time>
      </trkpt>
      <trkpt lat="62.636882077686" lon="17.964759554009">
        <ele>52</ele>
        <time>2017-11-27T18:07:17Z</time>
      </trkpt>
      <trkpt lat="62.636867912275" lon="17.964725858771">
        <ele>52.2</ele>
        <time>2017-11-27T18:07:18Z</time>
      </trkpt>
      <trkpt lat="62.636851148475" lon="17.964683949271">
        <ele>52.2</ele>
        <time>2017-11-27T18:07:19Z</time>
      </trkpt>
      <trkpt lat="62.636835977236" lon="17.964644302884">
        <ele>52.2</ele>
        <time>2017-11-27T18:07:20Z</time>
      </trkpt>
      <trkpt lat="62.636819800169" lon="17.964611362017">
        <ele>52.2</ele>
        <time>2017-11-27T18:07:21Z</time>
      </trkpt>
      <trkpt lat="62.636803371645" lon="17.964567608499">
        <ele>52.4</ele>
        <time>2017-11-27T18:07:22Z</time>
      </trkpt>
      <trkpt lat="62.636793145727" lon="17.964532404519">
        <ele>52.2</ele>
        <time>2017-11-27T18:07:23Z</time>
      </trkpt>
      <trkpt lat="62.636778225945" lon="17.964494099236">
        <ele>52</ele>
        <time>2017-11-27T18:07:24Z</time>
      </trkpt>
      <trkpt lat="62.636763389982" lon="17.964452860288">
        <ele>52</ele>
        <time>2017-11-27T18:07:25Z</time>
      </trkpt>
      <trkpt lat="62.636750230399" lon="17.964414555005">
        <ele>52</ele>
        <time>2017-11-27T18:07:26Z</time>
      </trkpt>
      <trkpt lat="62.636736232626" lon="17.964363090139">
        <ele>52.2</ele>
        <time>2017-11-27T18:07:27Z</time>
      </trkpt>
      <trkpt lat="62.636723073043" lon="17.96432361139">
        <ele>52</ele>
        <time>2017-11-27T18:07:28Z</time>
      </trkpt>
      <trkpt lat="62.63670823708" lon="17.964294526197">
        <ele>52</ele>
        <time>2017-11-27T18:07:29Z</time>
      </trkpt>
      <trkpt lat="62.636693401117" lon="17.964243731883">
        <ele>52.2</ele>
        <time>2017-11-27T18:07:30Z</time>
      </trkpt>
      <trkpt lat="62.636680995905" lon="17.964201487107">
        <ele>52</ele>
        <time>2017-11-27T18:07:31Z</time>
      </trkpt>
      <trkpt lat="62.636667752503" lon="17.964155805752">
        <ele>52</ele>
        <time>2017-11-27T18:07:32Z</time>
      </trkpt>
      <trkpt lat="62.636654760558" lon="17.964118925392">
        <ele>52</ele>
        <time>2017-11-27T18:07:33Z</time>
      </trkpt>
      <trkpt lat="62.636643109717" lon="17.964081290661">
        <ele>52</ele>
        <time>2017-11-27T18:07:34Z</time>
      </trkpt>
      <trkpt lat="62.636628106116" lon="17.96403527403">
        <ele>51.8</ele>
        <time>2017-11-27T18:07:35Z</time>
      </trkpt>
      <trkpt lat="62.636614862714" lon="17.963996298195">
        <ele>51.8</ele>
        <time>2017-11-27T18:07:36Z</time>
      </trkpt>
      <trkpt lat="62.636601367855" lon="17.963957741455">
        <ele>52</ele>
        <time>2017-11-27T18:07:37Z</time>
      </trkpt>
      <trkpt lat="62.636586531892" lon="17.963904097295">
        <ele>51.8</ele>
        <time>2017-11-27T18:07:38Z</time>
      </trkpt>
      <trkpt lat="62.636573791404" lon="17.963866965478">
        <ele>51.8</ele>
        <time>2017-11-27T18:07:39Z</time>
      </trkpt>
      <trkpt lat="62.636558033432" lon="17.963822206132">
        <ele>52</ele>
        <time>2017-11-27T18:07:40Z</time>
      </trkpt>
      <trkpt lat="62.636545125306" lon="17.963788259437">
        <ele>52</ele>
        <time>2017-11-27T18:07:41Z</time>
      </trkpt>
      <trkpt lat="62.636528110049" lon="17.963750708525">
        <ele>51.8</ele>
        <time>2017-11-27T18:07:42Z</time>
      </trkpt>
      <trkpt lat="62.636508412584" lon="17.963730508146">
        <ele>51.8</ele>
        <time>2017-11-27T18:07:43Z</time>
      </trkpt>
      <trkpt lat="62.636488882757" lon="17.963717851477">
        <ele>52</ele>
        <time>2017-11-27T18:07:44Z</time>
      </trkpt>
      <trkpt lat="62.636465413437" lon="17.963733022716">
        <ele>52</ele>
        <time>2017-11-27T18:07:45Z</time>
      </trkpt>
      <trkpt lat="62.636444374868" lon="17.963749535059">
        <ele>51.6</ele>
        <time>2017-11-27T18:07:46Z</time>
      </trkpt>
      <trkpt lat="62.636426856697" lon="17.963786163962">
        <ele>51.6</ele>
        <time>2017-11-27T18:07:47Z</time>
      </trkpt>
      <trkpt lat="62.63640816506" lon="17.963810974386">
        <ele>51.8</ele>
        <time>2017-11-27T18:07:48Z</time>
      </trkpt>
      <trkpt lat="62.636390814527" lon="17.963833856973">
        <ele>51.8</ele>
        <time>2017-11-27T18:07:49Z</time>
      </trkpt>
      <trkpt lat="62.636369859777" lon="17.963856152827">
        <ele>51.6</ele>
        <time>2017-11-27T18:07:50Z</time>
      </trkpt>
      <trkpt lat="62.63635116814" lon="17.963876437025">
        <ele>51.6</ele>
        <time>2017-11-27T18:07:51Z</time>
      </trkpt>
      <trkpt lat="62.636334991073" lon="17.963901582725">
        <ele>51.8</ele>
        <time>2017-11-27T18:07:52Z</time>
      </trkpt>
      <trkpt lat="62.636316969988" lon="17.963925554959">
        <ele>51.8</ele>
        <time>2017-11-27T18:07:53Z</time>
      </trkpt>
      <trkpt lat="62.63629920036" lon="17.963946928804">
        <ele>51.8</ele>
        <time>2017-11-27T18:07:54Z</time>
      </trkpt>
      <trkpt lat="62.63627405466" lon="17.963982216603">
        <ele>51.8</ele>
        <time>2017-11-27T18:07:55Z</time>
      </trkpt>
      <trkpt lat="62.636255530661" lon="17.964005266828">
        <ele>52</ele>
        <time>2017-11-27T18:07:56Z</time>
      </trkpt>
      <trkpt lat="62.636236587567" lon="17.96402605394">
        <ele>52</ele>
        <time>2017-11-27T18:07:57Z</time>
      </trkpt>
      <trkpt lat="62.636215297541" lon="17.964043320654">
        <ele>52</ele>
        <time>2017-11-27T18:07:58Z</time>
      </trkpt>
      <trkpt lat="62.636199371931" lon="17.964067041431">
        <ele>52.2</ele>
        <time>2017-11-27T18:07:59Z</time>
      </trkpt>
      <trkpt lat="62.636176740801" lon="17.964097635366">
        <ele>52.4</ele>
        <time>2017-11-27T18:08:00Z</time>
      </trkpt>
      <trkpt lat="62.636157294793" lon="17.964118506297">
        <ele>52.2</ele>
        <time>2017-11-27T18:08:01Z</time>
      </trkpt>
      <trkpt lat="62.636138686975" lon="17.964141137427">
        <ele>52.4</ele>
        <time>2017-11-27T18:08:02Z</time>
      </trkpt>
      <trkpt lat="62.636115469112" lon="17.964162762729">
        <ele>52.4</ele>
        <time>2017-11-27T18:08:03Z</time>
      </trkpt>
      <trkpt lat="62.63609719657" lon="17.964176844321">
        <ele>52.4</ele>
        <time>2017-11-27T18:08:04Z</time>
      </trkpt>
      <trkpt lat="62.636081857693" lon="17.964197212338">
        <ele>52.4</ele>
        <time>2017-11-27T18:08:05Z</time>
      </trkpt>
      <trkpt lat="62.636057131088" lon="17.964222441857">
        <ele>52.6</ele>
        <time>2017-11-27T18:08:06Z</time>
      </trkpt>
      <trkpt lat="62.636040367288" lon="17.964239960028">
        <ele>52.6</ele>
        <time>2017-11-27T18:08:07Z</time>
      </trkpt>
      <trkpt lat="62.636013209932" lon="17.964268961402">
        <ele>52.8</ele>
        <time>2017-11-27T18:08:08Z</time>
      </trkpt>
      <trkpt lat="62.635996446132" lon="17.964286814849">
        <ele>52.6</ele>
        <time>2017-11-27T18:08:09Z</time>
      </trkpt>
      <trkpt lat="62.635973731183" lon="17.964298214233">
        <ele>52.6</ele>
        <time>2017-11-27T18:08:10Z</time>
      </trkpt>
      <trkpt lat="62.635952022062" lon="17.964322940838">
        <ele>52.8</ele>
        <time>2017-11-27T18:08:11Z</time>
      </trkpt>
      <trkpt lat="62.635930983493" lon="17.964343644131">
        <ele>52.8</ele>
        <time>2017-11-27T18:08:12Z</time>
      </trkpt>
      <trkpt lat="62.635910447838" lon="17.964363173958">
        <ele>52.6</ele>
        <time>2017-11-27T18:08:13Z</time>
      </trkpt>
      <trkpt lat="62.635892762029" lon="17.96437474098">
        <ele>52.8</ele>
        <time>2017-11-27T18:08:14Z</time>
      </trkpt>
      <trkpt lat="62.635878764256" lon="17.964385050717">
        <ele>53</ele>
        <time>2017-11-27T18:08:15Z</time>
      </trkpt>
      <trkpt lat="62.635853618556" lon="17.964411369883">
        <ele>52.8</ele>
        <time>2017-11-27T18:08:16Z</time>
      </trkpt>
      <trkpt lat="62.635833334358" lon="17.964428720416">
        <ele>52.8</ele>
        <time>2017-11-27T18:08:17Z</time>
      </trkpt>
      <trkpt lat="62.635802824242" lon="17.964450010442">
        <ele>53</ele>
        <time>2017-11-27T18:08:18Z</time>
      </trkpt>
      <trkpt lat="62.635786647175" lon="17.964464678767">
        <ele>53</ele>
        <time>2017-11-27T18:08:19Z</time>
      </trkpt>
      <trkpt lat="62.635763932226" lon="17.964484124775">
        <ele>53</ele>
        <time>2017-11-27T18:08:20Z</time>
      </trkpt>
      <trkpt lat="62.635739792354" lon="17.964506504448">
        <ele>53</ele>
        <time>2017-11-27T18:08:21Z</time>
      </trkpt>
      <trkpt lat="62.635721268355" lon="17.964516059814">
        <ele>53.2</ele>
        <time>2017-11-27T18:08:22Z</time>
      </trkpt>
      <trkpt lat="62.635697044664" lon="17.964531063415">
        <ele>53.2</ele>
        <time>2017-11-27T18:08:23Z</time>
      </trkpt>
      <trkpt lat="62.635672737154" lon="17.964550174147">
        <ele>53.4</ele>
        <time>2017-11-27T18:08:24Z</time>
      </trkpt>
      <trkpt lat="62.635651698585" lon="17.964569787793">
        <ele>53.4</ele>
        <time>2017-11-27T18:08:25Z</time>
      </trkpt>
      <trkpt lat="62.63563032474" lon="17.964590742543">
        <ele>53.4</ele>
        <time>2017-11-27T18:08:26Z</time>
      </trkpt>
      <trkpt lat="62.635613644759" lon="17.964602896298">
        <ele>53.6</ele>
        <time>2017-11-27T18:08:27Z</time>
      </trkpt>
      <trkpt lat="62.635585733032" lon="17.964618989546">
        <ele>53.8</ele>
        <time>2017-11-27T18:08:28Z</time>
      </trkpt>
      <trkpt lat="62.635566454662" lon="17.964634915156">
        <ele>53.8</ele>
        <time>2017-11-27T18:08:29Z</time>
      </trkpt>
      <trkpt lat="62.635543488256" lon="17.9646580492">
        <ele>53.8</ele>
        <time>2017-11-27T18:08:30Z</time>
      </trkpt>
      <trkpt lat="62.635515995624" lon="17.964670789688">
        <ele>54</ele>
        <time>2017-11-27T18:08:31Z</time>
      </trkpt>
      <trkpt lat="62.635495711426" lon="17.964689984239">
        <ele>53.8</ele>
        <time>2017-11-27T18:08:32Z</time>
      </trkpt>
      <trkpt lat="62.635472409744" lon="17.964707837686">
        <ele>53.8</ele>
        <time>2017-11-27T18:08:33Z</time>
      </trkpt>
      <trkpt lat="62.635450281528" lon="17.964720829631">
        <ele>54</ele>
        <time>2017-11-27T18:08:34Z</time>
      </trkpt>
      <trkpt lat="62.635427985674" lon="17.964729462988">
        <ele>53.8</ele>
        <time>2017-11-27T18:08:35Z</time>
      </trkpt>
      <trkpt lat="62.635395380083" lon="17.964754692507">
        <ele>54</ele>
        <time>2017-11-27T18:08:36Z</time>
      </trkpt>
      <trkpt lat="62.635377107541" lon="17.96476533752">
        <ele>54</ele>
        <time>2017-11-27T18:08:37Z</time>
      </trkpt>
      <trkpt lat="62.635352632393" lon="17.964776401628">
        <ele>54.2</ele>
        <time>2017-11-27T18:08:38Z</time>
      </trkpt>
      <trkpt lat="62.635325475037" lon="17.964789561211">
        <ele>54</ele>
        <time>2017-11-27T18:08:39Z</time>
      </trkpt>
      <trkpt lat="62.635307537771" lon="17.964800792957">
        <ele>54.2</ele>
        <time>2017-11-27T18:08:40Z</time>
      </trkpt>
      <trkpt lat="62.635285493374" lon="17.964800373862">
        <ele>54.2</ele>
        <time>2017-11-27T18:08:41Z</time>
      </trkpt>
      <trkpt lat="62.635261856416" lon="17.964823843182">
        <ele>54.4</ele>
        <time>2017-11-27T18:08:42Z</time>
      </trkpt>
      <trkpt lat="62.635234950517" lon="17.964835913118">
        <ele>54.4</ele>
        <time>2017-11-27T18:08:43Z</time>
      </trkpt>
      <trkpt lat="62.635211648835" lon="17.964843792104">
        <ele>54.4</ele>
        <time>2017-11-27T18:08:44Z</time>
      </trkpt>
      <trkpt lat="62.635192370465" lon="17.964851838728">
        <ele>54.4</ele>
        <time>2017-11-27T18:08:45Z</time>
      </trkpt>
      <trkpt lat="62.635165045471" lon="17.96486005299">
        <ele>54.6</ele>
        <time>2017-11-27T18:08:46Z</time>
      </trkpt>
      <trkpt lat="62.635138893943" lon="17.964876481514">
        <ele>54.4</ele>
        <time>2017-11-27T18:08:47Z</time>
      </trkpt>
      <trkpt lat="62.635116262813" lon="17.964880756283">
        <ele>54.4</ele>
        <time>2017-11-27T18:08:48Z</time>
      </trkpt>
      <trkpt lat="62.635091787665" lon="17.964891149839">
        <ele>54.4</ele>
        <time>2017-11-27T18:08:49Z</time>
      </trkpt>
      <trkpt lat="62.635064797947" lon="17.964904812336">
        <ele>54.6</ele>
        <time>2017-11-27T18:08:50Z</time>
      </trkpt>
      <trkpt lat="62.635040406618" lon="17.964909841476">
        <ele>54.6</ele>
        <time>2017-11-27T18:08:51Z</time>
      </trkpt>
      <trkpt lat="62.635022134076" lon="17.964914619159">
        <ele>54.6</ele>
        <time>2017-11-27T18:08:52Z</time>
      </trkpt>
      <trkpt lat="62.634992545969" lon="17.964923252516">
        <ele>54.8</ele>
        <time>2017-11-27T18:08:53Z</time>
      </trkpt>
      <trkpt lat="62.63496731645" lon="17.964928365475">
        <ele>54.8</ele>
        <time>2017-11-27T18:08:54Z</time>
      </trkpt>
      <trkpt lat="62.634945858786" lon="17.964935070995">
        <ele>54.6</ele>
        <time>2017-11-27T18:08:55Z</time>
      </trkpt>
      <trkpt lat="62.634912917919" lon="17.96494471018">
        <ele>54.8</ele>
        <time>2017-11-27T18:08:56Z</time>
      </trkpt>
      <trkpt lat="62.63488852659" lon="17.964947476207">
        <ele>55</ele>
        <time>2017-11-27T18:08:57Z</time>
      </trkpt>
      <trkpt lat="62.634866063098" lon="17.964951750976">
        <ele>55</ele>
        <time>2017-11-27T18:08:58Z</time>
      </trkpt>
      <trkpt lat="62.634839324837" lon="17.964955858107">
        <ele>55</ele>
        <time>2017-11-27T18:08:59Z</time>
      </trkpt>
      <trkpt lat="62.63480973673" lon="17.964962982722">
        <ele>55.2</ele>
        <time>2017-11-27T18:09:00Z</time>
      </trkpt>
      <trkpt lat="62.634784339573" lon="17.964964742921">
        <ele>55.2</ele>
        <time>2017-11-27T18:09:01Z</time>
      </trkpt>
      <trkpt lat="62.634756511665" lon="17.964961809256">
        <ele>55</ele>
        <time>2017-11-27T18:09:02Z</time>
      </trkpt>
      <trkpt lat="62.634730276318" lon="17.964964659102">
        <ele>55.2</ele>
        <time>2017-11-27T18:09:03Z</time>
      </trkpt>
      <trkpt lat="62.634706471722" lon="17.964955941926">
        <ele>55.2</ele>
        <time>2017-11-27T18:09:04Z</time>
      </trkpt>
      <trkpt lat="62.634685600791" lon="17.964960216695">
        <ele>55.2</ele>
        <time>2017-11-27T18:09:05Z</time>
      </trkpt>
      <trkpt lat="62.634658108159" lon="17.964957450668">
        <ele>55.2</ele>
        <time>2017-11-27T18:09:06Z</time>
      </trkpt>
      <trkpt lat="62.634633046278" lon="17.964949990777">
        <ele>55.2</ele>
        <time>2017-11-27T18:09:07Z</time>
      </trkpt>
      <trkpt lat="62.634602117067" lon="17.964956780116">
        <ele>55.4</ele>
        <time>2017-11-27T18:09:08Z</time>
      </trkpt>
      <trkpt lat="62.634576133177" lon="17.964953343537">
        <ele>55.4</ele>
        <time>2017-11-27T18:09:09Z</time>
      </trkpt>
      <trkpt lat="62.634552915314" lon="17.964954852279">
        <ele>55.2</ele>
        <time>2017-11-27T18:09:10Z</time>
      </trkpt>
      <trkpt lat="62.634524165397" lon="17.964959210867">
        <ele>55.6</ele>
        <time>2017-11-27T18:09:11Z</time>
      </trkpt>
      <trkpt lat="62.634498935878" lon="17.964956528659">
        <ele>55.6</ele>
        <time>2017-11-27T18:09:12Z</time>
      </trkpt>
      <trkpt lat="62.634473873997" lon="17.964957618306">
        <ele>55.6</ele>
        <time>2017-11-27T18:09:13Z</time>
      </trkpt>
      <trkpt lat="62.63445015322" lon="17.964961641618">
        <ele>55.6</ele>
        <time>2017-11-27T18:09:14Z</time>
      </trkpt>
      <trkpt lat="62.634423834054" lon="17.964963317998">
        <ele>55.8</ele>
        <time>2017-11-27T18:09:15Z</time>
      </trkpt>
      <trkpt lat="62.634396592879" lon="17.964967592767">
        <ele>55.8</ele>
        <time>2017-11-27T18:09:16Z</time>
      </trkpt>
      <trkpt lat="62.634369351704" lon="17.964959965238">
        <ele>55.8</ele>
        <time>2017-11-27T18:09:17Z</time>
      </trkpt>
      <trkpt lat="62.634343451633" lon="17.964966586939">
        <ele>56</ele>
        <time>2017-11-27T18:09:18Z</time>
      </trkpt>
      <trkpt lat="62.634323418892" lon="17.964964742921">
        <ele>56.2</ele>
        <time>2017-11-27T18:09:19Z</time>
      </trkpt>
      <trkpt lat="62.634290729482" lon="17.964972789545">
        <ele>56.2</ele>
        <time>2017-11-27T18:09:20Z</time>
      </trkpt>
      <trkpt lat="62.634269355637" lon="17.964964323826">
        <ele>56.2</ele>
        <time>2017-11-27T18:09:21Z</time>
      </trkpt>
      <trkpt lat="62.634242030643" lon="17.964961641618">
        <ele>56.2</ele>
        <time>2017-11-27T18:09:22Z</time>
      </trkpt>
      <trkpt lat="62.634214873287" lon="17.964960049057">
        <ele>56.4</ele>
        <time>2017-11-27T18:09:23Z</time>
      </trkpt>
      <trkpt lat="62.634188721759" lon="17.964956277202">
        <ele>56.4</ele>
        <time>2017-11-27T18:09:24Z</time>
      </trkpt>
      <trkpt lat="62.634164246611" lon="17.964952756804">
        <ele>56.4</ele>
        <time>2017-11-27T18:09:25Z</time>
      </trkpt>
      <trkpt lat="62.63413834654" lon="17.964950745148">
        <ele>56.4</ele>
        <time>2017-11-27T18:09:26Z</time>
      </trkpt>
      <trkpt lat="62.634111021546" lon="17.964947308569">
        <ele>56.6</ele>
        <time>2017-11-27T18:09:27Z</time>
      </trkpt>
      <trkpt lat="62.634088558054" lon="17.964945296913">
        <ele>56.6</ele>
        <time>2017-11-27T18:09:28Z</time>
      </trkpt>
      <trkpt lat="62.634061903612" lon="17.964945716008">
        <ele>56.4</ele>
        <time>2017-11-27T18:09:29Z</time>
      </trkpt>
      <trkpt lat="62.634034243342" lon="17.964941525058">
        <ele>56.6</ele>
        <time>2017-11-27T18:09:30Z</time>
      </trkpt>
      <trkpt lat="62.634008846185" lon="17.964939429583">
        <ele>56.6</ele>
        <time>2017-11-27T18:09:31Z</time>
      </trkpt>
      <trkpt lat="62.633983616666" lon="17.964937082651">
        <ele>56.6</ele>
        <time>2017-11-27T18:09:32Z</time>
      </trkpt>
      <trkpt lat="62.633961236993" lon="17.964935238633">
        <ele>56.6</ele>
        <time>2017-11-27T18:09:33Z</time>
      </trkpt>
      <trkpt lat="62.633935756017" lon="17.964942111791">
        <ele>56.8</ele>
        <time>2017-11-27T18:09:34Z</time>
      </trkpt>
      <trkpt lat="62.633911364688" lon="17.964961725437">
        <ele>56.8</ele>
        <time>2017-11-27T18:09:35Z</time>
      </trkpt>
      <trkpt lat="62.633889571748" lon="17.964977902504">
        <ele>57</ele>
        <time>2017-11-27T18:09:36Z</time>
      </trkpt>
      <trkpt lat="62.633874987242" lon="17.965020314918">
        <ele>57</ele>
        <time>2017-11-27T18:09:37Z</time>
      </trkpt>
      <trkpt lat="62.633864928962" lon="17.965058368744">
        <ele>57.4</ele>
        <time>2017-11-27T18:09:38Z</time>
      </trkpt>
      <trkpt lat="62.633856630881" lon="17.965098853321">
        <ele>57.4</ele>
        <time>2017-11-27T18:09:39Z</time>
      </trkpt>
      <trkpt lat="62.633856127967" lon="17.965159370639">
        <ele>57.2</ele>
        <time>2017-11-27T18:09:40Z</time>
      </trkpt>
      <trkpt lat="62.633860151279" lon="17.96520957822">
        <ele>57.4</ele>
        <time>2017-11-27T18:09:41Z</time>
      </trkpt>
      <trkpt lat="62.633860318917" lon="17.965257187412">
        <ele>57.8</ele>
        <time>2017-11-27T18:09:42Z</time>
      </trkpt>
      <trkpt lat="62.633862330573" lon="17.965301192387">
        <ele>57.8</ele>
        <time>2017-11-27T18:09:43Z</time>
      </trkpt>
      <trkpt lat="62.633865599514" lon="17.965344275353">
        <ele>57.8</ele>
        <time>2017-11-27T18:09:44Z</time>
      </trkpt>
      <trkpt lat="62.633866353885" lon="17.965393058011">
        <ele>58.2</ele>
        <time>2017-11-27T18:09:45Z</time>
      </trkpt>
      <trkpt lat="62.633869203731" lon="17.96543924228">
        <ele>58.4</ele>
        <time>2017-11-27T18:09:46Z</time>
      </trkpt>
      <trkpt lat="62.633874819604" lon="17.965493305535">
        <ele>58.6</ele>
        <time>2017-11-27T18:09:47Z</time>
      </trkpt>
      <trkpt lat="62.633877501812" lon="17.965541250003">
        <ele>59</ele>
        <time>2017-11-27T18:09:48Z</time>
      </trkpt>
      <trkpt lat="62.633878256183" lon="17.965586679901">
        <ele>59.2</ele>
        <time>2017-11-27T18:09:49Z</time>
      </trkpt>
      <trkpt lat="62.6338818604" lon="17.965636803663">
        <ele>59.4</ele>
        <time>2017-11-27T18:09:50Z</time>
      </trkpt>
      <trkpt lat="62.633883788237" lon="17.965683742303">
        <ele>59.4</ele>
        <time>2017-11-27T18:09:51Z</time>
      </trkpt>
      <trkpt lat="62.633884542608" lon="17.965731435314">
        <ele>59.8</ele>
        <time>2017-11-27T18:09:52Z</time>
      </trkpt>
      <trkpt lat="62.633886302807" lon="17.965783822189">
        <ele>60</ele>
        <time>2017-11-27T18:09:53Z</time>
      </trkpt>
      <trkpt lat="62.633886638083" lon="17.965829252087">
        <ele>60</ele>
        <time>2017-11-27T18:09:54Z</time>
      </trkpt>
      <trkpt lat="62.633885464617" lon="17.96588096841">
        <ele>60.4</ele>
        <time>2017-11-27T18:09:55Z</time>
      </trkpt>
      <trkpt lat="62.633884542608" lon="17.965926817403">
        <ele>60.6</ele>
        <time>2017-11-27T18:09:56Z</time>
      </trkpt>
      <trkpt lat="62.633881273667" lon="17.965977192622">
        <ele>60.6</ele>
        <time>2017-11-27T18:09:57Z</time>
      </trkpt>
      <trkpt lat="62.633876160708" lon="17.966031339696">
        <ele>60.6</ele>
        <time>2017-11-27T18:09:58Z</time>
      </trkpt>
      <trkpt lat="62.633874232871" lon="17.966048438772">
        <ele>60.8</ele>
        <time>2017-11-27T18:09:59Z</time>
      </trkpt>
      <trkpt lat="62.63386593479" lon="17.966120774569">
        <ele>61</ele>
        <time>2017-11-27T18:10:00Z</time>
      </trkpt>
      <trkpt lat="62.63386342022" lon="17.966162516431">
        <ele>61</ele>
        <time>2017-11-27T18:10:01Z</time>
      </trkpt>
      <trkpt lat="62.633861073288" lon="17.966203587741">
        <ele>61</ele>
        <time>2017-11-27T18:10:02Z</time>
      </trkpt>
      <trkpt lat="62.633864928962" lon="17.966208533062">
        <ele>61.2</ele>
        <time>2017-11-27T18:10:03Z</time>
      </trkpt>
      <trkpt lat="62.633867359713" lon="17.966222866111">
        <ele>61.6</ele>
        <time>2017-11-27T18:10:04Z</time>
      </trkpt>
      <trkpt lat="62.633857720528" lon="17.966236612427">
        <ele>61.8</ele>
        <time>2017-11-27T18:10:05Z</time>
      </trkpt>
      <trkpt lat="62.63384078909" lon="17.966253795322">
        <ele>61.8</ele>
        <time>2017-11-27T18:10:06Z</time>
      </trkpt>
      <trkpt lat="62.633813464096" lon="17.96627491771">
        <ele>61.8</ele>
        <time>2017-11-27T18:10:07Z</time>
      </trkpt>
      <trkpt lat="62.633790413871" lon="17.966286065637">
        <ele>61.8</ele>
        <time>2017-11-27T18:10:08Z</time>
      </trkpt>
      <trkpt lat="62.63376954294" lon="17.966293944623">
        <ele>62</ele>
        <time>2017-11-27T18:10:09Z</time>
      </trkpt>
      <trkpt lat="62.633747414724" lon="17.966302745618">
        <ele>62.2</ele>
        <time>2017-11-27T18:10:10Z</time>
      </trkpt>
      <trkpt lat="62.633720005911" lon="17.966301488333">
        <ele>62.2</ele>
        <time>2017-11-27T18:10:11Z</time>
      </trkpt>
      <trkpt lat="62.633693602926" lon="17.966315486106">
        <ele>62.4</ele>
        <time>2017-11-27T18:10:12Z</time>
      </trkpt>
      <trkpt lat="62.633667451398" lon="17.966313390631">
        <ele>62.6</ele>
        <time>2017-11-27T18:10:13Z</time>
      </trkpt>
      <trkpt lat="62.63364046168" lon="17.966318084495">
        <ele>62.6</ele>
        <time>2017-11-27T18:10:14Z</time>
      </trkpt>
      <trkpt lat="62.633616489446" lon="17.966322945997">
        <ele>62.4</ele>
        <time>2017-11-27T18:10:15Z</time>
      </trkpt>
      <trkpt lat="62.633592265755" lon="17.966325963481">
        <ele>62.4</ele>
        <time>2017-11-27T18:10:16Z</time>
      </trkpt>
      <trkpt lat="62.633569047892" lon="17.966324203282">
        <ele>62.4</ele>
        <time>2017-11-27T18:10:17Z</time>
      </trkpt>
      <trkpt lat="62.633544572744" lon="17.966323365092">
        <ele>62.2</ele>
        <time>2017-11-27T18:10:18Z</time>
      </trkpt>
      <trkpt lat="62.633520013777" lon="17.966320515246">
        <ele>62.2</ele>
        <time>2017-11-27T18:10:19Z</time>
      </trkpt>
      <trkpt lat="62.633495203353" lon="17.966325628205">
        <ele>62.2</ele>
        <time>2017-11-27T18:10:20Z</time>
      </trkpt>
      <trkpt lat="62.633470728205" lon="17.966325041472">
        <ele>62</ele>
        <time>2017-11-27T18:10:21Z</time>
      </trkpt>
      <trkpt lat="62.633445582505" lon="17.966324035644">
        <ele>62</ele>
        <time>2017-11-27T18:10:22Z</time>
      </trkpt>
      <trkpt lat="62.633419850072" lon="17.966330322069">
        <ele>62.2</ele>
        <time>2017-11-27T18:10:23Z</time>
      </trkpt>
      <trkpt lat="62.633396380752" lon="17.96632940006">
        <ele>62</ele>
        <time>2017-11-27T18:10:24Z</time>
      </trkpt>
      <trkpt lat="62.633371318871" lon="17.966333171915">
        <ele>62</ele>
        <time>2017-11-27T18:10:25Z</time>
      </trkpt>
      <trkpt lat="62.633345167343" lon="17.966334932114">
        <ele>62</ele>
        <time>2017-11-27T18:10:26Z</time>
      </trkpt>
      <trkpt lat="62.633318512901" lon="17.966338201055">
        <ele>62</ele>
        <time>2017-11-27T18:10:27Z</time>
      </trkpt>
      <trkpt lat="62.633294121572" lon="17.966342392005">
        <ele>61.8</ele>
        <time>2017-11-27T18:10:28Z</time>
      </trkpt>
      <trkpt lat="62.633270065519" lon="17.966341721453">
        <ele>61.8</ele>
        <time>2017-11-27T18:10:29Z</time>
      </trkpt>
      <trkpt lat="62.633243746353" lon="17.966344236023">
        <ele>61.8</ele>
        <time>2017-11-27T18:10:30Z</time>
      </trkpt>
      <trkpt lat="62.63322052849" lon="17.966346666774">
        <ele>61.6</ele>
        <time>2017-11-27T18:10:31Z</time>
      </trkpt>
      <trkpt lat="62.633195801885" lon="17.966349768077">
        <ele>61.8</ele>
        <time>2017-11-27T18:10:32Z</time>
      </trkpt>
      <trkpt lat="62.633172081108" lon="17.966352450285">
        <ele>61.6</ele>
        <time>2017-11-27T18:10:33Z</time>
      </trkpt>
      <trkpt lat="62.633150204349" lon="17.96635538395">
        <ele>61.4</ele>
        <time>2017-11-27T18:10:34Z</time>
      </trkpt>
      <trkpt lat="62.633122544079" lon="17.966354881036">
        <ele>61.4</ele>
        <time>2017-11-27T18:10:35Z</time>
      </trkpt>
      <trkpt lat="62.633098068931" lon="17.966358233796">
        <ele>61.6</ele>
        <time>2017-11-27T18:10:36Z</time>
      </trkpt>
      <trkpt lat="62.633071917403" lon="17.966372566845">
        <ele>61.4</ele>
        <time>2017-11-27T18:10:37Z</time>
      </trkpt>
      <trkpt lat="62.63304702316" lon="17.966383714772">
        <ele>61.4</ele>
        <time>2017-11-27T18:10:38Z</time>
      </trkpt>
      <trkpt lat="62.633023050926" lon="17.966393437776">
        <ele>61.4</ele>
        <time>2017-11-27T18:10:39Z</time>
      </trkpt>
      <trkpt lat="62.63300092271" lon="17.966392515767">
        <ele>61.4</ele>
        <time>2017-11-27T18:10:40Z</time>
      </trkpt>
      <trkpt lat="62.632973178621" lon="17.966393186319">
        <ele>61.2</ele>
        <time>2017-11-27T18:10:41Z</time>
      </trkpt>
      <trkpt lat="62.632949876939" lon="17.966391509939">
        <ele>61.2</ele>
        <time>2017-11-27T18:10:42Z</time>
      </trkpt>
      <trkpt lat="62.632926742895" lon="17.9663847206">
        <ele>61.2</ele>
        <time>2017-11-27T18:10:43Z</time>
      </trkpt>
      <trkpt lat="62.632903273575" lon="17.966379356184">
        <ele>61.2</ele>
        <time>2017-11-27T18:10:44Z</time>
      </trkpt>
      <trkpt lat="62.632881983549" lon="17.966375332872">
        <ele>61</ele>
        <time>2017-11-27T18:10:45Z</time>
      </trkpt>
      <trkpt lat="62.632860609704" lon="17.966369549361">
        <ele>61</ele>
        <time>2017-11-27T18:10:46Z</time>
      </trkpt>
      <trkpt lat="62.632835044909" lon="17.966366028963">
        <ele>60.8</ele>
        <time>2017-11-27T18:10:47Z</time>
      </trkpt>
      <trkpt lat="62.632811827046" lon="17.966362173289">
        <ele>60.8</ele>
        <time>2017-11-27T18:10:48Z</time>
      </trkpt>
      <trkpt lat="62.632789615011" lon="17.966357730882">
        <ele>60.8</ele>
        <time>2017-11-27T18:10:49Z</time>
      </trkpt>
      <trkpt lat="62.632765475139" lon="17.966357395606">
        <ele>60.6</ele>
        <time>2017-11-27T18:10:50Z</time>
      </trkpt>
      <trkpt lat="62.632743766018" lon="17.966354713398">
        <ele>60.6</ele>
        <time>2017-11-27T18:10:51Z</time>
      </trkpt>
      <trkpt lat="62.632720045241" lon="17.966357227968">
        <ele>60.6</ele>
        <time>2017-11-27T18:10:52Z</time>
      </trkpt>
      <trkpt lat="62.632690708591" lon="17.966354881036">
        <ele>60.4</ele>
        <time>2017-11-27T18:10:53Z</time>
      </trkpt>
      <trkpt lat="62.632667658366" lon="17.966355467769">
        <ele>60.2</ele>
        <time>2017-11-27T18:10:54Z</time>
      </trkpt>
      <trkpt lat="62.632638656992" lon="17.966350773905">
        <ele>60.2</ele>
        <time>2017-11-27T18:10:55Z</time>
      </trkpt>
      <trkpt lat="62.632615271491" lon="17.966345074213">
        <ele>60.2</ele>
        <time>2017-11-27T18:10:56Z</time>
      </trkpt>
      <trkpt lat="62.632590461067" lon="17.966338452512">
        <ele>60</ele>
        <time>2017-11-27T18:10:57Z</time>
      </trkpt>
      <trkpt lat="62.632565566824" lon="17.966330908802">
        <ele>60</ele>
        <time>2017-11-27T18:10:58Z</time>
      </trkpt>
      <trkpt lat="62.632543773884" lon="17.966329148603">
        <ele>60.2</ele>
        <time>2017-11-27T18:10:59Z</time>
      </trkpt>
      <trkpt lat="62.632515107786" lon="17.966326298757">
        <ele>60</ele>
        <time>2017-11-27T18:11:00Z</time>
      </trkpt>
      <trkpt lat="62.632489040077" lon="17.966322023988">
        <ele>59.8</ele>
        <time>2017-11-27T18:11:01Z</time>
      </trkpt>
      <trkpt lat="62.632462720911" lon="17.966318587409">
        <ele>60</ele>
        <time>2017-11-27T18:11:02Z</time>
      </trkpt>
      <trkpt lat="62.632436904659" lon="17.966313725907">
        <ele>59.8</ele>
        <time>2017-11-27T18:11:03Z</time>
      </trkpt>
      <trkpt lat="62.632411842778" lon="17.96630760712">
        <ele>59.8</ele>
        <time>2017-11-27T18:11:04Z</time>
      </trkpt>
      <trkpt lat="62.6323815003" lon="17.966315821382">
        <ele>59.8</ele>
        <time>2017-11-27T18:11:05Z</time>
      </trkpt>
      <trkpt lat="62.632354426763" lon="17.966318252133">
        <ele>59.6</ele>
        <time>2017-11-27T18:11:06Z</time>
      </trkpt>
      <trkpt lat="62.632328359054" lon="17.966325712024">
        <ele>59.4</ele>
        <time>2017-11-27T18:11:07Z</time>
      </trkpt>
      <trkpt lat="62.632303632449" lon="17.966338284874">
        <ele>59.4</ele>
        <time>2017-11-27T18:11:08Z</time>
      </trkpt>
      <trkpt lat="62.632280246948" lon="17.966352617923">
        <ele>59.2</ele>
        <time>2017-11-27T18:11:09Z</time>
      </trkpt>
      <trkpt lat="62.632263818424" lon="17.966389163007">
        <ele>59</ele>
        <time>2017-11-27T18:11:10Z</time>
      </trkpt>
      <trkpt lat="62.632249401556" lon="17.966438951493">
        <ele>59</ele>
        <time>2017-11-27T18:11:11Z</time>
      </trkpt>
      <trkpt lat="62.632235990516" lon="17.966484884305">
        <ele>59</ele>
        <time>2017-11-27T18:11:12Z</time>
      </trkpt>
      <trkpt lat="62.63223230248" lon="17.966530900936">
        <ele>58.8</ele>
        <time>2017-11-27T18:11:13Z</time>
      </trkpt>
      <trkpt lat="62.63222559696" lon="17.966579599775">
        <ele>59</ele>
        <time>2017-11-27T18:11:14Z</time>
      </trkpt>
      <trkpt lat="62.632220903096" lon="17.96662863389">
        <ele>59</ele>
        <time>2017-11-27T18:11:15Z</time>
      </trkpt>
      <trkpt lat="62.632215287223" lon="17.966676159263">
        <ele>59</ele>
        <time>2017-11-27T18:11:16Z</time>
      </trkpt>
      <trkpt lat="62.632209503712" lon="17.966730809251">
        <ele>59.2</ele>
        <time>2017-11-27T18:11:17Z</time>
      </trkpt>
      <trkpt lat="62.632204223115" lon="17.966777328796">
        <ele>59.4</ele>
        <time>2017-11-27T18:11:18Z</time>
      </trkpt>
      <trkpt lat="62.632198858699" lon="17.966821249952">
        <ele>59.4</ele>
        <time>2017-11-27T18:11:19Z</time>
      </trkpt>
      <trkpt lat="62.632195505939" lon="17.966877241044">
        <ele>59.6</ele>
        <time>2017-11-27T18:11:20Z</time>
      </trkpt>
      <trkpt lat="62.632191147351" lon="17.966928622091">
        <ele>59.8</ele>
        <time>2017-11-27T18:11:21Z</time>
      </trkpt>
      <trkpt lat="62.632186369668" lon="17.966979332586">
        <ele>60</ele>
        <time>2017-11-27T18:11:22Z</time>
      </trkpt>
      <trkpt lat="62.632178993596" lon="17.967030043081">
        <ele>60.2</ele>
        <time>2017-11-27T18:11:23Z</time>
      </trkpt>
      <trkpt lat="62.632173210085" lon="17.967076897902">
        <ele>60.4</ele>
        <time>2017-11-27T18:11:24Z</time>
      </trkpt>
      <trkpt lat="62.63216440909" lon="17.967126267293">
        <ele>60.6</ele>
        <time>2017-11-27T18:11:25Z</time>
      </trkpt>
      <trkpt lat="62.632156949199" lon="17.967173373571">
        <ele>61</ele>
        <time>2017-11-27T18:11:26Z</time>
      </trkpt>
      <trkpt lat="62.632148986394" lon="17.967217797641">
        <ele>61.2</ele>
        <time>2017-11-27T18:11:27Z</time>
      </trkpt>
      <trkpt lat="62.632139766304" lon="17.967264736281">
        <ele>61.2</ele>
        <time>2017-11-27T18:11:28Z</time>
      </trkpt>
      <trkpt lat="62.632131887318" lon="17.967310585274">
        <ele>61.6</ele>
        <time>2017-11-27T18:11:29Z</time>
      </trkpt>
      <trkpt lat="62.632119314468" lon="17.967360122303">
        <ele>61.8</ele>
        <time>2017-11-27T18:11:30Z</time>
      </trkpt>
      <trkpt lat="62.632108166541" lon="17.967404546373">
        <ele>62</ele>
        <time>2017-11-27T18:11:31Z</time>
      </trkpt>
      <trkpt lat="62.632096096605" lon="17.967449557176">
        <ele>62.2</ele>
        <time>2017-11-27T18:11:32Z</time>
      </trkpt>
      <trkpt lat="62.632082434108" lon="17.967497669282">
        <ele>62.4</ele>
        <time>2017-11-27T18:11:33Z</time>
      </trkpt>
      <trkpt lat="62.632066089403" lon="17.967539914058">
        <ele>62.4</ele>
        <time>2017-11-27T18:11:34Z</time>
      </trkpt>
      <trkpt lat="62.63205712077" lon="17.967566987595">
        <ele>62.6</ele>
        <time>2017-11-27T18:11:35Z</time>
      </trkpt>
      <trkpt lat="62.632044296463" lon="17.967606382525">
        <ele>62.8</ele>
        <time>2017-11-27T18:11:36Z</time>
      </trkpt>
      <trkpt lat="62.632031639794" lon="17.96764535836">
        <ele>63</ele>
        <time>2017-11-27T18:11:37Z</time>
      </trkpt>
      <trkpt lat="62.632018396392" lon="17.967685340023">
        <ele>63</ele>
        <time>2017-11-27T18:11:38Z</time>
      </trkpt>
      <trkpt lat="62.632003895705" lon="17.967727668618">
        <ele>63.4</ele>
        <time>2017-11-27T18:11:39Z</time>
      </trkpt>
      <trkpt lat="62.631991993407" lon="17.967763375512">
        <ele>63.4</ele>
        <time>2017-11-27T18:11:40Z</time>
      </trkpt>
      <trkpt lat="62.631974223779" lon="17.967808637772">
        <ele>63.6</ele>
        <time>2017-11-27T18:11:41Z</time>
      </trkpt>
      <trkpt lat="62.631959723092" lon="17.967846188684">
        <ele>64</ele>
        <time>2017-11-27T18:11:42Z</time>
      </trkpt>
      <trkpt lat="62.631946060595" lon="17.967883320501">
        <ele>64.2</ele>
        <time>2017-11-27T18:11:43Z</time>
      </trkpt>
      <trkpt lat="62.631932984831" lon="17.96792112287">
        <ele>64.2</ele>
        <time>2017-11-27T18:11:44Z</time>
      </trkpt>
      <trkpt lat="62.631915801936" lon="17.96796638513">
        <ele>64.6</ele>
        <time>2017-11-27T18:11:45Z</time>
      </trkpt>
      <trkpt lat="62.631902726172" lon="17.968003768404">
        <ele>64.8</ele>
        <time>2017-11-27T18:11:46Z</time>
      </trkpt>
      <trkpt lat="62.631885375639" lon="17.968048360112">
        <ele>65</ele>
        <time>2017-11-27T18:11:47Z</time>
      </trkpt>
      <trkpt lat="62.631871377866" lon="17.968088509413">
        <ele>65.2</ele>
        <time>2017-11-27T18:11:48Z</time>
      </trkpt>
      <trkpt lat="62.631858134464" lon="17.968126898515">
        <ele>65.4</ele>
        <time>2017-11-27T18:11:49Z</time>
      </trkpt>
      <trkpt lat="62.631841286845" lon="17.968167383092">
        <ele>65.6</ele>
        <time>2017-11-27T18:11:50Z</time>
      </trkpt>
      <trkpt lat="62.631827959624" lon="17.968206275108">
        <ele>65.8</ele>
        <time>2017-11-27T18:11:51Z</time>
      </trkpt>
      <trkpt lat="62.631814548584" lon="17.968246424409">
        <ele>66</ele>
        <time>2017-11-27T18:11:52Z</time>
      </trkpt>
      <trkpt lat="62.631800969906" lon="17.968287998633">
        <ele>66.2</ele>
        <time>2017-11-27T18:11:53Z</time>
      </trkpt>
      <trkpt lat="62.631787055952" lon="17.96832513045">
        <ele>66.2</ele>
        <time>2017-11-27T18:11:54Z</time>
      </trkpt>
      <trkpt lat="62.631771130342" lon="17.968369135425">
        <ele>66.6</ele>
        <time>2017-11-27T18:11:55Z</time>
      </trkpt>
      <trkpt lat="62.631757635483" lon="17.968406602518">
        <ele>66.6</ele>
        <time>2017-11-27T18:11:56Z</time>
      </trkpt>
      <trkpt lat="62.631745649366" lon="17.968441890317">
        <ele>66.6</ele>
        <time>2017-11-27T18:11:57Z</time>
      </trkpt>
      <trkpt lat="62.631729723756" lon="17.968487655491">
        <ele>67</ele>
        <time>2017-11-27T18:11:58Z</time>
      </trkpt>
      <trkpt lat="62.631722347684" lon="17.968523530023">
        <ele>67.2</ele>
        <time>2017-11-27T18:11:59Z</time>
      </trkpt>
      <trkpt lat="62.631710529205" lon="17.968578096192">
        <ele>67.4</ele>
        <time>2017-11-27T18:12:00Z</time>
      </trkpt>
      <trkpt lat="62.6317025664" lon="17.968621430615">
        <ele>67.8</ele>
        <time>2017-11-27T18:12:01Z</time>
      </trkpt>
      <trkpt lat="62.631695274147" lon="17.968669794178">
        <ele>68</ele>
        <time>2017-11-27T18:12:02Z</time>
      </trkpt>
      <trkpt lat="62.631690915559" lon="17.968717319551">
        <ele>68.2</ele>
        <time>2017-11-27T18:12:03Z</time>
      </trkpt>
      <trkpt lat="62.63168831717" lon="17.968762078897">
        <ele>68.2</ele>
        <time>2017-11-27T18:12:04Z</time>
      </trkpt>
      <trkpt lat="62.631687143704" lon="17.968823602043">
        <ele>68.6</ele>
        <time>2017-11-27T18:12:05Z</time>
      </trkpt>
      <trkpt lat="62.631687311342" lon="17.968874480176">
        <ele>68.8</ele>
        <time>2017-11-27T18:12:06Z</time>
      </trkpt>
      <trkpt lat="62.631689909731" lon="17.968923849567">
        <ele>69</ele>
        <time>2017-11-27T18:12:07Z</time>
      </trkpt>
      <trkpt lat="62.631693513948" lon="17.968972632225">
        <ele>69.2</ele>
        <time>2017-11-27T18:12:08Z</time>
      </trkpt>
      <trkpt lat="62.631697788717" lon="17.969017894485">
        <ele>69.4</ele>
        <time>2017-11-27T18:12:09Z</time>
      </trkpt>
      <trkpt lat="62.631706170617" lon="17.969063324383">
        <ele>69.8</ele>
        <time>2017-11-27T18:12:10Z</time>
      </trkpt>
      <trkpt lat="62.631714552517" lon="17.969117387638">
        <ele>70</ele>
        <time>2017-11-27T18:12:11Z</time>
      </trkpt>
      <trkpt lat="62.631722096227" lon="17.969160973518">
        <ele>70.2</ele>
        <time>2017-11-27T18:12:12Z</time>
      </trkpt>
      <trkpt lat="62.631729975213" lon="17.969205313769">
        <ele>70.4</ele>
        <time>2017-11-27T18:12:13Z</time>
      </trkpt>
      <trkpt lat="62.631737602742" lon="17.969249486382">
        <ele>70.4</ele>
        <time>2017-11-27T18:12:14Z</time>
      </trkpt>
      <trkpt lat="62.631748750669" lon="17.969293323719">
        <ele>70.6</ele>
        <time>2017-11-27T18:12:15Z</time>
      </trkpt>
      <trkpt lat="62.631757384026" lon="17.969338083065">
        <ele>70.8</ele>
        <time>2017-11-27T18:12:16Z</time>
      </trkpt>
      <trkpt lat="62.631767777582" lon="17.969373119407">
        <ele>70.8</ele>
        <time>2017-11-27T18:12:17Z</time>
      </trkpt>
      <trkpt lat="62.63178219445" lon="17.969408574844">
        <ele>71</ele>
        <time>2017-11-27T18:12:18Z</time>
      </trkpt>
      <trkpt lat="62.631797198051" lon="17.969441431892">
        <ele>71</ele>
        <time>2017-11-27T18:12:19Z</time>
      </trkpt>
      <trkpt lat="62.631817482249" lon="17.969465236488">
        <ele>71.4</ele>
        <time>2017-11-27T18:12:20Z</time>
      </trkpt>
      <trkpt lat="62.631838017904" lon="17.969486191238">
        <ele>71.4</ele>
        <time>2017-11-27T18:12:21Z</time>
      </trkpt>
      <trkpt lat="62.63185846974" lon="17.969506307798">
        <ele>71.8</ele>
        <time>2017-11-27T18:12:22Z</time>
      </trkpt>
      <trkpt lat="62.631882358155" lon="17.969517707182">
        <ele>72</ele>
        <time>2017-11-27T18:12:23Z</time>
      </trkpt>
      <trkpt lat="62.631906162751" lon="17.969528938928">
        <ele>72.2</ele>
        <time>2017-11-27T18:12:24Z</time>
      </trkpt>
      <trkpt lat="62.631931979003" lon="17.969530196213">
        <ele>72.4</ele>
        <time>2017-11-27T18:12:25Z</time>
      </trkpt>
      <trkpt lat="62.63195569978" lon="17.969530699127">
        <ele>72.6</ele>
        <time>2017-11-27T18:12:26Z</time>
      </trkpt>
      <trkpt lat="62.631978498548" lon="17.969530112394">
        <ele>72.8</ele>
        <time>2017-11-27T18:12:27Z</time>
      </trkpt>
      <trkpt lat="62.632001297316" lon="17.969529441842">
        <ele>73</ele>
        <time>2017-11-27T18:12:28Z</time>
      </trkpt>
      <trkpt lat="62.632017139107" lon="17.969522820141">
        <ele>73</ele>
        <time>2017-11-27T18:12:29Z</time>
      </trkpt>
      <trkpt lat="62.63204119516" lon="17.969524328883">
        <ele>73</ele>
        <time>2017-11-27T18:12:30Z</time>
      </trkpt>
      <trkpt lat="62.632064915937" lon="17.969517120449">
        <ele>73</ele>
        <time>2017-11-27T18:12:31Z</time>
      </trkpt>
      <trkpt lat="62.632086708877" lon="17.96950865473">
        <ele>73</ele>
        <time>2017-11-27T18:12:32Z</time>
      </trkpt>
      <trkpt lat="62.632111435482" lon="17.969498847907">
        <ele>73.2</ele>
        <time>2017-11-27T18:12:33Z</time>
      </trkpt>
      <trkpt lat="62.632136581182" lon="17.969489879274">
        <ele>73.2</ele>
        <time>2017-11-27T18:12:34Z</time>
      </trkpt>
      <trkpt lat="62.632165498737" lon="17.969481329736">
        <ele>73.2</ele>
        <time>2017-11-27T18:12:35Z</time>
      </trkpt>
      <trkpt lat="62.63219458393" lon="17.969476719691">
        <ele>73.2</ele>
        <time>2017-11-27T18:12:36Z</time>
      </trkpt>
      <trkpt lat="62.632218723802" lon="17.969470265628">
        <ele>73.2</ele>
        <time>2017-11-27T18:12:37Z</time>
      </trkpt>
      <trkpt lat="62.632241774027" lon="17.96946339247">
        <ele>73.2</ele>
        <time>2017-11-27T18:12:38Z</time>
      </trkpt>
      <trkpt lat="62.632269434297" lon="17.969466409954">
        <ele>73.4</ele>
        <time>2017-11-27T18:12:39Z</time>
      </trkpt>
      <trkpt lat="62.632291646332" lon="17.969453082733">
        <ele>73.4</ele>
        <time>2017-11-27T18:12:40Z</time>
      </trkpt>
      <trkpt lat="62.632319222783" lon="17.969447969774">
        <ele>73.4</ele>
        <time>2017-11-27T18:12:41Z</time>
      </trkpt>
      <trkpt lat="62.632344536121" lon="17.969446880127">
        <ele>73.4</ele>
        <time>2017-11-27T18:12:42Z</time>
      </trkpt>
      <trkpt lat="62.632369514183" lon="17.96944746686">
        <ele>73.2</ele>
        <time>2017-11-27T18:12:43Z</time>
      </trkpt>
      <trkpt lat="62.632395833349" lon="17.969448137412">
        <ele>73.2</ele>
        <time>2017-11-27T18:12:44Z</time>
      </trkpt>
      <trkpt lat="62.63242424799" lon="17.969446293394">
        <ele>73.2</ele>
        <time>2017-11-27T18:12:45Z</time>
      </trkpt>
      <trkpt lat="62.632448471681" lon="17.969442689177">
        <ele>73.2</ele>
        <time>2017-11-27T18:12:46Z</time>
      </trkpt>
      <trkpt lat="62.632470851354" lon="17.969447550679">
        <ele>73.4</ele>
        <time>2017-11-27T18:12:47Z</time>
      </trkpt>
      <trkpt lat="62.632494488312" lon="17.96945081962">
        <ele>73.4</ele>
        <time>2017-11-27T18:12:48Z</time>
      </trkpt>
      <trkpt lat="62.632516532709" lon="17.969453082733">
        <ele>73.4</ele>
        <time>2017-11-27T18:12:49Z</time>
      </trkpt>
      <trkpt lat="62.632544863531" lon="17.969458028054">
        <ele>73.4</ele>
        <time>2017-11-27T18:12:50Z</time>
      </trkpt>
      <trkpt lat="62.632568919584" lon="17.969460123529">
        <ele>73.4</ele>
        <time>2017-11-27T18:12:51Z</time>
      </trkpt>
      <trkpt lat="62.632591802171" lon="17.96946255428">
        <ele>73.4</ele>
        <time>2017-11-27T18:12:52Z</time>
      </trkpt>
      <trkpt lat="62.632619881536" lon="17.969470768542">
        <ele>73.4</ele>
        <time>2017-11-27T18:12:53Z</time>
      </trkpt>
      <trkpt lat="62.632643686132" lon="17.969476719691">
        <ele>73.4</ele>
        <time>2017-11-27T18:12:54Z</time>
      </trkpt>
      <trkpt lat="62.632668328918" lon="17.969484011944">
        <ele>73.6</ele>
        <time>2017-11-27T18:12:55Z</time>
      </trkpt>
      <trkpt lat="62.63269330698" lon="17.969490466007">
        <ele>73.8</ele>
        <time>2017-11-27T18:12:56Z</time>
      </trkpt>
      <trkpt lat="62.63271761449" lon="17.969495076052">
        <ele>73.8</ele>
        <time>2017-11-27T18:12:57Z</time>
      </trkpt>
      <trkpt lat="62.632740664715" lon="17.969501278658">
        <ele>73.8</ele>
        <time>2017-11-27T18:12:58Z</time>
      </trkpt>
      <trkpt lat="62.632761870922" lon="17.969511253119">
        <ele>73.8</ele>
        <time>2017-11-27T18:12:59Z</time>
      </trkpt>
      <trkpt lat="62.632788273907" lon="17.969516282259">
        <ele>73.8</ele>
        <time>2017-11-27T18:13:00Z</time>
      </trkpt>
      <trkpt lat="62.632812832874" lon="17.969523909788">
        <ele>73.8</ele>
        <time>2017-11-27T18:13:01Z</time>
      </trkpt>
      <trkpt lat="62.63283663747" lon="17.969529441842">
        <ele>73.8</ele>
        <time>2017-11-27T18:13:02Z</time>
      </trkpt>
      <trkpt lat="62.632860861161" lon="17.969535309172">
        <ele>73.8</ele>
        <time>2017-11-27T18:13:03Z</time>
      </trkpt>
      <trkpt lat="62.632885503947" lon="17.969543104339">
        <ele>73.8</ele>
        <time>2017-11-27T18:13:04Z</time>
      </trkpt>
      <trkpt lat="62.632908637991" lon="17.969550396592">
        <ele>74</ele>
        <time>2017-11-27T18:13:05Z</time>
      </trkpt>
      <trkpt lat="62.632933280777" lon="17.969555509551">
        <ele>74.2</ele>
        <time>2017-11-27T18:13:06Z</time>
      </trkpt>
      <trkpt lat="62.632958091201" lon="17.96956062251">
        <ele>74.2</ele>
        <time>2017-11-27T18:13:07Z</time>
      </trkpt>
      <trkpt lat="62.632981728159" lon="17.969567160392">
        <ele>74.4</ele>
        <time>2017-11-27T18:13:08Z</time>
      </trkpt>
      <trkpt lat="62.633006370945" lon="17.969575961387">
        <ele>74.4</ele>
        <time>2017-11-27T18:13:09Z</time>
      </trkpt>
      <trkpt lat="62.633032354835" lon="17.969581912536">
        <ele>74.4</ele>
        <time>2017-11-27T18:13:10Z</time>
      </trkpt>
      <trkpt lat="62.633059260734" lon="17.969588534237">
        <ele>74.4</ele>
        <time>2017-11-27T18:13:11Z</time>
      </trkpt>
      <trkpt lat="62.633085831357" lon="17.96959917925">
        <ele>74.6</ele>
        <time>2017-11-27T18:13:12Z</time>
      </trkpt>
      <trkpt lat="62.633111312333" lon="17.969611165367">
        <ele>74.6</ele>
        <time>2017-11-27T18:13:13Z</time>
      </trkpt>
      <trkpt lat="62.633133943463" lon="17.969614434308">
        <ele>74.6</ele>
        <time>2017-11-27T18:13:14Z</time>
      </trkpt>
      <trkpt lat="62.633164285941" lon="17.96962181038">
        <ele>74.6</ele>
        <time>2017-11-27T18:13:15Z</time>
      </trkpt>
      <trkpt lat="62.633190437469" lon="17.969629270271">
        <ele>74.6</ele>
        <time>2017-11-27T18:13:16Z</time>
      </trkpt>
      <trkpt lat="62.633216086083" lon="17.969636478705">
        <ele>74.6</ele>
        <time>2017-11-27T18:13:17Z</time>
      </trkpt>
      <trkpt lat="62.633242740525" lon="17.969643938596">
        <ele>74.6</ele>
        <time>2017-11-27T18:13:18Z</time>
      </trkpt>
      <trkpt lat="62.633267131854" lon="17.969652320496">
        <ele>74.6</ele>
        <time>2017-11-27T18:13:19Z</time>
      </trkpt>
      <trkpt lat="62.633289930622" lon="17.969675035445">
        <ele>74.6</ele>
        <time>2017-11-27T18:13:20Z</time>
      </trkpt>
      <trkpt lat="62.63331272939" lon="17.969699342955">
        <ele>74.6</ele>
        <time>2017-11-27T18:13:21Z</time>
      </trkpt>
      <trkpt lat="62.633334019416" lon="17.969726835587">
        <ele>74.8</ele>
        <time>2017-11-27T18:13:22Z</time>
      </trkpt>
      <trkpt lat="62.633347430456" lon="17.969774193322">
        <ele>74.8</ele>
        <time>2017-11-27T18:13:23Z</time>
      </trkpt>
      <trkpt lat="62.633360338582" lon="17.969823730351">
        <ele>74.8</ele>
        <time>2017-11-27T18:13:24Z</time>
      </trkpt>
      <trkpt lat="62.633363272247" lon="17.969879386167">
        <ele>75</ele>
        <time>2017-11-27T18:13:25Z</time>
      </trkpt>
      <trkpt lat="62.633365702998" lon="17.969937556553">
        <ele>75.2</ele>
        <time>2017-11-27T18:13:26Z</time>
      </trkpt>
      <trkpt lat="62.633368301387" lon="17.969991787446">
        <ele>75.4</ele>
        <time>2017-11-27T18:13:27Z</time>
      </trkpt>
      <trkpt lat="62.633370732138" lon="17.970043168493">
        <ele>75.4</ele>
        <time>2017-11-27T18:13:28Z</time>
      </trkpt>
      <trkpt lat="62.63336721174" lon="17.970096058282">
        <ele>75.4</ele>
        <time>2017-11-27T18:13:29Z</time>
      </trkpt>
      <trkpt lat="62.633373414346" lon="17.970156324143">
        <ele>75.6</ele>
        <time>2017-11-27T18:13:30Z</time>
      </trkpt>
      <trkpt lat="62.633377521477" lon="17.970211812321">
        <ele>75.6</ele>
        <time>2017-11-27T18:13:31Z</time>
      </trkpt>
      <trkpt lat="62.633384059359" lon="17.970266881404">
        <ele>75.8</ele>
        <time>2017-11-27T18:13:32Z</time>
      </trkpt>
      <trkpt lat="62.633390429603" lon="17.970321866668">
        <ele>76</ele>
        <time>2017-11-27T18:13:33Z</time>
      </trkpt>
      <trkpt lat="62.633393614725" lon="17.97037618138">
        <ele>76</ele>
        <time>2017-11-27T18:13:34Z</time>
      </trkpt>
      <trkpt lat="62.633397973313" lon="17.970437033974">
        <ele>76</ele>
        <time>2017-11-27T18:13:35Z</time>
      </trkpt>
      <trkpt lat="62.633402834815" lon="17.970492857428">
        <ele>76.2</ele>
        <time>2017-11-27T18:13:36Z</time>
      </trkpt>
      <trkpt lat="62.63340828305" lon="17.9705505249">
        <ele>76.4</ele>
        <time>2017-11-27T18:13:37Z</time>
      </trkpt>
      <trkpt lat="62.633412222543" lon="17.970606432173">
        <ele>76.4</ele>
        <time>2017-11-27T18:13:38Z</time>
      </trkpt>
      <trkpt lat="62.633414569475" lon="17.970660243971">
        <ele>76.4</ele>
        <time>2017-11-27T18:13:39Z</time>
      </trkpt>
      <trkpt lat="62.633414318018" lon="17.970712044113">
        <ele>76.6</ele>
        <time>2017-11-27T18:13:40Z</time>
      </trkpt>
      <trkpt lat="62.633416581131" lon="17.970769460128">
        <ele>76.8</ele>
        <time>2017-11-27T18:13:41Z</time>
      </trkpt>
      <trkpt lat="62.633417335502" lon="17.97082461303">
        <ele>76.8</ele>
        <time>2017-11-27T18:13:42Z</time>
      </trkpt>
      <trkpt lat="62.633416916407" lon="17.970882364321">
        <ele>77</ele>
        <time>2017-11-27T18:13:43Z</time>
      </trkpt>
      <trkpt lat="62.633419682434" lon="17.970935002653">
        <ele>77</ele>
        <time>2017-11-27T18:13:44Z</time>
      </trkpt>
      <trkpt lat="62.633419011882" lon="17.970998369817">
        <ele>77.2</ele>
        <time>2017-11-27T18:13:45Z</time>
      </trkpt>
      <trkpt lat="62.633416832588" lon="17.971058048945">
        <ele>77.4</ele>
        <time>2017-11-27T18:13:46Z</time>
      </trkpt>
      <trkpt lat="62.633419766253" lon="17.971113872399">
        <ele>77.4</ele>
        <time>2017-11-27T18:13:47Z</time>
      </trkpt>
      <trkpt lat="62.633419598615" lon="17.971172964794">
        <ele>77.4</ele>
        <time>2017-11-27T18:13:48Z</time>
      </trkpt>
      <trkpt lat="62.633418006054" lon="17.97123113518">
        <ele>77.6</ele>
        <time>2017-11-27T18:13:49Z</time>
      </trkpt>
      <trkpt lat="62.633418760425" lon="17.971287210091">
        <ele>77.6</ele>
        <time>2017-11-27T18:13:50Z</time>
      </trkpt>
      <trkpt lat="62.633417335502" lon="17.971343117364">
        <ele>77.8</ele>
        <time>2017-11-27T18:13:51Z</time>
      </trkpt>
      <trkpt lat="62.633414820932" lon="17.971397012981">
        <ele>78</ele>
        <time>2017-11-27T18:13:52Z</time>
      </trkpt>
      <trkpt lat="62.633411971086" lon="17.971457697937">
        <ele>78</ele>
        <time>2017-11-27T18:13:53Z</time>
      </trkpt>
      <trkpt lat="62.63340912124" lon="17.971516455056">
        <ele>78</ele>
        <time>2017-11-27T18:13:54Z</time>
      </trkpt>
      <trkpt lat="62.633408785964" lon="17.971568506655">
        <ele>78.2</ele>
        <time>2017-11-27T18:13:55Z</time>
      </trkpt>
      <trkpt lat="62.633404678833" lon="17.971625587394">
        <ele>78.4</ele>
        <time>2017-11-27T18:13:56Z</time>
      </trkpt>
      <trkpt lat="62.633400655521" lon="17.97168291959">
        <ele>78.4</ele>
        <time>2017-11-27T18:13:57Z</time>
      </trkpt>
      <trkpt lat="62.633395626381" lon="17.971739413596">
        <ele>78.6</ele>
        <time>2017-11-27T18:13:58Z</time>
      </trkpt>
      <trkpt lat="62.633392776535" lon="17.971791213738">
        <ele>78.6</ele>
        <time>2017-11-27T18:13:59Z</time>
      </trkpt>
      <trkpt lat="62.633389926689" lon="17.971855167635">
        <ele>78.8</ele>
        <time>2017-11-27T18:14:00Z</time>
      </trkpt>
      <trkpt lat="62.633386657748" lon="17.971914846763">
        <ele>78.8</ele>
        <time>2017-11-27T18:14:01Z</time>
      </trkpt>
      <trkpt lat="62.633382634436" lon="17.971973017149">
        <ele>78.8</ele>
        <time>2017-11-27T18:14:02Z</time>
      </trkpt>
      <trkpt lat="62.633376934744" lon="17.972029259698">
        <ele>79</ele>
        <time>2017-11-27T18:14:03Z</time>
      </trkpt>
      <trkpt lat="62.633369223396" lon="17.972084244962">
        <ele>79</ele>
        <time>2017-11-27T18:14:04Z</time>
      </trkpt>
      <trkpt lat="62.633368133749" lon="17.972137721484">
        <ele>79</ele>
        <time>2017-11-27T18:14:05Z</time>
      </trkpt>
      <trkpt lat="62.633364194256" lon="17.972193796395">
        <ele>79.2</ele>
        <time>2017-11-27T18:14:06Z</time>
      </trkpt>
      <trkpt lat="62.633359332754" lon="17.972250877134">
        <ele>79.2</ele>
        <time>2017-11-27T18:14:07Z</time>
      </trkpt>
      <trkpt lat="62.633353381605" lon="17.972302844914">
        <ele>79.4</ele>
        <time>2017-11-27T18:14:08Z</time>
      </trkpt>
      <trkpt lat="62.633346759904" lon="17.972351124658">
        <ele>79.6</ele>
        <time>2017-11-27T18:14:09Z</time>
      </trkpt>
      <trkpt lat="62.633335947253" lon="17.97240041023">
        <ele>79.6</ele>
        <time>2017-11-27T18:14:10Z</time>
      </trkpt>
      <trkpt lat="62.633324212593" lon="17.972454222028">
        <ele>79.6</ele>
        <time>2017-11-27T18:14:11Z</time>
      </trkpt>
      <trkpt lat="62.63331524396" lon="17.972504094333">
        <ele>79.8</ele>
        <time>2017-11-27T18:14:12Z</time>
      </trkpt>
      <trkpt lat="62.633307867888" lon="17.97255547538">
        <ele>79.8</ele>
        <time>2017-11-27T18:14:13Z</time>
      </trkpt>
      <trkpt lat="62.633299569807" lon="17.972605934418">
        <ele>79.8</ele>
        <time>2017-11-27T18:14:14Z</time>
      </trkpt>
      <trkpt lat="62.633288254242" lon="17.972663434252">
        <ele>80</ele>
        <time>2017-11-27T18:14:15Z</time>
      </trkpt>
      <trkpt lat="62.633277944505" lon="17.972713222738">
        <ele>80</ele>
        <time>2017-11-27T18:14:16Z</time>
      </trkpt>
      <trkpt lat="62.633269562605" lon="17.972766196346">
        <ele>80.2</ele>
        <time>2017-11-27T18:14:17Z</time>
      </trkpt>
      <trkpt lat="62.633258498497" lon="17.972815230461">
        <ele>80.2</ele>
        <time>2017-11-27T18:14:18Z</time>
      </trkpt>
      <trkpt lat="62.633247182932" lon="17.972864516033">
        <ele>80.2</ele>
        <time>2017-11-27T18:14:19Z</time>
      </trkpt>
      <trkpt lat="62.633237459928" lon="17.972923776066">
        <ele>80.4</ele>
        <time>2017-11-27T18:14:20Z</time>
      </trkpt>
      <trkpt lat="62.633228407476" lon="17.97297373219">
        <ele>80.6</ele>
        <time>2017-11-27T18:14:21Z</time>
      </trkpt>
      <trkpt lat="62.633217511006" lon="17.973023604495">
        <ele>80.4</ele>
        <time>2017-11-27T18:14:22Z</time>
      </trkpt>
      <trkpt lat="62.633208961468" lon="17.973077835388">
        <ele>80.6</ele>
        <time>2017-11-27T18:14:23Z</time>
      </trkpt>
      <trkpt lat="62.633200495749" lon="17.973125025485">
        <ele>80.6</ele>
        <time>2017-11-27T18:14:24Z</time>
      </trkpt>
      <trkpt lat="62.633189347822" lon="17.973178418188">
        <ele>80.8</ele>
        <time>2017-11-27T18:14:25Z</time>
      </trkpt>
      <trkpt lat="62.633179876275" lon="17.973233235814">
        <ele>81</ele>
        <time>2017-11-27T18:14:26Z</time>
      </trkpt>
      <trkpt lat="62.633170320909" lon="17.973287969621">
        <ele>81</ele>
        <time>2017-11-27T18:14:27Z</time>
      </trkpt>
      <trkpt lat="62.63315766424" lon="17.973339602125">
        <ele>81.2</ele>
        <time>2017-11-27T18:14:28Z</time>
      </trkpt>
      <trkpt lat="62.633149449978" lon="17.973385451118">
        <ele>81.2</ele>
        <time>2017-11-27T18:14:29Z</time>
      </trkpt>
      <trkpt lat="62.633135368386" lon="17.973446806626">
        <ele>81.4</ele>
        <time>2017-11-27T18:14:30Z</time>
      </trkpt>
      <trkpt lat="62.633123969002" lon="17.973500366967">
        <ele>81.4</ele>
        <time>2017-11-27T18:14:31Z</time>
      </trkpt>
      <trkpt lat="62.633112904894" lon="17.973554011127">
        <ele>81.6</ele>
        <time>2017-11-27T18:14:32Z</time>
      </trkpt>
      <trkpt lat="62.633101840786" lon="17.973607068554">
        <ele>81.6</ele>
        <time>2017-11-27T18:14:33Z</time>
      </trkpt>
      <trkpt lat="62.633090860497" lon="17.973656102669">
        <ele>81.8</ele>
        <time>2017-11-27T18:14:34Z</time>
      </trkpt>
      <trkpt lat="62.633079042018" lon="17.973712093761">
        <ele>81.8</ele>
        <time>2017-11-27T18:14:35Z</time>
      </trkpt>
      <trkpt lat="62.633067055901" lon="17.973763055713">
        <ele>81.8</ele>
        <time>2017-11-27T18:14:36Z</time>
      </trkpt>
      <trkpt lat="62.633054818327" lon="17.973816196959">
        <ele>82</ele>
        <time>2017-11-27T18:14:37Z</time>
      </trkpt>
      <trkpt lat="62.633040736735" lon="17.973872020413">
        <ele>82.2</ele>
        <time>2017-11-27T18:14:38Z</time>
      </trkpt>
      <trkpt lat="62.633026236048" lon="17.973926335125">
        <ele>82.2</ele>
        <time>2017-11-27T18:14:39Z</time>
      </trkpt>
      <trkpt lat="62.633014585207" lon="17.973972938489">
        <ele>82.2</ele>
        <time>2017-11-27T18:14:40Z</time>
      </trkpt>
      <trkpt lat="62.632997905226" lon="17.974034713092">
        <ele>82.2</ele>
        <time>2017-11-27T18:14:41Z</time>
      </trkpt>
      <trkpt lat="62.632985500014" lon="17.974088105795">
        <ele>82.4</ele>
        <time>2017-11-27T18:14:42Z</time>
      </trkpt>
      <trkpt lat="62.632971334603" lon="17.974142755783">
        <ele>82.4</ele>
        <time>2017-11-27T18:14:43Z</time>
      </trkpt>
      <trkpt lat="62.632957755925" lon="17.974196986676">
        <ele>82.4</ele>
        <time>2017-11-27T18:14:44Z</time>
      </trkpt>
      <trkpt lat="62.632945769808" lon="17.974258342184">
        <ele>82.6</ele>
        <time>2017-11-27T18:14:45Z</time>
      </trkpt>
      <trkpt lat="62.632931520578" lon="17.974315171466">
        <ele>82.8</ele>
        <time>2017-11-27T18:14:46Z</time>
      </trkpt>
      <trkpt lat="62.632914756778" lon="17.974367474522">
        <ele>82.8</ele>
        <time>2017-11-27T18:14:47Z</time>
      </trkpt>
      <trkpt lat="62.632895059313" lon="17.974416592456">
        <ele>82.8</ele>
        <time>2017-11-27T18:14:48Z</time>
      </trkpt>
      <trkpt lat="62.632873769287" lon="17.974459340146">
        <ele>83</ele>
        <time>2017-11-27T18:14:49Z</time>
      </trkpt>
      <trkpt lat="62.63284334299" lon="17.974484569665">
        <ele>83</ele>
        <time>2017-11-27T18:14:50Z</time>
      </trkpt>
      <trkpt lat="62.632816688548" lon="17.974492783927">
        <ele>83</ele>
        <time>2017-11-27T18:14:51Z</time>
      </trkpt>
      <trkpt lat="62.632789950287" lon="17.974489682624">
        <ele>83</ele>
        <time>2017-11-27T18:14:52Z</time>
      </trkpt>
      <trkpt lat="62.632761954741" lon="17.974483060923">
        <ele>83</ele>
        <time>2017-11-27T18:14:53Z</time>
      </trkpt>
      <trkpt lat="62.632738736878" lon="17.97447157772">
        <ele>83</ele>
        <time>2017-11-27T18:14:54Z</time>
      </trkpt>
      <trkpt lat="62.632706298925" lon="17.974467722046">
        <ele>83</ele>
        <time>2017-11-27T18:14:55Z</time>
      </trkpt>
      <trkpt lat="62.632679812121" lon="17.974450958246">
        <ele>83</ele>
        <time>2017-11-27T18:14:56Z</time>
      </trkpt>
      <trkpt lat="62.632653744412" lon="17.974427321288">
        <ele>83</ele>
        <time>2017-11-27T18:14:57Z</time>
      </trkpt>
      <trkpt lat="62.632636896793" lon="17.974400415389">
        <ele>83</ele>
        <time>2017-11-27T18:14:58Z</time>
      </trkpt>
      <trkpt lat="62.63261367893" lon="17.974385998521">
        <ele>83.2</ele>
        <time>2017-11-27T18:14:59Z</time>
      </trkpt>
      <trkpt lat="62.632582162986" lon="17.974363115934">
        <ele>83</ele>
        <time>2017-11-27T18:15:00Z</time>
      </trkpt>
      <trkpt lat="62.632559615675" lon="17.974347609419">
        <ele>83</ele>
        <time>2017-11-27T18:15:01Z</time>
      </trkpt>
      <trkpt lat="62.632541259314" lon="17.974325816479">
        <ele>83</ele>
        <time>2017-11-27T18:15:02Z</time>
      </trkpt>
      <trkpt lat="62.632515443062" lon="17.974305029367">
        <ele>83</ele>
        <time>2017-11-27T18:15:03Z</time>
      </trkpt>
      <trkpt lat="62.632496919063" lon="17.97428130859">
        <ele>83</ele>
        <time>2017-11-27T18:15:04Z</time>
      </trkpt>
      <trkpt lat="62.632475629037" lon="17.974254654148">
        <ele>83</ele>
        <time>2017-11-27T18:15:05Z</time>
      </trkpt>
      <trkpt lat="62.632451572984" lon="17.974227580611">
        <ele>83</ele>
        <time>2017-11-27T18:15:06Z</time>
      </trkpt>
      <trkpt lat="62.632421984877" lon="17.974216348865">
        <ele>83</ele>
        <time>2017-11-27T18:15:07Z</time>
      </trkpt>
      <trkpt lat="62.632390636571" lon="17.974190364975">
        <ele>83</ele>
        <time>2017-11-27T18:15:08Z</time>
      </trkpt>
      <trkpt lat="62.632363311577" lon="17.974177540668">
        <ele>83</ele>
        <time>2017-11-27T18:15:09Z</time>
      </trkpt>
      <trkpt lat="62.632345374311" lon="17.974151472959">
        <ele>83</ele>
        <time>2017-11-27T18:15:10Z</time>
      </trkpt>
      <trkpt lat="62.632316289118" lon="17.97412708163">
        <ele>83</ele>
        <time>2017-11-27T18:15:11Z</time>
      </trkpt>
      <trkpt lat="62.632289969952" lon="17.974101433016">
        <ele>83</ele>
        <time>2017-11-27T18:15:12Z</time>
      </trkpt>
      <trkpt lat="62.63226331551" lon="17.974077041687">
        <ele>83</ele>
        <time>2017-11-27T18:15:13Z</time>
      </trkpt>
      <trkpt lat="62.632242025484" lon="17.974059355878">
        <ele>83</ele>
        <time>2017-11-27T18:15:14Z</time>
      </trkpt>
      <trkpt lat="62.632212856472" lon="17.974022056423">
        <ele>83</ele>
        <time>2017-11-27T18:15:15Z</time>
      </trkpt>
      <trkpt lat="62.632189470971" lon="17.973988612642">
        <ele>83</ele>
        <time>2017-11-27T18:15:16Z</time>
      </trkpt>
      <trkpt lat="62.632167342755" lon="17.973961287648">
        <ele>83</ele>
        <time>2017-11-27T18:15:17Z</time>
      </trkpt>
      <trkpt lat="62.632136581182" lon="17.973931112808">
        <ele>82.8</ele>
        <time>2017-11-27T18:15:18Z</time>
      </trkpt>
      <trkpt lat="62.632112525129" lon="17.973898926312">
        <ele>82.8</ele>
        <time>2017-11-27T18:15:19Z</time>
      </trkpt>
      <trkpt lat="62.632090396913" lon="17.973873193879">
        <ele>82.8</ele>
        <time>2017-11-27T18:15:20Z</time>
      </trkpt>
      <trkpt lat="62.632059048607" lon="17.973843354315">
        <ele>82.8</ele>
        <time>2017-11-27T18:15:21Z</time>
      </trkpt>
      <trkpt lat="62.632035579287" lon="17.973815526407">
        <ele>82.8</ele>
        <time>2017-11-27T18:15:22Z</time>
      </trkpt>
      <trkpt lat="62.632012109967" lon="17.97378426192">
        <ele>82.8</ele>
        <time>2017-11-27T18:15:23Z</time>
      </trkpt>
      <trkpt lat="62.631990233208" lon="17.973755931098">
        <ele>82.8</ele>
        <time>2017-11-27T18:15:24Z</time>
      </trkpt>
      <trkpt lat="62.631964165499" lon="17.973722654955">
        <ele>82.8</ele>
        <time>2017-11-27T18:15:25Z</time>
      </trkpt>
      <trkpt lat="62.63193977417" lon="17.973693150667">
        <ele>82.8</ele>
        <time>2017-11-27T18:15:26Z</time>
      </trkpt>
      <trkpt lat="62.631914796108" lon="17.973658952515">
        <ele>82.8</ele>
        <time>2017-11-27T18:15:27Z</time>
      </trkpt>
      <trkpt lat="62.631893003168" lon="17.973620898689">
        <ele>82.8</ele>
        <time>2017-11-27T18:15:28Z</time>
      </trkpt>
      <trkpt lat="62.631871629323" lon="17.973590975306">
        <ele>82.8</ele>
        <time>2017-11-27T18:15:29Z</time>
      </trkpt>
      <trkpt lat="62.631840113379" lon="17.973553424394">
        <ele>82.8</ele>
        <time>2017-11-27T18:15:30Z</time>
      </trkpt>
      <trkpt lat="62.631817230792" lon="17.97351855569">
        <ele>82.8</ele>
        <time>2017-11-27T18:15:31Z</time>
      </trkpt>
      <trkpt lat="62.631794515843" lon="17.973482262063">
        <ele>82.8</ele>
        <time>2017-11-27T18:15:32Z</time>
      </trkpt>
      <trkpt lat="62.631769453962" lon="17.973446638988">
        <ele>82.8</ele>
        <time>2017-11-27T18:15:33Z</time>
      </trkpt>
      <trkpt lat="62.63174531409" lon="17.973413949578">
        <ele>82.8</ele>
        <time>2017-11-27T18:15:34Z</time>
      </trkpt>
      <trkpt lat="62.631723688788" lon="17.97338612167">
        <ele>82.8</ele>
        <time>2017-11-27T18:15:35Z</time>
      </trkpt>
      <trkpt lat="62.631694603595" lon="17.973344631265">
        <ele>82.6</ele>
        <time>2017-11-27T18:15:36Z</time>
      </trkpt>
      <trkpt lat="62.631672894474" lon="17.973306242163">
        <ele>82.6</ele>
        <time>2017-11-27T18:15:37Z</time>
      </trkpt>
      <trkpt lat="62.631651101534" lon="17.973266344319">
        <ele>82.6</ele>
        <time>2017-11-27T18:15:38Z</time>
      </trkpt>
      <trkpt lat="62.631630901155" lon="17.973228877226">
        <ele>82.4</ele>
        <time>2017-11-27T18:15:39Z</time>
      </trkpt>
      <trkpt lat="62.631611874242" lon="17.973191326314">
        <ele>82.4</ele>
        <time>2017-11-27T18:15:40Z</time>
      </trkpt>
      <trkpt lat="62.631590081302" lon="17.973152182841">
        <ele>82.4</ele>
        <time>2017-11-27T18:15:41Z</time>
      </trkpt>
      <trkpt lat="62.631568372181" lon="17.973109770427">
        <ele>82.4</ele>
        <time>2017-11-27T18:15:42Z</time>
      </trkpt>
      <trkpt lat="62.63154750125" lon="17.973068363841">
        <ele>82.4</ele>
        <time>2017-11-27T18:15:43Z</time>
      </trkpt>
      <trkpt lat="62.631530402174" lon="17.973028046902">
        <ele>82.2</ele>
        <time>2017-11-27T18:15:44Z</time>
      </trkpt>
      <trkpt lat="62.63150475356" lon="17.972987478506">
        <ele>82.2</ele>
        <time>2017-11-27T18:15:45Z</time>
      </trkpt>
      <trkpt lat="62.63148547519" lon="17.972946155739">
        <ele>82</ele>
        <time>2017-11-27T18:15:46Z</time>
      </trkpt>
      <trkpt lat="62.631468040838" lon="17.972906509352">
        <ele>81.8</ele>
        <time>2017-11-27T18:15:47Z</time>
      </trkpt>
      <trkpt lat="62.631444068604" lon="17.972850266803">
        <ele>81.6</ele>
        <time>2017-11-27T18:15:48Z</time>
      </trkpt>
      <trkpt lat="62.631424790234" lon="17.972802825249">
        <ele>81.6</ele>
        <time>2017-11-27T18:15:49Z</time>
      </trkpt>
      <trkpt lat="62.631407104425" lon="17.972763095043">
        <ele>81.2</ele>
        <time>2017-11-27T18:15:50Z</time>
      </trkpt>
      <trkpt lat="62.631386233494" lon="17.972716240222">
        <ele>81</ele>
        <time>2017-11-27T18:15:51Z</time>
      </trkpt>
      <trkpt lat="62.631366619848" lon="17.9726627637">
        <ele>81</ele>
        <time>2017-11-27T18:15:52Z</time>
      </trkpt>
      <trkpt lat="62.631349353134" lon="17.972619429277">
        <ele>80.8</ele>
        <time>2017-11-27T18:15:53Z</time>
      </trkpt>
      <trkpt lat="62.631330158583" lon="17.97256134271">
        <ele>80.6</ele>
        <time>2017-11-27T18:15:54Z</time>
      </trkpt>
      <trkpt lat="62.631314316792" lon="17.972519349391">
        <ele>80.4</ele>
        <time>2017-11-27T18:15:55Z</time>
      </trkpt>
      <trkpt lat="62.631289925463" lon="17.972462268652">
        <ele>80.2</ele>
        <time>2017-11-27T18:15:56Z</time>
      </trkpt>
      <trkpt lat="62.631271150007" lon="17.972412480166">
        <ele>80</ele>
        <time>2017-11-27T18:15:57Z</time>
      </trkpt>
      <trkpt lat="62.631253464198" lon="17.97236185349">
        <ele>80</ele>
        <time>2017-11-27T18:15:58Z</time>
      </trkpt>
      <trkpt lat="62.631239466425" lon="17.972322710017">
        <ele>80</ele>
        <time>2017-11-27T18:15:59Z</time>
      </trkpt>
      <trkpt lat="62.631220188055" lon="17.97225707974">
        <ele>79.8</ele>
        <time>2017-11-27T18:16:00Z</time>
      </trkpt>
      <trkpt lat="62.631204597721" lon="17.972203184123">
        <ele>79.8</ele>
        <time>2017-11-27T18:16:01Z</time>
      </trkpt>
      <trkpt lat="62.631184229704" lon="17.972156832216">
        <ele>79.6</ele>
        <time>2017-11-27T18:16:02Z</time>
      </trkpt>
      <trkpt lat="62.63116780118" lon="17.972098326554">
        <ele>79.6</ele>
        <time>2017-11-27T18:16:03Z</time>
      </trkpt>
      <trkpt lat="62.631151456475" lon="17.972048286611">
        <ele>79.4</ele>
        <time>2017-11-27T18:16:04Z</time>
      </trkpt>
      <trkpt lat="62.631139470358" lon="17.972005287464">
        <ele>79.2</ele>
        <time>2017-11-27T18:16:05Z</time>
      </trkpt>
      <trkpt lat="62.631127903336" lon="17.971943009947">
        <ele>79.2</ele>
        <time>2017-11-27T18:16:06Z</time>
      </trkpt>
      <trkpt lat="62.631116420133" lon="17.971888611416">
        <ele>79</ele>
        <time>2017-11-27T18:16:07Z</time>
      </trkpt>
      <trkpt lat="62.631104266378" lon="17.97183211741">
        <ele>78.8</ele>
        <time>2017-11-27T18:16:08Z</time>
      </trkpt>
      <trkpt lat="62.631091944985" lon="17.971768331151">
        <ele>78.8</ele>
        <time>2017-11-27T18:16:09Z</time>
      </trkpt>
      <trkpt lat="62.631079958868" lon="17.971718794122">
        <ele>78.6</ele>
        <time>2017-11-27T18:16:10Z</time>
      </trkpt>
      <trkpt lat="62.631065039086" lon="17.971656600424">
        <ele>78.4</ele>
        <time>2017-11-27T18:16:11Z</time>
      </trkpt>
      <trkpt lat="62.631052717693" lon="17.971599854961">
        <ele>78.2</ele>
        <time>2017-11-27T18:16:12Z</time>
      </trkpt>
      <trkpt lat="62.631040480119" lon="17.971545372611">
        <ele>78.2</ele>
        <time>2017-11-27T18:16:13Z</time>
      </trkpt>
      <trkpt lat="62.63102782345" lon="17.971492818098">
        <ele>78.2</ele>
        <time>2017-11-27T18:16:14Z</time>
      </trkpt>
      <trkpt lat="62.631017262256" lon="17.971426349631">
        <ele>78.2</ele>
        <time>2017-11-27T18:16:15Z</time>
      </trkpt>
      <trkpt lat="62.631005946691" lon="17.971364575028">
        <ele>78</ele>
        <time>2017-11-27T18:16:16Z</time>
      </trkpt>
      <trkpt lat="62.630998402981" lon="17.971310260316">
        <ele>78</ele>
        <time>2017-11-27T18:16:17Z</time>
      </trkpt>
      <trkpt lat="62.630986668321" lon="17.971241612555">
        <ele>78</ele>
        <time>2017-11-27T18:16:18Z</time>
      </trkpt>
      <trkpt lat="62.630975268937" lon="17.971182855436">
        <ele>77.6</ele>
        <time>2017-11-27T18:16:19Z</time>
      </trkpt>
      <trkpt lat="62.630967641408" lon="17.97112384686">
        <ele>77.6</ele>
        <time>2017-11-27T18:16:20Z</time>
      </trkpt>
      <trkpt lat="62.630957247852" lon="17.971062491352">
        <ele>77.6</ele>
        <time>2017-11-27T18:16:21Z</time>
      </trkpt>
      <trkpt lat="62.630945597011" lon="17.971002896043">
        <ele>77.4</ele>
        <time>2017-11-27T18:16:22Z</time>
      </trkpt>
      <trkpt lat="62.630942663346" lon="17.970943719829">
        <ele>77.4</ele>
        <time>2017-11-27T18:16:23Z</time>
      </trkpt>
      <trkpt lat="62.630934281446" lon="17.970876999905">
        <ele>77.2</ele>
        <time>2017-11-27T18:16:24Z</time>
      </trkpt>
      <trkpt lat="62.630925983365" lon="17.970826457048">
        <ele>77.2</ele>
        <time>2017-11-27T18:16:25Z</time>
      </trkpt>
      <trkpt lat="62.630920702768" lon="17.970757893106">
        <ele>77.2</ele>
        <time>2017-11-27T18:16:26Z</time>
      </trkpt>
      <trkpt lat="62.63091382961" lon="17.97070056091">
        <ele>77</ele>
        <time>2017-11-27T18:16:27Z</time>
      </trkpt>
      <trkpt lat="62.630906788814" lon="17.970641300877">
        <ele>76.8</ele>
        <time>2017-11-27T18:16:28Z</time>
      </trkpt>
      <trkpt lat="62.630897233448" lon="17.970583298129">
        <ele>76.8</ele>
        <time>2017-11-27T18:16:29Z</time>
      </trkpt>
      <trkpt lat="62.630890108833" lon="17.970524960105">
        <ele>76.6</ele>
        <time>2017-11-27T18:16:30Z</time>
      </trkpt>
      <trkpt lat="62.630875356689" lon="17.970466538262">
        <ele>76.4</ele>
        <time>2017-11-27T18:16:31Z</time>
      </trkpt>
      <trkpt lat="62.630866136599" lon="17.970403506374">
        <ele>76.2</ele>
        <time>2017-11-27T18:16:32Z</time>
      </trkpt>
      <trkpt lat="62.630854485758" lon="17.970353801707">
        <ele>76.2</ele>
        <time>2017-11-27T18:16:33Z</time>
      </trkpt>
      <trkpt lat="62.63084425984" lon="17.970301917746">
        <ele>76.2</ele>
        <time>2017-11-27T18:16:34Z</time>
      </trkpt>
      <trkpt lat="62.630832860456" lon="17.970262103721">
        <ele>76</ele>
        <time>2017-11-27T18:16:35Z</time>
      </trkpt>
      <trkpt lat="62.630795896277" lon="17.970239640229">
        <ele>76</ele>
        <time>2017-11-27T18:16:37Z</time>
      </trkpt>
      <trkpt lat="62.630784832169" lon="17.970263193368">
        <ele>76</ele>
        <time>2017-11-27T18:16:38Z</time>
      </trkpt>
      <trkpt lat="62.630769325654" lon="17.970266965223">
        <ele>76</ele>
        <time>2017-11-27T18:16:39Z</time>
      </trkpt>
      <trkpt lat="62.630758177727" lon="17.970278783702">
        <ele>76</ele>
        <time>2017-11-27T18:16:40Z</time>
      </trkpt>
      <trkpt lat="62.630739402271" lon="17.970285321584">
        <ele>76</ele>
        <time>2017-11-27T18:16:41Z</time>
      </trkpt>
      <trkpt lat="62.630719956263" lon="17.970276939684">
        <ele>76</ele>
        <time>2017-11-27T18:16:42Z</time>
      </trkpt>
      <trkpt lat="62.630695984029" lon="17.970276520589">
        <ele>76</ele>
        <time>2017-11-27T18:16:43Z</time>
      </trkpt>
      <trkpt lat="62.630674861641" lon="17.970280711539">
        <ele>76</ele>
        <time>2017-11-27T18:16:44Z</time>
      </trkpt>
      <trkpt lat="62.630659522764" lon="17.97026973125">
        <ele>76</ele>
        <time>2017-11-27T18:16:45Z</time>
      </trkpt>
      <trkpt lat="62.630637981281" lon="17.970267887232">
        <ele>76.2</ele>
        <time>2017-11-27T18:16:46Z</time>
      </trkpt>
      <trkpt lat="62.630621385119" lon="17.970275263304">
        <ele>76.2</ele>
        <time>2017-11-27T18:16:47Z</time>
      </trkpt>
      <trkpt lat="62.630605459509" lon="17.970278699883">
        <ele>76.2</ele>
        <time>2017-11-27T18:16:48Z</time>
      </trkpt>
      <trkpt lat="62.630581403456" lon="17.970294290217">
        <ele>76.2</ele>
        <time>2017-11-27T18:16:49Z</time>
      </trkpt>
      <trkpt lat="62.630563550009" lon="17.97029403876">
        <ele>76.2</ele>
        <time>2017-11-27T18:16:50Z</time>
      </trkpt>
      <trkpt lat="62.630538991042" lon="17.970282555557">
        <ele>76.4</ele>
        <time>2017-11-27T18:16:51Z</time>
      </trkpt>
      <trkpt lat="62.630519377396" lon="17.970252213079">
        <ele>76.4</ele>
        <time>2017-11-27T18:16:52Z</time>
      </trkpt>
      <trkpt lat="62.630507223641" lon="17.970203178964">
        <ele>76.4</ele>
        <time>2017-11-27T18:16:53Z</time>
      </trkpt>
      <trkpt lat="62.63049473461" lon="17.970156491781">
        <ele>76.4</ele>
        <time>2017-11-27T18:16:54Z</time>
      </trkpt>
      <trkpt lat="62.630481239751" lon="17.970112319168">
        <ele>76.6</ele>
        <time>2017-11-27T18:16:55Z</time>
      </trkpt>
      <trkpt lat="62.630468583082" lon="17.970056998628">
        <ele>76.6</ele>
        <time>2017-11-27T18:16:56Z</time>
      </trkpt>
      <trkpt lat="62.63045785425" lon="17.970030344186">
        <ele>76.6</ele>
        <time>2017-11-27T18:16:57Z</time>
      </trkpt>
      <trkpt lat="62.630440419898" lon="17.970011987825">
        <ele>76.6</ele>
        <time>2017-11-27T18:16:58Z</time>
      </trkpt>
      <trkpt lat="62.630433043826" lon="17.969998828242">
        <ele>76.4</ele>
        <time>2017-11-27T18:16:59Z</time>
      </trkpt>
      <trkpt lat="62.630434468749" lon="17.96999061398">
        <ele>76.4</ele>
        <time>2017-11-27T18:17:00Z</time>
      </trkpt>
      <trkpt lat="62.630436145129" lon="17.969994050559">
        <ele>76.2</ele>
        <time>2017-11-27T18:17:01Z</time>
      </trkpt>
      <trkpt lat="62.630529854771" lon="17.97033008093">
        <ele>76.2</ele>
        <time>2017-11-27T18:17:57Z</time>
      </trkpt>
      <trkpt lat="62.630552066806" lon="17.970334690975">
        <ele>76.2</ele>
        <time>2017-11-27T18:17:58Z</time>
      </trkpt>
      <trkpt lat="62.630578302153" lon="17.9703242136">
        <ele>76.2</ele>
        <time>2017-11-27T18:17:59Z</time>
      </trkpt>
      <trkpt lat="62.630603783129" lon="17.970310048189">
        <ele>76.4</ele>
        <time>2017-11-27T18:18:00Z</time>
      </trkpt>
      <trkpt lat="62.630627084811" lon="17.970298062072">
        <ele>76.4</ele>
        <time>2017-11-27T18:18:01Z</time>
      </trkpt>
      <trkpt lat="62.630652733425" lon="17.970290350724">
        <ele>76.4</ele>
        <time>2017-11-27T18:18:02Z</time>
      </trkpt>
      <trkpt lat="62.630676118926" lon="17.97028062772">
        <ele>76.4</ele>
        <time>2017-11-27T18:18:03Z</time>
      </trkpt>
      <trkpt lat="62.630700761712" lon="17.970268809241">
        <ele>76.4</ele>
        <time>2017-11-27T18:18:04Z</time>
      </trkpt>
      <trkpt lat="62.630720710634" lon="17.970257745133">
        <ele>76.4</ele>
        <time>2017-11-27T18:18:05Z</time>
      </trkpt>
      <trkpt lat="62.630745018144" lon="17.970246010473">
        <ele>76.4</ele>
        <time>2017-11-27T18:18:06Z</time>
      </trkpt>
      <trkpt lat="62.630765721437" lon="17.970237460935">
        <ele>76.4</ele>
        <time>2017-11-27T18:18:07Z</time>
      </trkpt>
      <trkpt lat="62.630785083626" lon="17.970226229189">
        <ele>76.4</ele>
        <time>2017-11-27T18:18:08Z</time>
      </trkpt>
      <trkpt lat="62.630804781091" lon="17.970215500357">
        <ele>76.2</ele>
        <time>2017-11-27T18:18:09Z</time>
      </trkpt>
      <trkpt lat="62.630818695045" lon="17.970208375742">
        <ele>76.2</ele>
        <time>2017-11-27T18:18:10Z</time>
      </trkpt>
      <trkpt lat="62.630832273723" lon="17.970200077661">
        <ele>76.2</ele>
        <time>2017-11-27T18:18:11Z</time>
      </trkpt>
      <trkpt lat="62.630846271496" lon="17.970192282494">
        <ele>76</ele>
        <time>2017-11-27T18:18:12Z</time>
      </trkpt>
      <trkpt lat="62.630857251785" lon="17.970186163707">
        <ele>76</ele>
        <time>2017-11-27T18:18:13Z</time>
      </trkpt>
      <trkpt lat="62.630869070264" lon="17.970182224214">
        <ele>75.8</ele>
        <time>2017-11-27T18:18:14Z</time>
      </trkpt>
      <trkpt lat="62.630876278698" lon="17.970176356884">
        <ele>75.8</ele>
        <time>2017-11-27T18:18:15Z</time>
      </trkpt>
      <trkpt lat="62.630875859603" lon="17.970177195074">
        <ele>75.6</ele>
        <time>2017-11-27T18:18:16Z</time>
      </trkpt>
      <trkpt lat="62.6308727583" lon="17.970178452359">
        <ele>75.4</ele>
        <time>2017-11-27T18:18:17Z</time>
      </trkpt>
      <trkpt lat="62.630870159911" lon="17.969792465864">
        <ele>75.2</ele>
        <time>2017-11-27T18:18:39Z</time>
      </trkpt>
      <trkpt lat="62.630866555694" lon="17.969752065106">
        <ele>75.4</ele>
        <time>2017-11-27T18:18:40Z</time>
      </trkpt>
      <trkpt lat="62.630862448563" lon="17.969699510593">
        <ele>75.2</ele>
        <time>2017-11-27T18:18:41Z</time>
      </trkpt>
      <trkpt lat="62.630858676708" lon="17.969648381003">
        <ele>75.2</ele>
        <time>2017-11-27T18:18:42Z</time>
      </trkpt>
      <trkpt lat="62.630857000328" lon="17.969618206163">
        <ele>75</ele>
        <time>2017-11-27T18:18:43Z</time>
      </trkpt>
      <trkpt lat="62.630851216817" lon="17.969566825116">
        <ele>74.8</ele>
        <time>2017-11-27T18:18:44Z</time>
      </trkpt>
      <trkpt lat="62.6308476126" lon="17.969525502349">
        <ele>74.4</ele>
        <time>2017-11-27T18:18:45Z</time>
      </trkpt>
      <trkpt lat="62.630844176021" lon="17.969481413555">
        <ele>74.2</ele>
        <time>2017-11-27T18:18:46Z</time>
      </trkpt>
      <trkpt lat="62.630839482157" lon="17.969435396924">
        <ele>74</ele>
        <time>2017-11-27T18:18:47Z</time>
      </trkpt>
      <trkpt lat="62.630836129397" lon="17.969386698085">
        <ele>73.8</ele>
        <time>2017-11-27T18:18:48Z</time>
      </trkpt>
      <trkpt lat="62.630832776637" lon="17.969343028386">
        <ele>73.4</ele>
        <time>2017-11-27T18:18:49Z</time>
      </trkpt>
      <trkpt lat="62.630829088601" lon="17.969295167737">
        <ele>73.2</ele>
        <time>2017-11-27T18:18:50Z</time>
      </trkpt>
      <trkpt lat="62.630826490212" lon="17.969242697043">
        <ele>73</ele>
        <time>2017-11-27T18:18:51Z</time>
      </trkpt>
      <trkpt lat="62.63082414328" lon="17.969192154186">
        <ele>72.8</ele>
        <time>2017-11-27T18:18:52Z</time>
      </trkpt>
      <trkpt lat="62.630820203787" lon="17.969147311021">
        <ele>72.6</ele>
        <time>2017-11-27T18:18:53Z</time>
      </trkpt>
      <trkpt lat="62.630816012837" lon="17.969091403748">
        <ele>72.4</ele>
        <time>2017-11-27T18:18:54Z</time>
      </trkpt>
      <trkpt lat="62.630811235154" lon="17.969045638574">
        <ele>72.4</ele>
        <time>2017-11-27T18:18:55Z</time>
      </trkpt>
      <trkpt lat="62.630806373652" lon="17.968985959446">
        <ele>72.2</ele>
        <time>2017-11-27T18:18:56Z</time>
      </trkpt>
      <trkpt lat="62.630801931245" lon="17.968934997494">
        <ele>72</ele>
        <time>2017-11-27T18:18:57Z</time>
      </trkpt>
      <trkpt lat="62.630795561001" lon="17.968894010003">
        <ele>71.8</ele>
        <time>2017-11-27T18:18:58Z</time>
      </trkpt>
      <trkpt lat="62.630787346739" lon="17.968841371671">
        <ele>71.6</ele>
        <time>2017-11-27T18:18:59Z</time>
      </trkpt>
      <trkpt lat="62.630778629563" lon="17.968793930117">
        <ele>71.4</ele>
        <time>2017-11-27T18:19:00Z</time>
      </trkpt>
      <trkpt lat="62.630769577111" lon="17.96874590183">
        <ele>71</ele>
        <time>2017-11-27T18:19:01Z</time>
      </trkpt>
      <trkpt lat="62.630756501347" lon="17.968695023697">
        <ele>70.8</ele>
        <time>2017-11-27T18:19:02Z</time>
      </trkpt>
      <trkpt lat="62.630741246289" lon="17.968650431989">
        <ele>70.2</ele>
        <time>2017-11-27T18:19:03Z</time>
      </trkpt>
      <trkpt lat="62.630724733946" lon="17.968611204697">
        <ele>69.8</ele>
        <time>2017-11-27T18:19:04Z</time>
      </trkpt>
      <trkpt lat="62.630710736173" lon="17.96858245478">
        <ele>69.4</ele>
        <time>2017-11-27T18:19:05Z</time>
      </trkpt>
      <trkpt lat="62.630691793079" lon="17.968539958547">
        <ele>69</ele>
        <time>2017-11-27T18:19:06Z</time>
      </trkpt>
      <trkpt lat="62.630676538021" lon="17.968505257481">
        <ele>68.8</ele>
        <time>2017-11-27T18:19:07Z</time>
      </trkpt>
      <trkpt lat="62.630654996538" lon="17.968473909175">
        <ele>68.4</ele>
        <time>2017-11-27T18:19:08Z</time>
      </trkpt>
      <trkpt lat="62.630636304901" lon="17.968443566697">
        <ele>68</ele>
        <time>2017-11-27T18:19:09Z</time>
      </trkpt>
      <trkpt lat="62.630623145318" lon="17.968414732961">
        <ele>67.8</ele>
        <time>2017-11-27T18:19:10Z</time>
      </trkpt>
      <trkpt lat="62.630606465337" lon="17.968375924764">
        <ele>67.4</ele>
        <time>2017-11-27T18:19:11Z</time>
      </trkpt>
      <trkpt lat="62.630587438424" lon="17.968334434359">
        <ele>67.2</ele>
        <time>2017-11-27T18:19:12Z</time>
      </trkpt>
      <trkpt lat="62.630572937737" lon="17.968300906759">
        <ele>67</ele>
        <time>2017-11-27T18:19:13Z</time>
      </trkpt>
      <trkpt lat="62.630557850317" lon="17.968256817965">
        <ele>66.8</ele>
        <time>2017-11-27T18:19:14Z</time>
      </trkpt>
      <trkpt lat="62.630543768725" lon="17.968214405551">
        <ele>66.6</ele>
        <time>2017-11-27T18:19:15Z</time>
      </trkpt>
      <trkpt lat="62.630528010753" lon="17.968165119979">
        <ele>66.2</ele>
        <time>2017-11-27T18:19:16Z</time>
      </trkpt>
      <trkpt lat="62.630515437903" lon="17.968120025357">
        <ele>66</ele>
        <time>2017-11-27T18:19:17Z</time>
      </trkpt>
      <trkpt lat="62.630502781234" lon="17.96806445336">
        <ele>65.8</ele>
        <time>2017-11-27T18:19:18Z</time>
      </trkpt>
      <trkpt lat="62.630492387678" lon="17.968016508892">
        <ele>65.6</ele>
        <time>2017-11-27T18:19:19Z</time>
      </trkpt>
      <trkpt lat="62.630485095425" lon="17.967965211664">
        <ele>65.4</ele>
        <time>2017-11-27T18:19:20Z</time>
      </trkpt>
      <trkpt lat="62.630478976638" lon="17.967905113441">
        <ele>65.2</ele>
        <time>2017-11-27T18:19:21Z</time>
      </trkpt>
      <trkpt lat="62.630475791516" lon="17.967856246964">
        <ele>64.8</ele>
        <time>2017-11-27T18:19:22Z</time>
      </trkpt>
      <trkpt lat="62.63047210348" lon="17.96780545265">
        <ele>64.6</ele>
        <time>2017-11-27T18:19:23Z</time>
      </trkpt>
      <trkpt lat="62.630468247806" lon="17.967742169305">
        <ele>64.2</ele>
        <time>2017-11-27T18:19:24Z</time>
      </trkpt>
      <trkpt lat="62.630467744892" lon="17.967692213181">
        <ele>64</ele>
        <time>2017-11-27T18:19:25Z</time>
      </trkpt>
      <trkpt lat="62.630466906702" lon="17.967633791338">
        <ele>63.6</ele>
        <time>2017-11-27T18:19:26Z</time>
      </trkpt>
      <trkpt lat="62.630468834539" lon="17.967576794418">
        <ele>63.4</ele>
        <time>2017-11-27T18:19:27Z</time>
      </trkpt>
      <trkpt lat="62.630470678557" lon="17.967527844122">
        <ele>62.8</ele>
        <time>2017-11-27T18:19:28Z</time>
      </trkpt>
      <trkpt lat="62.63047294167" lon="17.967476630713">
        <ele>62.6</ele>
        <time>2017-11-27T18:19:29Z</time>
      </trkpt>
      <trkpt lat="62.630477300258" lon="17.967418795603">
        <ele>62.2</ele>
        <time>2017-11-27T18:19:30Z</time>
      </trkpt>
      <trkpt lat="62.630480150104" lon="17.967358529742">
        <ele>61.8</ele>
        <time>2017-11-27T18:19:31Z</time>
      </trkpt>
      <trkpt lat="62.630482832312" lon="17.967306981057">
        <ele>61.6</ele>
        <time>2017-11-27T18:19:32Z</time>
      </trkpt>
      <trkpt lat="62.630486855624" lon="17.967244535902">
        <ele>61.2</ele>
        <time>2017-11-27T18:19:33Z</time>
      </trkpt>
      <trkpt lat="62.630489956927" lon="17.967186114059">
        <ele>60.8</ele>
        <time>2017-11-27T18:19:34Z</time>
      </trkpt>
      <trkpt lat="62.630491130393" lon="17.967143450188">
        <ele>60.8</ele>
        <time>2017-11-27T18:19:35Z</time>
      </trkpt>
      <trkpt lat="62.630496746266" lon="17.967075053884">
        <ele>60.4</ele>
        <time>2017-11-27T18:19:36Z</time>
      </trkpt>
      <trkpt lat="62.63049976375" lon="17.96701420129">
        <ele>60</ele>
        <time>2017-11-27T18:19:37Z</time>
      </trkpt>
      <trkpt lat="62.630502529777" lon="17.966966508279">
        <ele>59.8</ele>
        <time>2017-11-27T18:19:38Z</time>
      </trkpt>
      <trkpt lat="62.630505295804" lon="17.96690858935">
        <ele>59.4</ele>
        <time>2017-11-27T18:19:39Z</time>
      </trkpt>
      <trkpt lat="62.630508480926" lon="17.966854609914">
        <ele>59.2</ele>
        <time>2017-11-27T18:19:40Z</time>
      </trkpt>
      <trkpt lat="62.630510324944" lon="17.96680297741">
        <ele>59</ele>
        <time>2017-11-27T18:19:41Z</time>
      </trkpt>
      <trkpt lat="62.630513677704" lon="17.966744890843">
        <ele>58.8</ele>
        <time>2017-11-27T18:19:42Z</time>
      </trkpt>
      <trkpt lat="62.630516276093" lon="17.966693845072">
        <ele>58.4</ele>
        <time>2017-11-27T18:19:43Z</time>
      </trkpt>
      <trkpt lat="62.630518287749" lon="17.966638440713">
        <ele>58.2</ele>
        <time>2017-11-27T18:19:44Z</time>
      </trkpt>
      <trkpt lat="62.630519796491" lon="17.966586975847">
        <ele>58</ele>
        <time>2017-11-27T18:19:45Z</time>
      </trkpt>
      <trkpt lat="62.630523400708" lon="17.966528470185">
        <ele>57.6</ele>
        <time>2017-11-27T18:19:46Z</time>
      </trkpt>
      <trkpt lat="62.630526837287" lon="17.966481531545">
        <ele>57.4</ele>
        <time>2017-11-27T18:19:47Z</time>
      </trkpt>
      <trkpt lat="62.630531447332" lon="17.966427552109">
        <ele>57</ele>
        <time>2017-11-27T18:19:48Z</time>
      </trkpt>
      <trkpt lat="62.630532285522" lon="17.966372818302">
        <ele>56.6</ele>
        <time>2017-11-27T18:19:49Z</time>
      </trkpt>
      <trkpt lat="62.630532704617" lon="17.966322023988">
        <ele>56.4</ele>
        <time>2017-11-27T18:19:50Z</time>
      </trkpt>
      <trkpt lat="62.630535135368" lon="17.966274582434">
        <ele>56.2</ele>
        <time>2017-11-27T18:19:51Z</time>
      </trkpt>
      <trkpt lat="62.630537063205" lon="17.966224961586">
        <ele>55.8</ele>
        <time>2017-11-27T18:19:52Z</time>
      </trkpt>
      <trkpt lat="62.630537733757" lon="17.96617768767">
        <ele>55.4</ele>
        <time>2017-11-27T18:19:53Z</time>
      </trkpt>
      <trkpt lat="62.630540583603" lon="17.966127228632">
        <ele>55.2</ele>
        <time>2017-11-27T18:19:54Z</time>
      </trkpt>
      <trkpt lat="62.630543517268" lon="17.966078445974">
        <ele>55</ele>
        <time>2017-11-27T18:19:55Z</time>
      </trkpt>
      <trkpt lat="62.630545696562" lon="17.96602681347">
        <ele>54.8</ele>
        <time>2017-11-27T18:19:56Z</time>
      </trkpt>
      <trkpt lat="62.630552234444" lon="17.965983395228">
        <ele>54.6</ele>
        <time>2017-11-27T18:19:57Z</time>
      </trkpt>
      <trkpt lat="62.630553827005" lon="17.965927320317">
        <ele>54.4</ele>
        <time>2017-11-27T18:19:58Z</time>
      </trkpt>
      <trkpt lat="62.630555587204" lon="17.965873592338">
        <ele>54.2</ele>
        <time>2017-11-27T18:19:59Z</time>
      </trkpt>
      <trkpt lat="62.630557012127" lon="17.965821624558">
        <ele>54.2</ele>
        <time>2017-11-27T18:20:00Z</time>
      </trkpt>
      <trkpt lat="62.630557766498" lon="17.965765130552">
        <ele>54</ele>
        <time>2017-11-27T18:20:01Z</time>
      </trkpt>
      <trkpt lat="62.63055676067" lon="17.965713917143">
        <ele>53.8</ele>
        <time>2017-11-27T18:20:02Z</time>
      </trkpt>
      <trkpt lat="62.630555168109" lon="17.965668235788">
        <ele>53.6</ele>
        <time>2017-11-27T18:20:03Z</time>
      </trkpt>
      <trkpt lat="62.630553491729" lon="17.965629259953">
        <ele>53.4</ele>
        <time>2017-11-27T18:20:04Z</time>
      </trkpt>
      <trkpt lat="62.630551060978" lon="17.965610819773">
        <ele>53.4</ele>
        <time>2017-11-27T18:20:05Z</time>
      </trkpt>
      <trkpt lat="62.630546283295" lon="17.965576202526">
        <ele>53.2</ele>
        <time>2017-11-27T18:20:06Z</time>
      </trkpt>
      <trkpt lat="62.630544020182" lon="17.965552230292">
        <ele>53.2</ele>
        <time>2017-11-27T18:20:07Z</time>
      </trkpt>
      <trkpt lat="62.630542595259" lon="17.96553144318">
        <ele>52.8</ele>
        <time>2017-11-27T18:20:08Z</time>
      </trkpt>
      <trkpt lat="62.630545109829" lon="17.965518702692">
        <ele>52.6</ele>
        <time>2017-11-27T18:20:09Z</time>
      </trkpt>
      <trkpt lat="62.630546618571" lon="17.965507470946">
        <ele>52.4</ele>
        <time>2017-11-27T18:20:10Z</time>
      </trkpt>
      <trkpt lat="62.630546953847" lon="17.965516188122">
        <ele>52.2</ele>
        <time>2017-11-27T18:20:11Z</time>
      </trkpt>
      <trkpt lat="62.630562628" lon="17.96588096841">
        <ele>52.4</ele>
        <time>2017-11-27T18:20:32Z</time>
      </trkpt>
      <trkpt lat="62.630562292724" lon="17.965925476299">
        <ele>52.6</ele>
        <time>2017-11-27T18:20:33Z</time>
      </trkpt>
      <trkpt lat="62.630560867801" lon="17.965983059952">
        <ele>52.8</ele>
        <time>2017-11-27T18:20:34Z</time>
      </trkpt>
      <trkpt lat="62.630560448706" lon="17.966021281416">
        <ele>53.2</ele>
        <time>2017-11-27T18:20:35Z</time>
      </trkpt>
      <trkpt lat="62.630556509213" lon="17.966086827874">
        <ele>53.4</ele>
        <time>2017-11-27T18:20:36Z</time>
      </trkpt>
      <trkpt lat="62.630554162281" lon="17.966143992432">
        <ele>53.6</ele>
        <time>2017-11-27T18:20:37Z</time>
      </trkpt>
      <trkpt lat="62.630554497557" lon="17.966193278004">
        <ele>53.8</ele>
        <time>2017-11-27T18:20:38Z</time>
      </trkpt>
      <trkpt lat="62.63055089334" lon="17.966247425078">
        <ele>54.2</ele>
        <time>2017-11-27T18:20:39Z</time>
      </trkpt>
      <trkpt lat="62.630550977159" lon="17.966295704822">
        <ele>54.2</ele>
        <time>2017-11-27T18:20:40Z</time>
      </trkpt>
      <trkpt lat="62.630549384598" lon="17.966349181344">
        <ele>54.2</ele>
        <time>2017-11-27T18:20:41Z</time>
      </trkpt>
      <trkpt lat="62.630546115657" lon="17.966408357558">
        <ele>54.6</ele>
        <time>2017-11-27T18:20:42Z</time>
      </trkpt>
      <trkpt lat="62.630543517268" lon="17.966459403329">
        <ele>54.8</ele>
        <time>2017-11-27T18:20:43Z</time>
      </trkpt>
      <trkpt lat="62.630542259983" lon="17.966515981154">
        <ele>55</ele>
        <time>2017-11-27T18:20:44Z</time>
      </trkpt>
      <trkpt lat="62.630542679078" lon="17.966561997785">
        <ele>55.2</ele>
        <time>2017-11-27T18:20:45Z</time>
      </trkpt>
      <trkpt lat="62.630540415965" lon="17.966616480135">
        <ele>55.2</ele>
        <time>2017-11-27T18:20:46Z</time>
      </trkpt>
      <trkpt lat="62.630538236671" lon="17.966665765707">
        <ele>55.6</ele>
        <time>2017-11-27T18:20:47Z</time>
      </trkpt>
      <trkpt lat="62.630536057377" lon="17.966720080419">
        <ele>55.8</ele>
        <time>2017-11-27T18:20:48Z</time>
      </trkpt>
      <trkpt lat="62.630533039893" lon="17.966773473122">
        <ele>56</ele>
        <time>2017-11-27T18:20:49Z</time>
      </trkpt>
      <trkpt lat="62.630532369341" lon="17.966815382622">
        <ele>56</ele>
        <time>2017-11-27T18:20:50Z</time>
      </trkpt>
      <trkpt lat="62.630528346029" lon="17.966873720646">
        <ele>56.4</ele>
        <time>2017-11-27T18:20:51Z</time>
      </trkpt>
      <trkpt lat="62.630524238898" lon="17.966926107521">
        <ele>56.8</ele>
        <time>2017-11-27T18:20:52Z</time>
      </trkpt>
      <trkpt lat="62.630524155079" lon="17.96696810084">
        <ele>57</ele>
        <time>2017-11-27T18:20:53Z</time>
      </trkpt>
      <trkpt lat="62.630521221414" lon="17.967022667009">
        <ele>57.2</ele>
        <time>2017-11-27T18:20:54Z</time>
      </trkpt>
      <trkpt lat="62.630521472871" lon="17.967066588165">
        <ele>57.8</ele>
        <time>2017-11-27T18:20:55Z</time>
      </trkpt>
      <trkpt lat="62.630518539206" lon="17.967117047203">
        <ele>58</ele>
        <time>2017-11-27T18:20:56Z</time>
      </trkpt>
      <trkpt lat="62.630515186446" lon="17.96716759006">
        <ele>58.2</ele>
        <time>2017-11-27T18:20:57Z</time>
      </trkpt>
      <trkpt lat="62.630514767351" lon="17.967210421569">
        <ele>58.6</ele>
        <time>2017-11-27T18:20:58Z</time>
      </trkpt>
      <trkpt lat="62.630513007152" lon="17.967254342725">
        <ele>58.6</ele>
        <time>2017-11-27T18:20:59Z</time>
      </trkpt>
      <trkpt lat="62.630511833686" lon="17.967287199773">
        <ele>59</ele>
        <time>2017-11-27T18:21:00Z</time>
      </trkpt>
      <trkpt lat="62.630508313288" lon="17.967347130358">
        <ele>59</ele>
        <time>2017-11-27T18:21:01Z</time>
      </trkpt>
      <trkpt lat="62.630505379623" lon="17.967396164473">
        <ele>59.4</ele>
        <time>2017-11-27T18:21:02Z</time>
      </trkpt>
      <trkpt lat="62.630503703243" lon="17.967439415077">
        <ele>59.8</ele>
        <time>2017-11-27T18:21:03Z</time>
      </trkpt>
      <trkpt lat="62.630500434302" lon="17.967488365373">
        <ele>60</ele>
        <time>2017-11-27T18:21:04Z</time>
      </trkpt>
      <trkpt lat="62.630499847569" lon="17.967518959308">
        <ele>60.2</ele>
        <time>2017-11-27T18:21:05Z</time>
      </trkpt>
      <trkpt lat="62.630499344655" lon="17.967575537133">
        <ele>60.2</ele>
        <time>2017-11-27T18:21:06Z</time>
      </trkpt>
      <trkpt lat="62.630499093198" lon="17.967623397782">
        <ele>60.4</ele>
        <time>2017-11-27T18:21:07Z</time>
      </trkpt>
      <trkpt lat="62.63049976375" lon="17.967666648386">
        <ele>60.6</ele>
        <time>2017-11-27T18:21:08Z</time>
      </trkpt>
      <trkpt lat="62.630499512293" lon="17.96771325175">
        <ele>60.8</ele>
        <time>2017-11-27T18:21:09Z</time>
      </trkpt>
      <trkpt lat="62.630499679931" lon="17.967757256725">
        <ele>61</ele>
        <time>2017-11-27T18:21:10Z</time>
      </trkpt>
      <trkpt lat="62.63050144013" lon="17.967799836777">
        <ele>61.2</ele>
        <time>2017-11-27T18:21:11Z</time>
      </trkpt>
      <trkpt lat="62.630503619424" lon="17.96784987672">
        <ele>61.6</ele>
        <time>2017-11-27T18:21:12Z</time>
      </trkpt>
      <trkpt lat="62.63050730746" lon="17.967890277478">
        <ele>62</ele>
        <time>2017-11-27T18:21:13Z</time>
      </trkpt>
      <trkpt lat="62.630509570573" lon="17.967934617729">
        <ele>62.4</ele>
        <time>2017-11-27T18:21:14Z</time>
      </trkpt>
      <trkpt lat="62.630512755695" lon="17.967980299084">
        <ele>62.6</ele>
        <time>2017-11-27T18:21:15Z</time>
      </trkpt>
      <trkpt lat="62.630519796491" lon="17.968025561344">
        <ele>63</ele>
        <time>2017-11-27T18:21:16Z</time>
      </trkpt>
      <trkpt lat="62.630528597486" lon="17.968068225215">
        <ele>63.2</ele>
        <time>2017-11-27T18:21:17Z</time>
      </trkpt>
      <trkpt lat="62.630539242499" lon="17.968107284869">
        <ele>63.6</ele>
        <time>2017-11-27T18:21:18Z</time>
      </trkpt>
      <trkpt lat="62.630549300779" lon="17.968144249048">
        <ele>63.6</ele>
        <time>2017-11-27T18:21:19Z</time>
      </trkpt>
      <trkpt lat="62.630558520869" lon="17.968176519363">
        <ele>63.8</ele>
        <time>2017-11-27T18:21:20Z</time>
      </trkpt>
      <trkpt lat="62.630569417339" lon="17.968216501026">
        <ele>64</ele>
        <time>2017-11-27T18:21:21Z</time>
      </trkpt>
      <trkpt lat="62.630580649085" lon="17.96825304611">
        <ele>64.4</ele>
        <time>2017-11-27T18:21:22Z</time>
      </trkpt>
      <trkpt lat="62.630590455908" lon="17.968286992805">
        <ele>64.4</ele>
        <time>2017-11-27T18:21:23Z</time>
      </trkpt>
      <trkpt lat="62.630601855292" lon="17.968317167645">
        <ele>64.6</ele>
        <time>2017-11-27T18:21:24Z</time>
      </trkpt>
      <trkpt lat="62.630611410658" lon="17.968349605598">
        <ele>64.8</ele>
        <time>2017-11-27T18:21:25Z</time>
      </trkpt>
      <trkpt lat="62.630625240793" lon="17.968379948076">
        <ele>65.2</ele>
        <time>2017-11-27T18:21:26Z</time>
      </trkpt>
      <trkpt lat="62.630640244394" lon="17.968408530355">
        <ele>65.2</ele>
        <time>2017-11-27T18:21:27Z</time>
      </trkpt>
      <trkpt lat="62.630655918547" lon="17.968441806498">
        <ele>65.4</ele>
        <time>2017-11-27T18:21:28Z</time>
      </trkpt>
      <trkpt lat="62.630672179433" lon="17.968468544759">
        <ele>65.6</ele>
        <time>2017-11-27T18:21:29Z</time>
      </trkpt>
      <trkpt lat="62.6306883565" lon="17.968496037391">
        <ele>65.8</ele>
        <time>2017-11-27T18:21:30Z</time>
      </trkpt>
      <trkpt lat="62.630705204119" lon="17.968529900267">
        <ele>66</ele>
        <time>2017-11-27T18:21:31Z</time>
      </trkpt>
      <trkpt lat="62.630720375358" lon="17.968551609388">
        <ele>66.2</ele>
        <time>2017-11-27T18:21:32Z</time>
      </trkpt>
      <trkpt lat="62.630733115846" lon="17.968582790056">
        <ele>66.6</ele>
        <time>2017-11-27T18:21:33Z</time>
      </trkpt>
      <trkpt lat="62.630745269601" lon="17.968613635448">
        <ele>67</ele>
        <time>2017-11-27T18:21:34Z</time>
      </trkpt>
      <trkpt lat="62.630759686469" lon="17.968638278234">
        <ele>67.2</ele>
        <time>2017-11-27T18:21:35Z</time>
      </trkpt>
      <trkpt lat="62.630777037002" lon="17.968687144711">
        <ele>67.4</ele>
        <time>2017-11-27T18:21:36Z</time>
      </trkpt>
      <trkpt lat="62.630788268748" lon="17.96872494708">
        <ele>67.8</ele>
        <time>2017-11-27T18:21:37Z</time>
      </trkpt>
      <trkpt lat="62.630800171046" lon="17.96876266563">
        <ele>68.2</ele>
        <time>2017-11-27T18:21:38Z</time>
      </trkpt>
      <trkpt lat="62.630810396964" lon="17.96880373694">
        <ele>68.4</ele>
        <time>2017-11-27T18:21:39Z</time>
      </trkpt>
      <trkpt lat="62.630819281778" lon="17.968837683635">
        <ele>68.6</ele>
        <time>2017-11-27T18:21:40Z</time>
      </trkpt>
      <trkpt lat="62.630829423877" lon="17.968880263687">
        <ele>69</ele>
        <time>2017-11-27T18:21:41Z</time>
      </trkpt>
      <trkpt lat="62.630837805777" lon="17.968928291974">
        <ele>69.2</ele>
        <time>2017-11-27T18:21:42Z</time>
      </trkpt>
      <trkpt lat="62.630845349487" lon="17.968967519266">
        <ele>69.6</ele>
        <time>2017-11-27T18:21:43Z</time>
      </trkpt>
      <trkpt lat="62.630847696419" lon="17.969012278612">
        <ele>69.8</ele>
        <time>2017-11-27T18:21:44Z</time>
      </trkpt>
      <trkpt lat="62.630851132998" lon="17.969051086809">
        <ele>70</ele>
        <time>2017-11-27T18:21:45Z</time>
      </trkpt>
      <trkpt lat="62.63085431812" lon="17.969095091784">
        <ele>70.2</ele>
        <time>2017-11-27T18:21:46Z</time>
      </trkpt>
      <trkpt lat="62.630861694192" lon="17.969142114243">
        <ele>70.2</ele>
        <time>2017-11-27T18:21:47Z</time>
      </trkpt>
      <trkpt lat="62.630869489359" lon="17.969189471978">
        <ele>70.4</ele>
        <time>2017-11-27T18:21:48Z</time>
      </trkpt>
      <trkpt lat="62.630875691965" lon="17.969235740066">
        <ele>70.6</ele>
        <time>2017-11-27T18:21:49Z</time>
      </trkpt>
      <trkpt lat="62.630879128544" lon="17.969275554091">
        <ele>70.8</ele>
        <time>2017-11-27T18:21:50Z</time>
      </trkpt>
      <trkpt lat="62.630885582607" lon="17.969328360061">
        <ele>71</ele>
        <time>2017-11-27T18:21:51Z</time>
      </trkpt>
      <trkpt lat="62.630891114661" lon="17.969377729452">
        <ele>71.2</ele>
        <time>2017-11-27T18:21:52Z</time>
      </trkpt>
      <trkpt lat="62.630894132145" lon="17.969419974228">
        <ele>71.4</ele>
        <time>2017-11-27T18:21:53Z</time>
      </trkpt>
      <trkpt lat="62.630899328923" lon="17.969465487945">
        <ele>71.8</ele>
        <time>2017-11-27T18:21:54Z</time>
      </trkpt>
      <trkpt lat="62.630902849321" lon="17.96951033111">
        <ele>72.2</ele>
        <time>2017-11-27T18:21:55Z</time>
      </trkpt>
      <trkpt lat="62.630907291728" lon="17.969555341913">
        <ele>72.4</ele>
        <time>2017-11-27T18:21:56Z</time>
      </trkpt>
      <trkpt lat="62.630910728307" lon="17.969601023268">
        <ele>72.6</ele>
        <time>2017-11-27T18:21:57Z</time>
      </trkpt>
      <trkpt lat="62.630915003076" lon="17.969647123718">
        <ele>73</ele>
        <time>2017-11-27T18:21:58Z</time>
      </trkpt>
      <trkpt lat="62.630920199854" lon="17.969665563898">
        <ele>73.2</ele>
        <time>2017-11-27T18:21:59Z</time>
      </trkpt>
      <trkpt lat="62.630933778532" lon="17.969705461742">
        <ele>73.4</ele>
        <time>2017-11-27T18:22:00Z</time>
      </trkpt>
      <trkpt lat="62.6309398135" lon="17.969729266338">
        <ele>73.8</ele>
        <time>2017-11-27T18:22:01Z</time>
      </trkpt>
      <trkpt lat="62.63093729893" lon="17.969743515568">
        <ele>74</ele>
        <time>2017-11-27T18:22:02Z</time>
      </trkpt>
      <trkpt lat="62.630934029989" lon="17.969734630754">
        <ele>74</ele>
        <time>2017-11-27T18:22:03Z</time>
      </trkpt>
      <trkpt lat="62.630932185971" lon="17.969722560818">
        <ele>74.2</ele>
        <time>2017-11-27T18:22:04Z</time>
      </trkpt>
      <trkpt lat="62.630929084668" lon="17.96970814395">
        <ele>74.4</ele>
        <time>2017-11-27T18:22:05Z</time>
      </trkpt>
      <trkpt lat="62.630926234822" lon="17.969678723481">
        <ele>74.4</ele>
        <time>2017-11-27T18:22:06Z</time>
      </trkpt>
      <trkpt lat="62.630919864578" lon="17.969664306613">
        <ele>74.4</ele>
        <time>2017-11-27T18:22:07Z</time>
      </trkpt>
      <trkpt lat="62.630915673628" lon="17.969643268044">
        <ele>74.4</ele>
        <time>2017-11-27T18:22:08Z</time>
      </trkpt>
      <trkpt lat="62.630911482678" lon="17.969620134">
        <ele>74.4</ele>
        <time>2017-11-27T18:22:09Z</time>
      </trkpt>
      <trkpt lat="62.630906621176" lon="17.969601358544">
        <ele>74.4</ele>
        <time>2017-11-27T18:22:10Z</time>
      </trkpt>
      <trkpt lat="62.63090293314" lon="17.969573865912">
        <ele>74.2</ele>
        <time>2017-11-27T18:22:11Z</time>
      </trkpt>
      <trkpt lat="62.630900670027" lon="17.969541847054">
        <ele>74.2</ele>
        <time>2017-11-27T18:22:12Z</time>
      </trkpt>
      <trkpt lat="62.630897484905" lon="17.969512678042">
        <ele>74</ele>
        <time>2017-11-27T18:22:13Z</time>
      </trkpt>
      <trkpt lat="62.630892707222" lon="17.969483425211">
        <ele>73.8</ele>
        <time>2017-11-27T18:22:14Z</time>
      </trkpt>
      <trkpt lat="62.630888767729" lon="17.969454842932">
        <ele>73.6</ele>
        <time>2017-11-27T18:22:15Z</time>
      </trkpt>
      <trkpt lat="62.630884995874" lon="17.969424332816">
        <ele>73.4</ele>
        <time>2017-11-27T18:22:16Z</time>
      </trkpt>
      <trkpt lat="62.630880218191" lon="17.969402707514">
        <ele>73.2</ele>
        <time>2017-11-27T18:22:17Z</time>
      </trkpt>
      <trkpt lat="62.630874937594" lon="17.96937370614">
        <ele>73</ele>
        <time>2017-11-27T18:22:18Z</time>
      </trkpt>
      <trkpt lat="62.630871165739" lon="17.96935107501">
        <ele>72.8</ele>
        <time>2017-11-27T18:22:19Z</time>
      </trkpt>
      <trkpt lat="62.630866723332" lon="17.969326851319">
        <ele>72.8</ele>
        <time>2017-11-27T18:22:20Z</time>
      </trkpt>
      <trkpt lat="62.63086270002" lon="17.969292653167">
        <ele>72.6</ele>
        <time>2017-11-27T18:22:21Z</time>
      </trkpt>
      <trkpt lat="62.630861945649" lon="17.969263735612">
        <ele>72.4</ele>
        <time>2017-11-27T18:22:22Z</time>
      </trkpt>
      <trkpt lat="62.630856748871" lon="17.969235488609">
        <ele>72.2</ele>
        <time>2017-11-27T18:22:23Z</time>
      </trkpt>
      <trkpt lat="62.630852138826" lon="17.96920271538">
        <ele>72.2</ele>
        <time>2017-11-27T18:22:24Z</time>
      </trkpt>
      <trkpt lat="62.630850462446" lon="17.969179162241">
        <ele>72</ele>
        <time>2017-11-27T18:22:25Z</time>
      </trkpt>
      <trkpt lat="62.630847361143" lon="17.969143539166">
        <ele>71.8</ele>
        <time>2017-11-27T18:22:26Z</time>
      </trkpt>
      <trkpt lat="62.630843170193" lon="17.969114621611">
        <ele>71.6</ele>
        <time>2017-11-27T18:22:27Z</time>
      </trkpt>
      <trkpt lat="62.630840487985" lon="17.969083860038">
        <ele>71.6</ele>
        <time>2017-11-27T18:22:28Z</time>
      </trkpt>
      <trkpt lat="62.630837051406" lon="17.969061983279">
        <ele>71.4</ele>
        <time>2017-11-27T18:22:29Z</time>
      </trkpt>
      <trkpt lat="62.630835375026" lon="17.969031473163">
        <ele>71.4</ele>
        <time>2017-11-27T18:22:30Z</time>
      </trkpt>
      <trkpt lat="62.630833111913" lon="17.969000124857">
        <ele>71.2</ele>
        <time>2017-11-27T18:22:31Z</time>
      </trkpt>
      <trkpt lat="62.630829423877" lon="17.968969866198">
        <ele>71</ele>
        <time>2017-11-27T18:22:32Z</time>
      </trkpt>
      <trkpt lat="62.630826909307" lon="17.968943966127">
        <ele>71</ele>
        <time>2017-11-27T18:22:33Z</time>
      </trkpt>
      <trkpt lat="62.630824310918" lon="17.968915970581">
        <ele>71</ele>
        <time>2017-11-27T18:22:34Z</time>
      </trkpt>
      <trkpt lat="62.630823808004" lon="17.968897278944">
        <ele>70.8</ele>
        <time>2017-11-27T18:22:35Z</time>
      </trkpt>
      <trkpt lat="62.630818024493" lon="17.968864254258">
        <ele>70.8</ele>
        <time>2017-11-27T18:22:36Z</time>
      </trkpt>
      <trkpt lat="62.630812743896" lon="17.968837767454">
        <ele>70.6</ele>
        <time>2017-11-27T18:22:37Z</time>
      </trkpt>
      <trkpt lat="62.630808301489" lon="17.96881044246">
        <ele>70.4</ele>
        <time>2017-11-27T18:22:38Z</time>
      </trkpt>
      <trkpt lat="62.630801344512" lon="17.968783788018">
        <ele>70.2</ele>
        <time>2017-11-27T18:22:39Z</time>
      </trkpt>
      <trkpt lat="62.630796315372" lon="17.968760318698">
        <ele>69.8</ele>
        <time>2017-11-27T18:22:40Z</time>
      </trkpt>
      <trkpt lat="62.63079061568" lon="17.968735927369">
        <ele>69.6</ele>
        <time>2017-11-27T18:22:41Z</time>
      </trkpt>
      <trkpt lat="62.630778210468" lon="17.968704076149">
        <ele>69.4</ele>
        <time>2017-11-27T18:22:42Z</time>
      </trkpt>
      <trkpt lat="62.630767062541" lon="17.96868219939">
        <ele>69.2</ele>
        <time>2017-11-27T18:22:43Z</time>
      </trkpt>
      <trkpt lat="62.630754992605" lon="17.968654874396">
        <ele>69</ele>
        <time>2017-11-27T18:22:44Z</time>
      </trkpt>
      <trkpt lat="62.630744347592" lon="17.968627130307">
        <ele>68.8</ele>
        <time>2017-11-27T18:22:45Z</time>
      </trkpt>
      <trkpt lat="62.630731439466" lon="17.968597709838">
        <ele>68.6</ele>
        <time>2017-11-27T18:22:46Z</time>
      </trkpt>
      <trkpt lat="62.630718950435" lon="17.968569630473">
        <ele>68.6</ele>
        <time>2017-11-27T18:22:47Z</time>
      </trkpt>
      <trkpt lat="62.630704114472" lon="17.968533923579">
        <ele>68.4</ele>
        <time>2017-11-27T18:22:48Z</time>
      </trkpt>
      <trkpt lat="62.630692128355" lon="17.968505760395">
        <ele>68.4</ele>
        <time>2017-11-27T18:22:49Z</time>
      </trkpt>
      <trkpt lat="62.6306799746" lon="17.968479608867">
        <ele>68.2</ele>
        <time>2017-11-27T18:22:50Z</time>
      </trkpt>
      <trkpt lat="62.630659271307" lon="17.968448092923">
        <ele>68</ele>
        <time>2017-11-27T18:22:51Z</time>
      </trkpt>
      <trkpt lat="62.63064393243" lon="17.96841900773">
        <ele>68</ele>
        <time>2017-11-27T18:22:52Z</time>
      </trkpt>
      <trkpt lat="62.630629431743" lon="17.968393945849">
        <ele>67.6</ele>
        <time>2017-11-27T18:22:53Z</time>
      </trkpt>
      <trkpt lat="62.630611578296" lon="17.968365028294">
        <ele>67.6</ele>
        <time>2017-11-27T18:22:54Z</time>
      </trkpt>
      <trkpt lat="62.630595820324" lon="17.968332338884">
        <ele>67.4</ele>
        <time>2017-11-27T18:22:55Z</time>
      </trkpt>
      <trkpt lat="62.63058106818" lon="17.968303253691">
        <ele>67.2</ele>
        <time>2017-11-27T18:22:56Z</time>
      </trkpt>
      <trkpt lat="62.630568160054" lon="17.968269642272">
        <ele>67</ele>
        <time>2017-11-27T18:22:57Z</time>
      </trkpt>
      <trkpt lat="62.6305542461" lon="17.96822370946">
        <ele>67</ele>
        <time>2017-11-27T18:22:58Z</time>
      </trkpt>
      <trkpt lat="62.63054251144" lon="17.968184565987">
        <ele>66.6</ele>
        <time>2017-11-27T18:22:59Z</time>
      </trkpt>
      <trkpt lat="62.630531866427" lon="17.968143075582">
        <ele>66.2</ele>
        <time>2017-11-27T18:23:00Z</time>
      </trkpt>
      <trkpt lat="62.630521472871" lon="17.968098232417">
        <ele>65.8</ele>
        <time>2017-11-27T18:23:01Z</time>
      </trkpt>
      <trkpt lat="62.630511666048" lon="17.96805020413">
        <ele>65.4</ele>
        <time>2017-11-27T18:23:02Z</time>
      </trkpt>
      <trkpt lat="62.630504122338" lon="17.968006785888">
        <ele>65.2</ele>
        <time>2017-11-27T18:23:03Z</time>
      </trkpt>
      <trkpt lat="62.630496662447" lon="17.967961691266">
        <ele>64.8</ele>
        <time>2017-11-27T18:23:04Z</time>
      </trkpt>
      <trkpt lat="62.630491465669" lon="17.967925565277">
        <ele>64.6</ele>
        <time>2017-11-27T18:23:05Z</time>
      </trkpt>
      <trkpt lat="62.630486604167" lon="17.967870244737">
        <ele>64.4</ele>
        <time>2017-11-27T18:23:06Z</time>
      </trkpt>
      <trkpt lat="62.630482748493" lon="17.967826072124">
        <ele>64</ele>
        <time>2017-11-27T18:23:07Z</time>
      </trkpt>
      <trkpt lat="62.630480653018" lon="17.967774188163">
        <ele>63.8</ele>
        <time>2017-11-27T18:23:08Z</time>
      </trkpt>
      <trkpt lat="62.630477216439" lon="17.967724734953">
        <ele>63.6</ele>
        <time>2017-11-27T18:23:09Z</time>
      </trkpt>
      <trkpt lat="62.630475120964" lon="17.967679891788">
        <ele>63.4</ele>
        <time>2017-11-27T18:23:10Z</time>
      </trkpt>
      <trkpt lat="62.63047545624" lon="17.967635132442">
        <ele>63.2</ele>
        <time>2017-11-27T18:23:11Z</time>
      </trkpt>
      <trkpt lat="62.630476126792" lon="17.967582326472">
        <ele>63</ele>
        <time>2017-11-27T18:23:12Z</time>
      </trkpt>
      <trkpt lat="62.63047713262" lon="17.967536309841">
        <ele>62.8</ele>
        <time>2017-11-27T18:23:13Z</time>
      </trkpt>
      <trkpt lat="62.630478473724" lon="17.967489119744">
        <ele>62.6</ele>
        <time>2017-11-27T18:23:14Z</time>
      </trkpt>
      <trkpt lat="62.630482245579" lon="17.967442348742">
        <ele>62.4</ele>
        <time>2017-11-27T18:23:15Z</time>
      </trkpt>
      <trkpt lat="62.630484592511" lon="17.96739306317">
        <ele>62.2</ele>
        <time>2017-11-27T18:23:16Z</time>
      </trkpt>
      <trkpt lat="62.630485179244" lon="17.967353249145">
        <ele>62</ele>
        <time>2017-11-27T18:23:17Z</time>
      </trkpt>
      <trkpt lat="62.630486855624" lon="17.967299856442">
        <ele>61.6</ele>
        <time>2017-11-27T18:23:18Z</time>
      </trkpt>
      <trkpt lat="62.630488280547" lon="17.967251744336">
        <ele>61.2</ele>
        <time>2017-11-27T18:23:19Z</time>
      </trkpt>
      <trkpt lat="62.630490124565" lon="17.967212433225">
        <ele>61</ele>
        <time>2017-11-27T18:23:20Z</time>
      </trkpt>
      <trkpt lat="62.630492806773" lon="17.967159962531">
        <ele>60.8</ele>
        <time>2017-11-27T18:23:21Z</time>
      </trkpt>
      <trkpt lat="62.63049724918" lon="17.967110928416">
        <ele>60.4</ele>
        <time>2017-11-27T18:23:22Z</time>
      </trkpt>
      <trkpt lat="62.630500518121" lon="17.967066588165">
        <ele>60.2</ele>
        <time>2017-11-27T18:23:23Z</time>
      </trkpt>
      <trkpt lat="62.630502194501" lon="17.967017302593">
        <ele>59.8</ele>
        <time>2017-11-27T18:23:24Z</time>
      </trkpt>
      <trkpt lat="62.630505128166" lon="17.966971537419">
        <ele>59.4</ele>
        <time>2017-11-27T18:23:25Z</time>
      </trkpt>
      <trkpt lat="62.630508564745" lon="17.966919066725">
        <ele>59.2</ele>
        <time>2017-11-27T18:23:26Z</time>
      </trkpt>
      <trkpt lat="62.630511330772" lon="17.966872798637">
        <ele>58.8</ele>
        <time>2017-11-27T18:23:27Z</time>
      </trkpt>
      <trkpt lat="62.630513677704" lon="17.966822926332">
        <ele>58.8</ele>
        <time>2017-11-27T18:23:28Z</time>
      </trkpt>
      <trkpt lat="62.630517701016" lon="17.966773976036">
        <ele>58.4</ele>
        <time>2017-11-27T18:23:29Z</time>
      </trkpt>
      <trkpt lat="62.6305207185" lon="17.96672251117">
        <ele>58.2</ele>
        <time>2017-11-27T18:23:30Z</time>
      </trkpt>
      <trkpt lat="62.630522478699" lon="17.966673477055">
        <ele>57.8</ele>
        <time>2017-11-27T18:23:31Z</time>
      </trkpt>
      <trkpt lat="62.630524741812" lon="17.966620503447">
        <ele>57.6</ele>
        <time>2017-11-27T18:23:32Z</time>
      </trkpt>
      <trkpt lat="62.630527591658" lon="17.966571301694">
        <ele>57.2</ele>
        <time>2017-11-27T18:23:33Z</time>
      </trkpt>
      <trkpt lat="62.630528094572" lon="17.966524027778">
        <ele>57</ele>
        <time>2017-11-27T18:23:34Z</time>
      </trkpt>
      <trkpt lat="62.630529268038" lon="17.96648697978">
        <ele>57</ele>
        <time>2017-11-27T18:23:35Z</time>
      </trkpt>
      <trkpt lat="62.630531950246" lon="17.966433503258">
        <ele>56.6</ele>
        <time>2017-11-27T18:23:36Z</time>
      </trkpt>
      <trkpt lat="62.630533207531" lon="17.966386899894">
        <ele>56.6</ele>
        <time>2017-11-27T18:23:37Z</time>
      </trkpt>
      <trkpt lat="62.630534632454" lon="17.966340128892">
        <ele>56.4</ele>
        <time>2017-11-27T18:23:38Z</time>
      </trkpt>
      <trkpt lat="62.630536141196" lon="17.966293441709">
        <ele>56.2</ele>
        <time>2017-11-27T18:23:39Z</time>
      </trkpt>
      <trkpt lat="62.630538069033" lon="17.966250274924">
        <ele>56</ele>
        <time>2017-11-27T18:23:40Z</time>
      </trkpt>
      <trkpt lat="62.630540583603" lon="17.966209035976">
        <ele>55.6</ele>
        <time>2017-11-27T18:23:41Z</time>
      </trkpt>
      <trkpt lat="62.630541421793" lon="17.966158576938">
        <ele>55.4</ele>
        <time>2017-11-27T18:23:42Z</time>
      </trkpt>
      <trkpt lat="62.630543433449" lon="17.966108536995">
        <ele>55.2</ele>
        <time>2017-11-27T18:23:43Z</time>
      </trkpt>
      <trkpt lat="62.630545193648" lon="17.966058580871">
        <ele>55</ele>
        <time>2017-11-27T18:23:44Z</time>
      </trkpt>
      <trkpt lat="62.630547792037" lon="17.966013653887">
        <ele>54.8</ele>
        <time>2017-11-27T18:23:45Z</time>
      </trkpt>
      <trkpt lat="62.63054921696" lon="17.965961267012">
        <ele>54.6</ele>
        <time>2017-11-27T18:23:46Z</time>
      </trkpt>
      <trkpt lat="62.630549887512" lon="17.96591449601">
        <ele>54.4</ele>
        <time>2017-11-27T18:23:47Z</time>
      </trkpt>
      <trkpt lat="62.630551228616" lon="17.965864875162">
        <ele>54</ele>
        <time>2017-11-27T18:23:48Z</time>
      </trkpt>
      <trkpt lat="62.630549552236" lon="17.96581726597">
        <ele>54</ele>
        <time>2017-11-27T18:23:49Z</time>
      </trkpt>
      <trkpt lat="62.630550725702" lon="17.965774853556">
        <ele>53.8</ele>
        <time>2017-11-27T18:23:50Z</time>
      </trkpt>
      <trkpt lat="62.630550306607" lon="17.965723723966">
        <ele>53.6</ele>
        <time>2017-11-27T18:23:51Z</time>
      </trkpt>
      <trkpt lat="62.630550641883" lon="17.965678294068">
        <ele>53.4</ele>
        <time>2017-11-27T18:23:52Z</time>
      </trkpt>
      <trkpt lat="62.630553156453" lon="17.965633450903">
        <ele>53.2</ele>
        <time>2017-11-27T18:23:53Z</time>
      </trkpt>
      <trkpt lat="62.630553575548" lon="17.965591709041">
        <ele>53.2</ele>
        <time>2017-11-27T18:23:54Z</time>
      </trkpt>
      <trkpt lat="62.630551144797" lon="17.965555415414">
        <ele>53</ele>
        <time>2017-11-27T18:23:55Z</time>
      </trkpt>
      <trkpt lat="62.63055089334" lon="17.965528677153">
        <ele>52.8</ele>
        <time>2017-11-27T18:23:56Z</time>
      </trkpt>
      <trkpt lat="62.630550977159" lon="17.965509985516">
        <ele>52.8</ele>
        <time>2017-11-27T18:23:57Z</time>
      </trkpt>
      <trkpt lat="62.63055005515" lon="17.9654962392">
        <ele>52.6</ele>
        <time>2017-11-27T18:23:58Z</time>
      </trkpt>
      <trkpt lat="62.630555419566" lon="17.965502525625">
        <ele>52.4</ele>
        <time>2017-11-27T18:24:00Z</time>
      </trkpt>
      <trkpt lat="62.630778461925" lon="17.965424741593">
        <ele>52.2</ele>
        <time>2017-11-27T18:25:40Z</time>
      </trkpt>
      <trkpt lat="62.630801847426" lon="17.965436476253">
        <ele>52.4</ele>
        <time>2017-11-27T18:25:41Z</time>
      </trkpt>
      <trkpt lat="62.630836967587" lon="17.965452904777">
        <ele>52.4</ele>
        <time>2017-11-27T18:25:42Z</time>
      </trkpt>
      <trkpt lat="62.630863705848" lon="17.965464890894">
        <ele>52.6</ele>
        <time>2017-11-27T18:25:43Z</time>
      </trkpt>
      <trkpt lat="62.630889186824" lon="17.965487270567">
        <ele>52.6</ele>
        <time>2017-11-27T18:25:44Z</time>
      </trkpt>
      <trkpt lat="62.630915338352" lon="17.965488779309">
        <ele>52.8</ele>
        <time>2017-11-27T18:25:45Z</time>
      </trkpt>
      <trkpt lat="62.630945764649" lon="17.965492802621">
        <ele>52.8</ele>
        <time>2017-11-27T18:25:46Z</time>
      </trkpt>
      <trkpt lat="62.630966132666" lon="17.965480481228">
        <ele>53</ele>
        <time>2017-11-27T18:25:47Z</time>
      </trkpt>
      <trkpt lat="62.630995217859" lon="17.965455335528">
        <ele>53.4</ele>
        <time>2017-11-27T18:25:48Z</time>
      </trkpt>
      <trkpt lat="62.631019693007" lon="17.965424657774">
        <ele>53.4</ele>
        <time>2017-11-27T18:25:49Z</time>
      </trkpt>
      <trkpt lat="62.631041150671" lon="17.965385681939">
        <ele>53.6</ele>
        <time>2017-11-27T18:25:50Z</time>
      </trkpt>
      <trkpt lat="62.631068810941" lon="17.965351902882">
        <ele>53.8</ele>
        <time>2017-11-27T18:25:51Z</time>
      </trkpt>
      <trkpt lat="62.631089346596" lon="17.965323069146">
        <ele>54</ele>
        <time>2017-11-27T18:25:52Z</time>
      </trkpt>
      <trkpt lat="62.631113067373" lon="17.96528920627">
        <ele>54</ele>
        <time>2017-11-27T18:25:53Z</time>
      </trkpt>
      <trkpt lat="62.631137374883" lon="17.965259785801">
        <ele>54</ele>
        <time>2017-11-27T18:25:54Z</time>
      </trkpt>
      <trkpt lat="62.63116863937" lon="17.965250062797">
        <ele>54</ele>
        <time>2017-11-27T18:25:55Z</time>
      </trkpt>
      <trkpt lat="62.631197892201" lon="17.965250062797">
        <ele>54</ele>
        <time>2017-11-27T18:25:56Z</time>
      </trkpt>
      <trkpt lat="62.631224379005" lon="17.965265066398">
        <ele>54</ele>
        <time>2017-11-27T18:25:57Z</time>
      </trkpt>
      <trkpt lat="62.631246674859" lon="17.965298091084">
        <ele>54</ele>
        <time>2017-11-27T18:25:58Z</time>
      </trkpt>
      <trkpt lat="62.631267294333" lon="17.965324326431">
        <ele>53.8</ele>
        <time>2017-11-27T18:25:59Z</time>
      </trkpt>
      <trkpt lat="62.631290679834" lon="17.965365313922">
        <ele>54</ele>
        <time>2017-11-27T18:26:00Z</time>
      </trkpt>
      <trkpt lat="62.631313478602" lon="17.965396075495">
        <ele>54.2</ele>
        <time>2017-11-27T18:26:01Z</time>
      </trkpt>
      <trkpt lat="62.631338456664" lon="17.965429100181">
        <ele>54.6</ele>
        <time>2017-11-27T18:26:02Z</time>
      </trkpt>
      <trkpt lat="62.631362847993" lon="17.965455838442">
        <ele>54.8</ele>
        <time>2017-11-27T18:26:03Z</time>
      </trkpt>
      <trkpt lat="62.631384808571" lon="17.965474697717">
        <ele>54.8</ele>
        <time>2017-11-27T18:26:04Z</time>
      </trkpt>
      <trkpt lat="62.631406769149" lon="17.96550378291">
        <ele>55</ele>
        <time>2017-11-27T18:26:05Z</time>
      </trkpt>
      <trkpt lat="62.631427807718" lon="17.965528509515">
        <ele>55.2</ele>
        <time>2017-11-27T18:26:06Z</time>
      </trkpt>
      <trkpt lat="62.631448930106" lon="17.965551643559">
        <ele>55.2</ele>
        <time>2017-11-27T18:26:07Z</time>
      </trkpt>
      <trkpt lat="62.631474913996" lon="17.965580728752">
        <ele>55.2</ele>
        <time>2017-11-27T18:26:08Z</time>
      </trkpt>
      <trkpt lat="62.631496874574" lon="17.965599001294">
        <ele>55.4</ele>
        <time>2017-11-27T18:26:09Z</time>
      </trkpt>
      <trkpt lat="62.631518667514" lon="17.965632947989">
        <ele>55.6</ele>
        <time>2017-11-27T18:26:10Z</time>
      </trkpt>
      <trkpt lat="62.631538113522" lon="17.965652729273">
        <ele>55.8</ele>
        <time>2017-11-27T18:26:11Z</time>
      </trkpt>
      <trkpt lat="62.631564181231" lon="17.965678796982">
        <ele>55.8</ele>
        <time>2017-11-27T18:26:12Z</time>
      </trkpt>
      <trkpt lat="62.631584716886" lon="17.96570243394">
        <ele>56</ele>
        <time>2017-11-27T18:26:13Z</time>
      </trkpt>
      <trkpt lat="62.631609694948" lon="17.965723807785">
        <ele>56</ele>
        <time>2017-11-27T18:26:14Z</time>
      </trkpt>
      <trkpt lat="62.631632912811" lon="17.9657476962">
        <ele>56</ele>
        <time>2017-11-27T18:26:15Z</time>
      </trkpt>
      <trkpt lat="62.631655963036" lon="17.965763454172">
        <ele>56.2</ele>
        <time>2017-11-27T18:26:16Z</time>
      </trkpt>
      <trkpt lat="62.631681276374" lon="17.965789186605">
        <ele>56.4</ele>
        <time>2017-11-27T18:26:17Z</time>
      </trkpt>
      <trkpt lat="62.631705332427" lon="17.965809638441">
        <ele>56.4</ele>
        <time>2017-11-27T18:26:18Z</time>
      </trkpt>
      <trkpt lat="62.631729891394" lon="17.965830844648">
        <ele>56.6</ele>
        <time>2017-11-27T18:26:19Z</time>
      </trkpt>
      <trkpt lat="62.631751349058" lon="17.965851715579">
        <ele>56.8</ele>
        <time>2017-11-27T18:26:20Z</time>
      </trkpt>
      <trkpt lat="62.631776243301" lon="17.965870658673">
        <ele>57</ele>
        <time>2017-11-27T18:26:21Z</time>
      </trkpt>
      <trkpt lat="62.631801137544" lon="17.965889098853">
        <ele>57</ele>
        <time>2017-11-27T18:26:22Z</time>
      </trkpt>
      <trkpt lat="62.631824606864" lon="17.965901587884">
        <ele>57.2</ele>
        <time>2017-11-27T18:26:23Z</time>
      </trkpt>
      <trkpt lat="62.631853608238" lon="17.96592203972">
        <ele>57.4</ele>
        <time>2017-11-27T18:26:24Z</time>
      </trkpt>
      <trkpt lat="62.631874479169" lon="17.965939976986">
        <ele>57.6</ele>
        <time>2017-11-27T18:26:25Z</time>
      </trkpt>
      <trkpt lat="62.631898954317" lon="17.96595808189">
        <ele>57.8</ele>
        <time>2017-11-27T18:26:26Z</time>
      </trkpt>
      <trkpt lat="62.631925189664" lon="17.965977192622">
        <ele>58</ele>
        <time>2017-11-27T18:26:27Z</time>
      </trkpt>
      <trkpt lat="62.631947401699" lon="17.965992950594">
        <ele>58</ele>
        <time>2017-11-27T18:26:28Z</time>
      </trkpt>
      <trkpt lat="62.631971290114" lon="17.966005104349">
        <ele>58.2</ele>
        <time>2017-11-27T18:26:29Z</time>
      </trkpt>
      <trkpt lat="62.631996687271" lon="17.966019772674">
        <ele>58.2</ele>
        <time>2017-11-27T18:26:30Z</time>
      </trkpt>
      <trkpt lat="62.632021665333" lon="17.966030920601">
        <ele>58.2</ele>
        <time>2017-11-27T18:26:31Z</time>
      </trkpt>
      <trkpt lat="62.632049912336" lon="17.966049696057">
        <ele>58.2</ele>
        <time>2017-11-27T18:26:32Z</time>
      </trkpt>
      <trkpt lat="62.632072375828" lon="17.966062939459">
        <ele>58.4</ele>
        <time>2017-11-27T18:26:33Z</time>
      </trkpt>
      <trkpt lat="62.632099197908" lon="17.966084145666">
        <ele>58.4</ele>
        <time>2017-11-27T18:26:34Z</time>
      </trkpt>
      <trkpt lat="62.632113950052" lon="17.966112225031">
        <ele>58.4</ele>
        <time>2017-11-27T18:26:35Z</time>
      </trkpt>
      <trkpt lat="62.632138928114" lon="17.966142986604">
        <ele>58.6</ele>
        <time>2017-11-27T18:26:36Z</time>
      </trkpt>
      <trkpt lat="62.632157871208" lon="17.966193361823">
        <ele>58.6</ele>
        <time>2017-11-27T18:26:37Z</time>
      </trkpt>
      <trkpt lat="62.6321719528" lon="17.966244491413">
        <ele>58.8</ele>
        <time>2017-11-27T18:26:38Z</time>
      </trkpt>
      <trkpt lat="62.632181005252" lon="17.966298806125">
        <ele>59</ele>
        <time>2017-11-27T18:26:39Z</time>
      </trkpt>
      <trkpt lat="62.632186118211" lon="17.966358988167">
        <ele>59.2</ele>
        <time>2017-11-27T18:26:40Z</time>
      </trkpt>
      <trkpt lat="62.632189638609" lon="17.966414560164">
        <ele>59.4</ele>
        <time>2017-11-27T18:26:41Z</time>
      </trkpt>
      <trkpt lat="62.632186788763" lon="17.966486057771">
        <ele>59.4</ele>
        <time>2017-11-27T18:26:42Z</time>
      </trkpt>
      <trkpt lat="62.63218536384" lon="17.966525285063">
        <ele>59.6</ele>
        <time>2017-11-27T18:26:43Z</time>
      </trkpt>
      <trkpt lat="62.632178406863" lon="17.966581192336">
        <ele>59.8</ele>
        <time>2017-11-27T18:26:44Z</time>
      </trkpt>
      <trkpt lat="62.632172623352" lon="17.96663450122">
        <ele>60</ele>
        <time>2017-11-27T18:26:45Z</time>
      </trkpt>
      <trkpt lat="62.63216608547" lon="17.96668730719">
        <ele>60.2</ele>
        <time>2017-11-27T18:26:46Z</time>
      </trkpt>
      <trkpt lat="62.632161391606" lon="17.966740867531">
        <ele>60.4</ele>
        <time>2017-11-27T18:26:47Z</time>
      </trkpt>
      <trkpt lat="62.632157033018" lon="17.966787973809">
        <ele>60.6</ele>
        <time>2017-11-27T18:26:48Z</time>
      </trkpt>
      <trkpt lat="62.632151333326" lon="17.96684656329">
        <ele>60.8</ele>
        <time>2017-11-27T18:26:49Z</time>
      </trkpt>
      <trkpt lat="62.632143789616" lon="17.96689517831">
        <ele>60.8</ele>
        <time>2017-11-27T18:26:50Z</time>
      </trkpt>
      <trkpt lat="62.632137000277" lon="17.966951504678">
        <ele>61</ele>
        <time>2017-11-27T18:26:51Z</time>
      </trkpt>
      <trkpt lat="62.632128534558" lon="17.967006154666">
        <ele>61.2</ele>
        <time>2017-11-27T18:26:52Z</time>
      </trkpt>
      <trkpt lat="62.63211914683" lon="17.96705191984">
        <ele>61.2</ele>
        <time>2017-11-27T18:26:53Z</time>
      </trkpt>
      <trkpt lat="62.63210657398" lon="17.96711478409">
        <ele>61.4</ele>
        <time>2017-11-27T18:26:54Z</time>
      </trkpt>
      <trkpt lat="62.632097521528" lon="17.967157112685">
        <ele>61.6</ele>
        <time>2017-11-27T18:26:55Z</time>
      </trkpt>
      <trkpt lat="62.632087211791" lon="17.967206230619">
        <ele>61.6</ele>
        <time>2017-11-27T18:26:56Z</time>
      </trkpt>
      <trkpt lat="62.632073633113" lon="17.967249565042">
        <ele>61.8</ele>
        <time>2017-11-27T18:26:57Z</time>
      </trkpt>
      <trkpt lat="62.632064413023" lon="17.967296503682">
        <ele>62.2</ele>
        <time>2017-11-27T18:26:58Z</time>
      </trkpt>
      <trkpt lat="62.632049074146" lon="17.967341849761">
        <ele>62.2</ele>
        <time>2017-11-27T18:26:59Z</time>
      </trkpt>
      <trkpt lat="62.632038512952" lon="17.967387614935">
        <ele>62.4</ele>
        <time>2017-11-27T18:27:00Z</time>
      </trkpt>
      <trkpt lat="62.632025353369" lon="17.967432877195">
        <ele>62.8</ele>
        <time>2017-11-27T18:27:01Z</time>
      </trkpt>
      <trkpt lat="62.632010349768" lon="17.967481408396">
        <ele>63</ele>
        <time>2017-11-27T18:27:02Z</time>
      </trkpt>
      <trkpt lat="62.631999201841" lon="17.967517869661">
        <ele>63.4</ele>
        <time>2017-11-27T18:27:03Z</time>
      </trkpt>
      <trkpt lat="62.631982940955" lon="17.967568077242">
        <ele>63.6</ele>
        <time>2017-11-27T18:27:04Z</time>
      </trkpt>
      <trkpt lat="62.631974391417" lon="17.96760177248">
        <ele>63.8</ele>
        <time>2017-11-27T18:27:05Z</time>
      </trkpt>
      <trkpt lat="62.631961902386" lon="17.96765374026">
        <ele>64.2</ele>
        <time>2017-11-27T18:27:06Z</time>
      </trkpt>
      <trkpt lat="62.631946312052" lon="17.967698583425">
        <ele>64.2</ele>
        <time>2017-11-27T18:27:07Z</time>
      </trkpt>
      <trkpt lat="62.631934493573" lon="17.967739906192">
        <ele>64.6</ele>
        <time>2017-11-27T18:27:08Z</time>
      </trkpt>
      <trkpt lat="62.63191798123" lon="17.967783994986">
        <ele>64.6</ele>
        <time>2017-11-27T18:27:09Z</time>
      </trkpt>
      <trkpt lat="62.631909096416" lon="17.967820204794">
        <ele>64.8</ele>
        <time>2017-11-27T18:27:10Z</time>
      </trkpt>
      <trkpt lat="62.63189451191" lon="17.96785825862">
        <ele>65</ele>
        <time>2017-11-27T18:27:11Z</time>
      </trkpt>
      <trkpt lat="62.631877999567" lon="17.967903353242">
        <ele>65.2</ele>
        <time>2017-11-27T18:27:12Z</time>
      </trkpt>
      <trkpt lat="62.631864504708" lon="17.967940485059">
        <ele>65.4</ele>
        <time>2017-11-27T18:27:13Z</time>
      </trkpt>
      <trkpt lat="62.631851428944" lon="17.967986334052">
        <ele>65.6</ele>
        <time>2017-11-27T18:27:14Z</time>
      </trkpt>
      <trkpt lat="62.631842460311" lon="17.968022879136">
        <ele>65.6</ele>
        <time>2017-11-27T18:27:15Z</time>
      </trkpt>
      <trkpt lat="62.631827205253" lon="17.968071326518">
        <ele>65.8</ele>
        <time>2017-11-27T18:27:16Z</time>
      </trkpt>
      <trkpt lat="62.631814716222" lon="17.968110134715">
        <ele>66</ele>
        <time>2017-11-27T18:27:17Z</time>
      </trkpt>
      <trkpt lat="62.631802730105" lon="17.968153720595">
        <ele>66</ele>
        <time>2017-11-27T18:27:18Z</time>
      </trkpt>
      <trkpt lat="62.631786553038" lon="17.968197809389">
        <ele>66.2</ele>
        <time>2017-11-27T18:27:19Z</time>
      </trkpt>
      <trkpt lat="62.631775991844" lon="17.968238629242">
        <ele>66.6</ele>
        <time>2017-11-27T18:27:20Z</time>
      </trkpt>
      <trkpt lat="62.631759730958" lon="17.968280874018">
        <ele>66.6</ele>
        <time>2017-11-27T18:27:21Z</time>
      </trkpt>
      <trkpt lat="62.631746655194" lon="17.96831926312">
        <ele>66.8</ele>
        <time>2017-11-27T18:27:22Z</time>
      </trkpt>
      <trkpt lat="62.631736513095" lon="17.968360166792">
        <ele>67</ele>
        <time>2017-11-27T18:27:23Z</time>
      </trkpt>
      <trkpt lat="62.631720084571" lon="17.968401908654">
        <ele>67.4</ele>
        <time>2017-11-27T18:27:24Z</time>
      </trkpt>
      <trkpt lat="62.631710529205" lon="17.968436944996">
        <ele>67.6</ele>
        <time>2017-11-27T18:27:25Z</time>
      </trkpt>
      <trkpt lat="62.631696447613" lon="17.968479105953">
        <ele>68</ele>
        <time>2017-11-27T18:27:26Z</time>
      </trkpt>
      <trkpt lat="62.631687395161" lon="17.968529145896">
        <ele>68.4</ele>
        <time>2017-11-27T18:27:27Z</time>
      </trkpt>
      <trkpt lat="62.631675492863" lon="17.968570133387">
        <ele>68.6</ele>
        <time>2017-11-27T18:27:28Z</time>
      </trkpt>
      <trkpt lat="62.63166652423" lon="17.968623442271">
        <ele>68.8</ele>
        <time>2017-11-27T18:27:29Z</time>
      </trkpt>
      <trkpt lat="62.631657220321" lon="17.968666609056">
        <ele>69</ele>
        <time>2017-11-27T18:27:30Z</time>
      </trkpt>
      <trkpt lat="62.631646910584" lon="17.968729221849">
        <ele>69.2</ele>
        <time>2017-11-27T18:27:31Z</time>
      </trkpt>
      <trkpt lat="62.631646240032" lon="17.968786721683">
        <ele>69.2</ele>
        <time>2017-11-27T18:27:32Z</time>
      </trkpt>
      <trkpt lat="62.631646323851" lon="17.968842545137">
        <ele>69.4</ele>
        <time>2017-11-27T18:27:33Z</time>
      </trkpt>
      <trkpt lat="62.63164640767" lon="17.968900631704">
        <ele>69.6</ele>
        <time>2017-11-27T18:27:34Z</time>
      </trkpt>
      <trkpt lat="62.631651269172" lon="17.968937931159">
        <ele>69.8</ele>
        <time>2017-11-27T18:27:35Z</time>
      </trkpt>
      <trkpt lat="62.631660489262" lon="17.968997777925">
        <ele>70</ele>
        <time>2017-11-27T18:27:36Z</time>
      </trkpt>
      <trkpt lat="62.631665015488" lon="17.969033317181">
        <ele>70.2</ele>
        <time>2017-11-27T18:27:37Z</time>
      </trkpt>
      <trkpt lat="62.631675409044" lon="17.969084362952">
        <ele>70.2</ele>
        <time>2017-11-27T18:27:38Z</time>
      </trkpt>
      <trkpt lat="62.631684545315" lon="17.969132642696">
        <ele>70.4</ele>
        <time>2017-11-27T18:27:39Z</time>
      </trkpt>
      <trkpt lat="62.631695777061" lon="17.969172791997">
        <ele>70.6</ele>
        <time>2017-11-27T18:27:40Z</time>
      </trkpt>
      <trkpt lat="62.631708517549" lon="17.96923037565">
        <ele>70.8</ele>
        <time>2017-11-27T18:27:41Z</time>
      </trkpt>
      <trkpt lat="62.631722431503" lon="17.969278571575">
        <ele>71</ele>
        <time>2017-11-27T18:27:42Z</time>
      </trkpt>
      <trkpt lat="62.631735171991" lon="17.969324001473">
        <ele>71.2</ele>
        <time>2017-11-27T18:27:43Z</time>
      </trkpt>
      <trkpt lat="62.631749588859" lon="17.96937957347">
        <ele>71.4</ele>
        <time>2017-11-27T18:27:44Z</time>
      </trkpt>
      <trkpt lat="62.631756881112" lon="17.969421734427">
        <ele>71.6</ele>
        <time>2017-11-27T18:27:45Z</time>
      </trkpt>
      <trkpt lat="62.631759228044" lon="17.969480659184">
        <ele>71.8</ele>
        <time>2017-11-27T18:27:46Z</time>
      </trkpt>
      <trkpt lat="62.63174866685" lon="17.969533381335">
        <ele>72.2</ele>
        <time>2017-11-27T18:27:47Z</time>
      </trkpt>
      <trkpt lat="62.631745146452" lon="17.969583421278">
        <ele>72.4</ele>
        <time>2017-11-27T18:27:48Z</time>
      </trkpt>
      <trkpt lat="62.631730561946" lon="17.969625833692">
        <ele>72.8</ele>
        <time>2017-11-27T18:27:49Z</time>
      </trkpt>
      <trkpt lat="62.631709691015" lon="17.969650895573">
        <ele>73</ele>
        <time>2017-11-27T18:27:50Z</time>
      </trkpt>
      <trkpt lat="62.631688652446" lon="17.969684842268">
        <ele>73.2</ele>
        <time>2017-11-27T18:27:51Z</time>
      </trkpt>
      <trkpt lat="62.631666105135" lon="17.969711664348">
        <ele>73.4</ele>
        <time>2017-11-27T18:27:52Z</time>
      </trkpt>
      <trkpt lat="62.631647078222" lon="17.96973077508">
        <ele>73.6</ele>
        <time>2017-11-27T18:27:53Z</time>
      </trkpt>
      <trkpt lat="62.63162461473" lon="17.969755417866">
        <ele>73.8</ele>
        <time>2017-11-27T18:27:54Z</time>
      </trkpt>
      <trkpt lat="62.631602402695" lon="17.969763045395">
        <ele>73.8</ele>
        <time>2017-11-27T18:27:55Z</time>
      </trkpt>
      <trkpt lat="62.631577256995" lon="17.969800596307">
        <ele>74</ele>
        <time>2017-11-27T18:27:56Z</time>
      </trkpt>
      <trkpt lat="62.631549764363" lon="17.96981627046">
        <ele>74.2</ele>
        <time>2017-11-27T18:27:57Z</time>
      </trkpt>
      <trkpt lat="62.631520343894" lon="17.969838314857">
        <ele>74.2</ele>
        <time>2017-11-27T18:27:58Z</time>
      </trkpt>
      <trkpt lat="62.631499556782" lon="17.969847199671">
        <ele>74.4</ele>
        <time>2017-11-27T18:27:59Z</time>
      </trkpt>
      <trkpt lat="62.631470806865" lon="17.969857844684">
        <ele>74.4</ele>
        <time>2017-11-27T18:28:00Z</time>
      </trkpt>
      <trkpt lat="62.631442392224" lon="17.969868657335">
        <ele>74.4</ele>
        <time>2017-11-27T18:28:01Z</time>
      </trkpt>
      <trkpt lat="62.631413558488" lon="17.969890366456">
        <ele>74.6</ele>
        <time>2017-11-27T18:28:02Z</time>
      </trkpt>
      <trkpt lat="62.631389837711" lon="17.969903945134">
        <ele>74.6</ele>
        <time>2017-11-27T18:28:03Z</time>
      </trkpt>
      <trkpt lat="62.631358321767" lon="17.969942585693">
        <ele>74.6</ele>
        <time>2017-11-27T18:28:04Z</time>
      </trkpt>
      <trkpt lat="62.631338708121" lon="17.969959768588">
        <ele>74.6</ele>
        <time>2017-11-27T18:28:05Z</time>
      </trkpt>
      <trkpt lat="62.631308868557" lon="17.969976867664">
        <ele>74.6</ele>
        <time>2017-11-27T18:28:06Z</time>
      </trkpt>
      <trkpt lat="62.631279364269" lon="17.969998660604">
        <ele>74.8</ele>
        <time>2017-11-27T18:28:07Z</time>
      </trkpt>
      <trkpt lat="62.631253883293" lon="17.970016765508">
        <ele>74.8</ele>
        <time>2017-11-27T18:28:08Z</time>
      </trkpt>
      <trkpt lat="62.631224630462" lon="17.970027410521">
        <ele>74.8</ele>
        <time>2017-11-27T18:28:09Z</time>
      </trkpt>
      <trkpt lat="62.631197389287" lon="17.970049119642">
        <ele>74.8</ele>
        <time>2017-11-27T18:28:10Z</time>
      </trkpt>
      <trkpt lat="62.631170483388" lon="17.970052891497">
        <ele>75</ele>
        <time>2017-11-27T18:28:11Z</time>
      </trkpt>
      <trkpt lat="62.6311409791" lon="17.970071331677">
        <ele>75</ele>
        <time>2017-11-27T18:28:12Z</time>
      </trkpt>
      <trkpt lat="62.631115917219" lon="17.970091867332">
        <ele>74.8</ele>
        <time>2017-11-27T18:28:13Z</time>
      </trkpt>
      <trkpt lat="62.631087251121" lon="17.9701062842">
        <ele>74.8</ele>
        <time>2017-11-27T18:28:14Z</time>
      </trkpt>
      <trkpt lat="62.631059758489" lon="17.970114498462">
        <ele>74.8</ele>
        <time>2017-11-27T18:28:15Z</time>
      </trkpt>
      <trkpt lat="62.63103536716" lon="17.970120281973">
        <ele>74.8</ele>
        <time>2017-11-27T18:28:16Z</time>
      </trkpt>
      <trkpt lat="62.630990356357" lon="17.9701146661">
        <ele>75</ele>
        <time>2017-11-27T18:28:18Z</time>
      </trkpt>
      <trkpt lat="62.630974095471" lon="17.970112067711">
        <ele>75</ele>
        <time>2017-11-27T18:28:19Z</time>
      </trkpt>
      <trkpt lat="62.630968395779" lon="17.970124389104">
        <ele>75.2</ele>
        <time>2017-11-27T18:28:20Z</time>
      </trkpt>
      <trkpt lat="62.630956661119" lon="17.970120868706">
        <ele>75.2</ele>
        <time>2017-11-27T18:28:21Z</time>
      </trkpt>
      <trkpt lat="62.630943752993" lon="17.970117599765">
        <ele>75.4</ele>
        <time>2017-11-27T18:28:22Z</time>
      </trkpt>
      <trkpt lat="62.630924809899" lon="17.970104859277">
        <ele>75.6</ele>
        <time>2017-11-27T18:28:23Z</time>
      </trkpt>
      <trkpt lat="62.630917685284" lon="17.970106535657">
        <ele>75.6</ele>
        <time>2017-11-27T18:28:24Z</time>
      </trkpt>
      <trkpt lat="62.630903855149" lon="17.970110894245">
        <ele>75.6</ele>
        <time>2017-11-27T18:28:25Z</time>
      </trkpt>
      <trkpt lat="62.630888432453" lon="17.970101590336">
        <ele>75.8</ele>
        <time>2017-11-27T18:28:26Z</time>
      </trkpt>
      <trkpt lat="62.630890779385" lon="17.970078037197">
        <ele>75.8</ele>
        <time>2017-11-27T18:28:27Z</time>
      </trkpt>
      <trkpt lat="62.630894970335" lon="17.970071499315">
        <ele>75.8</ele>
        <time>2017-11-27T18:28:28Z</time>
      </trkpt>
      <trkpt lat="62.63090377133" lon="17.970063704148">
        <ele>75.6</ele>
        <time>2017-11-27T18:28:29Z</time>
      </trkpt>
      <trkpt lat="62.630913326696" lon="17.970059261741">
        <ele>75.6</ele>
        <time>2017-11-27T18:28:30Z</time>
      </trkpt>
      <trkpt lat="62.630918272017" lon="17.970050628384">
        <ele>75.6</ele>
        <time>2017-11-27T18:28:31Z</time>
      </trkpt>
      <trkpt lat="62.630919613121" lon="17.970025147408">
        <ele>75.6</ele>
        <time>2017-11-27T18:28:32Z</time>
      </trkpt>
      <trkpt lat="62.630911147402" lon="17.969990697799">
        <ele>75.6</ele>
        <time>2017-11-27T18:28:33Z</time>
      </trkpt>
      <trkpt lat="62.63090460952" lon="17.969974269275">
        <ele>75.8</ele>
        <time>2017-11-27T18:28:34Z</time>
      </trkpt>
      <trkpt lat="62.630896059982" lon="17.969955493819">
        <ele>75.6</ele>
        <time>2017-11-27T18:28:35Z</time>
      </trkpt>
      <trkpt lat="62.630891282299" lon="17.969929258472">
        <ele>75.6</ele>
        <time>2017-11-27T18:28:36Z</time>
      </trkpt>
      <trkpt lat="62.630887426625" lon="17.969900005641">
        <ele>75.4</ele>
        <time>2017-11-27T18:28:37Z</time>
      </trkpt>
      <trkpt lat="62.63088365477" lon="17.969866729498">
        <ele>75.2</ele>
        <time>2017-11-27T18:28:38Z</time>
      </trkpt>
      <trkpt lat="62.630878457992" lon="17.969829597681">
        <ele>75</ele>
        <time>2017-11-27T18:28:39Z</time>
      </trkpt>
      <trkpt lat="62.630877200707" lon="17.969798752289">
        <ele>74.8</ele>
        <time>2017-11-27T18:28:40Z</time>
      </trkpt>
      <trkpt lat="62.630871584834" lon="17.969764805594">
        <ele>74.8</ele>
        <time>2017-11-27T18:28:41Z</time>
      </trkpt>
      <trkpt lat="62.630866388056" lon="17.969727254682">
        <ele>74.6</ele>
        <time>2017-11-27T18:28:42Z</time>
      </trkpt>
      <trkpt lat="62.630862448563" lon="17.969694481453">
        <ele>74.6</ele>
        <time>2017-11-27T18:28:43Z</time>
      </trkpt>
      <trkpt lat="62.630859850174" lon="17.969662462595">
        <ele>74.4</ele>
        <time>2017-11-27T18:28:44Z</time>
      </trkpt>
      <trkpt lat="62.630856497414" lon="17.969636227248">
        <ele>74.2</ele>
        <time>2017-11-27T18:28:45Z</time>
      </trkpt>
      <trkpt lat="62.630852809378" lon="17.96960001744">
        <ele>74.2</ele>
        <time>2017-11-27T18:28:46Z</time>
      </trkpt>
      <trkpt lat="62.630848702247" lon="17.96957068079">
        <ele>74</ele>
        <time>2017-11-27T18:28:47Z</time>
      </trkpt>
      <trkpt lat="62.63084509803" lon="17.969542601425">
        <ele>73.8</ele>
        <time>2017-11-27T18:28:48Z</time>
      </trkpt>
      <trkpt lat="62.630840404166" lon="17.969512175128">
        <ele>73.8</ele>
        <time>2017-11-27T18:28:49Z</time>
      </trkpt>
      <trkpt lat="62.630836297035" lon="17.969485939781">
        <ele>73.6</ele>
        <time>2017-11-27T18:28:50Z</time>
      </trkpt>
      <trkpt lat="62.630832441361" lon="17.969452160724">
        <ele>73.4</ele>
        <time>2017-11-27T18:28:51Z</time>
      </trkpt>
      <trkpt lat="62.630831351714" lon="17.969409999767">
        <ele>73.2</ele>
        <time>2017-11-27T18:28:52Z</time>
      </trkpt>
      <trkpt lat="62.630830178248" lon="17.969380327841">
        <ele>73</ele>
        <time>2017-11-27T18:28:53Z</time>
      </trkpt>
      <trkpt lat="62.630826741669" lon="17.969348392802">
        <ele>72.8</ele>
        <time>2017-11-27T18:28:54Z</time>
      </trkpt>
      <trkpt lat="62.63082414328" lon="17.969327521871">
        <ele>72.6</ele>
        <time>2017-11-27T18:28:55Z</time>
      </trkpt>
      <trkpt lat="62.630818695045" lon="17.969282594887">
        <ele>72.6</ele>
        <time>2017-11-27T18:28:56Z</time>
      </trkpt>
      <trkpt lat="62.630814587914" lon="17.969249067287">
        <ele>72.4</ele>
        <time>2017-11-27T18:28:57Z</time>
      </trkpt>
      <trkpt lat="62.63081073224" lon="17.969213192755">
        <ele>72.2</ele>
        <time>2017-11-27T18:28:58Z</time>
      </trkpt>
      <trkpt lat="62.630803356168" lon="17.969183185553">
        <ele>72.2</ele>
        <time>2017-11-27T18:28:59Z</time>
      </trkpt>
      <trkpt lat="62.630798327028" lon="17.969148652125">
        <ele>72</ele>
        <time>2017-11-27T18:29:00Z</time>
      </trkpt>
      <trkpt lat="62.630796818286" lon="17.969109760109">
        <ele>71.8</ele>
        <time>2017-11-27T18:29:01Z</time>
      </trkpt>
      <trkpt lat="62.630791034775" lon="17.969078411803">
        <ele>71.6</ele>
        <time>2017-11-27T18:29:02Z</time>
      </trkpt>
      <trkpt lat="62.630788855481" lon="17.96904429747">
        <ele>71.6</ele>
        <time>2017-11-27T18:29:03Z</time>
      </trkpt>
      <trkpt lat="62.630783323427" lon="17.969012865345">
        <ele>71.4</ele>
        <time>2017-11-27T18:29:04Z</time>
      </trkpt>
      <trkpt lat="62.63077971921" lon="17.968984031609">
        <ele>71.2</ele>
        <time>2017-11-27T18:29:05Z</time>
      </trkpt>
      <trkpt lat="62.630775444441" lon="17.968947151249">
        <ele>71.2</ele>
        <time>2017-11-27T18:29:06Z</time>
      </trkpt>
      <trkpt lat="62.630770582939" lon="17.968917311685">
        <ele>71</ele>
        <time>2017-11-27T18:29:07Z</time>
      </trkpt>
      <trkpt lat="62.630765805256" lon="17.968884706094">
        <ele>70.8</ele>
        <time>2017-11-27T18:29:08Z</time>
      </trkpt>
      <trkpt lat="62.630759351193" lon="17.968851597589">
        <ele>70.6</ele>
        <time>2017-11-27T18:29:09Z</time>
      </trkpt>
      <trkpt lat="62.630760105564" lon="17.96882217712">
        <ele>70.2</ele>
        <time>2017-11-27T18:29:10Z</time>
      </trkpt>
      <trkpt lat="62.630756417528" lon="17.968798037248">
        <ele>70.2</ele>
        <time>2017-11-27T18:29:11Z</time>
      </trkpt>
      <trkpt lat="62.630747951809" lon="17.968756630662">
        <ele>69.8</ele>
        <time>2017-11-27T18:29:12Z</time>
      </trkpt>
      <trkpt lat="62.630740072823" lon="17.968734250989">
        <ele>69.6</ele>
        <time>2017-11-27T18:29:13Z</time>
      </trkpt>
      <trkpt lat="62.630724817765" lon="17.968719498845">
        <ele>69.4</ele>
        <time>2017-11-27T18:29:14Z</time>
      </trkpt>
      <trkpt lat="62.630719034254" lon="17.968692844403">
        <ele>69.2</ele>
        <time>2017-11-27T18:29:15Z</time>
      </trkpt>
      <trkpt lat="62.630711155268" lon="17.968668704531">
        <ele>69</ele>
        <time>2017-11-27T18:29:16Z</time>
      </trkpt>
      <trkpt lat="62.630703946834" lon="17.968641882451">
        <ele>68.8</ele>
        <time>2017-11-27T18:29:17Z</time>
      </trkpt>
      <trkpt lat="62.630697073676" lon="17.968623693728">
        <ele>68.6</ele>
        <time>2017-11-27T18:29:18Z</time>
      </trkpt>
      <trkpt lat="62.630690200518" lon="17.968609444498">
        <ele>68.4</ele>
        <time>2017-11-27T18:29:19Z</time>
      </trkpt>
      <trkpt lat="62.630682237713" lon="17.968592345422">
        <ele>68.4</ele>
        <time>2017-11-27T18:29:20Z</time>
      </trkpt>
      <trkpt lat="62.630670167777" lon="17.968568037912">
        <ele>68</ele>
        <time>2017-11-27T18:29:21Z</time>
      </trkpt>
      <trkpt lat="62.630658097841" lon="17.968539790909">
        <ele>67.8</ele>
        <time>2017-11-27T18:29:22Z</time>
      </trkpt>
      <trkpt lat="62.630657427289" lon="17.968542556936">
        <ele>67.8</ele>
        <time>2017-11-27T18:29:23Z</time>
      </trkpt>
      <trkpt lat="62.630642339869" lon="17.968520093444">
        <ele>67.6</ele>
        <time>2017-11-27T18:29:24Z</time>
      </trkpt>
      <trkpt lat="62.630628174458" lon="17.968506766223">
        <ele>67.4</ele>
        <time>2017-11-27T18:29:25Z</time>
      </trkpt>
      <trkpt lat="62.630614344323" lon="17.968478686858">
        <ele>67.4</ele>
        <time>2017-11-27T18:29:26Z</time>
      </trkpt>
      <trkpt lat="62.630603615491" lon="17.968463767076">
        <ele>67.2</ele>
        <time>2017-11-27T18:29:27Z</time>
      </trkpt>
      <trkpt lat="62.63059112646" lon="17.968447422371">
        <ele>67.2</ele>
        <time>2017-11-27T18:29:28Z</time>
      </trkpt>
      <trkpt lat="62.630583834207" lon="17.968427557268">
        <ele>67</ele>
        <time>2017-11-27T18:29:29Z</time>
      </trkpt>
      <trkpt lat="62.630570423167" lon="17.968396460419">
        <ele>66.8</ele>
        <time>2017-11-27T18:29:30Z</time>
      </trkpt>
      <trkpt lat="62.630563298552" lon="17.968384725759">
        <ele>66.8</ele>
        <time>2017-11-27T18:29:31Z</time>
      </trkpt>
      <trkpt lat="62.630550558064" lon="17.968368464873">
        <ele>66.6</ele>
        <time>2017-11-27T18:29:32Z</time>
      </trkpt>
      <trkpt lat="62.630538991042" lon="17.968339463499">
        <ele>66.2</ele>
        <time>2017-11-27T18:29:33Z</time>
      </trkpt>
      <trkpt lat="62.63052993859" lon="17.968317251464">
        <ele>66</ele>
        <time>2017-11-27T18:29:34Z</time>
      </trkpt>
      <trkpt lat="62.630521305233" lon="17.968293782144">
        <ele>65.6</ele>
        <time>2017-11-27T18:29:35Z</time>
      </trkpt>
      <trkpt lat="62.630507056003" lon="17.968254219576">
        <ele>65.4</ele>
        <time>2017-11-27T18:29:36Z</time>
      </trkpt>
      <trkpt lat="62.630495908076" lon="17.968211890981">
        <ele>65.2</ele>
        <time>2017-11-27T18:29:37Z</time>
      </trkpt>
      <trkpt lat="62.630486771805" lon="17.968175681173">
        <ele>65</ele>
        <time>2017-11-27T18:29:38Z</time>
      </trkpt>
      <trkpt lat="62.630477803172" lon="17.968133687854">
        <ele>65</ele>
        <time>2017-11-27T18:29:39Z</time>
      </trkpt>
      <trkpt lat="62.630471935842" lon="17.968090353431">
        <ele>65</ele>
        <time>2017-11-27T18:29:40Z</time>
      </trkpt>
      <trkpt lat="62.630465817055" lon="17.968044252981">
        <ele>64.8</ele>
        <time>2017-11-27T18:29:41Z</time>
      </trkpt>
      <trkpt lat="62.630459614449" lon="17.968000583282">
        <ele>64.8</ele>
        <time>2017-11-27T18:29:42Z</time>
      </trkpt>
      <trkpt lat="62.630456764603" lon="17.967953141728">
        <ele>64.4</ele>
        <time>2017-11-27T18:29:43Z</time>
      </trkpt>
      <trkpt lat="62.630453160386" lon="17.967907879468">
        <ele>64.4</ele>
        <time>2017-11-27T18:29:44Z</time>
      </trkpt>
      <trkpt lat="62.630451484006" lon="17.967864461226">
        <ele>64.2</ele>
        <time>2017-11-27T18:29:45Z</time>
      </trkpt>
      <trkpt lat="62.630447628332" lon="17.967809056867">
        <ele>64</ele>
        <time>2017-11-27T18:29:46Z</time>
      </trkpt>
      <trkpt lat="62.630446622504" lon="17.96775767582">
        <ele>64</ele>
        <time>2017-11-27T18:29:47Z</time>
      </trkpt>
      <trkpt lat="62.630447712151" lon="17.967712916474">
        <ele>63.8</ele>
        <time>2017-11-27T18:29:48Z</time>
      </trkpt>
      <trkpt lat="62.630446454866" lon="17.967667235119">
        <ele>63.6</ele>
        <time>2017-11-27T18:29:49Z</time>
      </trkpt>
      <trkpt lat="62.630446203409" lon="17.967616608443">
        <ele>63.4</ele>
        <time>2017-11-27T18:29:50Z</time>
      </trkpt>
      <trkpt lat="62.630448382703" lon="17.967559946799">
        <ele>63.2</ele>
        <time>2017-11-27T18:29:51Z</time>
      </trkpt>
      <trkpt lat="62.630449975264" lon="17.967513846349">
        <ele>62.8</ele>
        <time>2017-11-27T18:29:52Z</time>
      </trkpt>
      <trkpt lat="62.630450897273" lon="17.967460034551">
        <ele>62.6</ele>
        <time>2017-11-27T18:29:53Z</time>
      </trkpt>
      <trkpt lat="62.630453495662" lon="17.967403205269">
        <ele>62.4</ele>
        <time>2017-11-27T18:29:54Z</time>
      </trkpt>
      <trkpt lat="62.630455758775" lon="17.967363810339">
        <ele>62.2</ele>
        <time>2017-11-27T18:29:55Z</time>
      </trkpt>
      <trkpt lat="62.63045617787" lon="17.967306059048">
        <ele>61.8</ele>
        <time>2017-11-27T18:29:56Z</time>
      </trkpt>
      <trkpt lat="62.630458440983" lon="17.967260293874">
        <ele>61.4</ele>
        <time>2017-11-27T18:29:57Z</time>
      </trkpt>
      <trkpt lat="62.630462296657" lon="17.967210673026">
        <ele>61.2</ele>
        <time>2017-11-27T18:29:58Z</time>
      </trkpt>
      <trkpt lat="62.630462967209" lon="17.967177815978">
        <ele>60.8</ele>
        <time>2017-11-27T18:29:59Z</time>
      </trkpt>
      <trkpt lat="62.630466822883" lon="17.967122914533">
        <ele>60.6</ele>
        <time>2017-11-27T18:30:00Z</time>
      </trkpt>
      <trkpt lat="62.630469756548" lon="17.967071365848">
        <ele>60.2</ele>
        <time>2017-11-27T18:30:01Z</time>
      </trkpt>
      <trkpt lat="62.630472522575" lon="17.967027528511">
        <ele>59.8</ele>
        <time>2017-11-27T18:30:02Z</time>
      </trkpt>
      <trkpt lat="62.630473360765" lon="17.96697732093">
        <ele>59.6</ele>
        <time>2017-11-27T18:30:03Z</time>
      </trkpt>
      <trkpt lat="62.630474450412" lon="17.966929460281">
        <ele>59.4</ele>
        <time>2017-11-27T18:30:04Z</time>
      </trkpt>
      <trkpt lat="62.630478306086" lon="17.966883862745">
        <ele>59.2</ele>
        <time>2017-11-27T18:30:05Z</time>
      </trkpt>
      <trkpt lat="62.630480401561" lon="17.966828039291">
        <ele>58.8</ele>
        <time>2017-11-27T18:30:06Z</time>
      </trkpt>
      <trkpt lat="62.630483251407" lon="17.966785543058">
        <ele>58.8</ele>
        <time>2017-11-27T18:30:07Z</time>
      </trkpt>
      <trkpt lat="62.630485933615" lon="17.966740532255">
        <ele>58.4</ele>
        <time>2017-11-27T18:30:08Z</time>
      </trkpt>
      <trkpt lat="62.630488951099" lon="17.966685127896">
        <ele>58.4</ele>
        <time>2017-11-27T18:30:09Z</time>
      </trkpt>
      <trkpt lat="62.63049054366" lon="17.966639362722">
        <ele>58.2</ele>
        <time>2017-11-27T18:30:10Z</time>
      </trkpt>
      <trkpt lat="62.630490878936" lon="17.966590580064">
        <ele>58</ele>
        <time>2017-11-27T18:30:11Z</time>
      </trkpt>
      <trkpt lat="62.630495908076" lon="17.966534086058">
        <ele>57.8</ele>
        <time>2017-11-27T18:30:12Z</time>
      </trkpt>
      <trkpt lat="62.630493812601" lon="17.966482537373">
        <ele>57.6</ele>
        <time>2017-11-27T18:30:13Z</time>
      </trkpt>
      <trkpt lat="62.630492387678" lon="17.966437945665">
        <ele>57.4</ele>
        <time>2017-11-27T18:30:14Z</time>
      </trkpt>
      <trkpt lat="62.630494818429" lon="17.966385474971">
        <ele>57.2</ele>
        <time>2017-11-27T18:30:15Z</time>
      </trkpt>
      <trkpt lat="62.630499344655" lon="17.966338536331">
        <ele>56.8</ele>
        <time>2017-11-27T18:30:16Z</time>
      </trkpt>
      <trkpt lat="62.630498506465" lon="17.966298554668">
        <ele>56.6</ele>
        <time>2017-11-27T18:30:17Z</time>
      </trkpt>
      <trkpt lat="62.630499428474" lon="17.966250358743">
        <ele>56</ele>
        <time>2017-11-27T18:30:18Z</time>
      </trkpt>
      <trkpt lat="62.630504289976" lon="17.96621121527">
        <ele>55.8</ele>
        <time>2017-11-27T18:30:19Z</time>
      </trkpt>
      <trkpt lat="62.630505379623" lon="17.966180621335">
        <ele>55.6</ele>
        <time>2017-11-27T18:30:20Z</time>
      </trkpt>
      <trkpt lat="62.630506385451" lon="17.966149273029">
        <ele>55.4</ele>
        <time>2017-11-27T18:30:21Z</time>
      </trkpt>
      <trkpt lat="62.630508564745" lon="17.966111051565">
        <ele>55.2</ele>
        <time>2017-11-27T18:30:22Z</time>
      </trkpt>
      <trkpt lat="62.630515270265" lon="17.966072494825">
        <ele>55</ele>
        <time>2017-11-27T18:30:23Z</time>
      </trkpt>
      <trkpt lat="62.630514599713" lon="17.966050450428">
        <ele>54.6</ele>
        <time>2017-11-27T18:30:24Z</time>
      </trkpt>
      <trkpt lat="62.63051485117" lon="17.966014575896">
        <ele>54.6</ele>
        <time>2017-11-27T18:30:25Z</time>
      </trkpt>
      <trkpt lat="62.630519545034" lon="17.965975516242">
        <ele>54.4</ele>
        <time>2017-11-27T18:30:26Z</time>
      </trkpt>
      <trkpt lat="62.630520634681" lon="17.965942072461">
        <ele>54.2</ele>
        <time>2017-11-27T18:30:27Z</time>
      </trkpt>
      <trkpt lat="62.630523568346" lon="17.96591449601">
        <ele>54</ele>
        <time>2017-11-27T18:30:28Z</time>
      </trkpt>
      <trkpt lat="62.630525160907" lon="17.965882812428">
        <ele>53.8</ele>
        <time>2017-11-27T18:30:29Z</time>
      </trkpt>
      <trkpt lat="62.630523400708" lon="17.965849536285">
        <ele>53.8</ele>
        <time>2017-11-27T18:30:30Z</time>
      </trkpt>
      <trkpt lat="62.630518623025" lon="17.965811901554">
        <ele>53.6</ele>
        <time>2017-11-27T18:30:31Z</time>
      </trkpt>
      <trkpt lat="62.630520215586" lon="17.965778876868">
        <ele>53.6</ele>
        <time>2017-11-27T18:30:32Z</time>
      </trkpt>
      <trkpt lat="62.63052323307" lon="17.965753312073">
        <ele>53.6</ele>
        <time>2017-11-27T18:30:33Z</time>
      </trkpt>
      <trkpt lat="62.630523065432" lon="17.965723723966">
        <ele>53.4</ele>
        <time>2017-11-27T18:30:34Z</time>
      </trkpt>
      <trkpt lat="62.630522897794" lon="17.965692543298">
        <ele>53.4</ele>
        <time>2017-11-27T18:30:35Z</time>
      </trkpt>
      <trkpt lat="62.630523149251" lon="17.96565884806">
        <ele>53.2</ele>
        <time>2017-11-27T18:30:36Z</time>
      </trkpt>
      <trkpt lat="62.630524490355" lon="17.965624649908">
        <ele>53.2</ele>
        <time>2017-11-27T18:30:37Z</time>
      </trkpt>
      <trkpt lat="62.63052826221" lon="17.965580142019">
        <ele>53</ele>
        <time>2017-11-27T18:30:38Z</time>
      </trkpt>
      <trkpt lat="62.630534716273" lon="17.96555658888">
        <ele>52.8</ele>
        <time>2017-11-27T18:30:39Z</time>
      </trkpt>
      <trkpt lat="62.630539661594" lon="17.965532700465">
        <ele>52.6</ele>
        <time>2017-11-27T18:30:40Z</time>
      </trkpt>
      <trkpt lat="62.630543768725" lon="17.965511829534">
        <ele>52.6</ele>
        <time>2017-11-27T18:30:41Z</time>
      </trkpt>
      <trkpt lat="62.630548211132" lon="17.965493389354">
        <ele>52.6</ele>
        <time>2017-11-27T18:30:42Z</time>
      </trkpt>
      <trkpt lat="62.630558939964" lon="17.965473691889">
        <ele>52.6</ele>
        <time>2017-11-27T18:30:44Z</time>
      </trkpt>
      <trkpt lat="62.630563550009" lon="17.965478301934">
        <ele>52.6</ele>
        <time>2017-11-27T18:30:45Z</time>
      </trkpt>
      <trkpt lat="62.630562795638" lon="17.965468495111">
        <ele>52.6</ele>
        <time>2017-11-27T18:30:46Z</time>
      </trkpt>
      <trkpt lat="62.630559778154" lon="17.965473021337">
        <ele>52.6</ele>
        <time>2017-11-27T18:30:47Z</time>
      </trkpt>
      <trkpt lat="62.63070763487" lon="17.965467154007">
        <ele>52.4</ele>
        <time>2017-11-27T18:30:54Z</time>
      </trkpt>
      <trkpt lat="62.630733283484" lon="17.965472266966">
        <ele>52.4</ele>
        <time>2017-11-27T18:30:55Z</time>
      </trkpt>
      <trkpt lat="62.630764883247" lon="17.965484336902">
        <ele>52.4</ele>
        <time>2017-11-27T18:30:56Z</time>
      </trkpt>
      <trkpt lat="62.630792543517" lon="17.965503950548">
        <ele>52.4</ele>
        <time>2017-11-27T18:30:57Z</time>
      </trkpt>
      <trkpt lat="62.630812743896" lon="17.965509985516">
        <ele>52.6</ele>
        <time>2017-11-27T18:30:58Z</time>
      </trkpt>
      <trkpt lat="62.630843589288" lon="17.965522055452">
        <ele>52.8</ele>
        <time>2017-11-27T18:30:59Z</time>
      </trkpt>
      <trkpt lat="62.630871584834" lon="17.965517948321">
        <ele>53</ele>
        <time>2017-11-27T18:31:00Z</time>
      </trkpt>
      <trkpt lat="62.630903352235" lon="17.965507219489">
        <ele>53.4</ele>
        <time>2017-11-27T18:31:01Z</time>
      </trkpt>
      <trkpt lat="62.630932185971" lon="17.965494981915">
        <ele>53.8</ele>
        <time>2017-11-27T18:31:02Z</time>
      </trkpt>
      <trkpt lat="62.630957583128" lon="17.965475032993">
        <ele>53.8</ele>
        <time>2017-11-27T18:31:03Z</time>
      </trkpt>
      <trkpt lat="62.630987674149" lon="17.965437733538">
        <ele>54</ele>
        <time>2017-11-27T18:31:04Z</time>
      </trkpt>
      <trkpt lat="62.631008628899" lon="17.965404289757">
        <ele>54</ele>
        <time>2017-11-27T18:31:05Z</time>
      </trkpt>
      <trkpt lat="62.631039977205" lon="17.965366990302">
        <ele>54.2</ele>
        <time>2017-11-27T18:31:06Z</time>
      </trkpt>
      <trkpt lat="62.631065542" lon="17.965336061091">
        <ele>54.2</ele>
        <time>2017-11-27T18:31:07Z</time>
      </trkpt>
      <trkpt lat="62.631089430415" lon="17.965305299518">
        <ele>54.2</ele>
        <time>2017-11-27T18:31:08Z</time>
      </trkpt>
      <trkpt lat="62.631115330486" lon="17.965284093311">
        <ele>54.4</ele>
        <time>2017-11-27T18:31:09Z</time>
      </trkpt>
      <trkpt lat="62.63114265548" lon="17.965278645076">
        <ele>54.4</ele>
        <time>2017-11-27T18:31:10Z</time>
      </trkpt>
      <trkpt lat="62.63117199213" lon="17.965302533491">
        <ele>54.4</ele>
        <time>2017-11-27T18:31:11Z</time>
      </trkpt>
      <trkpt lat="62.631198562753" lon="17.965335558177">
        <ele>54.6</ele>
        <time>2017-11-27T18:31:12Z</time>
      </trkpt>
      <trkpt lat="62.631225803928" lon="17.965364140456">
        <ele>54.4</ele>
        <time>2017-11-27T18:31:13Z</time>
      </trkpt>
      <trkpt lat="62.631251033447" lon="17.965390208165">
        <ele>54.6</ele>
        <time>2017-11-27T18:31:14Z</time>
      </trkpt>
      <trkpt lat="62.63127257493" lon="17.965422143204">
        <ele>54.6</ele>
        <time>2017-11-27T18:31:15Z</time>
      </trkpt>
      <trkpt lat="62.631301241028" lon="17.965452904777">
        <ele>54.8</ele>
        <time>2017-11-27T18:31:16Z</time>
      </trkpt>
      <trkpt lat="62.631320435579" lon="17.965479978314">
        <ele>55</ele>
        <time>2017-11-27T18:31:17Z</time>
      </trkpt>
      <trkpt lat="62.63134968841" lon="17.96550378291">
        <ele>55</ele>
        <time>2017-11-27T18:31:18Z</time>
      </trkpt>
      <trkpt lat="62.631375337024" lon="17.965530856447">
        <ele>55</ele>
        <time>2017-11-27T18:31:19Z</time>
      </trkpt>
      <trkpt lat="62.631397297602" lon="17.965551643559">
        <ele>55.4</ele>
        <time>2017-11-27T18:31:20Z</time>
      </trkpt>
      <trkpt lat="62.631425712243" lon="17.965583243322">
        <ele>55.6</ele>
        <time>2017-11-27T18:31:21Z</time>
      </trkpt>
      <trkpt lat="62.631449516839" lon="17.965607131737">
        <ele>55.8</ele>
        <time>2017-11-27T18:31:22Z</time>
      </trkpt>
      <trkpt lat="62.631472650883" lon="17.965631606885">
        <ele>56</ele>
        <time>2017-11-27T18:31:23Z</time>
      </trkpt>
      <trkpt lat="62.63150056261" lon="17.965657926051">
        <ele>56.2</ele>
        <time>2017-11-27T18:31:24Z</time>
      </trkpt>
      <trkpt lat="62.631525792129" lon="17.965676198593">
        <ele>56</ele>
        <time>2017-11-27T18:31:25Z</time>
      </trkpt>
      <trkpt lat="62.631553200942" lon="17.965703523587">
        <ele>56.2</ele>
        <time>2017-11-27T18:31:26Z</time>
      </trkpt>
      <trkpt lat="62.63157767609" lon="17.965725316527">
        <ele>56.4</ele>
        <time>2017-11-27T18:31:27Z</time>
      </trkpt>
      <trkpt lat="62.631599804306" lon="17.965744678716">
        <ele>56.6</ele>
        <time>2017-11-27T18:31:28Z</time>
      </trkpt>
      <trkpt lat="62.631621848703" lon="17.965771919891">
        <ele>56.6</ele>
        <time>2017-11-27T18:31:29Z</time>
      </trkpt>
      <trkpt lat="62.631645485661" lon="17.965794802478">
        <ele>56.8</ele>
        <time>2017-11-27T18:31:30Z</time>
      </trkpt>
      <trkpt lat="62.631670296085" lon="17.965817517427">
        <ele>57</ele>
        <time>2017-11-27T18:31:31Z</time>
      </trkpt>
      <trkpt lat="62.631692256663" lon="17.965839561824">
        <ele>57</ele>
        <time>2017-11-27T18:31:32Z</time>
      </trkpt>
      <trkpt lat="62.631715893621" lon="17.965857415271">
        <ele>57</ele>
        <time>2017-11-27T18:31:33Z</time>
      </trkpt>
      <trkpt lat="62.631742967158" lon="17.965881052229">
        <ele>57.2</ele>
        <time>2017-11-27T18:31:34Z</time>
      </trkpt>
      <trkpt lat="62.631762832261" lon="17.965892870708">
        <ele>57.4</ele>
        <time>2017-11-27T18:31:35Z</time>
      </trkpt>
      <trkpt lat="62.631792085092" lon="17.965915250381">
        <ele>57.6</ele>
        <time>2017-11-27T18:31:36Z</time>
      </trkpt>
      <trkpt lat="62.631816476421" lon="17.965931175991">
        <ele>57.6</ele>
        <time>2017-11-27T18:31:37Z</time>
      </trkpt>
      <trkpt lat="62.631839023732" lon="17.965940982814">
        <ele>57.6</ele>
        <time>2017-11-27T18:31:38Z</time>
      </trkpt>
      <trkpt lat="62.631865761993" lon="17.965961602288">
        <ele>57.8</ele>
        <time>2017-11-27T18:31:39Z</time>
      </trkpt>
      <trkpt lat="62.631885208001" lon="17.965977108803">
        <ele>58</ele>
        <time>2017-11-27T18:31:40Z</time>
      </trkpt>
      <trkpt lat="62.631909850787" lon="17.96599747682">
        <ele>58.2</ele>
        <time>2017-11-27T18:31:41Z</time>
      </trkpt>
      <trkpt lat="62.631933320107" lon="17.966016336095">
        <ele>58.2</ele>
        <time>2017-11-27T18:31:42Z</time>
      </trkpt>
      <trkpt lat="62.631955951237" lon="17.966026478194">
        <ele>58.4</ele>
        <time>2017-11-27T18:31:43Z</time>
      </trkpt>
      <trkpt lat="62.631980594023" lon="17.96604357727">
        <ele>58.4</ele>
        <time>2017-11-27T18:31:44Z</time>
      </trkpt>
      <trkpt lat="62.632003392791" lon="17.966058161776">
        <ele>58.6</ele>
        <time>2017-11-27T18:31:45Z</time>
      </trkpt>
      <trkpt lat="62.632028789948" lon="17.966068639151">
        <ele>58.8</ele>
        <time>2017-11-27T18:31:46Z</time>
      </trkpt>
      <trkpt lat="62.632052762182" lon="17.966084480942">
        <ele>58.8</ele>
        <time>2017-11-27T18:31:47Z</time>
      </trkpt>
      <trkpt lat="62.632076566778" lon="17.966100322733">
        <ele>58.8</ele>
        <time>2017-11-27T18:31:48Z</time>
      </trkpt>
      <trkpt lat="62.632105484333" lon="17.966118343818">
        <ele>59</ele>
        <time>2017-11-27T18:31:49Z</time>
      </trkpt>
      <trkpt lat="62.632123924513" lon="17.96614080731">
        <ele>59</ele>
        <time>2017-11-27T18:31:50Z</time>
      </trkpt>
      <trkpt lat="62.632148651118" lon="17.966171987978">
        <ele>59</ele>
        <time>2017-11-27T18:31:51Z</time>
      </trkpt>
      <trkpt lat="62.632168851497" lon="17.96622127355">
        <ele>59.2</ele>
        <time>2017-11-27T18:31:52Z</time>
      </trkpt>
      <trkpt lat="62.632178406863" lon="17.966261422851">
        <ele>59.2</ele>
        <time>2017-11-27T18:31:53Z</time>
      </trkpt>
      <trkpt lat="62.632190141523" lon="17.966328310413">
        <ele>59.6</ele>
        <time>2017-11-27T18:31:54Z</time>
      </trkpt>
      <trkpt lat="62.632191398808" lon="17.966376841614">
        <ele>59.6</ele>
        <time>2017-11-27T18:31:55Z</time>
      </trkpt>
      <trkpt lat="62.632194332473" lon="17.966430401955">
        <ele>59.6</ele>
        <time>2017-11-27T18:31:56Z</time>
      </trkpt>
      <trkpt lat="62.632190309161" lon="17.966487901789">
        <ele>59.8</ele>
        <time>2017-11-27T18:31:57Z</time>
      </trkpt>
      <trkpt lat="62.632184693288" lon="17.966531487669">
        <ele>60</ele>
        <time>2017-11-27T18:31:58Z</time>
      </trkpt>
      <trkpt lat="62.632178490682" lon="17.966578007214">
        <ele>60.2</ele>
        <time>2017-11-27T18:31:59Z</time>
      </trkpt>
      <trkpt lat="62.63217279099" lon="17.966633076297">
        <ele>60.2</ele>
        <time>2017-11-27T18:32:00Z</time>
      </trkpt>
      <trkpt lat="62.632169019135" lon="17.96667892529">
        <ele>60.4</ele>
        <time>2017-11-27T18:32:01Z</time>
      </trkpt>
      <trkpt lat="62.632158625579" lon="17.966731898898">
        <ele>60.4</ele>
        <time>2017-11-27T18:32:02Z</time>
      </trkpt>
      <trkpt lat="62.632152758249" lon="17.96677699352">
        <ele>60.8</ele>
        <time>2017-11-27T18:32:03Z</time>
      </trkpt>
      <trkpt lat="62.632148902575" lon="17.966824686531">
        <ele>61</ele>
        <time>2017-11-27T18:32:04Z</time>
      </trkpt>
      <trkpt lat="62.632143286702" lon="17.966864835832">
        <ele>61.2</ele>
        <time>2017-11-27T18:32:05Z</time>
      </trkpt>
      <trkpt lat="62.632137754648" lon="17.966918060897">
        <ele>61.4</ele>
        <time>2017-11-27T18:32:06Z</time>
      </trkpt>
      <trkpt lat="62.632130127119" lon="17.966973632894">
        <ele>61.6</ele>
        <time>2017-11-27T18:32:07Z</time>
      </trkpt>
      <trkpt lat="62.632124092151" lon="17.967020152439">
        <ele>61.8</ele>
        <time>2017-11-27T18:32:08Z</time>
      </trkpt>
      <trkpt lat="62.632116213165" lon="17.967073796599">
        <ele>62.2</ele>
        <time>2017-11-27T18:32:09Z</time>
      </trkpt>
      <trkpt lat="62.632105903428" lon="17.967115789918">
        <ele>62.4</ele>
        <time>2017-11-27T18:32:10Z</time>
      </trkpt>
      <trkpt lat="62.632099700822" lon="17.967148395509">
        <ele>62.4</ele>
        <time>2017-11-27T18:32:11Z</time>
      </trkpt>
      <trkpt lat="62.632083356117" lon="17.967206482076">
        <ele>62.6</ele>
        <time>2017-11-27T18:32:12Z</time>
      </trkpt>
      <trkpt lat="62.632074638941" lon="17.967250906146">
        <ele>62.8</ele>
        <time>2017-11-27T18:32:13Z</time>
      </trkpt>
      <trkpt lat="62.632065083575" lon="17.967292815646">
        <ele>63</ele>
        <time>2017-11-27T18:32:14Z</time>
      </trkpt>
      <trkpt lat="62.632052510725" lon="17.967330701834">
        <ele>63</ele>
        <time>2017-11-27T18:32:15Z</time>
      </trkpt>
      <trkpt lat="62.632039015866" lon="17.967370348221">
        <ele>63.2</ele>
        <time>2017-11-27T18:32:16Z</time>
      </trkpt>
      <trkpt lat="62.632025521007" lon="17.967416281033">
        <ele>63.4</ele>
        <time>2017-11-27T18:32:17Z</time>
      </trkpt>
      <trkpt lat="62.632013451071" lon="17.967458944904">
        <ele>63.6</ele>
        <time>2017-11-27T18:32:18Z</time>
      </trkpt>
      <trkpt lat="62.631998615108" lon="17.967503201336">
        <ele>63.8</ele>
        <time>2017-11-27T18:32:19Z</time>
      </trkpt>
      <trkpt lat="62.63198503643" lon="17.967539578782">
        <ele>63.8</ele>
        <time>2017-11-27T18:32:20Z</time>
      </trkpt>
      <trkpt lat="62.631971290114" lon="17.967583080843">
        <ele>64</ele>
        <time>2017-11-27T18:32:21Z</time>
      </trkpt>
      <trkpt lat="62.631955113047" lon="17.967634545709">
        <ele>64.4</ele>
        <time>2017-11-27T18:32:22Z</time>
      </trkpt>
      <trkpt lat="62.631947150242" lon="17.967671174612">
        <ele>64.6</ele>
        <time>2017-11-27T18:32:23Z</time>
      </trkpt>
      <trkpt lat="62.631929296795" lon="17.967717358881">
        <ele>64.6</ele>
        <time>2017-11-27T18:32:24Z</time>
      </trkpt>
      <trkpt lat="62.631918400325" lon="17.967752059947">
        <ele>64.8</ele>
        <time>2017-11-27T18:32:25Z</time>
      </trkpt>
      <trkpt lat="62.631902474715" lon="17.967802854261">
        <ele>65.2</ele>
        <time>2017-11-27T18:32:26Z</time>
      </trkpt>
      <trkpt lat="62.63188864458" lon="17.967849960539">
        <ele>65.4</ele>
        <time>2017-11-27T18:32:27Z</time>
      </trkpt>
      <trkpt lat="62.631875652635" lon="17.96789178622">
        <ele>65.6</ele>
        <time>2017-11-27T18:32:28Z</time>
      </trkpt>
      <trkpt lat="62.631860900491" lon="17.967929588589">
        <ele>65.8</ele>
        <time>2017-11-27T18:32:29Z</time>
      </trkpt>
      <trkpt lat="62.631850339297" lon="17.967971078994">
        <ele>66.2</ele>
        <time>2017-11-27T18:32:30Z</time>
      </trkpt>
      <trkpt lat="62.631836173886" lon="17.968016341254">
        <ele>66.4</ele>
        <time>2017-11-27T18:32:31Z</time>
      </trkpt>
      <trkpt lat="62.631823181941" lon="17.968059256582">
        <ele>66.6</ele>
        <time>2017-11-27T18:32:32Z</time>
      </trkpt>
      <trkpt lat="62.63181236929" lon="17.968105105575">
        <ele>66.8</ele>
        <time>2017-11-27T18:32:33Z</time>
      </trkpt>
      <trkpt lat="62.631797114232" lon="17.968147853265">
        <ele>67</ele>
        <time>2017-11-27T18:32:34Z</time>
      </trkpt>
      <trkpt lat="62.631790241074" lon="17.968187834928">
        <ele>67.2</ele>
        <time>2017-11-27T18:32:35Z</time>
      </trkpt>
      <trkpt lat="62.631774483102" lon="17.968236617586">
        <ele>67.4</ele>
        <time>2017-11-27T18:32:36Z</time>
      </trkpt>
      <trkpt lat="62.631763167537" lon="17.968284226778">
        <ele>67.6</ele>
        <time>2017-11-27T18:32:37Z</time>
      </trkpt>
      <trkpt lat="62.631752354886" lon="17.968328567029">
        <ele>67.6</ele>
        <time>2017-11-27T18:32:38Z</time>
      </trkpt>
      <trkpt lat="62.631735423448" lon="17.968376176221">
        <ele>67.8</ele>
        <time>2017-11-27T18:32:39Z</time>
      </trkpt>
      <trkpt lat="62.631729304661" lon="17.968412972762">
        <ele>68</ele>
        <time>2017-11-27T18:32:40Z</time>
      </trkpt>
      <trkpt lat="62.631717486182" lon="17.968462761248">
        <ele>68.2</ele>
        <time>2017-11-27T18:32:41Z</time>
      </trkpt>
      <trkpt lat="62.631707427902" lon="17.968512130639">
        <ele>68.4</ele>
        <time>2017-11-27T18:32:42Z</time>
      </trkpt>
      <trkpt lat="62.63169586088" lon="17.968550268284">
        <ele>68.4</ele>
        <time>2017-11-27T18:32:43Z</time>
      </trkpt>
      <trkpt lat="62.631687059885" lon="17.968593854164">
        <ele>68.6</ele>
        <time>2017-11-27T18:32:44Z</time>
      </trkpt>
      <trkpt lat="62.631676833967" lon="17.968631237438">
        <ele>68.8</ele>
        <time>2017-11-27T18:32:45Z</time>
      </trkpt>
      <trkpt lat="62.63166987699" lon="17.968691670937">
        <ele>69</ele>
        <time>2017-11-27T18:32:46Z</time>
      </trkpt>
      <trkpt lat="62.631667194782" lon="17.968737352292">
        <ele>69.2</ele>
        <time>2017-11-27T18:32:47Z</time>
      </trkpt>
      <trkpt lat="62.631662500918" lon="17.968788817158">
        <ele>69.6</ele>
        <time>2017-11-27T18:32:48Z</time>
      </trkpt>
      <trkpt lat="62.631662836194" lon="17.968838605644">
        <ele>70</ele>
        <time>2017-11-27T18:32:49Z</time>
      </trkpt>
      <trkpt lat="62.631665769859" lon="17.96889593784">
        <ele>70.2</ele>
        <time>2017-11-27T18:32:50Z</time>
      </trkpt>
      <trkpt lat="62.631671134275" lon="17.968950671647">
        <ele>70.4</ele>
        <time>2017-11-27T18:32:51Z</time>
      </trkpt>
      <trkpt lat="62.631676079596" lon="17.968994760441">
        <ele>70.8</ele>
        <time>2017-11-27T18:32:52Z</time>
      </trkpt>
      <trkpt lat="62.631681444012" lon="17.969046225307">
        <ele>71</ele>
        <time>2017-11-27T18:32:53Z</time>
      </trkpt>
      <trkpt lat="62.631690496464" lon="17.969104730969">
        <ele>71.2</ele>
        <time>2017-11-27T18:32:54Z</time>
      </trkpt>
      <trkpt lat="62.631700973839" lon="17.969143539166">
        <ele>71.4</ele>
        <time>2017-11-27T18:32:55Z</time>
      </trkpt>
      <trkpt lat="62.631709355739" lon="17.969198943525">
        <ele>71.6</ele>
        <time>2017-11-27T18:32:56Z</time>
      </trkpt>
      <trkpt lat="62.631718911105" lon="17.969249067287">
        <ele>71.8</ele>
        <time>2017-11-27T18:32:57Z</time>
      </trkpt>
      <trkpt lat="62.63173022667" lon="17.969292150253">
        <ele>72</ele>
        <time>2017-11-27T18:32:58Z</time>
      </trkpt>
      <trkpt lat="62.631740620226" lon="17.969338166884">
        <ele>72.2</ele>
        <time>2017-11-27T18:32:59Z</time>
      </trkpt>
      <trkpt lat="62.631750259411" lon="17.969383429144">
        <ele>72.4</ele>
        <time>2017-11-27T18:33:00Z</time>
      </trkpt>
      <trkpt lat="62.631753444533" lon="17.969442270082">
        <ele>72.4</ele>
        <time>2017-11-27T18:33:01Z</time>
      </trkpt>
      <trkpt lat="62.631746739013" lon="17.969496836251">
        <ele>72.6</ele>
        <time>2017-11-27T18:33:02Z</time>
      </trkpt>
      <trkpt lat="62.631740536407" lon="17.969545618909">
        <ele>72.6</ele>
        <time>2017-11-27T18:33:03Z</time>
      </trkpt>
      <trkpt lat="62.631729556118" lon="17.969590462074">
        <ele>72.8</ele>
        <time>2017-11-27T18:33:04Z</time>
      </trkpt>
      <trkpt lat="62.63171513925" lon="17.969623822036">
        <ele>73</ele>
        <time>2017-11-27T18:33:05Z</time>
      </trkpt>
      <trkpt lat="62.631695274147" lon="17.969646453166">
        <ele>73.2</ele>
        <time>2017-11-27T18:33:06Z</time>
      </trkpt>
      <trkpt lat="62.631672307741" lon="17.96966455807">
        <ele>73.4</ele>
        <time>2017-11-27T18:33:07Z</time>
      </trkpt>
      <trkpt lat="62.631650095706" lon="17.969690122865">
        <ele>73.4</ele>
        <time>2017-11-27T18:33:08Z</time>
      </trkpt>
      <trkpt lat="62.631631571707" lon="17.969708814502">
        <ele>73.8</ele>
        <time>2017-11-27T18:33:09Z</time>
      </trkpt>
      <trkpt lat="62.631613047708" lon="17.969723063732">
        <ele>74</ele>
        <time>2017-11-27T18:33:10Z</time>
      </trkpt>
      <trkpt lat="62.63158857256" lon="17.969732702917">
        <ele>74.2</ele>
        <time>2017-11-27T18:33:11Z</time>
      </trkpt>
      <trkpt lat="62.631569210371" lon="17.969742593559">
        <ele>74.4</ele>
        <time>2017-11-27T18:33:12Z</time>
      </trkpt>
      <trkpt lat="62.631545154318" lon="17.969757345703">
        <ele>74.6</ele>
        <time>2017-11-27T18:33:13Z</time>
      </trkpt>
      <trkpt lat="62.631517242591" lon="17.969770672924">
        <ele>74.8</ele>
        <time>2017-11-27T18:33:14Z</time>
      </trkpt>
      <trkpt lat="62.631496790755" lon="17.96978609562">
        <ele>74.8</ele>
        <time>2017-11-27T18:33:15Z</time>
      </trkpt>
      <trkpt lat="62.631470303951" lon="17.96980118304">
        <ele>74.8</ele>
        <time>2017-11-27T18:33:16Z</time>
      </trkpt>
      <trkpt lat="62.63144524207" lon="17.969809145845">
        <ele>75</ele>
        <time>2017-11-27T18:33:17Z</time>
      </trkpt>
      <trkpt lat="62.631422108026" lon="17.969826244921">
        <ele>75</ele>
        <time>2017-11-27T18:33:18Z</time>
      </trkpt>
      <trkpt lat="62.631402326742" lon="17.969841248522">
        <ele>75</ele>
        <time>2017-11-27T18:33:19Z</time>
      </trkpt>
      <trkpt lat="62.631378773603" lon="17.969843511635">
        <ele>75</ele>
        <time>2017-11-27T18:33:20Z</time>
      </trkpt>
      <trkpt lat="62.631354969007" lon="17.969861951815">
        <ele>75</ele>
        <time>2017-11-27T18:33:21Z</time>
      </trkpt>
      <trkpt lat="62.63133208642" lon="17.969885337316">
        <ele>75</ele>
        <time>2017-11-27T18:33:22Z</time>
      </trkpt>
      <trkpt lat="62.631306018711" lon="17.969900676193">
        <ele>75.2</ele>
        <time>2017-11-27T18:33:23Z</time>
      </trkpt>
      <trkpt lat="62.631281543563" lon="17.969914757785">
        <ele>75.2</ele>
        <time>2017-11-27T18:33:24Z</time>
      </trkpt>
      <trkpt lat="62.631257571329" lon="17.969929258472">
        <ele>75.2</ele>
        <time>2017-11-27T18:33:25Z</time>
      </trkpt>
      <trkpt lat="62.631230162516" lon="17.969955996733">
        <ele>75.4</ele>
        <time>2017-11-27T18:33:26Z</time>
      </trkpt>
      <trkpt lat="62.631207447567" lon="17.969976867664">
        <ele>75.4</ele>
        <time>2017-11-27T18:33:27Z</time>
      </trkpt>
      <trkpt lat="62.631185151713" lon="17.970001929545">
        <ele>75.4</ele>
        <time>2017-11-27T18:33:28Z</time>
      </trkpt>
      <trkpt lat="62.631160760384" lon="17.970017771336">
        <ele>75.4</ele>
        <time>2017-11-27T18:33:29Z</time>
      </trkpt>
      <trkpt lat="62.631141733471" lon="17.970019196259">
        <ele>75.4</ele>
        <time>2017-11-27T18:33:30Z</time>
      </trkpt>
      <trkpt lat="62.631117258323" lon="17.970017268422">
        <ele>75.2</ele>
        <time>2017-11-27T18:33:31Z</time>
      </trkpt>
      <trkpt lat="62.631087418759" lon="17.970027242883">
        <ele>75.4</ele>
        <time>2017-11-27T18:33:32Z</time>
      </trkpt>
      <trkpt lat="62.631062356878" lon="17.970050628384">
        <ele>75.2</ele>
        <time>2017-11-27T18:33:33Z</time>
      </trkpt>
      <trkpt lat="62.631034361332" lon="17.970052304764">
        <ele>75.4</ele>
        <time>2017-11-27T18:33:34Z</time>
      </trkpt>
      <trkpt lat="62.630997061877" lon="17.970049371099">
        <ele>75.4</ele>
        <time>2017-11-27T18:33:36Z</time>
      </trkpt>
      <trkpt lat="62.630980549534" lon="17.970044761054">
        <ele>75.6</ele>
        <time>2017-11-27T18:33:37Z</time>
      </trkpt>
      <trkpt lat="62.630969736883" lon="17.970051550393">
        <ele>75.8</ele>
        <time>2017-11-27T18:33:38Z</time>
      </trkpt>
      <trkpt lat="62.630953392178" lon="17.970039564276">
        <ele>76</ele>
        <time>2017-11-27T18:33:39Z</time>
      </trkpt>
      <trkpt lat="62.630940735509" lon="17.970030092729">
        <ele>76</ele>
        <time>2017-11-27T18:33:40Z</time>
      </trkpt>
      <trkpt lat="62.630932856523" lon="17.970047275624">
        <ele>76.2</ele>
        <time>2017-11-27T18:33:41Z</time>
      </trkpt>
      <trkpt lat="62.630916679456" lon="17.970040570104">
        <ele>76.2</ele>
        <time>2017-11-27T18:33:42Z</time>
      </trkpt>
      <trkpt lat="62.63090544771" lon="17.970034032222">
        <ele>76.2</ele>
        <time>2017-11-27T18:33:43Z</time>
      </trkpt>
      <trkpt lat="62.63089036029" lon="17.9700224652">
        <ele>76.2</ele>
        <time>2017-11-27T18:33:44Z</time>
      </trkpt>
      <trkpt lat="62.630891366118" lon="17.970014502395">
        <ele>76.2</ele>
        <time>2017-11-27T18:33:45Z</time>
      </trkpt>
      <trkpt lat="62.63089119848" lon="17.970001761907">
        <ele>76</ele>
        <time>2017-11-27T18:33:46Z</time>
      </trkpt>
      <trkpt lat="62.630890863204" lon="17.969982986451">
        <ele>76</ele>
        <time>2017-11-27T18:33:47Z</time>
      </trkpt>
      <trkpt lat="62.630893377774" lon="17.969963288986">
        <ele>76</ele>
        <time>2017-11-27T18:33:48Z</time>
      </trkpt>
      <trkpt lat="62.630892371946" lon="17.969952141059">
        <ele>75.8</ele>
        <time>2017-11-27T18:33:49Z</time>
      </trkpt>
      <trkpt lat="62.630891366118" lon="17.969934790526">
        <ele>75.6</ele>
        <time>2017-11-27T18:33:50Z</time>
      </trkpt>
      <trkpt lat="62.630888432453" lon="17.969922469133">
        <ele>75.6</ele>
        <time>2017-11-27T18:33:51Z</time>
      </trkpt>
      <trkpt lat="62.630889438281" lon="17.969907381713">
        <ele>75.4</ele>
        <time>2017-11-27T18:33:52Z</time>
      </trkpt>
      <trkpt lat="62.630894886516" lon="17.969899754184">
        <ele>75.4</ele>
        <time>2017-11-27T18:33:54Z</time>
      </trkpt>
      <trkpt lat="62.630891030842" lon="17.969908974274">
        <ele>75.2</ele>
        <time>2017-11-27T18:33:55Z</time>
      </trkpt>
      <trkpt lat="62.630853060835" lon="17.969544110167">
        <ele>74.2</ele>
        <time>2017-11-27T18:34:12Z</time>
      </trkpt>
      <trkpt lat="62.630849708075" lon="17.969514773517">
        <ele>74.2</ele>
        <time>2017-11-27T18:34:13Z</time>
      </trkpt>
      <trkpt lat="62.630847444962" lon="17.969485855962">
        <ele>74.2</ele>
        <time>2017-11-27T18:34:14Z</time>
      </trkpt>
      <trkpt lat="62.630842751098" lon="17.96945584876">
        <ele>74</ele>
        <time>2017-11-27T18:34:15Z</time>
      </trkpt>
      <trkpt lat="62.63083839251" lon="17.969424416635">
        <ele>74</ele>
        <time>2017-11-27T18:34:16Z</time>
      </trkpt>
      <trkpt lat="62.630834536836" lon="17.969394828528">
        <ele>73.8</ele>
        <time>2017-11-27T18:34:17Z</time>
      </trkpt>
      <trkpt lat="62.630831938447" lon="17.969360714195">
        <ele>73.6</ele>
        <time>2017-11-27T18:34:18Z</time>
      </trkpt>
      <trkpt lat="62.630827747497" lon="17.96933095845">
        <ele>73.6</ele>
        <time>2017-11-27T18:34:19Z</time>
      </trkpt>
      <trkpt lat="62.630823975642" lon="17.96930245999">
        <ele>73.4</ele>
        <time>2017-11-27T18:34:20Z</time>
      </trkpt>
      <trkpt lat="62.630820455244" lon="17.969271614598">
        <ele>73.2</ele>
        <time>2017-11-27T18:34:21Z</time>
      </trkpt>
      <trkpt lat="62.630815258466" lon="17.969237332627">
        <ele>73.2</ele>
        <time>2017-11-27T18:34:22Z</time>
      </trkpt>
      <trkpt lat="62.630812157163" lon="17.969209672357">
        <ele>72.8</ele>
        <time>2017-11-27T18:34:23Z</time>
      </trkpt>
      <trkpt lat="62.630808469127" lon="17.969174971291">
        <ele>72.6</ele>
        <time>2017-11-27T18:34:24Z</time>
      </trkpt>
      <trkpt lat="62.630806289833" lon="17.969145215546">
        <ele>72.4</ele>
        <time>2017-11-27T18:34:25Z</time>
      </trkpt>
      <trkpt lat="62.630802517978" lon="17.969110598299">
        <ele>72.2</ele>
        <time>2017-11-27T18:34:26Z</time>
      </trkpt>
      <trkpt lat="62.630799416675" lon="17.969080004364">
        <ele>71.8</ele>
        <time>2017-11-27T18:34:27Z</time>
      </trkpt>
      <trkpt lat="62.630796566829" lon="17.96905100299">
        <ele>71.6</ele>
        <time>2017-11-27T18:34:28Z</time>
      </trkpt>
      <trkpt lat="62.630792459698" lon="17.969024432367">
        <ele>71.4</ele>
        <time>2017-11-27T18:34:29Z</time>
      </trkpt>
      <trkpt lat="62.630790028947" lon="17.968992581147">
        <ele>71.2</ele>
        <time>2017-11-27T18:34:30Z</time>
      </trkpt>
      <trkpt lat="62.630785502721" lon="17.968956036063">
        <ele>71</ele>
        <time>2017-11-27T18:34:31Z</time>
      </trkpt>
      <trkpt lat="62.630781227952" lon="17.968926867051">
        <ele>70.8</ele>
        <time>2017-11-27T18:34:32Z</time>
      </trkpt>
      <trkpt lat="62.630775444441" lon="17.968898117134">
        <ele>70.6</ele>
        <time>2017-11-27T18:34:33Z</time>
      </trkpt>
      <trkpt lat="62.630769744749" lon="17.968868612846">
        <ele>70.4</ele>
        <time>2017-11-27T18:34:34Z</time>
      </trkpt>
      <trkpt lat="62.630766727265" lon="17.968843467146">
        <ele>70.4</ele>
        <time>2017-11-27T18:34:35Z</time>
      </trkpt>
      <trkpt lat="62.630762201039" lon="17.968810610098">
        <ele>70.2</ele>
        <time>2017-11-27T18:34:36Z</time>
      </trkpt>
      <trkpt lat="62.630752729492" lon="17.968777501593">
        <ele>70.2</ele>
        <time>2017-11-27T18:34:37Z</time>
      </trkpt>
      <trkpt lat="62.630746694524" lon="17.968753277902">
        <ele>69.8</ele>
        <time>2017-11-27T18:34:38Z</time>
      </trkpt>
      <trkpt lat="62.630735462778" lon="17.968725114718">
        <ele>69.8</ele>
        <time>2017-11-27T18:34:39Z</time>
      </trkpt>
      <trkpt lat="62.630725823593" lon="17.96870734509">
        <ele>69.6</ele>
        <time>2017-11-27T18:34:40Z</time>
      </trkpt>
      <trkpt lat="62.630720710634" lon="17.968684797779">
        <ele>69.4</ele>
        <time>2017-11-27T18:34:41Z</time>
      </trkpt>
      <trkpt lat="62.63070931125" lon="17.968661412278">
        <ele>69.4</ele>
        <time>2017-11-27T18:34:42Z</time>
      </trkpt>
      <trkpt lat="62.63070176754" lon="17.968642553003">
        <ele>69.2</ele>
        <time>2017-11-27T18:34:43Z</time>
      </trkpt>
      <trkpt lat="62.630699001513" lon="17.968625537746">
        <ele>69</ele>
        <time>2017-11-27T18:34:44Z</time>
      </trkpt>
      <trkpt lat="62.630692295993" lon="17.968610534145">
        <ele>68.6</ele>
        <time>2017-11-27T18:34:45Z</time>
      </trkpt>
      <trkpt lat="62.630686763939" lon="17.968592680698">
        <ele>68.6</ele>
        <time>2017-11-27T18:34:46Z</time>
      </trkpt>
      <trkpt lat="62.630680226057" lon="17.968578012373">
        <ele>68.4</ele>
        <time>2017-11-27T18:34:47Z</time>
      </trkpt>
      <trkpt lat="62.630668156121" lon="17.968549178637">
        <ele>68.2</ele>
        <time>2017-11-27T18:34:48Z</time>
      </trkpt>
      <trkpt lat="62.630655834728" lon="17.968527218059">
        <ele>68</ele>
        <time>2017-11-27T18:34:49Z</time>
      </trkpt>
      <trkpt lat="62.630644686801" lon="17.968510454259">
        <ele>67.8</ele>
        <time>2017-11-27T18:34:50Z</time>
      </trkpt>
      <trkpt lat="62.63063387415" lon="17.968495199201">
        <ele>67.6</ele>
        <time>2017-11-27T18:34:51Z</time>
      </trkpt>
      <trkpt lat="62.630619205825" lon="17.968466868379">
        <ele>67.6</ele>
        <time>2017-11-27T18:34:52Z</time>
      </trkpt>
      <trkpt lat="62.630606632975" lon="17.968446919457">
        <ele>67.4</ele>
        <time>2017-11-27T18:34:53Z</time>
      </trkpt>
      <trkpt lat="62.63059280284" lon="17.96841900773">
        <ele>67.4</ele>
        <time>2017-11-27T18:34:54Z</time>
      </trkpt>
      <trkpt lat="62.630584085664" lon="17.968391179822">
        <ele>67.2</ele>
        <time>2017-11-27T18:34:55Z</time>
      </trkpt>
      <trkpt lat="62.630572770099" lon="17.968363351914">
        <ele>67</ele>
        <time>2017-11-27T18:34:56Z</time>
      </trkpt>
      <trkpt lat="62.63056095162" lon="17.9683377033">
        <ele>66.8</ele>
        <time>2017-11-27T18:34:57Z</time>
      </trkpt>
      <trkpt lat="62.630549636055" lon="17.968306354994">
        <ele>66.8</ele>
        <time>2017-11-27T18:34:58Z</time>
      </trkpt>
      <trkpt lat="62.630540918879" lon="17.968279197638">
        <ele>66.6</ele>
        <time>2017-11-27T18:34:59Z</time>
      </trkpt>
      <trkpt lat="62.630529351857" lon="17.968250447721">
        <ele>66.4</ele>
        <time>2017-11-27T18:35:00Z</time>
      </trkpt>
      <trkpt lat="62.630518539206" lon="17.968213148266">
        <ele>66.2</ele>
        <time>2017-11-27T18:35:01Z</time>
      </trkpt>
      <trkpt lat="62.630509319116" lon="17.968172663689">
        <ele>66.2</ele>
        <time>2017-11-27T18:35:02Z</time>
      </trkpt>
      <trkpt lat="62.63050060194" lon="17.96813234675">
        <ele>66</ele>
        <time>2017-11-27T18:35:03Z</time>
      </trkpt>
      <trkpt lat="62.630493393506" lon="17.968095550209">
        <ele>65.8</ele>
        <time>2017-11-27T18:35:04Z</time>
      </trkpt>
      <trkpt lat="62.630487442357" lon="17.968062441704">
        <ele>65.6</ele>
        <time>2017-11-27T18:35:05Z</time>
      </trkpt>
      <trkpt lat="62.63048132357" lon="17.96801751472">
        <ele>65.4</ele>
        <time>2017-11-27T18:35:06Z</time>
      </trkpt>
      <trkpt lat="62.630476210611" lon="17.96797225246">
        <ele>65</ele>
        <time>2017-11-27T18:35:07Z</time>
      </trkpt>
      <trkpt lat="62.630471097652" lon="17.967932522254">
        <ele>64.8</ele>
        <time>2017-11-27T18:35:08Z</time>
      </trkpt>
      <trkpt lat="62.630467661073" lon="17.967894216971">
        <ele>64.4</ele>
        <time>2017-11-27T18:35:09Z</time>
      </trkpt>
      <trkpt lat="62.630465900874" lon="17.967854654403">
        <ele>64.2</ele>
        <time>2017-11-27T18:35:10Z</time>
      </trkpt>
      <trkpt lat="62.630464056856" lon="17.967810900885">
        <ele>63.8</ele>
        <time>2017-11-27T18:35:11Z</time>
      </trkpt>
      <trkpt lat="62.630463051028" lon="17.967774942534">
        <ele>63.8</ele>
        <time>2017-11-27T18:35:12Z</time>
      </trkpt>
      <trkpt lat="62.630461290829" lon="17.967717526519">
        <ele>63.6</ele>
        <time>2017-11-27T18:35:13Z</time>
      </trkpt>
      <trkpt lat="62.630460285001" lon="17.967667402757">
        <ele>63.4</ele>
        <time>2017-11-27T18:35:14Z</time>
      </trkpt>
      <trkpt lat="62.630461039372" lon="17.967628091646">
        <ele>63</ele>
        <time>2017-11-27T18:35:15Z</time>
      </trkpt>
      <trkpt lat="62.630461542286" lon="17.967579392807">
        <ele>63</ele>
        <time>2017-11-27T18:35:16Z</time>
      </trkpt>
      <trkpt lat="62.6304620452" lon="17.967541841895">
        <ele>62.6</ele>
        <time>2017-11-27T18:35:17Z</time>
      </trkpt>
      <trkpt lat="62.630464308313" lon="17.967490544667">
        <ele>62.4</ele>
        <time>2017-11-27T18:35:18Z</time>
      </trkpt>
      <trkpt lat="62.630466068512" lon="17.967448551348">
        <ele>62.2</ele>
        <time>2017-11-27T18:35:19Z</time>
      </trkpt>
      <trkpt lat="62.630466822883" lon="17.967411419531">
        <ele>62</ele>
        <time>2017-11-27T18:35:20Z</time>
      </trkpt>
      <trkpt lat="62.630468163987" lon="17.967366576366">
        <ele>61.8</ele>
        <time>2017-11-27T18:35:21Z</time>
      </trkpt>
      <trkpt lat="62.630469756548" lon="17.967313938034">
        <ele>61.6</ele>
        <time>2017-11-27T18:35:22Z</time>
      </trkpt>
      <trkpt lat="62.630470678557" lon="17.967273704914">
        <ele>61.4</ele>
        <time>2017-11-27T18:35:23Z</time>
      </trkpt>
      <trkpt lat="62.630471600566" lon="17.967222240048">
        <ele>61.2</ele>
        <time>2017-11-27T18:35:24Z</time>
      </trkpt>
      <trkpt lat="62.630471852023" lon="17.967180246729">
        <ele>61</ele>
        <time>2017-11-27T18:35:25Z</time>
      </trkpt>
      <trkpt lat="62.630474115136" lon="17.967131464071">
        <ele>60.8</ele>
        <time>2017-11-27T18:35:26Z</time>
      </trkpt>
      <trkpt lat="62.630475875335" lon="17.967087375277">
        <ele>60.4</ele>
        <time>2017-11-27T18:35:27Z</time>
      </trkpt>
      <trkpt lat="62.630478557543" lon="17.967039514628">
        <ele>60.2</ele>
        <time>2017-11-27T18:35:28Z</time>
      </trkpt>
      <trkpt lat="62.630481072113" lon="17.966998946232">
        <ele>59.8</ele>
        <time>2017-11-27T18:35:29Z</time>
      </trkpt>
      <trkpt lat="62.630484089597" lon="17.96695385161">
        <ele>59.4</ele>
        <time>2017-11-27T18:35:30Z</time>
      </trkpt>
      <trkpt lat="62.630488112909" lon="17.966903979305">
        <ele>59.2</ele>
        <time>2017-11-27T18:35:31Z</time>
      </trkpt>
      <trkpt lat="62.630487777633" lon="17.966856034837">
        <ele>58.8</ele>
        <time>2017-11-27T18:35:32Z</time>
      </trkpt>
      <trkpt lat="62.630490040746" lon="17.966805994894">
        <ele>58.6</ele>
        <time>2017-11-27T18:35:33Z</time>
      </trkpt>
      <trkpt lat="62.630492387678" lon="17.966757212236">
        <ele>58.2</ele>
        <time>2017-11-27T18:35:34Z</time>
      </trkpt>
      <trkpt lat="62.630493561144" lon="17.966718906953">
        <ele>58.2</ele>
        <time>2017-11-27T18:35:35Z</time>
      </trkpt>
      <trkpt lat="62.630495153705" lon="17.966670711028">
        <ele>57.8</ele>
        <time>2017-11-27T18:35:36Z</time>
      </trkpt>
      <trkpt lat="62.630498171189" lon="17.966617485963">
        <ele>57.6</ele>
        <time>2017-11-27T18:35:37Z</time>
      </trkpt>
      <trkpt lat="62.630499679931" lon="17.966569625314">
        <ele>57.4</ele>
        <time>2017-11-27T18:35:38Z</time>
      </trkpt>
      <trkpt lat="62.630502026863" lon="17.966529056918">
        <ele>57.2</ele>
        <time>2017-11-27T18:35:39Z</time>
      </trkpt>
      <trkpt lat="62.630501272492" lon="17.966485051943">
        <ele>57</ele>
        <time>2017-11-27T18:35:40Z</time>
      </trkpt>
      <trkpt lat="62.630499177017" lon="17.966439370588">
        <ele>57</ele>
        <time>2017-11-27T18:35:41Z</time>
      </trkpt>
      <trkpt lat="62.630501523949" lon="17.96639561707">
        <ele>56.8</ele>
        <time>2017-11-27T18:35:42Z</time>
      </trkpt>
      <trkpt lat="62.630504541433" lon="17.966356138321">
        <ele>56.6</ele>
        <time>2017-11-27T18:35:43Z</time>
      </trkpt>
      <trkpt lat="62.630506301632" lon="17.966309115862">
        <ele>56.4</ele>
        <time>2017-11-27T18:35:44Z</time>
      </trkpt>
      <trkpt lat="62.630506301632" lon="17.966271062036">
        <ele>56.2</ele>
        <time>2017-11-27T18:35:45Z</time>
      </trkpt>
      <trkpt lat="62.630509486754" lon="17.966234265495">
        <ele>56</ele>
        <time>2017-11-27T18:35:46Z</time>
      </trkpt>
      <trkpt lat="62.630513761523" lon="17.966201240809">
        <ele>55.8</ele>
        <time>2017-11-27T18:35:47Z</time>
      </trkpt>
      <trkpt lat="62.630516108455" lon="17.966152290513">
        <ele>55.6</ele>
        <time>2017-11-27T18:35:48Z</time>
      </trkpt>
      <trkpt lat="62.630519712672" lon="17.966110213375">
        <ele>55.4</ele>
        <time>2017-11-27T18:35:49Z</time>
      </trkpt>
      <trkpt lat="62.630522478699" lon="17.966075344671">
        <ele>55.2</ele>
        <time>2017-11-27T18:35:50Z</time>
      </trkpt>
      <trkpt lat="62.630525915278" lon="17.96603519537">
        <ele>55</ele>
        <time>2017-11-27T18:35:51Z</time>
      </trkpt>
      <trkpt lat="62.630527591658" lon="17.965986496531">
        <ele>54.8</ele>
        <time>2017-11-27T18:35:52Z</time>
      </trkpt>
      <trkpt lat="62.630529519495" lon="17.965947353058">
        <ele>54.6</ele>
        <time>2017-11-27T18:35:53Z</time>
      </trkpt>
      <trkpt lat="62.630528932762" lon="17.965904689187">
        <ele>54.4</ele>
        <time>2017-11-27T18:35:54Z</time>
      </trkpt>
      <trkpt lat="62.630530692961" lon="17.965865378076">
        <ele>54.2</ele>
        <time>2017-11-27T18:35:55Z</time>
      </trkpt>
      <trkpt lat="62.630532956074" lon="17.965815338133">
        <ele>53.8</ele>
        <time>2017-11-27T18:35:56Z</time>
      </trkpt>
      <trkpt lat="62.630534548635" lon="17.965776027022">
        <ele>53.6</ele>
        <time>2017-11-27T18:35:57Z</time>
      </trkpt>
      <trkpt lat="62.630535303006" lon="17.965741325956">
        <ele>53.6</ele>
        <time>2017-11-27T18:35:58Z</time>
      </trkpt>
      <trkpt lat="62.63053496773" lon="17.965712743677">
        <ele>53.4</ele>
        <time>2017-11-27T18:35:59Z</time>
      </trkpt>
      <trkpt lat="62.630535889739" lon="17.965680808638">
        <ele>53.2</ele>
        <time>2017-11-27T18:36:00Z</time>
      </trkpt>
      <trkpt lat="62.630535135368" lon="17.965639737328">
        <ele>53</ele>
        <time>2017-11-27T18:36:01Z</time>
      </trkpt>
      <trkpt lat="62.630537147024" lon="17.965604700986">
        <ele>52.8</ele>
        <time>2017-11-27T18:36:02Z</time>
      </trkpt>
      <trkpt lat="62.630541170336" lon="17.96557335268">
        <ele>52.6</ele>
        <time>2017-11-27T18:36:03Z</time>
      </trkpt>
      <trkpt lat="62.630546618571" lon="17.965541920555">
        <ele>52.6</ele>
        <time>2017-11-27T18:36:04Z</time>
      </trkpt>
      <trkpt lat="62.630550641883" lon="17.965522306909">
        <ele>52.4</ele>
        <time>2017-11-27T18:36:05Z</time>
      </trkpt>
      <trkpt lat="62.630555754842" lon="17.965501687435">
        <ele>52.4</ele>
        <time>2017-11-27T18:36:06Z</time>
      </trkpt>
      <trkpt lat="62.63056011343" lon="17.965485258911">
        <ele>52.4</ele>
        <time>2017-11-27T18:36:07Z</time>
      </trkpt>
      <trkpt lat="62.630563047095" lon="17.965487186748">
        <ele>52.4</ele>
        <time>2017-11-27T18:36:09Z</time>
      </trkpt>
      <trkpt lat="62.630754908786" lon="17.965484755997">
        <ele>52.8</ele>
        <time>2017-11-27T18:36:23Z</time>
      </trkpt>
      <trkpt lat="62.630777372278" lon="17.965496909752">
        <ele>53</ele>
        <time>2017-11-27T18:36:24Z</time>
      </trkpt>
      <trkpt lat="62.630802015064" lon="17.965508141498">
        <ele>53</ele>
        <time>2017-11-27T18:36:25Z</time>
      </trkpt>
      <trkpt lat="62.63082581966" lon="17.965519792339">
        <ele>53</ele>
        <time>2017-11-27T18:36:26Z</time>
      </trkpt>
      <trkpt lat="62.630874937594" lon="17.965529180067">
        <ele>53</ele>
        <time>2017-11-27T18:36:28Z</time>
      </trkpt>
      <trkpt lat="62.630896562896" lon="17.965526162583">
        <ele>53.2</ele>
        <time>2017-11-27T18:36:29Z</time>
      </trkpt>
      <trkpt lat="62.630920954225" lon="17.965506213661">
        <ele>53.4</ele>
        <time>2017-11-27T18:36:30Z</time>
      </trkpt>
      <trkpt lat="62.630945597011" lon="17.965485594187">
        <ele>53.6</ele>
        <time>2017-11-27T18:36:31Z</time>
      </trkpt>
      <trkpt lat="62.630965629752" lon="17.965455000252">
        <ele>53.8</ele>
        <time>2017-11-27T18:36:32Z</time>
      </trkpt>
      <trkpt lat="62.630990272538" lon="17.965426753249">
        <ele>53.8</ele>
        <time>2017-11-27T18:36:33Z</time>
      </trkpt>
      <trkpt lat="62.631014580048" lon="17.96539900916">
        <ele>54</ele>
        <time>2017-11-27T18:36:34Z</time>
      </trkpt>
      <trkpt lat="62.631034361332" lon="17.965374869288">
        <ele>54.4</ele>
        <time>2017-11-27T18:36:35Z</time>
      </trkpt>
      <trkpt lat="62.631059004118" lon="17.96534033586">
        <ele>54.4</ele>
        <time>2017-11-27T18:36:36Z</time>
      </trkpt>
      <trkpt lat="62.631080461782" lon="17.965307478812">
        <ele>54.4</ele>
        <time>2017-11-27T18:36:37Z</time>
      </trkpt>
      <trkpt lat="62.631107032405" lon="17.965294067772">
        <ele>54.6</ele>
        <time>2017-11-27T18:36:38Z</time>
      </trkpt>
      <trkpt lat="62.631133854485" lon="17.965298510179">
        <ele>54.8</ele>
        <time>2017-11-27T18:36:39Z</time>
      </trkpt>
      <trkpt lat="62.631159670737" lon="17.965314771065">
        <ele>54.6</ele>
        <time>2017-11-27T18:36:40Z</time>
      </trkpt>
      <trkpt lat="62.631181463677" lon="17.965340922593">
        <ele>54.8</ele>
        <time>2017-11-27T18:36:41Z</time>
      </trkpt>
      <trkpt lat="62.631205687368" lon="17.965366990302">
        <ele>54.8</ele>
        <time>2017-11-27T18:36:42Z</time>
      </trkpt>
      <trkpt lat="62.631228318498" lon="17.965395237305">
        <ele>54.8</ele>
        <time>2017-11-27T18:36:43Z</time>
      </trkpt>
      <trkpt lat="62.631251284904" lon="17.96542583124">
        <ele>54.8</ele>
        <time>2017-11-27T18:36:44Z</time>
      </trkpt>
      <trkpt lat="62.631270982369" lon="17.965449468198">
        <ele>54.8</ele>
        <time>2017-11-27T18:36:45Z</time>
      </trkpt>
      <trkpt lat="62.631295038422" lon="17.965478972486">
        <ele>55</ele>
        <time>2017-11-27T18:36:46Z</time>
      </trkpt>
      <trkpt lat="62.631315238801" lon="17.965503112358">
        <ele>55</ele>
        <time>2017-11-27T18:36:47Z</time>
      </trkpt>
      <trkpt lat="62.631342060881" lon="17.965524318565">
        <ele>55.2</ele>
        <time>2017-11-27T18:36:48Z</time>
      </trkpt>
      <trkpt lat="62.631366200753" lon="17.965545440953">
        <ele>55.2</ele>
        <time>2017-11-27T18:36:49Z</time>
      </trkpt>
      <trkpt lat="62.631388915702" lon="17.965565725151">
        <ele>55.4</ele>
        <time>2017-11-27T18:36:50Z</time>
      </trkpt>
      <trkpt lat="62.631410960099" lon="17.965585338797">
        <ele>55.4</ele>
        <time>2017-11-27T18:36:51Z</time>
      </trkpt>
      <trkpt lat="62.631438033636" lon="17.965606461185">
        <ele>55.6</ele>
        <time>2017-11-27T18:36:52Z</time>
      </trkpt>
      <trkpt lat="62.631453875427" lon="17.965617022379">
        <ele>55.6</ele>
        <time>2017-11-27T18:36:53Z</time>
      </trkpt>
      <trkpt lat="62.631485810466" lon="17.965645856115">
        <ele>55.8</ele>
        <time>2017-11-27T18:36:54Z</time>
      </trkpt>
      <trkpt lat="62.631508273958" lon="17.965668487245">
        <ele>56</ele>
        <time>2017-11-27T18:36:55Z</time>
      </trkpt>
      <trkpt lat="62.63153073745" lon="17.965691202194">
        <ele>56.2</ele>
        <time>2017-11-27T18:36:56Z</time>
      </trkpt>
      <trkpt lat="62.631554625865" lon="17.965716347894">
        <ele>56.4</ele>
        <time>2017-11-27T18:36:57Z</time>
      </trkpt>
      <trkpt lat="62.631578598099" lon="17.965738895205">
        <ele>56.6</ele>
        <time>2017-11-27T18:36:58Z</time>
      </trkpt>
      <trkpt lat="62.631598127926" lon="17.965754736996">
        <ele>56.6</ele>
        <time>2017-11-27T18:36:59Z</time>
      </trkpt>
      <trkpt lat="62.631625285282" lon="17.965780217972">
        <ele>56.8</ele>
        <time>2017-11-27T18:37:00Z</time>
      </trkpt>
      <trkpt lat="62.631646994403" lon="17.965797903781">
        <ele>57</ele>
        <time>2017-11-27T18:37:01Z</time>
      </trkpt>
      <trkpt lat="62.631670966637" lon="17.965817768884">
        <ele>57.2</ele>
        <time>2017-11-27T18:37:02Z</time>
      </trkpt>
      <trkpt lat="62.631696447613" lon="17.965838053082">
        <ele>57.2</ele>
        <time>2017-11-27T18:37:03Z</time>
      </trkpt>
      <trkpt lat="62.631716312716" lon="17.965849284828">
        <ele>57.2</ele>
        <time>2017-11-27T18:37:04Z</time>
      </trkpt>
      <trkpt lat="62.631736429276" lon="17.965864958981">
        <ele>57.2</ele>
        <time>2017-11-27T18:37:05Z</time>
      </trkpt>
      <trkpt lat="62.631760066234" lon="17.965882896247">
        <ele>57.4</ele>
        <time>2017-11-27T18:37:06Z</time>
      </trkpt>
      <trkpt lat="62.631783787011" lon="17.96589773221">
        <ele>57.4</ele>
        <time>2017-11-27T18:37:07Z</time>
      </trkpt>
      <trkpt lat="62.631811614919" lon="17.965901504065">
        <ele>57.4</ele>
        <time>2017-11-27T18:37:08Z</time>
      </trkpt>
      <trkpt lat="62.63183500042" lon="17.965913825458">
        <ele>57.6</ele>
        <time>2017-11-27T18:37:09Z</time>
      </trkpt>
      <trkpt lat="62.631855284618" lon="17.965931092172">
        <ele>57.8</ele>
        <time>2017-11-27T18:37:10Z</time>
      </trkpt>
      <trkpt lat="62.631875317359" lon="17.965942826832">
        <ele>58</ele>
        <time>2017-11-27T18:37:11Z</time>
      </trkpt>
      <trkpt lat="62.631892584073" lon="17.965950621999">
        <ele>58</ele>
        <time>2017-11-27T18:37:12Z</time>
      </trkpt>
      <trkpt lat="62.631905576018" lon="17.965959003899">
        <ele>58</ele>
        <time>2017-11-27T18:37:13Z</time>
      </trkpt>
      <trkpt lat="62.631909012597" lon="17.965972917853">
        <ele>58.2</ele>
        <time>2017-11-27T18:37:14Z</time>
      </trkpt>
      <trkpt lat="62.631913203547" lon="17.965991944766">
        <ele>58.2</ele>
        <time>2017-11-27T18:37:15Z</time>
      </trkpt>
      <trkpt lat="62.631930721718" lon="17.966014827353">
        <ele>58.4</ele>
        <time>2017-11-27T18:37:16Z</time>
      </trkpt>
      <trkpt lat="62.631951844106" lon="17.966025807642">
        <ele>58.4</ele>
        <time>2017-11-27T18:37:17Z</time>
      </trkpt>
      <trkpt lat="62.631977241263" lon="17.966035865922">
        <ele>58.6</ele>
        <time>2017-11-27T18:37:18Z</time>
      </trkpt>
      <trkpt lat="62.631998615108" lon="17.966043661089">
        <ele>58.6</ele>
        <time>2017-11-27T18:37:19Z</time>
      </trkpt>
      <trkpt lat="62.632023509351" lon="17.966057910319">
        <ele>58.6</ele>
        <time>2017-11-27T18:37:20Z</time>
      </trkpt>
      <trkpt lat="62.63204873887" lon="17.966073668291">
        <ele>58.8</ele>
        <time>2017-11-27T18:37:21Z</time>
      </trkpt>
      <trkpt lat="62.63207639914" lon="17.966091689376">
        <ele>58.8</ele>
        <time>2017-11-27T18:37:22Z</time>
      </trkpt>
      <trkpt lat="62.632099533184" lon="17.966103340217">
        <ele>59</ele>
        <time>2017-11-27T18:37:23Z</time>
      </trkpt>
      <trkpt lat="62.632123924513" lon="17.966111219203">
        <ele>59</ele>
        <time>2017-11-27T18:37:24Z</time>
      </trkpt>
      <trkpt lat="62.632147310014" lon="17.966120774569">
        <ele>59.2</ele>
        <time>2017-11-27T18:37:25Z</time>
      </trkpt>
      <trkpt lat="62.63217279099" lon="17.966135442894">
        <ele>59.4</ele>
        <time>2017-11-27T18:37:26Z</time>
      </trkpt>
      <trkpt lat="62.632195673577" lon="17.966141142586">
        <ele>59.4</ele>
        <time>2017-11-27T18:37:27Z</time>
      </trkpt>
      <trkpt lat="62.632219645811" lon="17.966153044884">
        <ele>59.4</ele>
        <time>2017-11-27T18:37:28Z</time>
      </trkpt>
      <trkpt lat="62.632241774027" lon="17.966165282458">
        <ele>59.6</ele>
        <time>2017-11-27T18:37:29Z</time>
      </trkpt>
      <trkpt lat="62.632263231691" lon="17.966174754005">
        <ele>59.8</ele>
        <time>2017-11-27T18:37:30Z</time>
      </trkpt>
      <trkpt lat="62.632292735979" lon="17.966177855308">
        <ele>59.8</ele>
        <time>2017-11-27T18:37:31Z</time>
      </trkpt>
      <trkpt lat="62.632315618566" lon="17.966180872792">
        <ele>59.8</ele>
        <time>2017-11-27T18:37:32Z</time>
      </trkpt>
      <trkpt lat="62.632339674619" lon="17.966191266348">
        <ele>60</ele>
        <time>2017-11-27T18:37:33Z</time>
      </trkpt>
      <trkpt lat="62.632362892482" lon="17.966202330456">
        <ele>60.2</ele>
        <time>2017-11-27T18:37:34Z</time>
      </trkpt>
      <trkpt lat="62.632382841404" lon="17.966208281605">
        <ele>60.4</ele>
        <time>2017-11-27T18:37:35Z</time>
      </trkpt>
      <trkpt lat="62.632409412027" lon="17.966211550546">
        <ele>60.4</ele>
        <time>2017-11-27T18:37:36Z</time>
      </trkpt>
      <trkpt lat="62.632434725365" lon="17.966216914962">
        <ele>60.4</ele>
        <time>2017-11-27T18:37:37Z</time>
      </trkpt>
      <trkpt lat="62.632460541617" lon="17.966215154763">
        <ele>60.6</ele>
        <time>2017-11-27T18:37:38Z</time>
      </trkpt>
      <trkpt lat="62.632486357869" lon="17.966217836971">
        <ele>60.8</ele>
        <time>2017-11-27T18:37:39Z</time>
      </trkpt>
      <trkpt lat="62.632509240456" lon="17.966218256066">
        <ele>60.8</ele>
        <time>2017-11-27T18:37:40Z</time>
      </trkpt>
      <trkpt lat="62.632533380328" lon="17.966223285206">
        <ele>60.8</ele>
        <time>2017-11-27T18:37:41Z</time>
      </trkpt>
      <trkpt lat="62.632560621503" lon="17.966225799776">
        <ele>61</ele>
        <time>2017-11-27T18:37:42Z</time>
      </trkpt>
      <trkpt lat="62.63258434228" lon="17.966226135052">
        <ele>61.2</ele>
        <time>2017-11-27T18:37:43Z</time>
      </trkpt>
      <trkpt lat="62.632610661446" lon="17.966232337658">
        <ele>61.2</ele>
        <time>2017-11-27T18:37:44Z</time>
      </trkpt>
      <trkpt lat="62.632632622024" lon="17.966232421477">
        <ele>61.2</ele>
        <time>2017-11-27T18:37:45Z</time>
      </trkpt>
      <trkpt lat="62.632658773552" lon="17.966233594943">
        <ele>61.2</ele>
        <time>2017-11-27T18:37:46Z</time>
      </trkpt>
      <trkpt lat="62.63268408689" lon="17.966234936047">
        <ele>61.4</ele>
        <time>2017-11-27T18:37:47Z</time>
      </trkpt>
      <trkpt lat="62.632714177911" lon="17.966235438961">
        <ele>61.4</ele>
        <time>2017-11-27T18:37:48Z</time>
      </trkpt>
      <trkpt lat="62.632737982507" lon="17.9662338464">
        <ele>61.4</ele>
        <time>2017-11-27T18:37:49Z</time>
      </trkpt>
      <trkpt lat="62.63276203856" lon="17.966235187504">
        <ele>61.4</ele>
        <time>2017-11-27T18:37:50Z</time>
      </trkpt>
      <trkpt lat="62.632786262251" lon="17.966230745097">
        <ele>61.6</ele>
        <time>2017-11-27T18:37:51Z</time>
      </trkpt>
      <trkpt lat="62.632811659408" lon="17.966226218871">
        <ele>61.8</ele>
        <time>2017-11-27T18:37:52Z</time>
      </trkpt>
      <trkpt lat="62.632836386013" lon="17.966226218871">
        <ele>61.8</ele>
        <time>2017-11-27T18:37:53Z</time>
      </trkpt>
      <trkpt lat="62.632861950808" lon="17.966225129224">
        <ele>61.8</ele>
        <time>2017-11-27T18:37:54Z</time>
      </trkpt>
      <trkpt lat="62.632884246662" lon="17.966222279378">
        <ele>61.8</ele>
        <time>2017-11-27T18:37:55Z</time>
      </trkpt>
      <trkpt lat="62.632910984923" lon="17.966225883595">
        <ele>62</ele>
        <time>2017-11-27T18:37:56Z</time>
      </trkpt>
      <trkpt lat="62.63293554389" lon="17.966229990726">
        <ele>62</ele>
        <time>2017-11-27T18:37:57Z</time>
      </trkpt>
      <trkpt lat="62.632958091201" lon="17.966241725386">
        <ele>62</ele>
        <time>2017-11-27T18:37:58Z</time>
      </trkpt>
      <trkpt lat="62.632981141426" lon="17.966253040951">
        <ele>62</ele>
        <time>2017-11-27T18:37:59Z</time>
      </trkpt>
      <trkpt lat="62.633004359289" lon="17.966254549693">
        <ele>62</ele>
        <time>2017-11-27T18:38:00Z</time>
      </trkpt>
      <trkpt lat="62.633032941568" lon="17.966243234128">
        <ele>62</ele>
        <time>2017-11-27T18:38:01Z</time>
      </trkpt>
      <trkpt lat="62.633060685657" lon="17.966239378454">
        <ele>62.2</ele>
        <time>2017-11-27T18:38:02Z</time>
      </trkpt>
      <trkpt lat="62.633085160805" lon="17.966233092029">
        <ele>62.2</ele>
        <time>2017-11-27T18:38:03Z</time>
      </trkpt>
      <trkpt lat="62.633111647609" lon="17.966229990726">
        <ele>62.4</ele>
        <time>2017-11-27T18:38:04Z</time>
      </trkpt>
      <trkpt lat="62.633131093617" lon="17.966230074545">
        <ele>62.4</ele>
        <time>2017-11-27T18:38:05Z</time>
      </trkpt>
      <trkpt lat="62.633153724747" lon="17.966225883595">
        <ele>62.8</ele>
        <time>2017-11-27T18:38:06Z</time>
      </trkpt>
      <trkpt lat="62.633182223207" lon="17.966222027921">
        <ele>62.8</ele>
        <time>2017-11-27T18:38:07Z</time>
      </trkpt>
      <trkpt lat="62.633207620364" lon="17.966217250238">
        <ele>62.8</ele>
        <time>2017-11-27T18:38:08Z</time>
      </trkpt>
      <trkpt lat="62.633232179331" lon="17.966211718184">
        <ele>63</ele>
        <time>2017-11-27T18:38:09Z</time>
      </trkpt>
      <trkpt lat="62.633256235384" lon="17.966205264121">
        <ele>63</ele>
        <time>2017-11-27T18:38:10Z</time>
      </trkpt>
      <trkpt lat="62.633281381084" lon="17.966201576085">
        <ele>63</ele>
        <time>2017-11-27T18:38:11Z</time>
      </trkpt>
      <trkpt lat="62.633303174024" lon="17.966191685443">
        <ele>63</ele>
        <time>2017-11-27T18:38:12Z</time>
      </trkpt>
      <trkpt lat="62.633328068267" lon="17.966193026547">
        <ele>63</ele>
        <time>2017-11-27T18:38:13Z</time>
      </trkpt>
      <trkpt lat="62.633352375777" lon="17.966194116194">
        <ele>63</ele>
        <time>2017-11-27T18:38:14Z</time>
      </trkpt>
      <trkpt lat="62.633373414346" lon="17.966193194185">
        <ele>63.2</ele>
        <time>2017-11-27T18:38:15Z</time>
      </trkpt>
      <trkpt lat="62.63339906296" lon="17.96619864242">
        <ele>63.2</ele>
        <time>2017-11-27T18:38:16Z</time>
      </trkpt>
      <trkpt lat="62.633421777909" lon="17.966212221098">
        <ele>63.2</ele>
        <time>2017-11-27T18:38:17Z</time>
      </trkpt>
      <trkpt lat="62.633449102903" lon="17.966218004609">
        <ele>63.2</ele>
        <time>2017-11-27T18:38:18Z</time>
      </trkpt>
      <trkpt lat="62.633477266087" lon="17.966219429532">
        <ele>63.2</ele>
        <time>2017-11-27T18:38:19Z</time>
      </trkpt>
      <trkpt lat="62.633502579425" lon="17.96621792079">
        <ele>63.4</ele>
        <time>2017-11-27T18:38:20Z</time>
      </trkpt>
      <trkpt lat="62.633528730953" lon="17.966219178075">
        <ele>63.2</ele>
        <time>2017-11-27T18:38:21Z</time>
      </trkpt>
      <trkpt lat="62.63355748087" lon="17.966219094256">
        <ele>63.2</ele>
        <time>2017-11-27T18:38:22Z</time>
      </trkpt>
      <trkpt lat="62.633580363457" lon="17.966216747324">
        <ele>63.2</ele>
        <time>2017-11-27T18:38:23Z</time>
      </trkpt>
      <trkpt lat="62.633608359003" lon="17.96621372984">
        <ele>63.4</ele>
        <time>2017-11-27T18:38:24Z</time>
      </trkpt>
      <trkpt lat="62.633633337065" lon="17.966212975469">
        <ele>63.4</ele>
        <time>2017-11-27T18:38:25Z</time>
      </trkpt>
      <trkpt lat="62.63365722548" lon="17.966213394564">
        <ele>63.6</ele>
        <time>2017-11-27T18:38:26Z</time>
      </trkpt>
      <trkpt lat="62.633682035904" lon="17.966219345713">
        <ele>63.6</ele>
        <time>2017-11-27T18:38:27Z</time>
      </trkpt>
      <trkpt lat="62.63370500231" lon="17.966235438961">
        <ele>63.8</ele>
        <time>2017-11-27T18:38:28Z</time>
      </trkpt>
      <trkpt lat="62.633719670635" lon="17.966263350688">
        <ele>63.8</ele>
        <time>2017-11-27T18:38:29Z</time>
      </trkpt>
      <trkpt lat="62.633728220173" lon="17.966308780586">
        <ele>63.8</ele>
        <time>2017-11-27T18:38:30Z</time>
      </trkpt>
      <trkpt lat="62.633731237657" lon="17.966361167461">
        <ele>63.8</ele>
        <time>2017-11-27T18:38:31Z</time>
      </trkpt>
      <trkpt lat="62.633726711431" lon="17.966410369214">
        <ele>64</ele>
        <time>2017-11-27T18:38:32Z</time>
      </trkpt>
      <trkpt lat="62.633715982599" lon="17.966459738605">
        <ele>64.2</ele>
        <time>2017-11-27T18:38:33Z</time>
      </trkpt>
      <trkpt lat="62.633710366726" lon="17.966506593426">
        <ele>64.4</ele>
        <time>2017-11-27T18:38:34Z</time>
      </trkpt>
      <trkpt lat="62.633708857984" lon="17.966552861514">
        <ele>64.4</ele>
        <time>2017-11-27T18:38:35Z</time>
      </trkpt>
      <trkpt lat="62.633703242111" lon="17.966607762959">
        <ele>64.6</ele>
        <time>2017-11-27T18:38:36Z</time>
      </trkpt>
      <trkpt lat="62.633695866039" lon="17.966658054359">
        <ele>64.8</ele>
        <time>2017-11-27T18:38:37Z</time>
      </trkpt>
      <trkpt lat="62.633692094184" lon="17.966703987171">
        <ele>65</ele>
        <time>2017-11-27T18:38:38Z</time>
      </trkpt>
      <trkpt lat="62.633686478311" lon="17.966752015458">
        <ele>65</ele>
        <time>2017-11-27T18:38:39Z</time>
      </trkpt>
      <trkpt lat="62.633681700628" lon="17.9667954337">
        <ele>65.2</ele>
        <time>2017-11-27T18:38:40Z</time>
      </trkpt>
      <trkpt lat="62.633678264049" lon="17.966841617969">
        <ele>65.2</ele>
        <time>2017-11-27T18:38:41Z</time>
      </trkpt>
      <trkpt lat="62.633673737823" lon="17.966888724247">
        <ele>65.4</ele>
        <time>2017-11-27T18:38:42Z</time>
      </trkpt>
      <trkpt lat="62.633667954312" lon="17.966935076154">
        <ele>65.6</ele>
        <time>2017-11-27T18:38:43Z</time>
      </trkpt>
      <trkpt lat="62.633662757534" lon="17.966975225455">
        <ele>65.8</ele>
        <time>2017-11-27T18:38:44Z</time>
      </trkpt>
      <trkpt lat="62.633657476937" lon="17.967019817163">
        <ele>65.8</ele>
        <time>2017-11-27T18:38:45Z</time>
      </trkpt>
      <trkpt lat="62.633652028702" lon="17.967069186554">
        <ele>66.2</ele>
        <time>2017-11-27T18:38:46Z</time>
      </trkpt>
      <trkpt lat="62.633650603779" lon="17.96711310771">
        <ele>66.4</ele>
        <time>2017-11-27T18:38:47Z</time>
      </trkpt>
      <trkpt lat="62.633646580467" lon="17.967166248956">
        <ele>66.6</ele>
        <time>2017-11-27T18:38:48Z</time>
      </trkpt>
      <trkpt lat="62.633642557155" lon="17.967214025786">
        <ele>66.8</ele>
        <time>2017-11-27T18:38:49Z</time>
      </trkpt>
      <trkpt lat="62.633639036757" lon="17.967256102924">
        <ele>67.2</ele>
        <time>2017-11-27T18:38:50Z</time>
      </trkpt>
      <trkpt lat="62.633631912142" lon="17.967302873926">
        <ele>67.4</ele>
        <time>2017-11-27T18:38:51Z</time>
      </trkpt>
      <trkpt lat="62.633624787527" lon="17.967348890557">
        <ele>67.6</ele>
        <time>2017-11-27T18:38:52Z</time>
      </trkpt>
      <trkpt lat="62.63362034512" lon="17.967389458953">
        <ele>67.8</ele>
        <time>2017-11-27T18:38:53Z</time>
      </trkpt>
      <trkpt lat="62.633612214677" lon="17.96743748724">
        <ele>68</ele>
        <time>2017-11-27T18:38:54Z</time>
      </trkpt>
      <trkpt lat="62.6336052577" lon="17.967478642369">
        <ele>68.2</ele>
        <time>2017-11-27T18:38:55Z</time>
      </trkpt>
      <trkpt lat="62.633601234388" lon="17.967525329552">
        <ele>68.4</ele>
        <time>2017-11-27T18:38:56Z</time>
      </trkpt>
      <trkpt lat="62.633594109773" lon="17.967568747794">
        <ele>68.4</ele>
        <time>2017-11-27T18:38:57Z</time>
      </trkpt>
      <trkpt lat="62.633589248271" lon="17.967616189348">
        <ele>68.6</ele>
        <time>2017-11-27T18:38:58Z</time>
      </trkpt>
      <trkpt lat="62.633586566063" lon="17.967657763572">
        <ele>68.8</ele>
        <time>2017-11-27T18:38:59Z</time>
      </trkpt>
      <trkpt lat="62.633583380941" lon="17.967705456583">
        <ele>68.8</ele>
        <time>2017-11-27T18:39:00Z</time>
      </trkpt>
      <trkpt lat="62.63357592105" lon="17.967755915621">
        <ele>69</ele>
        <time>2017-11-27T18:39:01Z</time>
      </trkpt>
      <trkpt lat="62.633571227186" lon="17.967802435166">
        <ele>69</ele>
        <time>2017-11-27T18:39:02Z</time>
      </trkpt>
      <trkpt lat="62.633564940761" lon="17.967852810385">
        <ele>69.2</ele>
        <time>2017-11-27T18:39:03Z</time>
      </trkpt>
      <trkpt lat="62.633558905793" lon="17.967900587215">
        <ele>69.4</ele>
        <time>2017-11-27T18:39:04Z</time>
      </trkpt>
      <trkpt lat="62.633553122282" lon="17.967940233602">
        <ele>69.4</ele>
        <time>2017-11-27T18:39:05Z</time>
      </trkpt>
      <trkpt lat="62.633544237468" lon="17.967991111735">
        <ele>69.6</ele>
        <time>2017-11-27T18:39:06Z</time>
      </trkpt>
      <trkpt lat="62.633537448129" lon="17.968037966556">
        <ele>69.8</ele>
        <time>2017-11-27T18:39:07Z</time>
      </trkpt>
      <trkpt lat="62.633530072057" lon="17.968082558264">
        <ele>70</ele>
        <time>2017-11-27T18:39:08Z</time>
      </trkpt>
      <trkpt lat="62.633523282718" lon="17.968131089465">
        <ele>70.2</ele>
        <time>2017-11-27T18:39:09Z</time>
      </trkpt>
      <trkpt lat="62.63351808594" lon="17.968176603182">
        <ele>70.4</ele>
        <time>2017-11-27T18:39:10Z</time>
      </trkpt>
      <trkpt lat="62.633511883334" lon="17.968226475487">
        <ele>70.6</ele>
        <time>2017-11-27T18:39:11Z</time>
      </trkpt>
      <trkpt lat="62.633502914701" lon="17.968279365276">
        <ele>71</ele>
        <time>2017-11-27T18:39:12Z</time>
      </trkpt>
      <trkpt lat="62.633496963552" lon="17.9683209395">
        <ele>71.2</ele>
        <time>2017-11-27T18:39:13Z</time>
      </trkpt>
      <trkpt lat="62.633487492005" lon="17.968368129597">
        <ele>71.4</ele>
        <time>2017-11-27T18:39:14Z</time>
      </trkpt>
      <trkpt lat="62.633477349906" lon="17.968413391857">
        <ele>71.6</ele>
        <time>2017-11-27T18:39:15Z</time>
      </trkpt>
      <trkpt lat="62.633471650214" lon="17.968461252506">
        <ele>71.8</ele>
        <time>2017-11-27T18:39:16Z</time>
      </trkpt>
      <trkpt lat="62.633466285798" lon="17.968509448431">
        <ele>72</ele>
        <time>2017-11-27T18:39:17Z</time>
      </trkpt>
      <trkpt lat="62.633460418468" lon="17.968563092591">
        <ele>72.2</ele>
        <time>2017-11-27T18:39:18Z</time>
      </trkpt>
      <trkpt lat="62.633454215862" lon="17.96860508591">
        <ele>72.2</ele>
        <time>2017-11-27T18:39:19Z</time>
      </trkpt>
      <trkpt lat="62.633448432351" lon="17.968650599627">
        <ele>72.4</ele>
        <time>2017-11-27T18:39:20Z</time>
      </trkpt>
      <trkpt lat="62.633441056279" lon="17.96870231595">
        <ele>72.4</ele>
        <time>2017-11-27T18:39:21Z</time>
      </trkpt>
      <trkpt lat="62.633434853673" lon="17.96875093097">
        <ele>72.6</ele>
        <time>2017-11-27T18:39:22Z</time>
      </trkpt>
      <trkpt lat="62.633429992171" lon="17.968799294533">
        <ele>72.6</ele>
        <time>2017-11-27T18:39:23Z</time>
      </trkpt>
      <trkpt lat="62.633424879212" lon="17.968855117987">
        <ele>72.8</ele>
        <time>2017-11-27T18:39:24Z</time>
      </trkpt>
      <trkpt lat="62.633421023538" lon="17.968897278944">
        <ele>73</ele>
        <time>2017-11-27T18:39:25Z</time>
      </trkpt>
      <trkpt lat="62.633412557819" lon="17.968946480697">
        <ele>73</ele>
        <time>2017-11-27T18:39:26Z</time>
      </trkpt>
      <trkpt lat="62.633402499539" lon="17.968990234215">
        <ele>73.2</ele>
        <time>2017-11-27T18:39:27Z</time>
      </trkpt>
      <trkpt lat="62.633394704372" lon="17.969031556982">
        <ele>73.4</ele>
        <time>2017-11-27T18:39:28Z</time>
      </trkpt>
      <trkpt lat="62.633384981368" lon="17.969075478138">
        <ele>73.6</ele>
        <time>2017-11-27T18:39:29Z</time>
      </trkpt>
      <trkpt lat="62.633377437658" lon="17.969124512253">
        <ele>73.8</ele>
        <time>2017-11-27T18:39:30Z</time>
      </trkpt>
      <trkpt lat="62.633371821785" lon="17.969176228576">
        <ele>74</ele>
        <time>2017-11-27T18:39:31Z</time>
      </trkpt>
      <trkpt lat="62.633367295559" lon="17.969230878564">
        <ele>74.2</ele>
        <time>2017-11-27T18:39:32Z</time>
      </trkpt>
      <trkpt lat="62.633364948627" lon="17.969282008154">
        <ele>74.4</ele>
        <time>2017-11-27T18:39:33Z</time>
      </trkpt>
      <trkpt lat="62.633363523704" lon="17.969333137744">
        <ele>74.6</ele>
        <time>2017-11-27T18:39:34Z</time>
      </trkpt>
      <trkpt lat="62.633362098781" lon="17.969380746936">
        <ele>74.8</ele>
        <time>2017-11-27T18:39:35Z</time>
      </trkpt>
      <trkpt lat="62.63335715346" lon="17.969435983657">
        <ele>74.8</ele>
        <time>2017-11-27T18:39:36Z</time>
      </trkpt>
      <trkpt lat="62.633347849551" lon="17.969477809338">
        <ele>75</ele>
        <time>2017-11-27T18:39:37Z</time>
      </trkpt>
      <trkpt lat="62.633333516502" lon="17.969516282259">
        <ele>75.4</ele>
        <time>2017-11-27T18:39:38Z</time>
      </trkpt>
      <trkpt lat="62.633317255616" lon="17.96954302052">
        <ele>75.4</ele>
        <time>2017-11-27T18:39:39Z</time>
      </trkpt>
      <trkpt lat="62.63330099473" lon="17.96957235717">
        <ele>75.6</ele>
        <time>2017-11-27T18:39:40Z</time>
      </trkpt>
      <trkpt lat="62.633281800179" lon="17.969601190906">
        <ele>75.6</ele>
        <time>2017-11-27T18:39:41Z</time>
      </trkpt>
      <trkpt lat="62.633259588144" lon="17.96961929581">
        <ele>75.8</ele>
        <time>2017-11-27T18:39:42Z</time>
      </trkpt>
      <trkpt lat="62.633242572887" lon="17.969629940823">
        <ele>76</ele>
        <time>2017-11-27T18:39:43Z</time>
      </trkpt>
      <trkpt lat="62.633216924273" lon="17.969638825637">
        <ele>76</ele>
        <time>2017-11-27T18:39:44Z</time>
      </trkpt>
      <trkpt lat="62.633191527116" lon="17.969644273872">
        <ele>76</ele>
        <time>2017-11-27T18:39:45Z</time>
      </trkpt>
      <trkpt lat="62.633165124131" lon="17.969645950252">
        <ele>76</ele>
        <time>2017-11-27T18:39:46Z</time>
      </trkpt>
      <trkpt lat="62.633144672295" lon="17.969644944424">
        <ele>76</ele>
        <time>2017-11-27T18:39:47Z</time>
      </trkpt>
      <trkpt lat="62.633120951518" lon="17.969642262216">
        <ele>76</ele>
        <time>2017-11-27T18:39:48Z</time>
      </trkpt>
      <trkpt lat="62.633096141094" lon="17.969637484533">
        <ele>76</ele>
        <time>2017-11-27T18:39:49Z</time>
      </trkpt>
      <trkpt lat="62.633078203828" lon="17.969637149257">
        <ele>75.8</ele>
        <time>2017-11-27T18:39:50Z</time>
      </trkpt>
      <trkpt lat="62.633055824155" lon="17.969631701022">
        <ele>75.8</ele>
        <time>2017-11-27T18:39:51Z</time>
      </trkpt>
      <trkpt lat="62.633026990419" lon="17.969624744045">
        <ele>75.8</ele>
        <time>2017-11-27T18:39:52Z</time>
      </trkpt>
      <trkpt lat="62.633015088121" lon="17.969617954706">
        <ele>75.8</ele>
        <time>2017-11-27T18:39:53Z</time>
      </trkpt>
      <trkpt lat="62.632985751471" lon="17.969607309693">
        <ele>75.8</ele>
        <time>2017-11-27T18:39:54Z</time>
      </trkpt>
      <trkpt lat="62.632962449789" lon="17.969600604173">
        <ele>75.8</ele>
        <time>2017-11-27T18:39:55Z</time>
      </trkpt>
      <trkpt lat="62.632937555546" lon="17.969595491214">
        <ele>75.8</ele>
        <time>2017-11-27T18:39:56Z</time>
      </trkpt>
      <trkpt lat="62.632910901104" lon="17.969591300264">
        <ele>75.8</ele>
        <time>2017-11-27T18:39:57Z</time>
      </trkpt>
      <trkpt lat="62.63288525249" lon="17.969585516753">
        <ele>75.6</ele>
        <time>2017-11-27T18:39:58Z</time>
      </trkpt>
      <trkpt lat="62.632861447894" lon="17.969576631939">
        <ele>75.6</ele>
        <time>2017-11-27T18:39:59Z</time>
      </trkpt>
      <trkpt lat="62.632839654954" lon="17.969566741297">
        <ele>75.6</ele>
        <time>2017-11-27T18:40:00Z</time>
      </trkpt>
      <trkpt lat="62.632811240313" lon="17.969553665533">
        <ele>75.4</ele>
        <time>2017-11-27T18:40:01Z</time>
      </trkpt>
      <trkpt lat="62.632780897835" lon="17.969557688845">
        <ele>75.4</ele>
        <time>2017-11-27T18:40:02Z</time>
      </trkpt>
      <trkpt lat="62.632755249221" lon="17.969557353569">
        <ele>75.2</ele>
        <time>2017-11-27T18:40:03Z</time>
      </trkpt>
      <trkpt lat="62.632723817096" lon="17.96955475518">
        <ele>75.2</ele>
        <time>2017-11-27T18:40:04Z</time>
      </trkpt>
      <trkpt lat="62.632700431595" lon="17.96954804966">
        <ele>75</ele>
        <time>2017-11-27T18:40:05Z</time>
      </trkpt>
      <trkpt lat="62.632673274239" lon="17.969544110167">
        <ele>75</ele>
        <time>2017-11-27T18:40:06Z</time>
      </trkpt>
      <trkpt lat="62.632647457987" lon="17.969542098511">
        <ele>75</ele>
        <time>2017-11-27T18:40:07Z</time>
      </trkpt>
      <trkpt lat="62.632617366966" lon="17.969542433787">
        <ele>75</ele>
        <time>2017-11-27T18:40:08Z</time>
      </trkpt>
      <trkpt lat="62.63258853323" lon="17.969544361624">
        <ele>74.8</ele>
        <time>2017-11-27T18:40:09Z</time>
      </trkpt>
      <trkpt lat="62.632564393358" lon="17.969544110167">
        <ele>74.8</ele>
        <time>2017-11-27T18:40:10Z</time>
      </trkpt>
      <trkpt lat="62.632538409468" lon="17.969538661932">
        <ele>74.8</ele>
        <time>2017-11-27T18:40:11Z</time>
      </trkpt>
      <trkpt lat="62.632514521053" lon="17.969535644448">
        <ele>74.6</ele>
        <time>2017-11-27T18:40:12Z</time>
      </trkpt>
      <trkpt lat="62.632491135552" lon="17.96953966776">
        <ele>74.6</ele>
        <time>2017-11-27T18:40:13Z</time>
      </trkpt>
      <trkpt lat="62.632461882721" lon="17.969541847054">
        <ele>74.6</ele>
        <time>2017-11-27T18:40:14Z</time>
      </trkpt>
      <trkpt lat="62.632439670686" lon="17.969539835398">
        <ele>74.6</ele>
        <time>2017-11-27T18:40:15Z</time>
      </trkpt>
      <trkpt lat="62.632415279357" lon="17.969542852882">
        <ele>74.6</ele>
        <time>2017-11-27T18:40:16Z</time>
      </trkpt>
      <trkpt lat="62.632389295467" lon="17.96954637328">
        <ele>74.4</ele>
        <time>2017-11-27T18:40:17Z</time>
      </trkpt>
      <trkpt lat="62.632362054292" lon="17.969546792375">
        <ele>74.4</ele>
        <time>2017-11-27T18:40:18Z</time>
      </trkpt>
      <trkpt lat="62.63233875261" lon="17.969548217298">
        <ele>74.6</ele>
        <time>2017-11-27T18:40:19Z</time>
      </trkpt>
      <trkpt lat="62.632312684901" lon="17.969549055488">
        <ele>74.6</ele>
        <time>2017-11-27T18:40:20Z</time>
      </trkpt>
      <trkpt lat="62.632285611364" lon="17.969554419904">
        <ele>74.6</ele>
        <time>2017-11-27T18:40:21Z</time>
      </trkpt>
      <trkpt lat="62.632261471492" lon="17.969557102112">
        <ele>74.6</ele>
        <time>2017-11-27T18:40:22Z</time>
      </trkpt>
      <trkpt lat="62.632242444579" lon="17.969560203415">
        <ele>74.6</ele>
        <time>2017-11-27T18:40:23Z</time>
      </trkpt>
      <trkpt lat="62.63221553868" lon="17.969568082401">
        <ele>74.6</ele>
        <time>2017-11-27T18:40:24Z</time>
      </trkpt>
      <trkpt lat="62.632193997197" lon="17.969572440989">
        <ele>74.6</ele>
        <time>2017-11-27T18:40:25Z</time>
      </trkpt>
      <trkpt lat="62.632171449886" lon="17.96958493002">
        <ele>74.6</ele>
        <time>2017-11-27T18:40:26Z</time>
      </trkpt>
      <trkpt lat="62.632148651118" lon="17.969586019667">
        <ele>74.6</ele>
        <time>2017-11-27T18:40:27Z</time>
      </trkpt>
      <trkpt lat="62.632130797671" lon="17.969594401567">
        <ele>74.6</ele>
        <time>2017-11-27T18:40:28Z</time>
      </trkpt>
      <trkpt lat="62.632109591464" lon="17.969601526182">
        <ele>74.6</ele>
        <time>2017-11-27T18:40:29Z</time>
      </trkpt>
      <trkpt lat="62.632083859031" lon="17.969607980245">
        <ele>74.6</ele>
        <time>2017-11-27T18:40:30Z</time>
      </trkpt>
      <trkpt lat="62.632059048607" lon="17.969611249186">
        <ele>74.6</ele>
        <time>2017-11-27T18:40:31Z</time>
      </trkpt>
      <trkpt lat="62.632032310346" lon="17.969619211991">
        <ele>74.6</ele>
        <time>2017-11-27T18:40:32Z</time>
      </trkpt>
      <trkpt lat="62.632006997008" lon="17.969619463448">
        <ele>74.6</ele>
        <time>2017-11-27T18:40:33Z</time>
      </trkpt>
      <trkpt lat="62.631982354222" lon="17.969623989674">
        <ele>74.6</ele>
        <time>2017-11-27T18:40:34Z</time>
      </trkpt>
      <trkpt lat="62.631958717264" lon="17.969627090977">
        <ele>74.4</ele>
        <time>2017-11-27T18:40:35Z</time>
      </trkpt>
      <trkpt lat="62.631925273483" lon="17.969631784841">
        <ele>74.6</ele>
        <time>2017-11-27T18:40:36Z</time>
      </trkpt>
      <trkpt lat="62.631901133611" lon="17.96963019228">
        <ele>74.4</ele>
        <time>2017-11-27T18:40:37Z</time>
      </trkpt>
      <trkpt lat="62.631874562988" lon="17.969632120117">
        <ele>74.4</ele>
        <time>2017-11-27T18:40:38Z</time>
      </trkpt>
      <trkpt lat="62.631845813071" lon="17.969630527556">
        <ele>74.4</ele>
        <time>2017-11-27T18:40:39Z</time>
      </trkpt>
      <trkpt lat="62.631823349579" lon="17.969635305239">
        <ele>74.4</ele>
        <time>2017-11-27T18:40:40Z</time>
      </trkpt>
      <trkpt lat="62.631795018757" lon="17.96964192694">
        <ele>74.2</ele>
        <time>2017-11-27T18:40:41Z</time>
      </trkpt>
      <trkpt lat="62.631765765926" lon="17.969658020188">
        <ele>74</ele>
        <time>2017-11-27T18:40:42Z</time>
      </trkpt>
      <trkpt lat="62.631743218615" lon="17.969680399861">
        <ele>74</ele>
        <time>2017-11-27T18:40:43Z</time>
      </trkpt>
      <trkpt lat="62.631720922761" lon="17.969704288276">
        <ele>74</ele>
        <time>2017-11-27T18:40:44Z</time>
      </trkpt>
      <trkpt lat="62.631700387106" lon="17.969726667949">
        <ele>74</ele>
        <time>2017-11-27T18:40:45Z</time>
      </trkpt>
      <trkpt lat="62.63168077346" lon="17.969750388726">
        <ele>73.8</ele>
        <time>2017-11-27T18:40:46Z</time>
      </trkpt>
      <trkpt lat="62.631660824538" lon="17.969771259657">
        <ele>73.8</ele>
        <time>2017-11-27T18:40:47Z</time>
      </trkpt>
      <trkpt lat="62.631634086277" lon="17.969793555511">
        <ele>74</ele>
        <time>2017-11-27T18:40:48Z</time>
      </trkpt>
      <trkpt lat="62.63160952731" lon="17.96981627046">
        <ele>74</ele>
        <time>2017-11-27T18:40:49Z</time>
      </trkpt>
      <trkpt lat="62.631589494569" lon="17.969837392848">
        <ele>74.2</ele>
        <time>2017-11-27T18:40:50Z</time>
      </trkpt>
      <trkpt lat="62.631567785448" lon="17.969857257951">
        <ele>74.2</ele>
        <time>2017-11-27T18:40:51Z</time>
      </trkpt>
      <trkpt lat="62.631546495422" lon="17.969869411706">
        <ele>74.4</ele>
        <time>2017-11-27T18:40:52Z</time>
      </trkpt>
      <trkpt lat="62.631523948111" lon="17.969879302348">
        <ele>74.6</ele>
        <time>2017-11-27T18:40:53Z</time>
      </trkpt>
      <trkpt lat="62.631492767443" lon="17.96989170756">
        <ele>74.6</ele>
        <time>2017-11-27T18:40:54Z</time>
      </trkpt>
      <trkpt lat="62.631468459933" lon="17.969906292066">
        <ele>74.8</ele>
        <time>2017-11-27T18:40:55Z</time>
      </trkpt>
      <trkpt lat="62.631438955645" lon="17.969925570436">
        <ele>74.8</ele>
        <time>2017-11-27T18:40:56Z</time>
      </trkpt>
      <trkpt lat="62.631410708642" lon="17.969941579865">
        <ele>74.8</ele>
        <time>2017-11-27T18:40:57Z</time>
      </trkpt>
      <trkpt lat="62.631387239322" lon="17.969956834923">
        <ele>74.8</ele>
        <time>2017-11-27T18:40:58Z</time>
      </trkpt>
      <trkpt lat="62.63135974669" lon="17.969971838524">
        <ele>74.8</ele>
        <time>2017-11-27T18:40:59Z</time>
      </trkpt>
      <trkpt lat="62.631330829135" lon="17.969988686143">
        <ele>74.8</ele>
        <time>2017-11-27T18:41:00Z</time>
      </trkpt>
      <trkpt lat="62.631303336503" lon="17.970005030848">
        <ele>75</ele>
        <time>2017-11-27T18:41:01Z</time>
      </trkpt>
      <trkpt lat="62.631273496939" lon="17.97001659787">
        <ele>75</ele>
        <time>2017-11-27T18:41:02Z</time>
      </trkpt>
      <trkpt lat="62.631245333755" lon="17.970034786593">
        <ele>75</ele>
        <time>2017-11-27T18:41:03Z</time>
      </trkpt>
      <trkpt lat="62.63121809258" lon="17.97005096366">
        <ele>75</ele>
        <time>2017-11-27T18:41:04Z</time>
      </trkpt>
      <trkpt lat="62.631191354319" lon="17.970063704148">
        <ele>75</ele>
        <time>2017-11-27T18:41:05Z</time>
      </trkpt>
      <trkpt lat="62.63116277204" lon="17.970078288654">
        <ele>75</ele>
        <time>2017-11-27T18:41:06Z</time>
      </trkpt>
      <trkpt lat="62.631134860313" lon="17.970099494861">
        <ele>75.2</ele>
        <time>2017-11-27T18:41:07Z</time>
      </trkpt>
      <trkpt lat="62.631105691301" lon="17.970111145702">
        <ele>75.2</ele>
        <time>2017-11-27T18:41:08Z</time>
      </trkpt>
      <trkpt lat="62.631081383791" lon="17.97011969524">
        <ele>75.4</ele>
        <time>2017-11-27T18:41:09Z</time>
      </trkpt>
      <trkpt lat="62.63105464553" lon="17.970128831511">
        <ele>75.4</ele>
        <time>2017-11-27T18:41:10Z</time>
      </trkpt>
      <trkpt lat="62.631008964175" lon="17.970130172615">
        <ele>75.4</ele>
        <time>2017-11-27T18:41:12Z</time>
      </trkpt>
      <trkpt lat="62.630993625298" lon="17.97012975352">
        <ele>75.6</ele>
        <time>2017-11-27T18:41:13Z</time>
      </trkpt>
      <trkpt lat="62.630975520394" lon="17.970130843167">
        <ele>75.6</ele>
        <time>2017-11-27T18:41:14Z</time>
      </trkpt>
      <trkpt lat="62.630965043019" lon="17.970129418244">
        <ele>75.6</ele>
        <time>2017-11-27T18:41:15Z</time>
      </trkpt>
      <trkpt lat="62.630951631979" lon="17.970124975837">
        <ele>75.8</ele>
        <time>2017-11-27T18:41:16Z</time>
      </trkpt>
      <trkpt lat="62.630942914803" lon="17.970133776832">
        <ele>75.8</ele>
        <time>2017-11-27T18:41:17Z</time>
      </trkpt>
      <trkpt lat="62.630931515419" lon="17.970138470696">
        <ele>76</ele>
        <time>2017-11-27T18:41:18Z</time>
      </trkpt>
      <trkpt lat="62.63091969694" lon="17.970130256434">
        <ele>76</ele>
        <time>2017-11-27T18:41:19Z</time>
      </trkpt>
      <trkpt lat="62.630909890117" lon="17.970112319168">
        <ele>76</ele>
        <time>2017-11-27T18:41:20Z</time>
      </trkpt>
      <trkpt lat="62.630902346407" lon="17.970100835965">
        <ele>75.8</ele>
        <time>2017-11-27T18:41:21Z</time>
      </trkpt>
      <trkpt lat="62.630896814353" lon="17.970086922011">
        <ele>75.8</ele>
        <time>2017-11-27T18:41:22Z</time>
      </trkpt>
      <trkpt lat="62.630897233448" lon="17.970050544565">
        <ele>75.8</ele>
        <time>2017-11-27T18:41:23Z</time>
      </trkpt>
      <trkpt lat="62.630895808525" lon="17.970016011137">
        <ele>75.6</ele>
        <time>2017-11-27T18:41:24Z</time>
      </trkpt>
      <trkpt lat="62.630892288127" lon="17.969984579012">
        <ele>75.6</ele>
        <time>2017-11-27T18:41:25Z</time>
      </trkpt>
      <trkpt lat="62.630888432453" lon="17.969958678941">
        <ele>75.6</ele>
        <time>2017-11-27T18:41:26Z</time>
      </trkpt>
      <trkpt lat="62.630885582607" lon="17.969930431938">
        <ele>75.4</ele>
        <time>2017-11-27T18:41:27Z</time>
      </trkpt>
      <trkpt lat="62.630884325322" lon="17.969906124428">
        <ele>75.4</ele>
        <time>2017-11-27T18:41:28Z</time>
      </trkpt>
      <trkpt lat="62.630882062209" lon="17.969880978728">
        <ele>75.4</ele>
        <time>2017-11-27T18:41:29Z</time>
      </trkpt>
      <trkpt lat="62.630879631458" lon="17.96985901815">
        <ele>75.4</ele>
        <time>2017-11-27T18:41:30Z</time>
      </trkpt>
      <trkpt lat="62.630874853775" lon="17.969825322912">
        <ele>75.4</ele>
        <time>2017-11-27T18:41:31Z</time>
      </trkpt>
      <trkpt lat="62.630868902626" lon="17.969782156127">
        <ele>75.2</ele>
        <time>2017-11-27T18:41:32Z</time>
      </trkpt>
      <trkpt lat="62.630866220418" lon="17.969755166409">
        <ele>75.2</ele>
        <time>2017-11-27T18:41:33Z</time>
      </trkpt>
      <trkpt lat="62.630864208762" lon="17.969724740112">
        <ele>75</ele>
        <time>2017-11-27T18:41:34Z</time>
      </trkpt>
      <trkpt lat="62.630862448563" lon="17.969693559444">
        <ele>75</ele>
        <time>2017-11-27T18:41:35Z</time>
      </trkpt>
      <trkpt lat="62.630855323948" lon="17.969662965509">
        <ele>74.8</ele>
        <time>2017-11-27T18:41:36Z</time>
      </trkpt>
      <trkpt lat="62.630851132998" lon="17.969633964135">
        <ele>74.6</ele>
        <time>2017-11-27T18:41:37Z</time>
      </trkpt>
      <trkpt lat="62.630847696419" lon="17.969601610001">
        <ele>74.2</ele>
        <time>2017-11-27T18:41:38Z</time>
      </trkpt>
      <trkpt lat="62.630844008383" lon="17.969573614455">
        <ele>74.2</ele>
        <time>2017-11-27T18:41:39Z</time>
      </trkpt>
      <trkpt lat="62.630839901252" lon="17.969546457099">
        <ele>74</ele>
        <time>2017-11-27T18:41:40Z</time>
      </trkpt>
      <trkpt lat="62.630836045578" lon="17.969518545372">
        <ele>73.8</ele>
        <time>2017-11-27T18:41:41Z</time>
      </trkpt>
      <trkpt lat="62.630831519352" lon="17.969486442695">
        <ele>73.8</ele>
        <time>2017-11-27T18:41:42Z</time>
      </trkpt>
      <trkpt lat="62.63082749604" lon="17.969455597303">
        <ele>73.8</ele>
        <time>2017-11-27T18:41:43Z</time>
      </trkpt>
      <trkpt lat="62.630823053633" lon="17.969418046391">
        <ele>73.6</ele>
        <time>2017-11-27T18:41:44Z</time>
      </trkpt>
      <trkpt lat="62.630819281778" lon="17.969389380293">
        <ele>73.4</ele>
        <time>2017-11-27T18:41:45Z</time>
      </trkpt>
      <trkpt lat="62.630814252638" lon="17.969354679227">
        <ele>73.2</ele>
        <time>2017-11-27T18:41:46Z</time>
      </trkpt>
      <trkpt lat="62.630811486611" lon="17.969325426396">
        <ele>73.2</ele>
        <time>2017-11-27T18:41:47Z</time>
      </trkpt>
      <trkpt lat="62.630807547118" lon="17.969289803321">
        <ele>73</ele>
        <time>2017-11-27T18:41:48Z</time>
      </trkpt>
      <trkpt lat="62.630803523806" lon="17.969260382852">
        <ele>72.8</ele>
        <time>2017-11-27T18:41:49Z</time>
      </trkpt>
      <trkpt lat="62.630799165218" lon="17.969234818057">
        <ele>72.6</ele>
        <time>2017-11-27T18:41:50Z</time>
      </trkpt>
      <trkpt lat="62.630796147734" lon="17.969201122819">
        <ele>72.6</ele>
        <time>2017-11-27T18:41:51Z</time>
      </trkpt>
      <trkpt lat="62.630793465526" lon="17.96916834959">
        <ele>72.4</ele>
        <time>2017-11-27T18:41:52Z</time>
      </trkpt>
      <trkpt lat="62.630790783318" lon="17.969140270225">
        <ele>72.2</ele>
        <time>2017-11-27T18:41:53Z</time>
      </trkpt>
      <trkpt lat="62.630786005635" lon="17.969113112869">
        <ele>72</ele>
        <time>2017-11-27T18:41:54Z</time>
      </trkpt>
      <trkpt lat="62.630782820513" lon="17.969092661033">
        <ele>71.8</ele>
        <time>2017-11-27T18:41:55Z</time>
      </trkpt>
      <trkpt lat="62.630781144133" lon="17.969052511732">
        <ele>71.6</ele>
        <time>2017-11-27T18:41:56Z</time>
      </trkpt>
      <trkpt lat="62.630779467753" lon="17.969033484819">
        <ele>71.4</ele>
        <time>2017-11-27T18:41:57Z</time>
      </trkpt>
      <trkpt lat="62.6307721755" lon="17.96900574073">
        <ele>71.4</ele>
        <time>2017-11-27T18:41:58Z</time>
      </trkpt>
      <trkpt lat="62.630771756405" lon="17.968975314433">
        <ele>71.2</ele>
        <time>2017-11-27T18:41:59Z</time>
      </trkpt>
      <trkpt lat="62.630770247663" lon="17.968947821801">
        <ele>71</ele>
        <time>2017-11-27T18:42:00Z</time>
      </trkpt>
      <trkpt lat="62.630768906559" lon="17.968923849567">
        <ele>70.8</ele>
        <time>2017-11-27T18:42:01Z</time>
      </trkpt>
      <trkpt lat="62.630763374505" lon="17.968897111306">
        <ele>70.6</ele>
        <time>2017-11-27T18:42:02Z</time>
      </trkpt>
      <trkpt lat="62.630761446668" lon="17.968868612846">
        <ele>70.4</ele>
        <time>2017-11-27T18:42:03Z</time>
      </trkpt>
      <trkpt lat="62.630757423356" lon="17.968841790766">
        <ele>70.2</ele>
        <time>2017-11-27T18:42:04Z</time>
      </trkpt>
      <trkpt lat="62.630753483863" lon="17.968819411093">
        <ele>70.2</ele>
        <time>2017-11-27T18:42:05Z</time>
      </trkpt>
      <trkpt lat="62.630748370904" lon="17.968790242081">
        <ele>70</ele>
        <time>2017-11-27T18:42:06Z</time>
      </trkpt>
      <trkpt lat="62.630744431411" lon="17.968767527132">
        <ele>69.8</ele>
        <time>2017-11-27T18:42:07Z</time>
      </trkpt>
      <trkpt lat="62.630734289312" lon="17.968746404744">
        <ele>69.6</ele>
        <time>2017-11-27T18:42:08Z</time>
      </trkpt>
      <trkpt lat="62.630728421982" lon="17.968723857433">
        <ele>69.4</ele>
        <time>2017-11-27T18:42:09Z</time>
      </trkpt>
      <trkpt lat="62.630719788625" lon="17.968701729217">
        <ele>69.2</ele>
        <time>2017-11-27T18:42:10Z</time>
      </trkpt>
      <trkpt lat="62.630713669838" lon="17.96868387577">
        <ele>69.2</ele>
        <time>2017-11-27T18:42:11Z</time>
      </trkpt>
      <trkpt lat="62.630701432264" lon="17.968661579916">
        <ele>69</ele>
        <time>2017-11-27T18:42:12Z</time>
      </trkpt>
      <trkpt lat="62.630693050364" lon="17.968642636822">
        <ele>68.8</ele>
        <time>2017-11-27T18:42:13Z</time>
      </trkpt>
      <trkpt lat="62.630683243541" lon="17.968621682072">
        <ele>68.6</ele>
        <time>2017-11-27T18:42:14Z</time>
      </trkpt>
      <trkpt lat="62.630675951288" lon="17.968602236064">
        <ele>68.6</ele>
        <time>2017-11-27T18:42:15Z</time>
      </trkpt>
      <trkpt lat="62.630665306275" lon="17.968579688753">
        <ele>68.4</ele>
        <time>2017-11-27T18:42:16Z</time>
      </trkpt>
      <trkpt lat="62.630660025678" lon="17.968558231089">
        <ele>68.2</ele>
        <time>2017-11-27T18:42:17Z</time>
      </trkpt>
      <trkpt lat="62.630650135036" lon="17.968536941063">
        <ele>68.2</ele>
        <time>2017-11-27T18:42:18Z</time>
      </trkpt>
      <trkpt lat="62.630641166403" lon="17.968518081788">
        <ele>68</ele>
        <time>2017-11-27T18:42:19Z</time>
      </trkpt>
      <trkpt lat="62.630631946313" lon="17.968495450658">
        <ele>68</ele>
        <time>2017-11-27T18:42:20Z</time>
      </trkpt>
      <trkpt lat="62.630618451454" lon="17.968466533103">
        <ele>68</ele>
        <time>2017-11-27T18:42:21Z</time>
      </trkpt>
      <trkpt lat="62.630605962423" lon="17.968445075439">
        <ele>67.8</ele>
        <time>2017-11-27T18:42:22Z</time>
      </trkpt>
      <trkpt lat="62.630597496704" lon="17.968417918083">
        <ele>67.6</ele>
        <time>2017-11-27T18:42:23Z</time>
      </trkpt>
      <trkpt lat="62.630583750388" lon="17.968386066863">
        <ele>67.4</ele>
        <time>2017-11-27T18:42:24Z</time>
      </trkpt>
      <trkpt lat="62.630572015728" lon="17.968369638339">
        <ele>67.2</ele>
        <time>2017-11-27T18:42:25Z</time>
      </trkpt>
      <trkpt lat="62.630558604688" lon="17.968348096856">
        <ele>67</ele>
        <time>2017-11-27T18:42:26Z</time>
      </trkpt>
      <trkpt lat="62.630547959675" lon="17.968315658903">
        <ele>66.6</ele>
        <time>2017-11-27T18:42:27Z</time>
      </trkpt>
      <trkpt lat="62.630539577775" lon="17.96828657371">
        <ele>66.6</ele>
        <time>2017-11-27T18:42:28Z</time>
      </trkpt>
      <trkpt lat="62.630529184219" lon="17.968251537368">
        <ele>66.4</ele>
        <time>2017-11-27T18:42:29Z</time>
      </trkpt>
      <trkpt lat="62.630518874482" lon="17.968216752483">
        <ele>66.2</ele>
        <time>2017-11-27T18:42:30Z</time>
      </trkpt>
      <trkpt lat="62.630506972184" lon="17.968178363381">
        <ele>66</ele>
        <time>2017-11-27T18:42:31Z</time>
      </trkpt>
      <trkpt lat="62.630496746266" lon="17.968131592379">
        <ele>65.8</ele>
        <time>2017-11-27T18:42:32Z</time>
      </trkpt>
      <trkpt lat="62.630490040746" lon="17.968089263784">
        <ele>65.6</ele>
        <time>2017-11-27T18:42:33Z</time>
      </trkpt>
      <trkpt lat="62.630481910303" lon="17.968047102827">
        <ele>65.4</ele>
        <time>2017-11-27T18:42:34Z</time>
      </trkpt>
      <trkpt lat="62.630475875335" lon="17.968010306286">
        <ele>65.2</ele>
        <time>2017-11-27T18:42:35Z</time>
      </trkpt>
      <trkpt lat="62.630471013833" lon="17.967959092877">
        <ele>64.8</ele>
        <time>2017-11-27T18:42:36Z</time>
      </trkpt>
      <trkpt lat="62.63046707434" lon="17.967916848101">
        <ele>64.8</ele>
        <time>2017-11-27T18:42:37Z</time>
      </trkpt>
      <trkpt lat="62.630463386304" lon="17.967878794275">
        <ele>64.4</ele>
        <time>2017-11-27T18:42:38Z</time>
      </trkpt>
      <trkpt lat="62.630461961381" lon="17.967839902259">
        <ele>64.2</ele>
        <time>2017-11-27T18:42:39Z</time>
      </trkpt>
      <trkpt lat="62.63046036882" lon="17.967795897284">
        <ele>64</ele>
        <time>2017-11-27T18:42:40Z</time>
      </trkpt>
      <trkpt lat="62.630458357164" lon="17.967750802662">
        <ele>63.8</ele>
        <time>2017-11-27T18:42:41Z</time>
      </trkpt>
      <trkpt lat="62.630456010232" lon="17.967701349452">
        <ele>63.6</ele>
        <time>2017-11-27T18:42:42Z</time>
      </trkpt>
      <trkpt lat="62.630454836766" lon="17.967659523771">
        <ele>63.4</ele>
        <time>2017-11-27T18:42:43Z</time>
      </trkpt>
      <trkpt lat="62.630455758775" lon="17.96760763981">
        <ele>63.2</ele>
        <time>2017-11-27T18:42:44Z</time>
      </trkpt>
      <trkpt lat="62.630457518974" lon="17.967569837441">
        <ele>63</ele>
        <time>2017-11-27T18:42:45Z</time>
      </trkpt>
      <trkpt lat="62.630458021888" lon="17.967522898801">
        <ele>63</ele>
        <time>2017-11-27T18:42:46Z</time>
      </trkpt>
      <trkpt lat="62.630460787915" lon="17.967481995129">
        <ele>62.6</ele>
        <time>2017-11-27T18:42:47Z</time>
      </trkpt>
      <trkpt lat="62.630463218666" lon="17.967433966842">
        <ele>62.6</ele>
        <time>2017-11-27T18:42:48Z</time>
      </trkpt>
      <trkpt lat="62.630465900874" lon="17.967392895532">
        <ele>62.2</ele>
        <time>2017-11-27T18:42:49Z</time>
      </trkpt>
      <trkpt lat="62.630466990521" lon="17.967358278285">
        <ele>62.2</ele>
        <time>2017-11-27T18:42:50Z</time>
      </trkpt>
      <trkpt lat="62.630468583082" lon="17.96731175874">
        <ele>61.8</ele>
        <time>2017-11-27T18:42:51Z</time>
      </trkpt>
      <trkpt lat="62.630471013833" lon="17.967268843412">
        <ele>61.6</ele>
        <time>2017-11-27T18:42:52Z</time>
      </trkpt>
      <trkpt lat="62.63047377986" lon="17.967232298328">
        <ele>61.4</ele>
        <time>2017-11-27T18:42:53Z</time>
      </trkpt>
      <trkpt lat="62.630475288602" lon="17.967196256158">
        <ele>61.4</ele>
        <time>2017-11-27T18:42:54Z</time>
      </trkpt>
      <trkpt lat="62.630477048801" lon="17.967144288378">
        <ele>61</ele>
        <time>2017-11-27T18:42:55Z</time>
      </trkpt>
      <trkpt lat="62.630479228095" lon="17.967095589539">
        <ele>61</ele>
        <time>2017-11-27T18:42:56Z</time>
      </trkpt>
      <trkpt lat="62.630481072113" lon="17.967056026971">
        <ele>60.6</ele>
        <time>2017-11-27T18:42:57Z</time>
      </trkpt>
      <trkpt lat="62.630483167588" lon="17.967018056964">
        <ele>60.2</ele>
        <time>2017-11-27T18:42:58Z</time>
      </trkpt>
      <trkpt lat="62.630485346882" lon="17.966972878523">
        <ele>59.8</ele>
        <time>2017-11-27T18:42:59Z</time>
      </trkpt>
      <trkpt lat="62.630487442357" lon="17.966926107521">
        <ele>59.4</ele>
        <time>2017-11-27T18:43:00Z</time>
      </trkpt>
      <trkpt lat="62.630489454013" lon="17.96688092908">
        <ele>59.2</ele>
        <time>2017-11-27T18:43:01Z</time>
      </trkpt>
      <trkpt lat="62.630490711298" lon="17.966835499182">
        <ele>59</ele>
        <time>2017-11-27T18:43:02Z</time>
      </trkpt>
      <trkpt lat="62.630494818429" lon="17.966791997121">
        <ele>58.8</ele>
        <time>2017-11-27T18:43:03Z</time>
      </trkpt>
      <trkpt lat="62.630497081542" lon="17.966748578879">
        <ele>58.6</ele>
        <time>2017-11-27T18:43:04Z</time>
      </trkpt>
      <trkpt lat="62.630498003551" lon="17.966718236401">
        <ele>58.4</ele>
        <time>2017-11-27T18:43:05Z</time>
      </trkpt>
      <trkpt lat="62.630500182845" lon="17.966666436259">
        <ele>58.2</ele>
        <time>2017-11-27T18:43:06Z</time>
      </trkpt>
      <trkpt lat="62.630503787062" lon="17.966620671085">
        <ele>58</ele>
        <time>2017-11-27T18:43:07Z</time>
      </trkpt>
      <trkpt lat="62.630504709071" lon="17.96657918068">
        <ele>57.8</ele>
        <time>2017-11-27T18:43:08Z</time>
      </trkpt>
      <trkpt lat="62.630505714899" lon="17.96654062394">
        <ele>57.6</ele>
        <time>2017-11-27T18:43:09Z</time>
      </trkpt>
      <trkpt lat="62.630505463442" lon="17.966500055544">
        <ele>57.4</ele>
        <time>2017-11-27T18:43:10Z</time>
      </trkpt>
      <trkpt lat="62.630505128166" lon="17.966455212379">
        <ele>57.2</ele>
        <time>2017-11-27T18:43:11Z</time>
      </trkpt>
      <trkpt lat="62.630504709071" lon="17.966409447205">
        <ele>57</ele>
        <time>2017-11-27T18:43:12Z</time>
      </trkpt>
      <trkpt lat="62.630503870881" lon="17.966371980112">
        <ele>56.8</ele>
        <time>2017-11-27T18:43:13Z</time>
      </trkpt>
      <trkpt lat="62.630505882537" lon="17.96632269454">
        <ele>56.6</ele>
        <time>2017-11-27T18:43:14Z</time>
      </trkpt>
      <trkpt lat="62.630508061831" lon="17.966283551067">
        <ele>56.6</ele>
        <time>2017-11-27T18:43:15Z</time>
      </trkpt>
      <trkpt lat="62.630509402935" lon="17.966240719558">
        <ele>56.4</ele>
        <time>2017-11-27T18:43:16Z</time>
      </trkpt>
      <trkpt lat="62.630510157306" lon="17.966201073171">
        <ele>56</ele>
        <time>2017-11-27T18:43:17Z</time>
      </trkpt>
      <trkpt lat="62.630513007152" lon="17.966156062368">
        <ele>55.8</ele>
        <time>2017-11-27T18:43:18Z</time>
      </trkpt>
      <trkpt lat="62.63051485117" lon="17.966116248343">
        <ele>55.6</ele>
        <time>2017-11-27T18:43:19Z</time>
      </trkpt>
      <trkpt lat="62.630517701016" lon="17.966085822046">
        <ele>55.4</ele>
        <time>2017-11-27T18:43:20Z</time>
      </trkpt>
      <trkpt lat="62.630521724328" lon="17.966056317758">
        <ele>55.2</ele>
        <time>2017-11-27T18:43:21Z</time>
      </trkpt>
      <trkpt lat="62.630524406536" lon="17.966031423515">
        <ele>55.2</ele>
        <time>2017-11-27T18:43:22Z</time>
      </trkpt>
      <trkpt lat="62.630522897794" lon="17.966008121833">
        <ele>54.8</ele>
        <time>2017-11-27T18:43:23Z</time>
      </trkpt>
      <trkpt lat="62.630516862826" lon="17.965978533726">
        <ele>54.8</ele>
        <time>2017-11-27T18:43:24Z</time>
      </trkpt>
      <trkpt lat="62.630519964129" lon="17.965951544008">
        <ele>54.6</ele>
        <time>2017-11-27T18:43:25Z</time>
      </trkpt>
      <trkpt lat="62.630522143423" lon="17.965920530978">
        <ele>54.4</ele>
        <time>2017-11-27T18:43:26Z</time>
      </trkpt>
      <trkpt lat="62.630523484527" lon="17.965891529604">
        <ele>54.2</ele>
        <time>2017-11-27T18:43:27Z</time>
      </trkpt>
      <trkpt lat="62.630523065432" lon="17.965862947325">
        <ele>54.2</ele>
        <time>2017-11-27T18:43:28Z</time>
      </trkpt>
      <trkpt lat="62.630519712672" lon="17.965831263743">
        <ele>54</ele>
        <time>2017-11-27T18:43:29Z</time>
      </trkpt>
      <trkpt lat="62.630513090971" lon="17.965802094731">
        <ele>54</ele>
        <time>2017-11-27T18:43:30Z</time>
      </trkpt>
      <trkpt lat="62.630514934989" lon="17.965768231855">
        <ele>53.8</ele>
        <time>2017-11-27T18:43:31Z</time>
      </trkpt>
      <trkpt lat="62.63051652755" lon="17.965739984852">
        <ele>53.8</ele>
        <time>2017-11-27T18:43:32Z</time>
      </trkpt>
      <trkpt lat="62.630515940817" lon="17.96571333041">
        <ele>53.6</ele>
        <time>2017-11-27T18:43:33Z</time>
      </trkpt>
      <trkpt lat="62.630515270265" lon="17.965681227733">
        <ele>53.4</ele>
        <time>2017-11-27T18:43:34Z</time>
      </trkpt>
      <trkpt lat="62.630513761523" lon="17.965658261327">
        <ele>53.4</ele>
        <time>2017-11-27T18:43:35Z</time>
      </trkpt>
      <trkpt lat="62.63051317479" lon="17.965617273836">
        <ele>53.2</ele>
        <time>2017-11-27T18:43:36Z</time>
      </trkpt>
      <trkpt lat="62.630518036292" lon="17.965581064028">
        <ele>53.2</ele>
        <time>2017-11-27T18:43:37Z</time>
      </trkpt>
      <trkpt lat="62.630522227242" lon="17.965551811197">
        <ele>53.2</ele>
        <time>2017-11-27T18:43:38Z</time>
      </trkpt>
      <trkpt lat="62.630532201703" lon="17.965509231145">
        <ele>53</ele>
        <time>2017-11-27T18:43:40Z</time>
      </trkpt>
      <trkpt lat="62.630547037666" lon="17.965504788738">
        <ele>52.8</ele>
        <time>2017-11-27T18:43:41Z</time>
      </trkpt>
      <trkpt lat="62.630554329919" lon="17.96549372463">
        <ele>52.8</ele>
        <time>2017-11-27T18:43:42Z</time>
      </trkpt>
      <trkpt lat="62.630550977159" lon="17.965498669951">
        <ele>52.6</ele>
        <time>2017-11-27T18:43:43Z</time>
      </trkpt>
      <trkpt lat="62.630553994643" lon="17.965479810676">
        <ele>52.6</ele>
        <time>2017-11-27T18:43:44Z</time>
      </trkpt>
      <trkpt lat="62.630556173937" lon="17.965491126241">
        <ele>52.4</ele>
        <time>2017-11-27T18:43:45Z</time>
      </trkpt>
      <trkpt lat="62.630566316036" lon="17.965491293879">
        <ele>52.2</ele>
        <time>2017-11-27T18:43:46Z</time>
      </trkpt>
      <trkpt lat="62.630562963276" lon="17.96549037187">
        <ele>52.2</ele>
        <time>2017-11-27T18:43:47Z</time>
      </trkpt>
      <trkpt lat="62.63054837877" lon="17.965501352159">
        <ele>52</ele>
        <time>2017-11-27T18:43:48Z</time>
      </trkpt>
      <trkpt lat="62.630554581376" lon="17.965502190349">
        <ele>52</ele>
        <time>2017-11-27T18:43:49Z</time>
      </trkpt>
      <trkpt lat="62.630766894903" lon="17.965451731311">
        <ele>52.6</ele>
        <time>2017-11-27T18:44:03Z</time>
      </trkpt>
      <trkpt lat="62.630786760006" lon="17.965466818731">
        <ele>52.8</ele>
        <time>2017-11-27T18:44:04Z</time>
      </trkpt>
      <trkpt lat="62.630808385308" lon="17.965482325246">
        <ele>53</ele>
        <time>2017-11-27T18:44:05Z</time>
      </trkpt>
      <trkpt lat="62.63083587794" lon="17.965499005227">
        <ele>53.2</ele>
        <time>2017-11-27T18:44:06Z</time>
      </trkpt>
      <trkpt lat="62.630859095803" lon="17.965504369643">
        <ele>53.4</ele>
        <time>2017-11-27T18:44:07Z</time>
      </trkpt>
      <trkpt lat="62.630885079693" lon="17.965510153154">
        <ele>53.6</ele>
        <time>2017-11-27T18:44:08Z</time>
      </trkpt>
      <trkpt lat="62.630907794642" lon="17.965508392955">
        <ele>53.8</ele>
        <time>2017-11-27T18:44:09Z</time>
      </trkpt>
      <trkpt lat="62.630931934514" lon="17.965498502313">
        <ele>54</ele>
        <time>2017-11-27T18:44:10Z</time>
      </trkpt>
      <trkpt lat="62.630956242024" lon="17.965479391581">
        <ele>54</ele>
        <time>2017-11-27T18:44:11Z</time>
      </trkpt>
      <trkpt lat="62.630979711344" lon="17.965452737139">
        <ele>54</ele>
        <time>2017-11-27T18:44:12Z</time>
      </trkpt>
      <trkpt lat="62.631002426293" lon="17.965423735765">
        <ele>54.2</ele>
        <time>2017-11-27T18:44:13Z</time>
      </trkpt>
      <trkpt lat="62.631026230889" lon="17.965392890373">
        <ele>54.4</ele>
        <time>2017-11-27T18:44:14Z</time>
      </trkpt>
      <trkpt lat="62.631048526743" lon="17.965368918139">
        <ele>54.4</ele>
        <time>2017-11-27T18:44:15Z</time>
      </trkpt>
      <trkpt lat="62.631073001891" lon="17.965337234557">
        <ele>54.4</ele>
        <time>2017-11-27T18:44:16Z</time>
      </trkpt>
      <trkpt lat="62.631092196442" lon="17.965314100513">
        <ele>54.4</ele>
        <time>2017-11-27T18:44:17Z</time>
      </trkpt>
      <trkpt lat="62.631116503952" lon="17.965288954813">
        <ele>54.4</ele>
        <time>2017-11-27T18:44:18Z</time>
      </trkpt>
      <trkpt lat="62.631141314376" lon="17.965280740551">
        <ele>54.6</ele>
        <time>2017-11-27T18:44:19Z</time>
      </trkpt>
      <trkpt lat="62.631165370429" lon="17.965282836026">
        <ele>54.4</ele>
        <time>2017-11-27T18:44:20Z</time>
      </trkpt>
      <trkpt lat="62.631196718735" lon="17.965297671989">
        <ele>54.6</ele>
        <time>2017-11-27T18:44:21Z</time>
      </trkpt>
      <trkpt lat="62.631218176399" lon="17.965316615083">
        <ele>54.6</ele>
        <time>2017-11-27T18:44:22Z</time>
      </trkpt>
      <trkpt lat="62.631242316271" lon="17.965338240385">
        <ele>54.6</ele>
        <time>2017-11-27T18:44:23Z</time>
      </trkpt>
      <trkpt lat="62.631268886894" lon="17.965363721361">
        <ele>54.6</ele>
        <time>2017-11-27T18:44:24Z</time>
      </trkpt>
      <trkpt lat="62.631289171092" lon="17.965385681939">
        <ele>54.8</ele>
        <time>2017-11-27T18:44:25Z</time>
      </trkpt>
      <trkpt lat="62.631315490258" lon="17.965424238679">
        <ele>54.8</ele>
        <time>2017-11-27T18:44:26Z</time>
      </trkpt>
      <trkpt lat="62.631340133044" lon="17.965455335528">
        <ele>55</ele>
        <time>2017-11-27T18:44:27Z</time>
      </trkpt>
      <trkpt lat="62.631361674527" lon="17.965480062133">
        <ele>55.2</ele>
        <time>2017-11-27T18:44:28Z</time>
      </trkpt>
      <trkpt lat="62.631385814399" lon="17.965505040195">
        <ele>55.2</ele>
        <time>2017-11-27T18:44:29Z</time>
      </trkpt>
      <trkpt lat="62.631407691158" lon="17.965526497859">
        <ele>55.4</ele>
        <time>2017-11-27T18:44:30Z</time>
      </trkpt>
      <trkpt lat="62.631432333944" lon="17.965551475921">
        <ele>55.6</ele>
        <time>2017-11-27T18:44:31Z</time>
      </trkpt>
      <trkpt lat="62.631456306178" lon="17.965575699612">
        <ele>55.6</ele>
        <time>2017-11-27T18:44:32Z</time>
      </trkpt>
      <trkpt lat="62.631477847661" lon="17.965598582199">
        <ele>56</ele>
        <time>2017-11-27T18:44:33Z</time>
      </trkpt>
      <trkpt lat="62.631500478791" lon="17.96562783503">
        <ele>56.2</ele>
        <time>2017-11-27T18:44:34Z</time>
      </trkpt>
      <trkpt lat="62.631518583695" lon="17.965649376513">
        <ele>56.2</ele>
        <time>2017-11-27T18:44:35Z</time>
      </trkpt>
      <trkpt lat="62.631545573413" lon="17.965681730647">
        <ele>56.2</ele>
        <time>2017-11-27T18:44:36Z</time>
      </trkpt>
      <trkpt lat="62.631569880923" lon="17.965706708709">
        <ele>56.4</ele>
        <time>2017-11-27T18:44:37Z</time>
      </trkpt>
      <trkpt lat="62.631591506225" lon="17.965727747278">
        <ele>56.6</ele>
        <time>2017-11-27T18:44:38Z</time>
      </trkpt>
      <trkpt lat="62.631617406296" lon="17.965750462227">
        <ele>56.6</ele>
        <time>2017-11-27T18:44:39Z</time>
      </trkpt>
      <trkpt lat="62.631640624159" lon="17.965770411149">
        <ele>56.4</ele>
        <time>2017-11-27T18:44:40Z</time>
      </trkpt>
      <trkpt lat="62.631663674384" lon="17.965787258768">
        <ele>56.6</ele>
        <time>2017-11-27T18:44:41Z</time>
      </trkpt>
      <trkpt lat="62.631691753749" lon="17.9658063695">
        <ele>56.8</ele>
        <time>2017-11-27T18:44:42Z</time>
      </trkpt>
      <trkpt lat="62.631712540861" lon="17.965823049481">
        <ele>57</ele>
        <time>2017-11-27T18:44:43Z</time>
      </trkpt>
      <trkpt lat="62.631739279122" lon="17.965846518801">
        <ele>57</ele>
        <time>2017-11-27T18:44:44Z</time>
      </trkpt>
      <trkpt lat="62.631759647139" lon="17.965862444411">
        <ele>57.2</ele>
        <time>2017-11-27T18:44:45Z</time>
      </trkpt>
      <trkpt lat="62.631783619373" lon="17.965883399161">
        <ele>57.4</ele>
        <time>2017-11-27T18:44:46Z</time>
      </trkpt>
      <trkpt lat="62.631806250503" lon="17.965904521549">
        <ele>57.4</ele>
        <time>2017-11-27T18:44:47Z</time>
      </trkpt>
      <trkpt lat="62.631829887461" lon="17.965921117711">
        <ele>57.6</ele>
        <time>2017-11-27T18:44:48Z</time>
      </trkpt>
      <trkpt lat="62.631853272962" lon="17.965945089945">
        <ele>57.8</ele>
        <time>2017-11-27T18:44:49Z</time>
      </trkpt>
      <trkpt lat="62.631873305703" lon="17.965967218161">
        <ele>57.8</ele>
        <time>2017-11-27T18:44:50Z</time>
      </trkpt>
      <trkpt lat="62.63189451191" lon="17.965987250902">
        <ele>58</ele>
        <time>2017-11-27T18:44:51Z</time>
      </trkpt>
      <trkpt lat="62.631918232687" lon="17.966006193996">
        <ele>58.2</ele>
        <time>2017-11-27T18:44:52Z</time>
      </trkpt>
      <trkpt lat="62.631937175781" lon="17.966019688855">
        <ele>58.4</ele>
        <time>2017-11-27T18:44:53Z</time>
      </trkpt>
      <trkpt lat="62.631959136359" lon="17.966032261705">
        <ele>58.4</ele>
        <time>2017-11-27T18:44:54Z</time>
      </trkpt>
      <trkpt lat="62.631980174928" lon="17.96604609184">
        <ele>58.4</ele>
        <time>2017-11-27T18:44:55Z</time>
      </trkpt>
      <trkpt lat="62.632002135506" lon="17.9660578265">
        <ele>58.6</ele>
        <time>2017-11-27T18:44:56Z</time>
      </trkpt>
      <trkpt lat="62.632024179903" lon="17.966065789305">
        <ele>58.8</ele>
        <time>2017-11-27T18:44:57Z</time>
      </trkpt>
      <trkpt lat="62.632046643395" lon="17.966081044363">
        <ele>58.8</ele>
        <time>2017-11-27T18:44:58Z</time>
      </trkpt>
      <trkpt lat="62.632069945077" lon="17.966087917521">
        <ele>58.8</ele>
        <time>2017-11-27T18:44:59Z</time>
      </trkpt>
      <trkpt lat="62.63209735389" lon="17.966101328561">
        <ele>59</ele>
        <time>2017-11-27T18:45:00Z</time>
      </trkpt>
      <trkpt lat="62.632122667228" lon="17.966110464832">
        <ele>59</ele>
        <time>2017-11-27T18:45:01Z</time>
      </trkpt>
      <trkpt lat="62.632148651118" lon="17.966119433465">
        <ele>59.2</ele>
        <time>2017-11-27T18:45:02Z</time>
      </trkpt>
      <trkpt lat="62.63217530556" lon="17.966131503401">
        <ele>59.2</ele>
        <time>2017-11-27T18:45:03Z</time>
      </trkpt>
      <trkpt lat="62.632198691061" lon="17.966139885301">
        <ele>59.4</ele>
        <time>2017-11-27T18:45:04Z</time>
      </trkpt>
      <trkpt lat="62.632220735458" lon="17.966149273029">
        <ele>59.6</ele>
        <time>2017-11-27T18:45:05Z</time>
      </trkpt>
      <trkpt lat="62.63225074266" lon="17.966164444268">
        <ele>59.8</ele>
        <time>2017-11-27T18:45:06Z</time>
      </trkpt>
      <trkpt lat="62.632274966351" lon="17.966171987978">
        <ele>59.8</ele>
        <time>2017-11-27T18:45:07Z</time>
      </trkpt>
      <trkpt lat="62.632302375164" lon="17.966178358222">
        <ele>60</ele>
        <time>2017-11-27T18:45:08Z</time>
      </trkpt>
      <trkpt lat="62.63232701795" lon="17.966187159217">
        <ele>60</ele>
        <time>2017-11-27T18:45:09Z</time>
      </trkpt>
      <trkpt lat="62.632351576917" lon="17.966190511977">
        <ele>60.2</ele>
        <time>2017-11-27T18:45:10Z</time>
      </trkpt>
      <trkpt lat="62.632378650454" lon="17.96619696604">
        <ele>60.2</ele>
        <time>2017-11-27T18:45:11Z</time>
      </trkpt>
      <trkpt lat="62.63240496962" lon="17.966201240809">
        <ele>60.4</ele>
        <time>2017-11-27T18:45:12Z</time>
      </trkpt>
      <trkpt lat="62.632430366777" lon="17.966209622709">
        <ele>60.4</ele>
        <time>2017-11-27T18:45:13Z</time>
      </trkpt>
      <trkpt lat="62.632456350667" lon="17.966213562202">
        <ele>60.6</ele>
        <time>2017-11-27T18:45:14Z</time>
      </trkpt>
      <trkpt lat="62.632479065616" lon="17.966216495867">
        <ele>60.4</ele>
        <time>2017-11-27T18:45:15Z</time>
      </trkpt>
      <trkpt lat="62.632507144981" lon="17.966218339885">
        <ele>60.6</ele>
        <time>2017-11-27T18:45:16Z</time>
      </trkpt>
      <trkpt lat="62.632530362844" lon="17.966221441188">
        <ele>60.8</ele>
        <time>2017-11-27T18:45:17Z</time>
      </trkpt>
      <trkpt lat="62.632556933467" lon="17.966220351541">
        <ele>60.8</ele>
        <time>2017-11-27T18:45:18Z</time>
      </trkpt>
      <trkpt lat="62.632583168814" lon="17.966221944102">
        <ele>60.8</ele>
        <time>2017-11-27T18:45:19Z</time>
      </trkpt>
      <trkpt lat="62.632604710297" lon="17.966223704301">
        <ele>61</ele>
        <time>2017-11-27T18:45:20Z</time>
      </trkpt>
      <trkpt lat="62.632632202929" lon="17.966228230527">
        <ele>61</ele>
        <time>2017-11-27T18:45:21Z</time>
      </trkpt>
      <trkpt lat="62.632657180991" lon="17.966234265495">
        <ele>61</ele>
        <time>2017-11-27T18:45:22Z</time>
      </trkpt>
      <trkpt lat="62.632679812121" lon="17.966236109513">
        <ele>60.8</ele>
        <time>2017-11-27T18:45:23Z</time>
      </trkpt>
      <trkpt lat="62.632708310581" lon="17.966240300463">
        <ele>61</ele>
        <time>2017-11-27T18:45:24Z</time>
      </trkpt>
      <trkpt lat="62.632732198996" lon="17.966241557748">
        <ele>61</ele>
        <time>2017-11-27T18:45:25Z</time>
      </trkpt>
      <trkpt lat="62.632757679972" lon="17.966242815033">
        <ele>61.2</ele>
        <time>2017-11-27T18:45:26Z</time>
      </trkpt>
      <trkpt lat="62.632782909491" lon="17.966246922164">
        <ele>61.2</ele>
        <time>2017-11-27T18:45:27Z</time>
      </trkpt>
      <trkpt lat="62.632806546449" lon="17.966243150309">
        <ele>61.4</ele>
        <time>2017-11-27T18:45:28Z</time>
      </trkpt>
      <trkpt lat="62.632832697977" lon="17.966241306291">
        <ele>61.6</ele>
        <time>2017-11-27T18:45:29Z</time>
      </trkpt>
      <trkpt lat="62.632862202265" lon="17.966243317947">
        <ele>61.6</ele>
        <time>2017-11-27T18:45:30Z</time>
      </trkpt>
      <trkpt lat="62.632885923042" lon="17.966246503069">
        <ele>61.6</ele>
        <time>2017-11-27T18:45:31Z</time>
      </trkpt>
      <trkpt lat="62.632910733466" lon="17.966248514725">
        <ele>61.8</ele>
        <time>2017-11-27T18:45:32Z</time>
      </trkpt>
      <trkpt lat="62.632937304089" lon="17.966245413422">
        <ele>62</ele>
        <time>2017-11-27T18:45:33Z</time>
      </trkpt>
      <trkpt lat="62.632962198332" lon="17.966242312119">
        <ele>61.8</ele>
        <time>2017-11-27T18:45:34Z</time>
      </trkpt>
      <trkpt lat="62.63298415891" lon="17.966240384282">
        <ele>62</ele>
        <time>2017-11-27T18:45:35Z</time>
      </trkpt>
      <trkpt lat="62.633016596863" lon="17.966238624083">
        <ele>62</ele>
        <time>2017-11-27T18:45:36Z</time>
      </trkpt>
      <trkpt lat="62.633041491106" lon="17.966238204988">
        <ele>62.2</ele>
        <time>2017-11-27T18:45:37Z</time>
      </trkpt>
      <trkpt lat="62.633068564643" lon="17.966240803377">
        <ele>62.2</ele>
        <time>2017-11-27T18:45:38Z</time>
      </trkpt>
      <trkpt lat="62.633093710343" lon="17.966240719558">
        <ele>62.4</ele>
        <time>2017-11-27T18:45:39Z</time>
      </trkpt>
      <trkpt lat="62.633119526595" lon="17.966237031522">
        <ele>62.4</ele>
        <time>2017-11-27T18:45:40Z</time>
      </trkpt>
      <trkpt lat="62.633146600132" lon="17.966234768409">
        <ele>62.4</ele>
        <time>2017-11-27T18:45:41Z</time>
      </trkpt>
      <trkpt lat="62.633171745832" lon="17.966233259667">
        <ele>62.6</ele>
        <time>2017-11-27T18:45:42Z</time>
      </trkpt>
      <trkpt lat="62.633198400274" lon="17.966231834744">
        <ele>62.6</ele>
        <time>2017-11-27T18:45:43Z</time>
      </trkpt>
      <trkpt lat="62.633225222354" lon="17.966229906907">
        <ele>62.6</ele>
        <time>2017-11-27T18:45:44Z</time>
      </trkpt>
      <trkpt lat="62.633248943131" lon="17.966228398165">
        <ele>62.6</ele>
        <time>2017-11-27T18:45:45Z</time>
      </trkpt>
      <trkpt lat="62.633278615057" lon="17.966229487812">
        <ele>62.8</ele>
        <time>2017-11-27T18:45:46Z</time>
      </trkpt>
      <trkpt lat="62.633303593119" lon="17.966227727613">
        <ele>62.8</ele>
        <time>2017-11-27T18:45:47Z</time>
      </trkpt>
      <trkpt lat="62.633330834294" lon="17.966226386509">
        <ele>63</ele>
        <time>2017-11-27T18:45:48Z</time>
      </trkpt>
      <trkpt lat="62.633360170944" lon="17.966227392337">
        <ele>63</ele>
        <time>2017-11-27T18:45:49Z</time>
      </trkpt>
      <trkpt lat="62.633383304988" lon="17.966225967414">
        <ele>63.2</ele>
        <time>2017-11-27T18:45:50Z</time>
      </trkpt>
      <trkpt lat="62.633412054905" lon="17.966224710129">
        <ele>63.2</ele>
        <time>2017-11-27T18:45:51Z</time>
      </trkpt>
      <trkpt lat="62.633439212261" lon="17.966226135052">
        <ele>63.4</ele>
        <time>2017-11-27T18:45:52Z</time>
      </trkpt>
      <trkpt lat="62.633462681581" lon="17.966224793948">
        <ele>63.2</ele>
        <time>2017-11-27T18:45:53Z</time>
      </trkpt>
      <trkpt lat="62.633493862249" lon="17.966216747324">
        <ele>63.4</ele>
        <time>2017-11-27T18:45:54Z</time>
      </trkpt>
      <trkpt lat="62.633514649361" lon="17.966217669333">
        <ele>63.6</ele>
        <time>2017-11-27T18:45:55Z</time>
      </trkpt>
      <trkpt lat="62.633547087314" lon="17.96621456803">
        <ele>63.6</ele>
        <time>2017-11-27T18:45:56Z</time>
      </trkpt>
      <trkpt lat="62.633577262154" lon="17.966217836971">
        <ele>63.4</ele>
        <time>2017-11-27T18:45:57Z</time>
      </trkpt>
      <trkpt lat="62.633604084234" lon="17.966224961586">
        <ele>63.6</ele>
        <time>2017-11-27T18:45:58Z</time>
      </trkpt>
      <trkpt lat="62.633620177482" lon="17.966225380681">
        <ele>63.6</ele>
        <time>2017-11-27T18:45:59Z</time>
      </trkpt>
      <trkpt lat="62.633658398946" lon="17.966232086201">
        <ele>63.6</ele>
        <time>2017-11-27T18:46:00Z</time>
      </trkpt>
      <trkpt lat="62.633684466655" lon="17.966241725386">
        <ele>63.4</ele>
        <time>2017-11-27T18:46:01Z</time>
      </trkpt>
      <trkpt lat="62.633710702002" lon="17.966257231901">
        <ele>63.4</ele>
        <time>2017-11-27T18:46:02Z</time>
      </trkpt>
      <trkpt lat="62.633730315648" lon="17.96628749056">
        <ele>63.4</ele>
        <time>2017-11-27T18:46:03Z</time>
      </trkpt>
      <trkpt lat="62.63373852991" lon="17.966327136947">
        <ele>63.4</ele>
        <time>2017-11-27T18:46:04Z</time>
      </trkpt>
      <trkpt lat="62.633733333132" lon="17.966373153578">
        <ele>63.4</ele>
        <time>2017-11-27T18:46:05Z</time>
      </trkpt>
      <trkpt lat="62.633722352843" lon="17.966436436923">
        <ele>63.6</ele>
        <time>2017-11-27T18:46:06Z</time>
      </trkpt>
      <trkpt lat="62.633713551848" lon="17.966489661988">
        <ele>63.6</ele>
        <time>2017-11-27T18:46:07Z</time>
      </trkpt>
      <trkpt lat="62.633708522708" lon="17.966544395795">
        <ele>63.8</ele>
        <time>2017-11-27T18:46:08Z</time>
      </trkpt>
      <trkpt lat="62.633703996482" lon="17.966593597548">
        <ele>64.2</ele>
        <time>2017-11-27T18:46:09Z</time>
      </trkpt>
      <trkpt lat="62.63369829679" lon="17.966645984423">
        <ele>64.4</ele>
        <time>2017-11-27T18:46:10Z</time>
      </trkpt>
      <trkpt lat="62.633692261822" lon="17.966699544764">
        <ele>64.6</ele>
        <time>2017-11-27T18:46:11Z</time>
      </trkpt>
      <trkpt lat="62.63368823851" lon="17.966754446209">
        <ele>65</ele>
        <time>2017-11-27T18:46:12Z</time>
      </trkpt>
      <trkpt lat="62.633681784447" lon="17.966809263835">
        <ele>65.2</ele>
        <time>2017-11-27T18:46:13Z</time>
      </trkpt>
      <trkpt lat="62.633675078927" lon="17.966858046493">
        <ele>65.4</ele>
        <time>2017-11-27T18:46:14Z</time>
      </trkpt>
      <trkpt lat="62.633667535217" lon="17.96690691297">
        <ele>65.8</ele>
        <time>2017-11-27T18:46:15Z</time>
      </trkpt>
      <trkpt lat="62.633657812213" lon="17.96695552799">
        <ele>65.8</ele>
        <time>2017-11-27T18:46:16Z</time>
      </trkpt>
      <trkpt lat="62.633652447797" lon="17.966997688947">
        <ele>66</ele>
        <time>2017-11-27T18:46:17Z</time>
      </trkpt>
      <trkpt lat="62.633645993734" lon="17.967054685867">
        <ele>66.2</ele>
        <time>2017-11-27T18:46:18Z</time>
      </trkpt>
      <trkpt lat="62.633639204395" lon="17.967105061086">
        <ele>66.4</ele>
        <time>2017-11-27T18:46:19Z</time>
      </trkpt>
      <trkpt lat="62.633633923798" lon="17.967146970586">
        <ele>66.4</ele>
        <time>2017-11-27T18:46:20Z</time>
      </trkpt>
      <trkpt lat="62.633630319581" lon="17.96721117594">
        <ele>66.6</ele>
        <time>2017-11-27T18:46:21Z</time>
      </trkpt>
      <trkpt lat="62.633622608233" lon="17.967256773476">
        <ele>67</ele>
        <time>2017-11-27T18:46:22Z</time>
      </trkpt>
      <trkpt lat="62.633617495274" lon="17.967302957745">
        <ele>67</ele>
        <time>2017-11-27T18:46:23Z</time>
      </trkpt>
      <trkpt lat="62.633605760614" lon="17.967357272457">
        <ele>67.2</ele>
        <time>2017-11-27T18:46:24Z</time>
      </trkpt>
      <trkpt lat="62.633599222732" lon="17.967400355423">
        <ele>67.4</ele>
        <time>2017-11-27T18:46:25Z</time>
      </trkpt>
      <trkpt lat="62.633586146968" lon="17.96745592742">
        <ele>67.6</ele>
        <time>2017-11-27T18:46:26Z</time>
      </trkpt>
      <trkpt lat="62.633579776724" lon="17.9674995133">
        <ele>67.6</ele>
        <time>2017-11-27T18:46:27Z</time>
      </trkpt>
      <trkpt lat="62.633573741756" lon="17.967549553243">
        <ele>67.8</ele>
        <time>2017-11-27T18:46:28Z</time>
      </trkpt>
      <trkpt lat="62.633568042064" lon="17.96760177248">
        <ele>68</ele>
        <time>2017-11-27T18:46:29Z</time>
      </trkpt>
      <trkpt lat="62.633561839458" lon="17.967649465491">
        <ele>68</ele>
        <time>2017-11-27T18:46:30Z</time>
      </trkpt>
      <trkpt lat="62.633557061775" lon="17.967704366936">
        <ele>68.2</ele>
        <time>2017-11-27T18:46:31Z</time>
      </trkpt>
      <trkpt lat="62.633553792834" lon="17.967757927277">
        <ele>68.4</ele>
        <time>2017-11-27T18:46:32Z</time>
      </trkpt>
      <trkpt lat="62.633548596056" lon="17.967810565609">
        <ele>68.8</ele>
        <time>2017-11-27T18:46:33Z</time>
      </trkpt>
      <trkpt lat="62.633543147821" lon="17.9678683169">
        <ele>69</ele>
        <time>2017-11-27T18:46:34Z</time>
      </trkpt>
      <trkpt lat="62.63353904069" lon="17.967908466201">
        <ele>69.2</ele>
        <time>2017-11-27T18:46:35Z</time>
      </trkpt>
      <trkpt lat="62.633530239695" lon="17.967969570252">
        <ele>69.6</ele>
        <time>2017-11-27T18:46:36Z</time>
      </trkpt>
      <trkpt lat="62.633521522519" lon="17.968024723154">
        <ele>69.8</ele>
        <time>2017-11-27T18:46:37Z</time>
      </trkpt>
      <trkpt lat="62.633515487551" lon="17.968071913251">
        <ele>70</ele>
        <time>2017-11-27T18:46:38Z</time>
      </trkpt>
      <trkpt lat="62.633508530574" lon="17.968126144144">
        <ele>70.2</ele>
        <time>2017-11-27T18:46:39Z</time>
      </trkpt>
      <trkpt lat="62.633501154502" lon="17.968174088612">
        <ele>70.4</ele>
        <time>2017-11-27T18:46:40Z</time>
      </trkpt>
      <trkpt lat="62.633494700439" lon="17.968222452175">
        <ele>70.4</ele>
        <time>2017-11-27T18:46:41Z</time>
      </trkpt>
      <trkpt lat="62.633484306883" lon="17.968274587593">
        <ele>70.8</ele>
        <time>2017-11-27T18:46:42Z</time>
      </trkpt>
      <trkpt lat="62.633476679354" lon="17.96832010131">
        <ele>71</ele>
        <time>2017-11-27T18:46:43Z</time>
      </trkpt>
      <trkpt lat="62.63347030911" lon="17.968372739642">
        <ele>71</ele>
        <time>2017-11-27T18:46:44Z</time>
      </trkpt>
      <trkpt lat="62.633463268314" lon="17.96842319868">
        <ele>71.2</ele>
        <time>2017-11-27T18:46:45Z</time>
      </trkpt>
      <trkpt lat="62.63345605988" lon="17.968482039618">
        <ele>71.4</ele>
        <time>2017-11-27T18:46:46Z</time>
      </trkpt>
      <trkpt lat="62.633448767627" lon="17.968535935235">
        <ele>71.6</ele>
        <time>2017-11-27T18:46:47Z</time>
      </trkpt>
      <trkpt lat="62.633441391555" lon="17.968591926327">
        <ele>71.6</ele>
        <time>2017-11-27T18:46:48Z</time>
      </trkpt>
      <trkpt lat="62.633435775682" lon="17.968644732297">
        <ele>71.8</ele>
        <time>2017-11-27T18:46:49Z</time>
      </trkpt>
      <trkpt lat="62.6334292378" lon="17.968697622086">
        <ele>71.8</ele>
        <time>2017-11-27T18:46:50Z</time>
      </trkpt>
      <trkpt lat="62.63342169409" lon="17.968759899603">
        <ele>72.2</ele>
        <time>2017-11-27T18:46:51Z</time>
      </trkpt>
      <trkpt lat="62.63341415038" lon="17.968816561247">
        <ele>72.2</ele>
        <time>2017-11-27T18:46:52Z</time>
      </trkpt>
      <trkpt lat="62.633407528679" lon="17.968866517371">
        <ele>72.6</ele>
        <time>2017-11-27T18:46:53Z</time>
      </trkpt>
      <trkpt lat="62.633401409892" lon="17.968921502635">
        <ele>72.8</ele>
        <time>2017-11-27T18:46:54Z</time>
      </trkpt>
      <trkpt lat="62.633396464571" lon="17.968974811519">
        <ele>73</ele>
        <time>2017-11-27T18:46:55Z</time>
      </trkpt>
      <trkpt lat="62.633392860354" lon="17.96903256281">
        <ele>73.2</ele>
        <time>2017-11-27T18:46:56Z</time>
      </trkpt>
      <trkpt lat="62.63339068106" lon="17.969087548074">
        <ele>73.6</ele>
        <time>2017-11-27T18:46:57Z</time>
      </trkpt>
      <trkpt lat="62.633384310816" lon="17.969142533338">
        <ele>73.6</ele>
        <time>2017-11-27T18:46:58Z</time>
      </trkpt>
      <trkpt lat="62.633381880065" lon="17.969191399815">
        <ele>73.8</ele>
        <time>2017-11-27T18:46:59Z</time>
      </trkpt>
      <trkpt lat="62.63337643183" lon="17.969246552717">
        <ele>74</ele>
        <time>2017-11-27T18:47:00Z</time>
      </trkpt>
      <trkpt lat="62.633371654147" lon="17.969300699791">
        <ele>74.2</ele>
        <time>2017-11-27T18:47:01Z</time>
      </trkpt>
      <trkpt lat="62.633370061586" lon="17.969353841037">
        <ele>74.2</ele>
        <time>2017-11-27T18:47:02Z</time>
      </trkpt>
      <trkpt lat="62.633368636663" lon="17.969414106898">
        <ele>74.4</ele>
        <time>2017-11-27T18:47:03Z</time>
      </trkpt>
      <trkpt lat="62.633366122093" lon="17.969463895384">
        <ele>74.6</ele>
        <time>2017-11-27T18:47:04Z</time>
      </trkpt>
      <trkpt lat="62.633359584211" lon="17.969509241463">
        <ele>74.8</ele>
        <time>2017-11-27T18:47:05Z</time>
      </trkpt>
      <trkpt lat="62.633338210366" lon="17.969551737696">
        <ele>75</ele>
        <time>2017-11-27T18:47:06Z</time>
      </trkpt>
      <trkpt lat="62.633318345263" lon="17.969577553948">
        <ele>75.2</ele>
        <time>2017-11-27T18:47:07Z</time>
      </trkpt>
      <trkpt lat="62.63329931835" lon="17.96960169382">
        <ele>75.4</ele>
        <time>2017-11-27T18:47:08Z</time>
      </trkpt>
      <trkpt lat="62.633277273953" lon="17.969621475104">
        <ele>75.4</ele>
        <time>2017-11-27T18:47:09Z</time>
      </trkpt>
      <trkpt lat="62.633259336687" lon="17.969637987447">
        <ele>75.6</ele>
        <time>2017-11-27T18:47:10Z</time>
      </trkpt>
      <trkpt lat="62.633237627566" lon="17.969646453166">
        <ele>75.6</ele>
        <time>2017-11-27T18:47:11Z</time>
      </trkpt>
      <trkpt lat="62.633207285088" lon="17.969648883917">
        <ele>75.6</ele>
        <time>2017-11-27T18:47:12Z</time>
      </trkpt>
      <trkpt lat="62.633183815768" lon="17.969643854777">
        <ele>75.6</ele>
        <time>2017-11-27T18:47:13Z</time>
      </trkpt>
      <trkpt lat="62.633158418611" lon="17.969643854777">
        <ele>75.6</ele>
        <time>2017-11-27T18:47:14Z</time>
      </trkpt>
      <trkpt lat="62.63313251854" lon="17.969643519501">
        <ele>75.6</ele>
        <time>2017-11-27T18:47:15Z</time>
      </trkpt>
      <trkpt lat="62.633105780279" lon="17.969638909456">
        <ele>75.4</ele>
        <time>2017-11-27T18:47:16Z</time>
      </trkpt>
      <trkpt lat="62.633082646235" lon="17.969633796497">
        <ele>75.4</ele>
        <time>2017-11-27T18:47:17Z</time>
      </trkpt>
      <trkpt lat="62.633051549386" lon="17.969634969963">
        <ele>75.4</ele>
        <time>2017-11-27T18:47:18Z</time>
      </trkpt>
      <trkpt lat="62.633026236048" lon="17.969628934995">
        <ele>75.4</ele>
        <time>2017-11-27T18:47:19Z</time>
      </trkpt>
      <trkpt lat="62.633006454764" lon="17.969622564751">
        <ele>75.4</ele>
        <time>2017-11-27T18:47:20Z</time>
      </trkpt>
      <trkpt lat="62.632976028467" lon="17.969609740444">
        <ele>75.4</ele>
        <time>2017-11-27T18:47:21Z</time>
      </trkpt>
      <trkpt lat="62.632949625482" lon="17.969606303865">
        <ele>75.2</ele>
        <time>2017-11-27T18:47:22Z</time>
      </trkpt>
      <trkpt lat="62.632922635764" lon="17.969608231702">
        <ele>75.2</ele>
        <time>2017-11-27T18:47:23Z</time>
      </trkpt>
      <trkpt lat="62.632895729865" lon="17.969598843974">
        <ele>75.2</ele>
        <time>2017-11-27T18:47:24Z</time>
      </trkpt>
      <trkpt lat="62.632869745975" lon="17.969595658852">
        <ele>75.2</ele>
        <time>2017-11-27T18:47:25Z</time>
      </trkpt>
      <trkpt lat="62.632842001886" lon="17.969589288608">
        <ele>75</ele>
        <time>2017-11-27T18:47:26Z</time>
      </trkpt>
      <trkpt lat="62.632812581417" lon="17.969583588916">
        <ele>75</ele>
        <time>2017-11-27T18:47:27Z</time>
      </trkpt>
      <trkpt lat="62.632783496224" lon="17.96958157726">
        <ele>75</ele>
        <time>2017-11-27T18:47:28Z</time>
      </trkpt>
      <trkpt lat="62.632757512334" lon="17.969576967215">
        <ele>74.8</ele>
        <time>2017-11-27T18:47:29Z</time>
      </trkpt>
      <trkpt lat="62.632728594779" lon="17.969574368826">
        <ele>74.8</ele>
        <time>2017-11-27T18:47:30Z</time>
      </trkpt>
      <trkpt lat="62.632695989188" lon="17.969571435161">
        <ele>74.8</ele>
        <time>2017-11-27T18:47:31Z</time>
      </trkpt>
      <trkpt lat="62.632668580375" lon="17.969568250039">
        <ele>74.8</ele>
        <time>2017-11-27T18:47:32Z</time>
      </trkpt>
      <trkpt lat="62.632638656992" lon="17.969561879795">
        <ele>74.8</ele>
        <time>2017-11-27T18:47:33Z</time>
      </trkpt>
      <trkpt lat="62.632608901247" lon="17.969556096284">
        <ele>74.6</ele>
        <time>2017-11-27T18:47:34Z</time>
      </trkpt>
      <trkpt lat="62.632583923185" lon="17.969554168447">
        <ele>74.6</ele>
        <time>2017-11-27T18:47:35Z</time>
      </trkpt>
      <trkpt lat="62.632547210463" lon="17.969537237009">
        <ele>74.6</ele>
        <time>2017-11-27T18:47:36Z</time>
      </trkpt>
      <trkpt lat="62.632517622356" lon="17.969523658331">
        <ele>74.4</ele>
        <time>2017-11-27T18:47:37Z</time>
      </trkpt>
      <trkpt lat="62.632488872439" lon="17.969518126277">
        <ele>74.4</ele>
        <time>2017-11-27T18:47:38Z</time>
      </trkpt>
      <trkpt lat="62.632460038703" lon="17.969510582567">
        <ele>74.4</ele>
        <time>2017-11-27T18:47:39Z</time>
      </trkpt>
      <trkpt lat="62.632434557727" lon="17.969508822368">
        <ele>74.4</ele>
        <time>2017-11-27T18:47:40Z</time>
      </trkpt>
      <trkpt lat="62.632407568009" lon="17.969509912015">
        <ele>74.2</ele>
        <time>2017-11-27T18:47:41Z</time>
      </trkpt>
      <trkpt lat="62.632377728445" lon="17.969507984178">
        <ele>74.2</ele>
        <time>2017-11-27T18:47:42Z</time>
      </trkpt>
      <trkpt lat="62.632347805062" lon="17.969511672214">
        <ele>74</ele>
        <time>2017-11-27T18:47:43Z</time>
      </trkpt>
      <trkpt lat="62.632320144792" lon="17.969515863164">
        <ele>74.2</ele>
        <time>2017-11-27T18:47:44Z</time>
      </trkpt>
      <trkpt lat="62.632291143418" lon="17.96951619844">
        <ele>74.2</ele>
        <time>2017-11-27T18:47:45Z</time>
      </trkpt>
      <trkpt lat="62.632264824252" lon="17.969537320828">
        <ele>74.2</ele>
        <time>2017-11-27T18:47:46Z</time>
      </trkpt>
      <trkpt lat="62.632237080163" lon="17.969551989153">
        <ele>74.2</ele>
        <time>2017-11-27T18:47:47Z</time>
      </trkpt>
      <trkpt lat="62.632205648038" lon="17.969576212844">
        <ele>74.2</ele>
        <time>2017-11-27T18:47:48Z</time>
      </trkpt>
      <trkpt lat="62.632176814302" lon="17.969594569205">
        <ele>74</ele>
        <time>2017-11-27T18:47:49Z</time>
      </trkpt>
      <trkpt lat="62.632153009706" lon="17.969609740444">
        <ele>74.2</ele>
        <time>2017-11-27T18:47:50Z</time>
      </trkpt>
      <trkpt lat="62.632121829038" lon="17.96962264857">
        <ele>74.2</ele>
        <time>2017-11-27T18:47:51Z</time>
      </trkpt>
      <trkpt lat="62.632097605347" lon="17.969626504244">
        <ele>74</ele>
        <time>2017-11-27T18:47:52Z</time>
      </trkpt>
      <trkpt lat="62.632073297837" lon="17.969633712678">
        <ele>74.2</ele>
        <time>2017-11-27T18:47:53Z</time>
      </trkpt>
      <trkpt lat="62.632040692246" lon="17.969641340207">
        <ele>74.2</ele>
        <time>2017-11-27T18:47:54Z</time>
      </trkpt>
      <trkpt lat="62.63201437308" lon="17.969649051555">
        <ele>74.2</ele>
        <time>2017-11-27T18:47:55Z</time>
      </trkpt>
      <trkpt lat="62.631982689498" lon="17.969658104007">
        <ele>74.2</ele>
        <time>2017-11-27T18:47:56Z</time>
      </trkpt>
      <trkpt lat="62.631950586821" lon="17.969662127319">
        <ele>74.2</ele>
        <time>2017-11-27T18:47:57Z</time>
      </trkpt>
      <trkpt lat="62.631922758913" lon="17.969668916658">
        <ele>74.2</ele>
        <time>2017-11-27T18:47:58Z</time>
      </trkpt>
      <trkpt lat="62.631905324561" lon="17.969669754848">
        <ele>74.2</ele>
        <time>2017-11-27T18:47:59Z</time>
      </trkpt>
      <trkpt lat="62.631863582699" lon="17.969671515047">
        <ele>74.2</ele>
        <time>2017-11-27T18:48:00Z</time>
      </trkpt>
      <trkpt lat="62.631833407859" lon="17.969674783988">
        <ele>74.2</ele>
        <time>2017-11-27T18:48:01Z</time>
      </trkpt>
      <trkpt lat="62.631802478648" lon="17.969675370721">
        <ele>74</ele>
        <time>2017-11-27T18:48:02Z</time>
      </trkpt>
      <trkpt lat="62.631774818378" lon="17.969685093725">
        <ele>74</ele>
        <time>2017-11-27T18:48:03Z</time>
      </trkpt>
      <trkpt lat="62.631747325746" lon="17.969707808674">
        <ele>74</ele>
        <time>2017-11-27T18:48:04Z</time>
      </trkpt>
      <trkpt lat="62.631726706272" lon="17.969723985741">
        <ele>73.8</ele>
        <time>2017-11-27T18:48:05Z</time>
      </trkpt>
      <trkpt lat="62.631696866708" lon="17.969745275767">
        <ele>73.8</ele>
        <time>2017-11-27T18:48:06Z</time>
      </trkpt>
      <trkpt lat="62.631678510347" lon="17.969771594933">
        <ele>73.6</ele>
        <time>2017-11-27T18:48:07Z</time>
      </trkpt>
      <trkpt lat="62.631658729063" lon="17.969790118932">
        <ele>73.6</ele>
        <time>2017-11-27T18:48:08Z</time>
      </trkpt>
      <trkpt lat="62.631636517028" lon="17.96981627046">
        <ele>73.8</ele>
        <time>2017-11-27T18:48:09Z</time>
      </trkpt>
      <trkpt lat="62.631617741572" lon="17.969833956269">
        <ele>73.8</ele>
        <time>2017-11-27T18:48:10Z</time>
      </trkpt>
      <trkpt lat="62.631595110442" lon="17.969847954042">
        <ele>73.8</ele>
        <time>2017-11-27T18:48:11Z</time>
      </trkpt>
      <trkpt lat="62.631570300018" lon="17.969862790005">
        <ele>73.8</ele>
        <time>2017-11-27T18:48:12Z</time>
      </trkpt>
      <trkpt lat="62.631546746879" lon="17.969878464158">
        <ele>73.8</ele>
        <time>2017-11-27T18:48:13Z</time>
      </trkpt>
      <trkpt lat="62.631519589523" lon="17.969887181334">
        <ele>74</ele>
        <time>2017-11-27T18:48:14Z</time>
      </trkpt>
      <trkpt lat="62.631496287841" lon="17.969894808863">
        <ele>74</ele>
        <time>2017-11-27T18:48:15Z</time>
      </trkpt>
      <trkpt lat="62.631468627571" lon="17.969908555179">
        <ele>74</ele>
        <time>2017-11-27T18:48:16Z</time>
      </trkpt>
      <trkpt lat="62.631440548206" lon="17.969918362002">
        <ele>74.2</ele>
        <time>2017-11-27T18:48:17Z</time>
      </trkpt>
      <trkpt lat="62.631412049746" lon="17.969926827721">
        <ele>74.2</ele>
        <time>2017-11-27T18:48:18Z</time>
      </trkpt>
      <trkpt lat="62.631385060028" lon="17.96994786629">
        <ele>74.4</ele>
        <time>2017-11-27T18:48:19Z</time>
      </trkpt>
      <trkpt lat="62.631359830509" lon="17.969966641746">
        <ele>74.4</ele>
        <time>2017-11-27T18:48:20Z</time>
      </trkpt>
      <trkpt lat="62.631329488031" lon="17.969992877093">
        <ele>74.4</ele>
        <time>2017-11-27T18:48:21Z</time>
      </trkpt>
      <trkpt lat="62.631307108358" lon="17.970010646721">
        <ele>74.6</ele>
        <time>2017-11-27T18:48:22Z</time>
      </trkpt>
      <trkpt lat="62.631280370097" lon="17.970026237055">
        <ele>74.6</ele>
        <time>2017-11-27T18:48:23Z</time>
      </trkpt>
      <trkpt lat="62.631249189429" lon="17.970039480457">
        <ele>74.6</ele>
        <time>2017-11-27T18:48:24Z</time>
      </trkpt>
      <trkpt lat="62.631223289358" lon="17.97005180185">
        <ele>74.8</ele>
        <time>2017-11-27T18:48:25Z</time>
      </trkpt>
      <trkpt lat="62.631193030699" lon="17.970066637813">
        <ele>74.8</ele>
        <time>2017-11-27T18:48:26Z</time>
      </trkpt>
      <trkpt lat="62.631167382085" lon="17.970088849848">
        <ele>74.8</ele>
        <time>2017-11-27T18:48:27Z</time>
      </trkpt>
      <trkpt lat="62.631140476186" lon="17.970102596164">
        <ele>74.8</ele>
        <time>2017-11-27T18:48:28Z</time>
      </trkpt>
      <trkpt lat="62.631111055717" lon="17.970116510118">
        <ele>74.8</ele>
        <time>2017-11-27T18:48:29Z</time>
      </trkpt>
      <trkpt lat="62.631084736551" lon="17.970128663873">
        <ele>74.8</ele>
        <time>2017-11-27T18:48:30Z</time>
      </trkpt>
      <trkpt lat="62.631053052969" lon="17.970130424072">
        <ele>74.8</ele>
        <time>2017-11-27T18:48:31Z</time>
      </trkpt>
      <trkpt lat="62.631006114329" lon="17.970136207583">
        <ele>74.8</ele>
        <time>2017-11-27T18:48:33Z</time>
      </trkpt>
      <trkpt lat="62.630989769624" lon="17.970137464868">
        <ele>74.8</ele>
        <time>2017-11-27T18:48:34Z</time>
      </trkpt>
      <trkpt lat="62.630977699688" lon="17.970138219239">
        <ele>75.2</ele>
        <time>2017-11-27T18:48:35Z</time>
      </trkpt>
      <trkpt lat="62.63095909187" lon="17.970129921158">
        <ele>75.2</ele>
        <time>2017-11-27T18:48:36Z</time>
      </trkpt>
      <trkpt lat="62.63094316626" lon="17.970118437955">
        <ele>75.4</ele>
        <time>2017-11-27T18:48:37Z</time>
      </trkpt>
      <trkpt lat="62.630931012505" lon="17.970104272544">
        <ele>75.4</ele>
        <time>2017-11-27T18:48:38Z</time>
      </trkpt>
      <trkpt lat="62.630920283673" lon="17.970095052454">
        <ele>75.6</ele>
        <time>2017-11-27T18:48:39Z</time>
      </trkpt>
      <trkpt lat="62.630909471022" lon="17.970078037197">
        <ele>75.6</ele>
        <time>2017-11-27T18:48:40Z</time>
      </trkpt>
      <trkpt lat="62.630903100778" lon="17.970066386356">
        <ele>75.4</ele>
        <time>2017-11-27T18:48:41Z</time>
      </trkpt>
      <trkpt lat="62.630895137973" lon="17.97003252348">
        <ele>75.4</ele>
        <time>2017-11-27T18:48:42Z</time>
      </trkpt>
      <trkpt lat="62.630900250932" lon="17.970040318647">
        <ele>75.2</ele>
        <time>2017-11-27T18:48:43Z</time>
      </trkpt>
      <trkpt lat="62.630896143801" lon="17.970037217344">
        <ele>75.2</ele>
        <time>2017-11-27T18:48:44Z</time>
      </trkpt>
      <trkpt lat="62.630894467421" lon="17.970054400239">
        <ele>75</ele>
        <time>2017-11-27T18:48:45Z</time>
      </trkpt>
      <trkpt lat="62.630893629231" lon="17.970070158211">
        <ele>75.2</ele>
        <time>2017-11-27T18:48:46Z</time>
      </trkpt>
      <trkpt lat="62.630894970335" lon="17.97008365307">
        <ele>75.2</ele>
        <time>2017-11-27T18:48:47Z</time>
      </trkpt>
      <trkpt lat="62.630898993647" lon="17.970096142101">
        <ele>75.2</ele>
        <time>2017-11-27T18:48:48Z</time>
      </trkpt>
      <trkpt lat="62.630902514045" lon="17.970100919784">
        <ele>75.4</ele>
        <time>2017-11-27T18:48:49Z</time>
      </trkpt>
      <trkpt lat="62.630905950624" lon="17.970099494861">
        <ele>75.4</ele>
        <time>2017-11-27T18:48:50Z</time>
      </trkpt>
      <trkpt lat="62.630844930392" lon="17.969532459326">
        <ele>73.4</ele>
        <time>2017-11-27T18:49:41Z</time>
      </trkpt>
      <trkpt lat="62.630840990899" lon="17.969497255346">
        <ele>73.4</ele>
        <time>2017-11-27T18:49:42Z</time>
      </trkpt>
      <trkpt lat="62.630837386682" lon="17.96945501057">
        <ele>73.2</ele>
        <time>2017-11-27T18:49:43Z</time>
      </trkpt>
      <trkpt lat="62.63083587794" lon="17.969421566789">
        <ele>73</ele>
        <time>2017-11-27T18:49:44Z</time>
      </trkpt>
      <trkpt lat="62.630832189904" lon="17.969395247623">
        <ele>72.8</ele>
        <time>2017-11-27T18:49:45Z</time>
      </trkpt>
      <trkpt lat="62.630826490212" lon="17.969358367263">
        <ele>72.6</ele>
        <time>2017-11-27T18:49:46Z</time>
      </trkpt>
      <trkpt lat="62.630824227099" lon="17.969328779156">
        <ele>72.6</ele>
        <time>2017-11-27T18:49:47Z</time>
      </trkpt>
      <trkpt lat="62.630820706701" lon="17.969286869656">
        <ele>72.4</ele>
        <time>2017-11-27T18:49:48Z</time>
      </trkpt>
      <trkpt lat="62.630818695045" lon="17.969256778635">
        <ele>72.2</ele>
        <time>2017-11-27T18:49:49Z</time>
      </trkpt>
      <trkpt lat="62.630815007009" lon="17.969227525804">
        <ele>72</ele>
        <time>2017-11-27T18:49:50Z</time>
      </trkpt>
      <trkpt lat="62.630811738068" lon="17.969188717607">
        <ele>71.8</ele>
        <time>2017-11-27T18:49:51Z</time>
      </trkpt>
      <trkpt lat="62.630810564602" lon="17.969155609102">
        <ele>71.6</ele>
        <time>2017-11-27T18:49:52Z</time>
      </trkpt>
      <trkpt lat="62.630805200186" lon="17.969131301592">
        <ele>71.4</ele>
        <time>2017-11-27T18:49:53Z</time>
      </trkpt>
      <trkpt lat="62.630796734467" lon="17.969096097612">
        <ele>71.2</ele>
        <time>2017-11-27T18:49:54Z</time>
      </trkpt>
      <trkpt lat="62.630793297888" lon="17.969068018247">
        <ele>71</ele>
        <time>2017-11-27T18:49:55Z</time>
      </trkpt>
      <trkpt lat="62.630787346739" lon="17.969034155371">
        <ele>70.8</ele>
        <time>2017-11-27T18:49:56Z</time>
      </trkpt>
      <trkpt lat="62.630783323427" lon="17.969002052694">
        <ele>70.6</ele>
        <time>2017-11-27T18:49:57Z</time>
      </trkpt>
      <trkpt lat="62.630780473581" lon="17.968968105999">
        <ele>70.4</ele>
        <time>2017-11-27T18:49:58Z</time>
      </trkpt>
      <trkpt lat="62.630779886848" lon="17.968942541204">
        <ele>70</ele>
        <time>2017-11-27T18:49:59Z</time>
      </trkpt>
      <trkpt lat="62.630777120821" lon="17.968913875106">
        <ele>70</ele>
        <time>2017-11-27T18:50:00Z</time>
      </trkpt>
      <trkpt lat="62.630772426957" lon="17.968879844592">
        <ele>69.6</ele>
        <time>2017-11-27T18:50:01Z</time>
      </trkpt>
      <trkpt lat="62.630767733093" lon="17.968847239001">
        <ele>69.4</ele>
        <time>2017-11-27T18:50:02Z</time>
      </trkpt>
      <trkpt lat="62.630763206867" lon="17.968816142152">
        <ele>69.2</ele>
        <time>2017-11-27T18:50:03Z</time>
      </trkpt>
      <trkpt lat="62.630757171899" lon="17.968789236253">
        <ele>69.2</ele>
        <time>2017-11-27T18:50:04Z</time>
      </trkpt>
      <trkpt lat="62.630752142759" lon="17.968771801901">
        <ele>69</ele>
        <time>2017-11-27T18:50:05Z</time>
      </trkpt>
      <trkpt lat="62.630743006488" lon="17.968741375604">
        <ele>69</ele>
        <time>2017-11-27T18:50:06Z</time>
      </trkpt>
      <trkpt lat="62.630737558253" lon="17.968720085578">
        <ele>68.8</ele>
        <time>2017-11-27T18:50:07Z</time>
      </trkpt>
      <trkpt lat="62.630726997059" lon="17.968696113344">
        <ele>68.6</ele>
        <time>2017-11-27T18:50:08Z</time>
      </trkpt>
      <trkpt lat="62.630719201892" lon="17.968670800006">
        <ele>68.4</ele>
        <time>2017-11-27T18:50:09Z</time>
      </trkpt>
      <trkpt lat="62.630704952662" lon="17.968661160821">
        <ele>68.4</ele>
        <time>2017-11-27T18:50:10Z</time>
      </trkpt>
      <trkpt lat="62.6306967384" lon="17.968641882451">
        <ele>68.2</ele>
        <time>2017-11-27T18:50:11Z</time>
      </trkpt>
      <trkpt lat="62.630680561333" lon="17.968619418959">
        <ele>68</ele>
        <time>2017-11-27T18:50:12Z</time>
      </trkpt>
      <trkpt lat="62.630668659035" lon="17.96860760048">
        <ele>67.8</ele>
        <time>2017-11-27T18:50:13Z</time>
      </trkpt>
      <trkpt lat="62.630650805588" lon="17.968588070653">
        <ele>67.6</ele>
        <time>2017-11-27T18:50:14Z</time>
      </trkpt>
      <trkpt lat="62.630634796159" lon="17.968571223034">
        <ele>67.4</ele>
        <time>2017-11-27T18:50:15Z</time>
      </trkpt>
      <trkpt lat="62.63061543397" lon="17.968550100646">
        <ele>67.2</ele>
        <time>2017-11-27T18:50:16Z</time>
      </trkpt>
      <trkpt lat="62.630608057898" lon="17.96852797243">
        <ele>66.8</ele>
        <time>2017-11-27T18:50:17Z</time>
      </trkpt>
      <trkpt lat="62.630595485048" lon="17.968507772051">
        <ele>66.6</ele>
        <time>2017-11-27T18:50:18Z</time>
      </trkpt>
      <trkpt lat="62.630585594406" lon="17.968489248052">
        <ele>66.4</ele>
        <time>2017-11-27T18:50:19Z</time>
      </trkpt>
      <trkpt lat="62.63057184809" lon="17.96846678456">
        <ele>66.2</ele>
        <time>2017-11-27T18:50:20Z</time>
      </trkpt>
      <trkpt lat="62.630557431222" lon="17.968436861177">
        <ele>66</ele>
        <time>2017-11-27T18:50:21Z</time>
      </trkpt>
      <trkpt lat="62.630546283295" lon="17.968412888943">
        <ele>65.8</ele>
        <time>2017-11-27T18:50:22Z</time>
      </trkpt>
      <trkpt lat="62.630534213359" lon="17.96839134746">
        <ele>65.8</ele>
        <time>2017-11-27T18:50:23Z</time>
      </trkpt>
      <trkpt lat="62.63052742402" lon="17.96837793642">
        <ele>65.6</ele>
        <time>2017-11-27T18:50:24Z</time>
      </trkpt>
      <trkpt lat="62.630517030464" lon="17.96835195253">
        <ele>65.6</ele>
        <time>2017-11-27T18:50:25Z</time>
      </trkpt>
      <trkpt lat="62.630508648564" lon="17.968326555373">
        <ele>65.2</ele>
        <time>2017-11-27T18:50:26Z</time>
      </trkpt>
      <trkpt lat="62.630498757922" lon="17.968303840424">
        <ele>65</ele>
        <time>2017-11-27T18:50:27Z</time>
      </trkpt>
      <trkpt lat="62.630490795117" lon="17.968283304769">
        <ele>64.8</ele>
        <time>2017-11-27T18:50:28Z</time>
      </trkpt>
      <trkpt lat="62.630485849796" lon="17.968259667811">
        <ele>64.6</ele>
        <time>2017-11-27T18:50:29Z</time>
      </trkpt>
      <trkpt lat="62.63047713262" lon="17.968229492971">
        <ele>64.6</ele>
        <time>2017-11-27T18:50:30Z</time>
      </trkpt>
      <trkpt lat="62.630470930014" lon="17.96820107833">
        <ele>64.4</ele>
        <time>2017-11-27T18:50:31Z</time>
      </trkpt>
      <trkpt lat="62.630466487607" lon="17.968173166603">
        <ele>64.4</ele>
        <time>2017-11-27T18:50:32Z</time>
      </trkpt>
      <trkpt lat="62.630460704096" lon="17.96814156684">
        <ele>64.2</ele>
        <time>2017-11-27T18:50:33Z</time>
      </trkpt>
      <trkpt lat="62.630455423499" lon="17.968110050896">
        <ele>64</ele>
        <time>2017-11-27T18:50:34Z</time>
      </trkpt>
      <trkpt lat="62.630452154558" lon="17.968089934336">
        <ele>64</ele>
        <time>2017-11-27T18:50:35Z</time>
      </trkpt>
      <trkpt lat="62.630444191753" lon="17.968050036492">
        <ele>63.8</ele>
        <time>2017-11-27T18:50:36Z</time>
      </trkpt>
      <trkpt lat="62.630452406015" lon="17.968022292403">
        <ele>63.4</ele>
        <time>2017-11-27T18:50:37Z</time>
      </trkpt>
      <trkpt lat="62.630448466522" lon="17.967987507518">
        <ele>63.2</ele>
        <time>2017-11-27T18:50:38Z</time>
      </trkpt>
      <trkpt lat="62.630444024115" lon="17.967952219719">
        <ele>63</ele>
        <time>2017-11-27T18:50:39Z</time>
      </trkpt>
      <trkpt lat="62.630440084622" lon="17.967918775938">
        <ele>62.8</ele>
        <time>2017-11-27T18:50:40Z</time>
      </trkpt>
      <trkpt lat="62.630436815681" lon="17.967879716284">
        <ele>62.6</ele>
        <time>2017-11-27T18:50:41Z</time>
      </trkpt>
      <trkpt lat="62.630431199808" lon="17.967839231707">
        <ele>62.4</ele>
        <time>2017-11-27T18:50:42Z</time>
      </trkpt>
      <trkpt lat="62.63043019398" lon="17.967805704107">
        <ele>62.2</ele>
        <time>2017-11-27T18:50:43Z</time>
      </trkpt>
      <trkpt lat="62.630427847048" lon="17.967768656109">
        <ele>62</ele>
        <time>2017-11-27T18:50:44Z</time>
      </trkpt>
      <trkpt lat="62.630427847048" lon="17.967733116853">
        <ele>61.8</ele>
        <time>2017-11-27T18:50:45Z</time>
      </trkpt>
      <trkpt lat="62.630427344134" lon="17.967696823226">
        <ele>61.6</ele>
        <time>2017-11-27T18:50:46Z</time>
      </trkpt>
      <trkpt lat="62.630425332478" lon="17.967668576223">
        <ele>61.6</ele>
        <time>2017-11-27T18:50:47Z</time>
      </trkpt>
      <trkpt lat="62.630427008858" lon="17.967629768026">
        <ele>61.4</ele>
        <time>2017-11-27T18:50:48Z</time>
      </trkpt>
      <trkpt lat="62.630427763229" lon="17.967592133295">
        <ele>61.2</ele>
        <time>2017-11-27T18:50:49Z</time>
      </trkpt>
      <trkpt lat="62.630429104333" lon="17.967569753622">
        <ele>61</ele>
        <time>2017-11-27T18:50:50Z</time>
      </trkpt>
      <trkpt lat="62.630432373274" lon="17.967526503018">
        <ele>60.8</ele>
        <time>2017-11-27T18:50:51Z</time>
      </trkpt>
      <trkpt lat="62.630434133473" lon="17.967493562151">
        <ele>60.8</ele>
        <time>2017-11-27T18:50:52Z</time>
      </trkpt>
      <trkpt lat="62.630435474577" lon="17.967463722587">
        <ele>60.6</ele>
        <time>2017-11-27T18:50:53Z</time>
      </trkpt>
      <trkpt lat="62.630437653871" lon="17.967429524435">
        <ele>60.6</ele>
        <time>2017-11-27T18:50:54Z</time>
      </trkpt>
      <trkpt lat="62.630438240604" lon="17.967398427586">
        <ele>60.4</ele>
        <time>2017-11-27T18:50:55Z</time>
      </trkpt>
      <trkpt lat="62.630441509545" lon="17.96736121195">
        <ele>60.2</ele>
        <time>2017-11-27T18:50:56Z</time>
      </trkpt>
      <trkpt lat="62.630444359391" lon="17.967328773997">
        <ele>60</ele>
        <time>2017-11-27T18:50:57Z</time>
      </trkpt>
      <trkpt lat="62.630447879789" lon="17.967294408207">
        <ele>60</ele>
        <time>2017-11-27T18:50:58Z</time>
      </trkpt>
      <trkpt lat="62.630448550341" lon="17.967260796788">
        <ele>59.6</ele>
        <time>2017-11-27T18:50:59Z</time>
      </trkpt>
      <trkpt lat="62.630449723807" lon="17.967230035215">
        <ele>59.6</ele>
        <time>2017-11-27T18:51:00Z</time>
      </trkpt>
      <trkpt lat="62.630451903101" lon="17.967196842891">
        <ele>59.4</ele>
        <time>2017-11-27T18:51:01Z</time>
      </trkpt>
      <trkpt lat="62.6304536633" lon="17.967160213988">
        <ele>59.2</ele>
        <time>2017-11-27T18:51:02Z</time>
      </trkpt>
      <trkpt lat="62.630456345508" lon="17.967126686388">
        <ele>59</ele>
        <time>2017-11-27T18:51:03Z</time>
      </trkpt>
      <trkpt lat="62.630461793743" lon="17.967096679186">
        <ele>58.8</ele>
        <time>2017-11-27T18:51:04Z</time>
      </trkpt>
      <trkpt lat="62.630463134847" lon="17.967071030572">
        <ele>58.6</ele>
        <time>2017-11-27T18:51:05Z</time>
      </trkpt>
      <trkpt lat="62.630463889218" lon="17.967029456348">
        <ele>58.4</ele>
        <time>2017-11-27T18:51:06Z</time>
      </trkpt>
      <trkpt lat="62.630463637761" lon="17.96699492292">
        <ele>58.2</ele>
        <time>2017-11-27T18:51:07Z</time>
      </trkpt>
      <trkpt lat="62.630466152331" lon="17.966962065872">
        <ele>58</ele>
        <time>2017-11-27T18:51:08Z</time>
      </trkpt>
      <trkpt lat="62.630468666901" lon="17.966925688426">
        <ele>58</ele>
        <time>2017-11-27T18:51:09Z</time>
      </trkpt>
      <trkpt lat="62.630475707697" lon="17.966897357604">
        <ele>57.8</ele>
        <time>2017-11-27T18:51:10Z</time>
      </trkpt>
      <trkpt lat="62.630475372421" lon="17.966873888284">
        <ele>57.6</ele>
        <time>2017-11-27T18:51:11Z</time>
      </trkpt>
      <trkpt lat="62.630476797344" lon="17.966825692359">
        <ele>57.4</ele>
        <time>2017-11-27T18:51:12Z</time>
      </trkpt>
      <trkpt lat="62.63048048538" lon="17.966792667673">
        <ele>57.4</ele>
        <time>2017-11-27T18:51:13Z</time>
      </trkpt>
      <trkpt lat="62.630483167588" lon="17.966757631331">
        <ele>57.2</ele>
        <time>2017-11-27T18:51:14Z</time>
      </trkpt>
      <trkpt lat="62.630486185072" lon="17.966729049052">
        <ele>57</ele>
        <time>2017-11-27T18:51:15Z</time>
      </trkpt>
      <trkpt lat="62.63048802909" lon="17.966699544764">
        <ele>56.8</ele>
        <time>2017-11-27T18:51:16Z</time>
      </trkpt>
      <trkpt lat="62.630491884764" lon="17.966668783191">
        <ele>56.8</ele>
        <time>2017-11-27T18:51:17Z</time>
      </trkpt>
      <trkpt lat="62.630493561144" lon="17.966632489564">
        <ele>56.6</ele>
        <time>2017-11-27T18:51:18Z</time>
      </trkpt>
      <trkpt lat="62.630492890592" lon="17.966604996932">
        <ele>56.2</ele>
        <time>2017-11-27T18:51:19Z</time>
      </trkpt>
      <trkpt lat="62.630493728782" lon="17.966577839576">
        <ele>56</ele>
        <time>2017-11-27T18:51:20Z</time>
      </trkpt>
      <trkpt lat="62.630494902248" lon="17.966543054691">
        <ele>55.8</ele>
        <time>2017-11-27T18:51:21Z</time>
      </trkpt>
      <trkpt lat="62.630496997723" lon="17.966516484068">
        <ele>55.8</ele>
        <time>2017-11-27T18:51:22Z</time>
      </trkpt>
      <trkpt lat="62.63049976375" lon="17.966486393047">
        <ele>55.4</ele>
        <time>2017-11-27T18:51:23Z</time>
      </trkpt>
      <trkpt lat="62.630502948872" lon="17.966459654786">
        <ele>55.4</ele>
        <time>2017-11-27T18:51:24Z</time>
      </trkpt>
      <trkpt lat="62.630500518121" lon="17.966432748887">
        <ele>55.2</ele>
        <time>2017-11-27T18:51:25Z</time>
      </trkpt>
      <trkpt lat="62.630500685759" lon="17.966400730029">
        <ele>55</ele>
        <time>2017-11-27T18:51:26Z</time>
      </trkpt>
      <trkpt lat="62.630502529777" lon="17.966366531877">
        <ele>55</ele>
        <time>2017-11-27T18:51:27Z</time>
      </trkpt>
      <trkpt lat="62.630517868654" lon="17.966344906575">
        <ele>54.8</ele>
        <time>2017-11-27T18:51:28Z</time>
      </trkpt>
      <trkpt lat="62.630517198102" lon="17.966316491934">
        <ele>54.6</ele>
        <time>2017-11-27T18:51:29Z</time>
      </trkpt>
      <trkpt lat="62.630519461215" lon="17.966285059809">
        <ele>54.6</ele>
        <time>2017-11-27T18:51:30Z</time>
      </trkpt>
      <trkpt lat="62.630523903622" lon="17.966249939648">
        <ele>54.4</ele>
        <time>2017-11-27T18:51:31Z</time>
      </trkpt>
      <trkpt lat="62.630522478699" lon="17.966217334057">
        <ele>54.2</ele>
        <time>2017-11-27T18:51:32Z</time>
      </trkpt>
      <trkpt lat="62.630524574174" lon="17.966180369878">
        <ele>54</ele>
        <time>2017-11-27T18:51:33Z</time>
      </trkpt>
      <trkpt lat="62.630524825631" lon="17.966152206694">
        <ele>53.8</ele>
        <time>2017-11-27T18:51:34Z</time>
      </trkpt>
      <trkpt lat="62.630527340201" lon="17.966127312451">
        <ele>53.6</ele>
        <time>2017-11-27T18:51:35Z</time>
      </trkpt>
      <trkpt lat="62.630528094572" lon="17.966091857014">
        <ele>53.6</ele>
        <time>2017-11-27T18:51:36Z</time>
      </trkpt>
      <trkpt lat="62.630531782608" lon="17.966060760165">
        <ele>53.6</ele>
        <time>2017-11-27T18:51:37Z</time>
      </trkpt>
      <trkpt lat="62.630533458988" lon="17.966031088239">
        <ele>53.4</ele>
        <time>2017-11-27T18:51:38Z</time>
      </trkpt>
      <trkpt lat="62.630531950246" lon="17.966005607263">
        <ele>53.4</ele>
        <time>2017-11-27T18:51:39Z</time>
      </trkpt>
      <trkpt lat="62.630535051549" lon="17.965973253129">
        <ele>53.2</ele>
        <time>2017-11-27T18:51:40Z</time>
      </trkpt>
      <trkpt lat="62.630531866427" lon="17.965948191248">
        <ele>53.2</ele>
        <time>2017-11-27T18:51:41Z</time>
      </trkpt>
      <trkpt lat="62.630532201703" lon="17.965919608969">
        <ele>53</ele>
        <time>2017-11-27T18:51:42Z</time>
      </trkpt>
      <trkpt lat="62.630534632454" lon="17.96587929203">
        <ele>52.8</ele>
        <time>2017-11-27T18:51:43Z</time>
      </trkpt>
      <trkpt lat="62.630533626626" lon="17.965853475778">
        <ele>52.6</ele>
        <time>2017-11-27T18:51:44Z</time>
      </trkpt>
      <trkpt lat="62.630535889739" lon="17.965816595418">
        <ele>52.6</ele>
        <time>2017-11-27T18:51:45Z</time>
      </trkpt>
      <trkpt lat="62.63053580592" lon="17.965790611528">
        <ele>52.4</ele>
        <time>2017-11-27T18:51:46Z</time>
      </trkpt>
      <trkpt lat="62.630534464816" lon="17.965762615982">
        <ele>52.4</ele>
        <time>2017-11-27T18:51:47Z</time>
      </trkpt>
      <trkpt lat="62.630534548635" lon="17.96572087412">
        <ele>52.4</ele>
        <time>2017-11-27T18:51:48Z</time>
      </trkpt>
      <trkpt lat="62.630534716273" lon="17.965699248818">
        <ele>52.2</ele>
        <time>2017-11-27T18:51:49Z</time>
      </trkpt>
      <trkpt lat="62.630531698789" lon="17.965661865544">
        <ele>52.2</ele>
        <time>2017-11-27T18:51:50Z</time>
      </trkpt>
      <trkpt lat="62.630533542807" lon="17.96563454055">
        <ele>52</ele>
        <time>2017-11-27T18:51:51Z</time>
      </trkpt>
      <trkpt lat="62.6305374823" lon="17.965596402905">
        <ele>52</ele>
        <time>2017-11-27T18:51:52Z</time>
      </trkpt>
      <trkpt lat="62.63054251144" lon="17.965566479522">
        <ele>51.8</ele>
        <time>2017-11-27T18:51:53Z</time>
      </trkpt>
      <trkpt lat="62.630549971331" lon="17.965529850619">
        <ele>51.8</ele>
        <time>2017-11-27T18:51:54Z</time>
      </trkpt>
      <trkpt lat="62.630562292724" lon="17.965496658295">
        <ele>51.6</ele>
        <time>2017-11-27T18:51:56Z</time>
      </trkpt>
      <trkpt lat="62.630566735131" lon="17.965483498712">
        <ele>51.6</ele>
        <time>2017-11-27T18:51:57Z</time>
      </trkpt>
      <trkpt lat="62.630573189194" lon="17.965477463744">
        <ele>51.6</ele>
        <time>2017-11-27T18:51:58Z</time>
      </trkpt>
      <trkpt lat="62.630577799239" lon="17.965481822332">
        <ele>51.6</ele>
        <time>2017-11-27T18:51:59Z</time>
      </trkpt>
      <trkpt lat="62.630575536126" lon="17.965478469572">
        <ele>51.6</ele>
        <time>2017-11-27T18:52:00Z</time>
      </trkpt>
      <trkpt lat="62.630790699499" lon="17.965504956376">
        <ele>52</ele>
        <time>2017-11-27T18:52:26Z</time>
      </trkpt>
      <trkpt lat="62.63081659957" lon="17.965517277769">
        <ele>52.2</ele>
        <time>2017-11-27T18:52:27Z</time>
      </trkpt>
      <trkpt lat="62.630847528781" lon="17.965528341877">
        <ele>52.2</ele>
        <time>2017-11-27T18:52:28Z</time>
      </trkpt>
      <trkpt lat="62.630874350861" lon="17.965537142872">
        <ele>52.4</ele>
        <time>2017-11-27T18:52:29Z</time>
      </trkpt>
      <trkpt lat="62.630897317267" lon="17.965530856447">
        <ele>52.6</ele>
        <time>2017-11-27T18:52:30Z</time>
      </trkpt>
      <trkpt lat="62.630932102152" lon="17.965511913353">
        <ele>52.8</ele>
        <time>2017-11-27T18:52:31Z</time>
      </trkpt>
      <trkpt lat="62.630954146549" lon="17.965498334675">
        <ele>53</ele>
        <time>2017-11-27T18:52:32Z</time>
      </trkpt>
      <trkpt lat="62.630976777679" lon="17.96547528445">
        <ele>53.2</ele>
        <time>2017-11-27T18:52:33Z</time>
      </trkpt>
      <trkpt lat="62.631002091017" lon="17.965443600868">
        <ele>53.4</ele>
        <time>2017-11-27T18:52:34Z</time>
      </trkpt>
      <trkpt lat="62.631020112102" lon="17.965414683313">
        <ele>53.4</ele>
        <time>2017-11-27T18:52:35Z</time>
      </trkpt>
      <trkpt lat="62.631050286942" lon="17.965383251188">
        <ele>53.4</ele>
        <time>2017-11-27T18:52:36Z</time>
      </trkpt>
      <trkpt lat="62.631075516461" lon="17.965356680565">
        <ele>53.4</ele>
        <time>2017-11-27T18:52:37Z</time>
      </trkpt>
      <trkpt lat="62.631091693528" lon="17.965326841001">
        <ele>53.4</ele>
        <time>2017-11-27T18:52:38Z</time>
      </trkpt>
      <trkpt lat="62.631122790377" lon="17.965299935102">
        <ele>53.4</ele>
        <time>2017-11-27T18:52:39Z</time>
      </trkpt>
      <trkpt lat="62.631147516982" lon="17.965302533491">
        <ele>53.6</ele>
        <time>2017-11-27T18:52:40Z</time>
      </trkpt>
      <trkpt lat="62.631178949107" lon="17.965316279807">
        <ele>53.6</ele>
        <time>2017-11-27T18:52:41Z</time>
      </trkpt>
      <trkpt lat="62.631204430083" lon="17.965342431335">
        <ele>53.6</ele>
        <time>2017-11-27T18:52:42Z</time>
      </trkpt>
      <trkpt lat="62.631232509448" lon="17.965370175424">
        <ele>53.8</ele>
        <time>2017-11-27T18:52:43Z</time>
      </trkpt>
      <trkpt lat="62.631259582985" lon="17.965396578409">
        <ele>53.8</ele>
        <time>2017-11-27T18:52:44Z</time>
      </trkpt>
      <trkpt lat="62.631278526079" lon="17.965423400489">
        <ele>53.8</ele>
        <time>2017-11-27T18:52:45Z</time>
      </trkpt>
      <trkpt lat="62.63129855882" lon="17.965459107383">
        <ele>54</ele>
        <time>2017-11-27T18:52:46Z</time>
      </trkpt>
      <trkpt lat="62.63131951357" lon="17.965484420721">
        <ele>54.2</ele>
        <time>2017-11-27T18:52:47Z</time>
      </trkpt>
      <trkpt lat="62.631342563795" lon="17.965511494258">
        <ele>54.2</ele>
        <time>2017-11-27T18:52:48Z</time>
      </trkpt>
      <trkpt lat="62.631368631504" lon="17.965539908899">
        <ele>54.2</ele>
        <time>2017-11-27T18:52:49Z</time>
      </trkpt>
      <trkpt lat="62.631387658417" lon="17.965559438726">
        <ele>54.4</ele>
        <time>2017-11-27T18:52:50Z</time>
      </trkpt>
      <trkpt lat="62.631413055574" lon="17.965583746236">
        <ele>54.6</ele>
        <time>2017-11-27T18:52:51Z</time>
      </trkpt>
      <trkpt lat="62.631437195446" lon="17.965603778977">
        <ele>54.6</ele>
        <time>2017-11-27T18:52:52Z</time>
      </trkpt>
      <trkpt lat="62.631457647282" lon="17.965626577745">
        <ele>54.6</ele>
        <time>2017-11-27T18:52:53Z</time>
      </trkpt>
      <trkpt lat="62.631483379715" lon="17.965654740929">
        <ele>54.8</ele>
        <time>2017-11-27T18:52:54Z</time>
      </trkpt>
      <trkpt lat="62.631503663913" lon="17.965674689851">
        <ele>55</ele>
        <time>2017-11-27T18:52:55Z</time>
      </trkpt>
      <trkpt lat="62.631531743278" lon="17.96569908118">
        <ele>55.2</ele>
        <time>2017-11-27T18:52:56Z</time>
      </trkpt>
      <trkpt lat="62.631557140435" lon="17.965723137233">
        <ele>55.2</ele>
        <time>2017-11-27T18:52:57Z</time>
      </trkpt>
      <trkpt lat="62.631577089357" lon="17.96574434344">
        <ele>55.4</ele>
        <time>2017-11-27T18:52:58Z</time>
      </trkpt>
      <trkpt lat="62.631605587817" lon="17.965764124724">
        <ele>55.4</ele>
        <time>2017-11-27T18:52:59Z</time>
      </trkpt>
      <trkpt lat="62.631631068793" lon="17.965788516053">
        <ele>55.6</ele>
        <time>2017-11-27T18:53:00Z</time>
      </trkpt>
      <trkpt lat="62.631654705751" lon="17.96581056045">
        <ele>55.6</ele>
        <time>2017-11-27T18:53:01Z</time>
      </trkpt>
      <trkpt lat="62.631680438184" lon="17.965829755001">
        <ele>55.8</ele>
        <time>2017-11-27T18:53:02Z</time>
      </trkpt>
      <trkpt lat="62.631703488409" lon="17.965849201009">
        <ele>55.8</ele>
        <time>2017-11-27T18:53:03Z</time>
      </trkpt>
      <trkpt lat="62.631725365168" lon="17.965871580682">
        <ele>56.2</ele>
        <time>2017-11-27T18:53:04Z</time>
      </trkpt>
      <trkpt lat="62.63174531409" lon="17.965890775233">
        <ele>56.2</ele>
        <time>2017-11-27T18:53:05Z</time>
      </trkpt>
      <trkpt lat="62.631770878885" lon="17.965906365567">
        <ele>56.4</ele>
        <time>2017-11-27T18:53:06Z</time>
      </trkpt>
      <trkpt lat="62.631799377345" lon="17.965925895394">
        <ele>56.4</ele>
        <time>2017-11-27T18:53:07Z</time>
      </trkpt>
      <trkpt lat="62.631824271588" lon="17.96594299447">
        <ele>56.6</ele>
        <time>2017-11-27T18:53:08Z</time>
      </trkpt>
      <trkpt lat="62.631846483623" lon="17.965957411338">
        <ele>56.8</ele>
        <time>2017-11-27T18:53:09Z</time>
      </trkpt>
      <trkpt lat="62.631873473341" lon="17.965970990016">
        <ele>56.8</ele>
        <time>2017-11-27T18:53:10Z</time>
      </trkpt>
      <trkpt lat="62.631899205774" lon="17.965984484875">
        <ele>57.2</ele>
        <time>2017-11-27T18:53:11Z</time>
      </trkpt>
      <trkpt lat="62.631921920723" lon="17.966004266159">
        <ele>57.2</ele>
        <time>2017-11-27T18:53:12Z</time>
      </trkpt>
      <trkpt lat="62.631948491346" lon="17.966021951968">
        <ele>57.4</ele>
        <time>2017-11-27T18:53:13Z</time>
      </trkpt>
      <trkpt lat="62.631970619562" lon="17.966036117379">
        <ele>57.4</ele>
        <time>2017-11-27T18:53:14Z</time>
      </trkpt>
      <trkpt lat="62.631994088882" lon="17.966051372437">
        <ele>57.6</ele>
        <time>2017-11-27T18:53:15Z</time>
      </trkpt>
      <trkpt lat="62.632019486039" lon="17.966068555332">
        <ele>57.8</ele>
        <time>2017-11-27T18:53:16Z</time>
      </trkpt>
      <trkpt lat="62.632039854056" lon="17.966072411006">
        <ele>57.8</ele>
        <time>2017-11-27T18:53:17Z</time>
      </trkpt>
      <trkpt lat="62.63206885543" lon="17.966091270281">
        <ele>58</ele>
        <time>2017-11-27T18:53:18Z</time>
      </trkpt>
      <trkpt lat="62.632091235103" lon="17.966106776796">
        <ele>58.2</ele>
        <time>2017-11-27T18:53:19Z</time>
      </trkpt>
      <trkpt lat="62.632113866233" lon="17.966124211148">
        <ele>58.2</ele>
        <time>2017-11-27T18:53:20Z</time>
      </trkpt>
      <trkpt lat="62.632138676657" lon="17.966157068196">
        <ele>58.2</ele>
        <time>2017-11-27T18:53:21Z</time>
      </trkpt>
      <trkpt lat="62.632156362466" lon="17.966191182529">
        <ele>58.2</ele>
        <time>2017-11-27T18:53:22Z</time>
      </trkpt>
      <trkpt lat="62.632172371895" lon="17.966231080373">
        <ele>58.4</ele>
        <time>2017-11-27T18:53:23Z</time>
      </trkpt>
      <trkpt lat="62.632178071587" lon="17.966274330977">
        <ele>58.4</ele>
        <time>2017-11-27T18:53:24Z</time>
      </trkpt>
      <trkpt lat="62.632189303333" lon="17.966337865779">
        <ele>58.6</ele>
        <time>2017-11-27T18:53:25Z</time>
      </trkpt>
      <trkpt lat="62.632193159007" lon="17.966402741685">
        <ele>58.6</ele>
        <time>2017-11-27T18:53:26Z</time>
      </trkpt>
      <trkpt lat="62.632195589758" lon="17.966443812995">
        <ele>58.8</ele>
        <time>2017-11-27T18:53:27Z</time>
      </trkpt>
      <trkpt lat="62.632195338301" lon="17.966497792431">
        <ele>59</ele>
        <time>2017-11-27T18:53:28Z</time>
      </trkpt>
      <trkpt lat="62.632190309161" lon="17.966541881225">
        <ele>59.2</ele>
        <time>2017-11-27T18:53:29Z</time>
      </trkpt>
      <trkpt lat="62.632188632781" lon="17.966579515956">
        <ele>59.2</ele>
        <time>2017-11-27T18:53:30Z</time>
      </trkpt>
      <trkpt lat="62.632182430175" lon="17.966634165944">
        <ele>59.4</ele>
        <time>2017-11-27T18:53:31Z</time>
      </trkpt>
      <trkpt lat="62.632179077415" lon="17.966680434032">
        <ele>59.6</ele>
        <time>2017-11-27T18:53:32Z</time>
      </trkpt>
      <trkpt lat="62.632174132094" lon="17.966726450663">
        <ele>59.8</ele>
        <time>2017-11-27T18:53:33Z</time>
      </trkpt>
      <trkpt lat="62.632170863153" lon="17.966781435927">
        <ele>59.8</ele>
        <time>2017-11-27T18:53:34Z</time>
      </trkpt>
      <trkpt lat="62.632167510393" lon="17.966818567744">
        <ele>60</ele>
        <time>2017-11-27T18:53:35Z</time>
      </trkpt>
      <trkpt lat="62.632160385778" lon="17.966878749786">
        <ele>60.2</ele>
        <time>2017-11-27T18:53:36Z</time>
      </trkpt>
      <trkpt lat="62.632154183172" lon="17.966923257675">
        <ele>60.4</ele>
        <time>2017-11-27T18:53:37Z</time>
      </trkpt>
      <trkpt lat="62.632149992222" lon="17.966969944858">
        <ele>60.4</ele>
        <time>2017-11-27T18:53:38Z</time>
      </trkpt>
      <trkpt lat="62.632139598666" lon="17.967026606502">
        <ele>60.6</ele>
        <time>2017-11-27T18:53:39Z</time>
      </trkpt>
      <trkpt lat="62.632132474051" lon="17.967069438011">
        <ele>61</ele>
        <time>2017-11-27T18:53:40Z</time>
      </trkpt>
      <trkpt lat="62.632124678884" lon="17.967118388307">
        <ele>61</ele>
        <time>2017-11-27T18:53:41Z</time>
      </trkpt>
      <trkpt lat="62.632112860405" lon="17.967161135997">
        <ele>61.2</ele>
        <time>2017-11-27T18:53:42Z</time>
      </trkpt>
      <trkpt lat="62.63210322122" lon="17.967205476248">
        <ele>61.2</ele>
        <time>2017-11-27T18:53:43Z</time>
      </trkpt>
      <trkpt lat="62.632089642542" lon="17.967258030761">
        <ele>61.6</ele>
        <time>2017-11-27T18:53:44Z</time>
      </trkpt>
      <trkpt lat="62.632077488787" lon="17.967296922777">
        <ele>61.8</ele>
        <time>2017-11-27T18:53:45Z</time>
      </trkpt>
      <trkpt lat="62.632064413023" lon="17.967345873073">
        <ele>62</ele>
        <time>2017-11-27T18:53:46Z</time>
      </trkpt>
      <trkpt lat="62.632049996155" lon="17.967388536944">
        <ele>62.4</ele>
        <time>2017-11-27T18:53:47Z</time>
      </trkpt>
      <trkpt lat="62.632038429133" lon="17.967429524435">
        <ele>62.6</ele>
        <time>2017-11-27T18:53:48Z</time>
      </trkpt>
      <trkpt lat="62.632023425532" lon="17.967478390912">
        <ele>62.8</ele>
        <time>2017-11-27T18:53:49Z</time>
      </trkpt>
      <trkpt lat="62.632008924845" lon="17.967519546041">
        <ele>63</ele>
        <time>2017-11-27T18:53:50Z</time>
      </trkpt>
      <trkpt lat="62.631996016719" lon="17.967565143577">
        <ele>63.2</ele>
        <time>2017-11-27T18:53:51Z</time>
      </trkpt>
      <trkpt lat="62.63198168367" lon="17.967606214887">
        <ele>63.4</ele>
        <time>2017-11-27T18:53:52Z</time>
      </trkpt>
      <trkpt lat="62.631968021173" lon="17.96764452017">
        <ele>63.6</ele>
        <time>2017-11-27T18:53:53Z</time>
      </trkpt>
      <trkpt lat="62.631954274857" lon="17.967694392475">
        <ele>63.8</ele>
        <time>2017-11-27T18:53:54Z</time>
      </trkpt>
      <trkpt lat="62.631940779998" lon="17.967736804889">
        <ele>63.8</ele>
        <time>2017-11-27T18:53:55Z</time>
      </trkpt>
      <trkpt lat="62.631926866044" lon="17.967778043837">
        <ele>64</ele>
        <time>2017-11-27T18:53:56Z</time>
      </trkpt>
      <trkpt lat="62.631911359529" lon="17.967810314152">
        <ele>64.2</ele>
        <time>2017-11-27T18:53:57Z</time>
      </trkpt>
      <trkpt lat="62.631894931005" lon="17.967851972195">
        <ele>64.4</ele>
        <time>2017-11-27T18:53:58Z</time>
      </trkpt>
      <trkpt lat="62.631881687603" lon="17.967887427632">
        <ele>64.4</ele>
        <time>2017-11-27T18:53:59Z</time>
      </trkpt>
      <trkpt lat="62.631864923803" lon="17.967936377928">
        <ele>64.6</ele>
        <time>2017-11-27T18:54:00Z</time>
      </trkpt>
      <trkpt lat="62.631851428944" lon="17.96798733988">
        <ele>65</ele>
        <time>2017-11-27T18:54:01Z</time>
      </trkpt>
      <trkpt lat="62.631837347352" lon="17.968029668475">
        <ele>65</ele>
        <time>2017-11-27T18:54:02Z</time>
      </trkpt>
      <trkpt lat="62.631820415914" lon="17.968074930735">
        <ele>65.2</ele>
        <time>2017-11-27T18:54:03Z</time>
      </trkpt>
      <trkpt lat="62.631809435625" lon="17.968112984561">
        <ele>65.4</ele>
        <time>2017-11-27T18:54:04Z</time>
      </trkpt>
      <trkpt lat="62.631795270214" lon="17.968153050043">
        <ele>65.8</ele>
        <time>2017-11-27T18:54:05Z</time>
      </trkpt>
      <trkpt lat="62.63177884169" lon="17.968204011995">
        <ele>66</ele>
        <time>2017-11-27T18:54:06Z</time>
      </trkpt>
      <trkpt lat="62.631765346831" lon="17.968245586219">
        <ele>66.4</ele>
        <time>2017-11-27T18:54:07Z</time>
      </trkpt>
      <trkpt lat="62.631747409565" lon="17.968289842651">
        <ele>66.6</ele>
        <time>2017-11-27T18:54:08Z</time>
      </trkpt>
      <trkpt lat="62.631735591086" lon="17.968333009436">
        <ele>66.8</ele>
        <time>2017-11-27T18:54:09Z</time>
      </trkpt>
      <trkpt lat="62.631720755123" lon="17.968379109886">
        <ele>67</ele>
        <time>2017-11-27T18:54:10Z</time>
      </trkpt>
      <trkpt lat="62.631706924988" lon="17.968427724906">
        <ele>67.4</ele>
        <time>2017-11-27T18:54:11Z</time>
      </trkpt>
      <trkpt lat="62.631696279975" lon="17.968477513392">
        <ele>67.4</ele>
        <time>2017-11-27T18:54:12Z</time>
      </trkpt>
      <trkpt lat="62.631682366021" lon="17.968529062077">
        <ele>67.6</ele>
        <time>2017-11-27T18:54:13Z</time>
      </trkpt>
      <trkpt lat="62.631673816483" lon="17.96857491107">
        <ele>68</ele>
        <time>2017-11-27T18:54:14Z</time>
      </trkpt>
      <trkpt lat="62.631666775687" lon="17.968626962669">
        <ele>68</ele>
        <time>2017-11-27T18:54:15Z</time>
      </trkpt>
      <trkpt lat="62.631658561425" lon="17.96868890491">
        <ele>68.2</ele>
        <time>2017-11-27T18:54:16Z</time>
      </trkpt>
      <trkpt lat="62.631656046855" lon="17.968734753903">
        <ele>68.4</ele>
        <time>2017-11-27T18:54:17Z</time>
      </trkpt>
      <trkpt lat="62.631655795398" lon="17.968796109411">
        <ele>68.6</ele>
        <time>2017-11-27T18:54:18Z</time>
      </trkpt>
      <trkpt lat="62.631657974692" lon="17.9688489992">
        <ele>68.6</ele>
        <time>2017-11-27T18:54:19Z</time>
      </trkpt>
      <trkpt lat="62.631660237805" lon="17.968897027487">
        <ele>68.8</ele>
        <time>2017-11-27T18:54:20Z</time>
      </trkpt>
      <trkpt lat="62.631668284429" lon="17.968957880081">
        <ele>69.2</ele>
        <time>2017-11-27T18:54:21Z</time>
      </trkpt>
      <trkpt lat="62.631676163415" lon="17.969003896712">
        <ele>69.4</ele>
        <time>2017-11-27T18:54:22Z</time>
      </trkpt>
      <trkpt lat="62.631681946926" lon="17.969057289415">
        <ele>69.4</ele>
        <time>2017-11-27T18:54:23Z</time>
      </trkpt>
      <trkpt lat="62.631691502292" lon="17.969115292163">
        <ele>69.6</ele>
        <time>2017-11-27T18:54:24Z</time>
      </trkpt>
      <trkpt lat="62.631698626907" lon="17.969155692921">
        <ele>69.8</ele>
        <time>2017-11-27T18:54:25Z</time>
      </trkpt>
      <trkpt lat="62.631709188101" lon="17.969216210239">
        <ele>70</ele>
        <time>2017-11-27T18:54:26Z</time>
      </trkpt>
      <trkpt lat="62.631719916933" lon="17.969264573802">
        <ele>70.2</ele>
        <time>2017-11-27T18:54:27Z</time>
      </trkpt>
      <trkpt lat="62.631729472299" lon="17.969312099175">
        <ele>70.4</ele>
        <time>2017-11-27T18:54:28Z</time>
      </trkpt>
      <trkpt lat="62.63173944676" lon="17.969367419715">
        <ele>70.8</ele>
        <time>2017-11-27T18:54:29Z</time>
      </trkpt>
      <trkpt lat="62.631745900823" lon="17.969414023079">
        <ele>71</ele>
        <time>2017-11-27T18:54:30Z</time>
      </trkpt>
      <trkpt lat="62.631750846144" lon="17.969478312252">
        <ele>71.2</ele>
        <time>2017-11-27T18:54:31Z</time>
      </trkpt>
      <trkpt lat="62.631745984642" lon="17.969525167073">
        <ele>71.6</ele>
        <time>2017-11-27T18:54:32Z</time>
      </trkpt>
      <trkpt lat="62.631734249982" lon="17.969569926419">
        <ele>71.8</ele>
        <time>2017-11-27T18:54:33Z</time>
      </trkpt>
      <trkpt lat="62.631718408191" lon="17.969622061837">
        <ele>71.8</ele>
        <time>2017-11-27T18:54:34Z</time>
      </trkpt>
      <trkpt lat="62.631702482581" lon="17.969643268044">
        <ele>72</ele>
        <time>2017-11-27T18:54:35Z</time>
      </trkpt>
      <trkpt lat="62.631678929442" lon="17.969673275246">
        <ele>72.4</ele>
        <time>2017-11-27T18:54:36Z</time>
      </trkpt>
      <trkpt lat="62.631650095706" lon="17.969701941344">
        <ele>72.4</ele>
        <time>2017-11-27T18:54:37Z</time>
      </trkpt>
      <trkpt lat="62.631629811508" lon="17.969725829759">
        <ele>72.6</ele>
        <time>2017-11-27T18:54:38Z</time>
      </trkpt>
      <trkpt lat="62.63160114541" lon="17.969746868328">
        <ele>72.8</ele>
        <time>2017-11-27T18:54:39Z</time>
      </trkpt>
      <trkpt lat="62.631572814588" lon="17.969757680979">
        <ele>73</ele>
        <time>2017-11-27T18:54:40Z</time>
      </trkpt>
      <trkpt lat="62.631546830698" lon="17.969773774227">
        <ele>73</ele>
        <time>2017-11-27T18:54:41Z</time>
      </trkpt>
      <trkpt lat="62.631517745505" lon="17.969786682353">
        <ele>73.2</ele>
        <time>2017-11-27T18:54:42Z</time>
      </trkpt>
      <trkpt lat="62.631499053868" lon="17.969799674298">
        <ele>73.4</ele>
        <time>2017-11-27T18:54:43Z</time>
      </trkpt>
      <trkpt lat="62.631473405254" lon="17.969803613791">
        <ele>73.4</ele>
        <time>2017-11-27T18:54:44Z</time>
      </trkpt>
      <trkpt lat="62.631443398052" lon="17.969817443926">
        <ele>73.4</ele>
        <time>2017-11-27T18:54:45Z</time>
      </trkpt>
      <trkpt lat="62.631414815773" lon="17.969826999292">
        <ele>73.4</ele>
        <time>2017-11-27T18:54:46Z</time>
      </trkpt>
      <trkpt lat="62.631386987865" lon="17.969843846911">
        <ele>73.6</ele>
        <time>2017-11-27T18:54:47Z</time>
      </trkpt>
      <trkpt lat="62.631358657043" lon="17.969869244068">
        <ele>73.6</ele>
        <time>2017-11-27T18:54:48Z</time>
      </trkpt>
      <trkpt lat="62.631330912954" lon="17.969887851886">
        <ele>73.6</ele>
        <time>2017-11-27T18:54:49Z</time>
      </trkpt>
      <trkpt lat="62.631302246856" lon="17.969905705333">
        <ele>73.8</ele>
        <time>2017-11-27T18:54:50Z</time>
      </trkpt>
      <trkpt lat="62.631272072016" lon="17.969923055866">
        <ele>73.8</ele>
        <time>2017-11-27T18:54:51Z</time>
      </trkpt>
      <trkpt lat="62.631243908832" lon="17.969935963992">
        <ele>73.8</ele>
        <time>2017-11-27T18:54:52Z</time>
      </trkpt>
      <trkpt lat="62.631214823639" lon="17.969957840751">
        <ele>74</ele>
        <time>2017-11-27T18:54:53Z</time>
      </trkpt>
      <trkpt lat="62.631186492817" lon="17.969977370578">
        <ele>73.8</ele>
        <time>2017-11-27T18:54:54Z</time>
      </trkpt>
      <trkpt lat="62.631159167823" lon="17.969991116894">
        <ele>73.8</ele>
        <time>2017-11-27T18:54:55Z</time>
      </trkpt>
      <trkpt lat="62.631129076802" lon="17.970011652549">
        <ele>73.8</ele>
        <time>2017-11-27T18:54:56Z</time>
      </trkpt>
      <trkpt lat="62.631103847283" lon="17.970021207915">
        <ele>74</ele>
        <time>2017-11-27T18:54:57Z</time>
      </trkpt>
      <trkpt lat="62.631076522289" lon="17.970017603698">
        <ele>74</ele>
        <time>2017-11-27T18:54:58Z</time>
      </trkpt>
      <trkpt lat="62.631033942237" lon="17.970037804077">
        <ele>74.2</ele>
        <time>2017-11-27T18:55:00Z</time>
      </trkpt>
      <trkpt lat="62.631015334419" lon="17.970044341959">
        <ele>74.4</ele>
        <time>2017-11-27T18:55:01Z</time>
      </trkpt>
      <trkpt lat="62.631004940863" lon="17.970055238429">
        <ele>74.6</ele>
        <time>2017-11-27T18:55:02Z</time>
      </trkpt>
      <trkpt lat="62.630985746312" lon="17.97005264004">
        <ele>74.8</ele>
        <time>2017-11-27T18:55:03Z</time>
      </trkpt>
      <trkpt lat="62.630972083815" lon="17.970039145181">
        <ele>74.8</ele>
        <time>2017-11-27T18:55:04Z</time>
      </trkpt>
      <trkpt lat="62.630958756594" lon="17.97004006719">
        <ele>75</ele>
        <time>2017-11-27T18:55:05Z</time>
      </trkpt>
      <trkpt lat="62.630945932287" lon="17.970045766882">
        <ele>74.8</ele>
        <time>2017-11-27T18:55:06Z</time>
      </trkpt>
      <trkpt lat="62.630933443256" lon="17.970058842646">
        <ele>74.6</ele>
        <time>2017-11-27T18:55:07Z</time>
      </trkpt>
      <trkpt lat="62.630924809899" lon="17.970074600618">
        <ele>74.6</ele>
        <time>2017-11-27T18:55:08Z</time>
      </trkpt>
      <trkpt lat="62.630921624777" lon="17.970100081594">
        <ele>74.4</ele>
        <time>2017-11-27T18:55:09Z</time>
      </trkpt>
      <trkpt lat="62.630920367492" lon="17.970126316941">
        <ele>74.2</ele>
        <time>2017-11-27T18:55:10Z</time>
      </trkpt>
      <trkpt lat="62.630923468795" lon="17.970141404361">
        <ele>74</ele>
        <time>2017-11-27T18:55:11Z</time>
      </trkpt>
      <trkpt lat="62.630929336125" lon="17.970146852596">
        <ele>74</ele>
        <time>2017-11-27T18:55:12Z</time>
      </trkpt>
      <trkpt lat="62.630937550387" lon="17.970143835112">
        <ele>74</ele>
        <time>2017-11-27T18:55:13Z</time>
      </trkpt>
      <trkpt lat="62.630948698314" lon="17.970136878135">
        <ele>74</ele>
        <time>2017-11-27T18:55:14Z</time>
      </trkpt>
      <trkpt lat="62.630956493481" lon="17.970137381049">
        <ele>74</ele>
        <time>2017-11-27T18:55:15Z</time>
      </trkpt>
      <trkpt lat="62.630965210657" lon="17.970137213411">
        <ele>74</ele>
        <time>2017-11-27T18:55:16Z</time>
      </trkpt>
      <trkpt lat="62.630972586729" lon="17.970134615022">
        <ele>74</ele>
        <time>2017-11-27T18:55:17Z</time>
      </trkpt>
      <trkpt lat="62.630977951145" lon="17.970126316941">
        <ele>74.2</ele>
        <time>2017-11-27T18:55:18Z</time>
      </trkpt>
      <trkpt lat="62.630981052448" lon="17.97011550429">
        <ele>74</ele>
        <time>2017-11-27T18:55:19Z</time>
      </trkpt>
      <trkpt lat="62.630983064104" lon="17.970099913956">
        <ele>74</ele>
        <time>2017-11-27T18:55:20Z</time>
      </trkpt>
      <trkpt lat="62.630984489027" lon="17.970082144328">
        <ele>74.2</ele>
        <time>2017-11-27T18:55:21Z</time>
      </trkpt>
      <trkpt lat="62.630984656665" lon="17.970063704148">
        <ele>74.2</ele>
        <time>2017-11-27T18:55:22Z</time>
      </trkpt>
      <trkpt lat="62.630984824303" lon="17.970045431606">
        <ele>74</ele>
        <time>2017-11-27T18:55:23Z</time>
      </trkpt>
      <trkpt lat="62.630987003597" lon="17.970025231227">
        <ele>74.2</ele>
        <time>2017-11-27T18:55:24Z</time>
      </trkpt>
      <trkpt lat="62.630992116556" lon="17.970008635065">
        <ele>74.2</ele>
        <time>2017-11-27T18:55:25Z</time>
      </trkpt>
      <trkpt lat="62.630998654438" lon="17.970012490739">
        <ele>74</ele>
        <time>2017-11-27T18:55:26Z</time>
      </trkpt>
      <trkpt lat="62.631003180664" lon="17.97002414158">
        <ele>74</ele>
        <time>2017-11-27T18:55:27Z</time>
      </trkpt>
      <trkpt lat="62.630999073533" lon="17.970032104385">
        <ele>74</ele>
        <time>2017-11-27T18:55:28Z</time>
      </trkpt>
      <trkpt lat="62.630994044393" lon="17.970019699173">
        <ele>74</ele>
        <time>2017-11-27T18:55:29Z</time>
      </trkpt>
      <trkpt lat="62.63114265548" lon="17.970012155463">
        <ele>74.2</ele>
        <time>2017-11-27T18:56:02Z</time>
      </trkpt>
      <trkpt lat="62.631165621886" lon="17.97000402502">
        <ele>74.2</ele>
        <time>2017-11-27T18:56:03Z</time>
      </trkpt>
      <trkpt lat="62.631184816437" lon="17.969983824641">
        <ele>74</ele>
        <time>2017-11-27T18:56:04Z</time>
      </trkpt>
      <trkpt lat="62.631205938825" lon="17.969966055013">
        <ele>74</ele>
        <time>2017-11-27T18:56:05Z</time>
      </trkpt>
      <trkpt lat="62.631231168344" lon="17.969947195738">
        <ele>73.8</ele>
        <time>2017-11-27T18:56:06Z</time>
      </trkpt>
      <trkpt lat="62.63125162018" lon="17.969931605404">
        <ele>73.8</ele>
        <time>2017-11-27T18:56:07Z</time>
      </trkpt>
      <trkpt lat="62.63127257493" lon="17.969917272355">
        <ele>73.8</ele>
        <time>2017-11-27T18:56:08Z</time>
      </trkpt>
      <trkpt lat="62.631293697318" lon="17.9699051186">
        <ele>73.6</ele>
        <time>2017-11-27T18:56:09Z</time>
      </trkpt>
      <trkpt lat="62.631310544937" lon="17.969889025352">
        <ele>73.8</ele>
        <time>2017-11-27T18:56:10Z</time>
      </trkpt>
      <trkpt lat="62.63133543918" lon="17.969876117226">
        <ele>73.6</ele>
        <time>2017-11-27T18:56:11Z</time>
      </trkpt>
      <trkpt lat="62.631355974835" lon="17.969864214928">
        <ele>73.6</ele>
        <time>2017-11-27T18:56:12Z</time>
      </trkpt>
      <trkpt lat="62.631374582653" lon="17.96985398901">
        <ele>73.6</ele>
        <time>2017-11-27T18:56:13Z</time>
      </trkpt>
      <trkpt lat="62.631396459412" lon="17.969836973753">
        <ele>73.6</ele>
        <time>2017-11-27T18:56:14Z</time>
      </trkpt>
      <trkpt lat="62.63142009637" lon="17.96982549055">
        <ele>73.6</ele>
        <time>2017-11-27T18:56:15Z</time>
      </trkpt>
      <trkpt lat="62.631440045292" lon="17.969814426442">
        <ele>73.6</ele>
        <time>2017-11-27T18:56:16Z</time>
      </trkpt>
      <trkpt lat="62.631462508784" lon="17.969809481121">
        <ele>73.6</ele>
        <time>2017-11-27T18:56:17Z</time>
      </trkpt>
      <trkpt lat="62.631487570665" lon="17.969798836108">
        <ele>73.6</ele>
        <time>2017-11-27T18:56:18Z</time>
      </trkpt>
      <trkpt lat="62.631503580094" lon="17.969790202751">
        <ele>73.6</ele>
        <time>2017-11-27T18:56:19Z</time>
      </trkpt>
      <trkpt lat="62.631527971423" lon="17.96978190467">
        <ele>73.6</ele>
        <time>2017-11-27T18:56:20Z</time>
      </trkpt>
      <trkpt lat="62.631549848182" lon="17.969774863874">
        <ele>73.6</ele>
        <time>2017-11-27T18:56:21Z</time>
      </trkpt>
      <trkpt lat="62.631569797104" lon="17.969757429522">
        <ele>73.6</ele>
        <time>2017-11-27T18:56:22Z</time>
      </trkpt>
      <trkpt lat="62.631589159293" lon="17.969739073161">
        <ele>73.6</ele>
        <time>2017-11-27T18:56:23Z</time>
      </trkpt>
      <trkpt lat="62.631609359672" lon="17.969724153379">
        <ele>73.6</ele>
        <time>2017-11-27T18:56:24Z</time>
      </trkpt>
      <trkpt lat="62.631623273626" lon="17.969711329072">
        <ele>73.6</ele>
        <time>2017-11-27T18:56:25Z</time>
      </trkpt>
      <trkpt lat="62.631646826765" lon="17.969688362666">
        <ele>73.6</ele>
        <time>2017-11-27T18:56:26Z</time>
      </trkpt>
      <trkpt lat="62.631665769859" lon="17.969661708224">
        <ele>73.6</ele>
        <time>2017-11-27T18:56:27Z</time>
      </trkpt>
      <trkpt lat="62.631684461496" lon="17.969638322723">
        <ele>73.4</ele>
        <time>2017-11-27T18:56:28Z</time>
      </trkpt>
      <trkpt lat="62.631699632735" lon="17.969615691593">
        <ele>73.4</ele>
        <time>2017-11-27T18:56:29Z</time>
      </trkpt>
      <trkpt lat="62.631710696843" lon="17.969580655251">
        <ele>73.2</ele>
        <time>2017-11-27T18:56:30Z</time>
      </trkpt>
      <trkpt lat="62.631719749295" lon="17.969539332484">
        <ele>73</ele>
        <time>2017-11-27T18:56:31Z</time>
      </trkpt>
      <trkpt lat="62.631718659648" lon="17.969501781572">
        <ele>72.8</ele>
        <time>2017-11-27T18:56:32Z</time>
      </trkpt>
      <trkpt lat="62.631714217241" lon="17.969456435493">
        <ele>72.6</ele>
        <time>2017-11-27T18:56:33Z</time>
      </trkpt>
      <trkpt lat="62.631706254436" lon="17.969425003368">
        <ele>72.6</ele>
        <time>2017-11-27T18:56:34Z</time>
      </trkpt>
      <trkpt lat="62.631700303287" lon="17.969388961198">
        <ele>72.4</ele>
        <time>2017-11-27T18:56:35Z</time>
      </trkpt>
      <trkpt lat="62.631690999378" lon="17.969341687282">
        <ele>72.2</ele>
        <time>2017-11-27T18:56:36Z</time>
      </trkpt>
      <trkpt lat="62.631677588338" lon="17.969293156081">
        <ele>72.2</ele>
        <time>2017-11-27T18:56:37Z</time>
      </trkpt>
      <trkpt lat="62.631672307741" lon="17.96924462488">
        <ele>72</ele>
        <time>2017-11-27T18:56:38Z</time>
      </trkpt>
      <trkpt lat="62.63166400966" lon="17.969203385932">
        <ele>71.8</ele>
        <time>2017-11-27T18:56:39Z</time>
      </trkpt>
      <trkpt lat="62.631659651072" lon="17.969168265771">
        <ele>71.6</ele>
        <time>2017-11-27T18:56:40Z</time>
      </trkpt>
      <trkpt lat="62.631651269172" lon="17.969119147837">
        <ele>71.6</ele>
        <time>2017-11-27T18:56:41Z</time>
      </trkpt>
      <trkpt lat="62.631641881444" lon="17.96907614869">
        <ele>71.4</ele>
        <time>2017-11-27T18:56:42Z</time>
      </trkpt>
      <trkpt lat="62.631632493716" lon="17.96903843014">
        <ele>71.2</ele>
        <time>2017-11-27T18:56:43Z</time>
      </trkpt>
      <trkpt lat="62.6316271293" lon="17.968987887283">
        <ele>71</ele>
        <time>2017-11-27T18:56:44Z</time>
      </trkpt>
      <trkpt lat="62.631623273626" lon="17.968944804317">
        <ele>70.8</ele>
        <time>2017-11-27T18:56:45Z</time>
      </trkpt>
      <trkpt lat="62.631618495943" lon="17.968899542057">
        <ele>70.6</ele>
        <time>2017-11-27T18:56:46Z</time>
      </trkpt>
      <trkpt lat="62.631617406296" lon="17.968848077191">
        <ele>70.6</ele>
        <time>2017-11-27T18:56:47Z</time>
      </trkpt>
      <trkpt lat="62.63161623283" lon="17.968800551818">
        <ele>70.4</ele>
        <time>2017-11-27T18:56:48Z</time>
      </trkpt>
      <trkpt lat="62.631618244486" lon="17.96875847468">
        <ele>70.2</ele>
        <time>2017-11-27T18:56:49Z</time>
      </trkpt>
      <trkpt lat="62.631623357445" lon="17.968710614031">
        <ele>70.2</ele>
        <time>2017-11-27T18:56:50Z</time>
      </trkpt>
      <trkpt lat="62.631631152612" lon="17.968659652079">
        <ele>70</ele>
        <time>2017-11-27T18:56:51Z</time>
      </trkpt>
      <trkpt lat="62.631638780141" lon="17.968618329312">
        <ele>69.6</ele>
        <time>2017-11-27T18:56:52Z</time>
      </trkpt>
      <trkpt lat="62.63164808405" lon="17.968562002944">
        <ele>69.4</ele>
        <time>2017-11-27T18:56:53Z</time>
      </trkpt>
      <trkpt lat="62.631657555597" lon="17.968513387924">
        <ele>69.2</ele>
        <time>2017-11-27T18:56:54Z</time>
      </trkpt>
      <trkpt lat="62.631665518402" lon="17.968468544759">
        <ele>68.8</ele>
        <time>2017-11-27T18:56:55Z</time>
      </trkpt>
      <trkpt lat="62.631672894474" lon="17.968423785413">
        <ele>68.8</ele>
        <time>2017-11-27T18:56:56Z</time>
      </trkpt>
      <trkpt lat="62.631679767632" lon="17.968375254212">
        <ele>68.6</ele>
        <time>2017-11-27T18:56:57Z</time>
      </trkpt>
      <trkpt lat="62.631690664102" lon="17.968334685816">
        <ele>68.4</ele>
        <time>2017-11-27T18:56:58Z</time>
      </trkpt>
      <trkpt lat="62.631704158961" lon="17.968292943954">
        <ele>68.2</ele>
        <time>2017-11-27T18:56:59Z</time>
      </trkpt>
      <trkpt lat="62.631717067087" lon="17.968256482689">
        <ele>68</ele>
        <time>2017-11-27T18:57:00Z</time>
      </trkpt>
      <trkpt lat="62.63173190305" lon="17.96822287127">
        <ele>67.8</ele>
        <time>2017-11-27T18:57:01Z</time>
      </trkpt>
      <trkpt lat="62.631743553891" lon="17.968177525191">
        <ele>67.4</ele>
        <time>2017-11-27T18:57:02Z</time>
      </trkpt>
      <trkpt lat="62.631756545836" lon="17.968137543528">
        <ele>67.4</ele>
        <time>2017-11-27T18:57:03Z</time>
      </trkpt>
      <trkpt lat="62.631770208333" lon="17.968099070607">
        <ele>67</ele>
        <time>2017-11-27T18:57:04Z</time>
      </trkpt>
      <trkpt lat="62.63178051807" lon="17.968065710645">
        <ele>67</ele>
        <time>2017-11-27T18:57:05Z</time>
      </trkpt>
      <trkpt lat="62.631792839463" lon="17.968013072313">
        <ele>66.8</ele>
        <time>2017-11-27T18:57:06Z</time>
      </trkpt>
      <trkpt lat="62.631808429797" lon="17.967979041799">
        <ele>66.6</ele>
        <time>2017-11-27T18:57:07Z</time>
      </trkpt>
      <trkpt lat="62.631824020131" lon="17.967939227774">
        <ele>66.4</ele>
        <time>2017-11-27T18:57:08Z</time>
      </trkpt>
      <trkpt lat="62.631834832782" lon="17.967904861984">
        <ele>66.4</ele>
        <time>2017-11-27T18:57:09Z</time>
      </trkpt>
      <trkpt lat="62.63184673508" lon="17.967867227253">
        <ele>66.2</ele>
        <time>2017-11-27T18:57:10Z</time>
      </trkpt>
      <trkpt lat="62.631859810844" lon="17.967819953337">
        <ele>66</ele>
        <time>2017-11-27T18:57:11Z</time>
      </trkpt>
      <trkpt lat="62.631874814445" lon="17.967776618914">
        <ele>65.8</ele>
        <time>2017-11-27T18:57:12Z</time>
      </trkpt>
      <trkpt lat="62.631885710915" lon="17.967734793233">
        <ele>65.6</ele>
        <time>2017-11-27T18:57:13Z</time>
      </trkpt>
      <trkpt lat="62.63189954105" lon="17.967700511262">
        <ele>65.4</ele>
        <time>2017-11-27T18:57:14Z</time>
      </trkpt>
      <trkpt lat="62.631911359529" lon="17.96765541664">
        <ele>65.2</ele>
        <time>2017-11-27T18:57:15Z</time>
      </trkpt>
      <trkpt lat="62.631922255999" lon="17.96761099257">
        <ele>64.8</ele>
        <time>2017-11-27T18:57:16Z</time>
      </trkpt>
      <trkpt lat="62.631940025627" lon="17.967565814129">
        <ele>64.4</ele>
        <time>2017-11-27T18:57:17Z</time>
      </trkpt>
      <trkpt lat="62.631955867418" lon="17.967523066439">
        <ele>64.4</ele>
        <time>2017-11-27T18:57:18Z</time>
      </trkpt>
      <trkpt lat="62.631966009517" lon="17.967487694821">
        <ele>64</ele>
        <time>2017-11-27T18:57:19Z</time>
      </trkpt>
      <trkpt lat="62.63197833091" lon="17.967446204416">
        <ele>64</ele>
        <time>2017-11-27T18:57:20Z</time>
      </trkpt>
      <trkpt lat="62.631993669787" lon="17.967397757034">
        <ele>63.8</ele>
        <time>2017-11-27T18:57:21Z</time>
      </trkpt>
      <trkpt lat="62.632006997008" lon="17.967361463407">
        <ele>63.6</ele>
        <time>2017-11-27T18:57:22Z</time>
      </trkpt>
      <trkpt lat="62.632015965641" lon="17.967316033509">
        <ele>63.4</ele>
        <time>2017-11-27T18:57:23Z</time>
      </trkpt>
      <trkpt lat="62.632029209043" lon="17.967267418489">
        <ele>63.4</ele>
        <time>2017-11-27T18:57:24Z</time>
      </trkpt>
      <trkpt lat="62.632041530436" lon="17.967226598636">
        <ele>63.2</ele>
        <time>2017-11-27T18:57:25Z</time>
      </trkpt>
      <trkpt lat="62.632054857657" lon="17.967179827634">
        <ele>63</ele>
        <time>2017-11-27T18:57:26Z</time>
      </trkpt>
      <trkpt lat="62.632066508498" lon="17.967136074116">
        <ele>62.8</ele>
        <time>2017-11-27T18:57:27Z</time>
      </trkpt>
      <trkpt lat="62.632077069692" lon="17.967090141304">
        <ele>62.6</ele>
        <time>2017-11-27T18:57:28Z</time>
      </trkpt>
      <trkpt lat="62.632088049981" lon="17.967055691695">
        <ele>62.4</ele>
        <time>2017-11-27T18:57:29Z</time>
      </trkpt>
      <trkpt lat="62.632096599519" lon="17.966999030051">
        <ele>62.2</ele>
        <time>2017-11-27T18:57:30Z</time>
      </trkpt>
      <trkpt lat="62.632104562324" lon="17.966953683972">
        <ele>62.2</ele>
        <time>2017-11-27T18:57:31Z</time>
      </trkpt>
      <trkpt lat="62.632114033871" lon="17.966904566038">
        <ele>62</ele>
        <time>2017-11-27T18:57:32Z</time>
      </trkpt>
      <trkpt lat="62.632121577581" lon="17.966857878855">
        <ele>61.8</ele>
        <time>2017-11-27T18:57:33Z</time>
      </trkpt>
      <trkpt lat="62.632127864006" lon="17.966809766749">
        <ele>61.6</ele>
        <time>2017-11-27T18:57:34Z</time>
      </trkpt>
      <trkpt lat="62.632132306413" lon="17.966754530028">
        <ele>61.4</ele>
        <time>2017-11-27T18:57:35Z</time>
      </trkpt>
      <trkpt lat="62.632137754648" lon="17.966703651895">
        <ele>61.2</ele>
        <time>2017-11-27T18:57:36Z</time>
      </trkpt>
      <trkpt lat="62.632143789616" lon="17.966654533961">
        <ele>61</ele>
        <time>2017-11-27T18:57:37Z</time>
      </trkpt>
      <trkpt lat="62.632145633634" lon="17.966607595321">
        <ele>60.8</ele>
        <time>2017-11-27T18:57:38Z</time>
      </trkpt>
      <trkpt lat="62.632147310014" lon="17.966559650853">
        <ele>60.6</ele>
        <time>2017-11-27T18:57:39Z</time>
      </trkpt>
      <trkpt lat="62.632155608095" lon="17.966505671417">
        <ele>60.2</ele>
        <time>2017-11-27T18:57:40Z</time>
      </trkpt>
      <trkpt lat="62.632160301959" lon="17.966451356705">
        <ele>60</ele>
        <time>2017-11-27T18:57:41Z</time>
      </trkpt>
      <trkpt lat="62.632171030791" lon="17.966393018681">
        <ele>59.6</ele>
        <time>2017-11-27T18:57:42Z</time>
      </trkpt>
      <trkpt lat="62.632181843442" lon="17.966339709797">
        <ele>59.6</ele>
        <time>2017-11-27T18:57:43Z</time>
      </trkpt>
      <trkpt lat="62.632195925034" lon="17.966299476677">
        <ele>59.2</ele>
        <time>2017-11-27T18:57:44Z</time>
      </trkpt>
      <trkpt lat="62.632218639983" lon="17.966268547466">
        <ele>59.2</ele>
        <time>2017-11-27T18:57:45Z</time>
      </trkpt>
      <trkpt lat="62.632238672724" lon="17.966237785893">
        <ele>59</ele>
        <time>2017-11-27T18:57:46Z</time>
      </trkpt>
      <trkpt lat="62.632261052397" lon="17.966216663505">
        <ele>58.8</ele>
        <time>2017-11-27T18:57:47Z</time>
      </trkpt>
      <trkpt lat="62.632282845337" lon="17.966206018492">
        <ele>58.8</ele>
        <time>2017-11-27T18:57:48Z</time>
      </trkpt>
      <trkpt lat="62.632307571942" lon="17.966199312972">
        <ele>58.8</ele>
        <time>2017-11-27T18:57:49Z</time>
      </trkpt>
      <trkpt lat="62.632331795633" lon="17.966193194185">
        <ele>58.6</ele>
        <time>2017-11-27T18:57:50Z</time>
      </trkpt>
      <trkpt lat="62.63235970736" lon="17.966196379307">
        <ele>58.8</ele>
        <time>2017-11-27T18:57:51Z</time>
      </trkpt>
      <trkpt lat="62.632384266327" lon="17.966196882221">
        <ele>58.8</ele>
        <time>2017-11-27T18:57:52Z</time>
      </trkpt>
      <trkpt lat="62.632406059267" lon="17.966200737895">
        <ele>58.8</ele>
        <time>2017-11-27T18:57:53Z</time>
      </trkpt>
      <trkpt lat="62.6324317917" lon="17.966207694872">
        <ele>58.8</ele>
        <time>2017-11-27T18:57:54Z</time>
      </trkpt>
      <trkpt lat="62.632457272676" lon="17.966209119795">
        <ele>59</ele>
        <time>2017-11-27T18:57:55Z</time>
      </trkpt>
      <trkpt lat="62.632481999281" lon="17.966208113967">
        <ele>59</ele>
        <time>2017-11-27T18:57:56Z</time>
      </trkpt>
      <trkpt lat="62.632504546592" lon="17.966210628537">
        <ele>59</ele>
        <time>2017-11-27T18:57:57Z</time>
      </trkpt>
      <trkpt lat="62.632529189378" lon="17.966215573858">
        <ele>59.2</ele>
        <time>2017-11-27T18:57:58Z</time>
      </trkpt>
      <trkpt lat="62.632547545739" lon="17.966217334057">
        <ele>59.4</ele>
        <time>2017-11-27T18:57:59Z</time>
      </trkpt>
      <trkpt lat="62.632573194353" lon="17.966227895251">
        <ele>59.4</ele>
        <time>2017-11-27T18:58:00Z</time>
      </trkpt>
      <trkpt lat="62.632600770804" lon="17.966222363197">
        <ele>59.6</ele>
        <time>2017-11-27T18:58:01Z</time>
      </trkpt>
      <trkpt lat="62.632627341427" lon="17.966225715957">
        <ele>59.8</ele>
        <time>2017-11-27T18:58:02Z</time>
      </trkpt>
      <trkpt lat="62.632652151851" lon="17.966229571631">
        <ele>59.8</ele>
        <time>2017-11-27T18:58:03Z</time>
      </trkpt>
      <trkpt lat="62.632672771325" lon="17.966226973242">
        <ele>59.8</ele>
        <time>2017-11-27T18:58:04Z</time>
      </trkpt>
      <trkpt lat="62.632699593405" lon="17.966226135052">
        <ele>59.8</ele>
        <time>2017-11-27T18:58:05Z</time>
      </trkpt>
      <trkpt lat="62.632723817096" lon="17.966229152536">
        <ele>59.8</ele>
        <time>2017-11-27T18:58:06Z</time>
      </trkpt>
      <trkpt lat="62.632747286416" lon="17.966225883595">
        <ele>59.8</ele>
        <time>2017-11-27T18:58:07Z</time>
      </trkpt>
      <trkpt lat="62.632771593926" lon="17.966223369025">
        <ele>60</ele>
        <time>2017-11-27T18:58:08Z</time>
      </trkpt>
      <trkpt lat="62.632795733798" lon="17.966220519179">
        <ele>60.2</ele>
        <time>2017-11-27T18:58:09Z</time>
      </trkpt>
      <trkpt lat="62.63281484453" lon="17.966220938274">
        <ele>60.2</ele>
        <time>2017-11-27T18:58:10Z</time>
      </trkpt>
      <trkpt lat="62.632841750429" lon="17.966223871939">
        <ele>60.2</ele>
        <time>2017-11-27T18:58:11Z</time>
      </trkpt>
      <trkpt lat="62.632866896129" lon="17.966222614654">
        <ele>60.2</ele>
        <time>2017-11-27T18:58:12Z</time>
      </trkpt>
      <trkpt lat="62.632891036001" lon="17.966221441188">
        <ele>60.4</ele>
        <time>2017-11-27T18:58:13Z</time>
      </trkpt>
      <trkpt lat="62.63291542733" lon="17.966223871939">
        <ele>60.4</ele>
        <time>2017-11-27T18:58:14Z</time>
      </trkpt>
      <trkpt lat="62.632938812831" lon="17.966220770636">
        <ele>60.4</ele>
        <time>2017-11-27T18:58:15Z</time>
      </trkpt>
      <trkpt lat="62.632961946875" lon="17.966213562202">
        <ele>60.6</ele>
        <time>2017-11-27T18:58:16Z</time>
      </trkpt>
      <trkpt lat="62.632991367344" lon="17.966207108139">
        <ele>60.6</ele>
        <time>2017-11-27T18:58:17Z</time>
      </trkpt>
      <trkpt lat="62.633016177768" lon="17.966200067343">
        <ele>60.8</ele>
        <time>2017-11-27T18:58:18Z</time>
      </trkpt>
      <trkpt lat="62.633038725079" lon="17.966206269949">
        <ele>60.8</ele>
        <time>2017-11-27T18:58:19Z</time>
      </trkpt>
      <trkpt lat="62.633064792788" lon="17.96620702432">
        <ele>61</ele>
        <time>2017-11-27T18:58:20Z</time>
      </trkpt>
      <trkpt lat="62.633086669547" lon="17.966204090655">
        <ele>61</ele>
        <time>2017-11-27T18:58:21Z</time>
      </trkpt>
      <trkpt lat="62.633111815247" lon="17.966207443415">
        <ele>61</ele>
        <time>2017-11-27T18:58:22Z</time>
      </trkpt>
      <trkpt lat="62.633132099445" lon="17.966202749551">
        <ele>61.2</ele>
        <time>2017-11-27T18:58:23Z</time>
      </trkpt>
      <trkpt lat="62.633157496602" lon="17.966199396791">
        <ele>61.2</ele>
        <time>2017-11-27T18:58:24Z</time>
      </trkpt>
      <trkpt lat="62.633185995062" lon="17.966198558601">
        <ele>61.2</ele>
        <time>2017-11-27T18:58:25Z</time>
      </trkpt>
      <trkpt lat="62.633209296744" lon="17.966194535289">
        <ele>61.4</ele>
        <time>2017-11-27T18:58:26Z</time>
      </trkpt>
      <trkpt lat="62.633231676417" lon="17.966193194185">
        <ele>61.4</ele>
        <time>2017-11-27T18:58:27Z</time>
      </trkpt>
      <trkpt lat="62.633257827945" lon="17.966193194185">
        <ele>61.4</ele>
        <time>2017-11-27T18:58:28Z</time>
      </trkpt>
      <trkpt lat="62.633267886225" lon="17.966186991579">
        <ele>61.4</ele>
        <time>2017-11-27T18:58:29Z</time>
      </trkpt>
      <trkpt lat="62.633305856232" lon="17.96616930577">
        <ele>61.6</ele>
        <time>2017-11-27T18:58:30Z</time>
      </trkpt>
      <trkpt lat="62.633330666656" lon="17.966166288286">
        <ele>61.8</ele>
        <time>2017-11-27T18:58:31Z</time>
      </trkpt>
      <trkpt lat="62.633353549243" lon="17.966159750404">
        <ele>61.8</ele>
        <time>2017-11-27T18:58:32Z</time>
      </trkpt>
      <trkpt lat="62.633379197857" lon="17.966156984377">
        <ele>62</ele>
        <time>2017-11-27T18:58:33Z</time>
      </trkpt>
      <trkpt lat="62.633403673005" lon="17.966156816739">
        <ele>62</ele>
        <time>2017-11-27T18:58:34Z</time>
      </trkpt>
      <trkpt lat="62.633423621927" lon="17.966152793427">
        <ele>61.8</ele>
        <time>2017-11-27T18:58:35Z</time>
      </trkpt>
      <trkpt lat="62.633453377672" lon="17.966153212522">
        <ele>61.8</ele>
        <time>2017-11-27T18:58:36Z</time>
      </trkpt>
      <trkpt lat="62.633474080965" lon="17.966152458151">
        <ele>62</ele>
        <time>2017-11-27T18:58:37Z</time>
      </trkpt>
      <trkpt lat="62.633498220837" lon="17.966149356848">
        <ele>62</ele>
        <time>2017-11-27T18:58:38Z</time>
      </trkpt>
      <trkpt lat="62.633520265234" lon="17.966156565282">
        <ele>62</ele>
        <time>2017-11-27T18:58:39Z</time>
      </trkpt>
      <trkpt lat="62.633541890536" lon="17.96615589473">
        <ele>62</ele>
        <time>2017-11-27T18:58:40Z</time>
      </trkpt>
      <trkpt lat="62.633564437847" lon="17.966156816739">
        <ele>62</ele>
        <time>2017-11-27T18:58:41Z</time>
      </trkpt>
      <trkpt lat="62.633595115601" lon="17.966162097336">
        <ele>62.2</ele>
        <time>2017-11-27T18:58:42Z</time>
      </trkpt>
      <trkpt lat="62.633620931853" lon="17.966159834223">
        <ele>62</ele>
        <time>2017-11-27T18:58:43Z</time>
      </trkpt>
      <trkpt lat="62.633645993734" lon="17.966155810911">
        <ele>62</ele>
        <time>2017-11-27T18:58:44Z</time>
      </trkpt>
      <trkpt lat="62.633669463054" lon="17.966144076251">
        <ele>62.2</ele>
        <time>2017-11-27T18:58:45Z</time>
      </trkpt>
      <trkpt lat="62.633691339813" lon="17.966135526713">
        <ele>62.2</ele>
        <time>2017-11-27T18:58:46Z</time>
      </trkpt>
      <trkpt lat="62.633713468029" lon="17.966112392669">
        <ele>62.2</ele>
        <time>2017-11-27T18:58:47Z</time>
      </trkpt>
      <trkpt lat="62.633734422779" lon="17.966081463458">
        <ele>62.2</ele>
        <time>2017-11-27T18:58:48Z</time>
      </trkpt>
      <trkpt lat="62.633752360045" lon="17.966051288618">
        <ele>62.2</ele>
        <time>2017-11-27T18:58:49Z</time>
      </trkpt>
      <trkpt lat="62.633768034198" lon="17.966002003046">
        <ele>62.2</ele>
        <time>2017-11-27T18:58:50Z</time>
      </trkpt>
      <trkpt lat="62.633781445238" lon="17.965955148225">
        <ele>62.2</ele>
        <time>2017-11-27T18:58:51Z</time>
      </trkpt>
      <trkpt lat="62.633790581509" lon="17.965913322544">
        <ele>62</ele>
        <time>2017-11-27T18:58:52Z</time>
      </trkpt>
      <trkpt lat="62.633801645617" lon="17.965865545714">
        <ele>62</ele>
        <time>2017-11-27T18:58:53Z</time>
      </trkpt>
      <trkpt lat="62.633811703897" lon="17.965810811907">
        <ele>61.8</ele>
        <time>2017-11-27T18:58:54Z</time>
      </trkpt>
      <trkpt lat="62.633817235951" lon="17.965769656778">
        <ele>61.6</ele>
        <time>2017-11-27T18:58:55Z</time>
      </trkpt>
      <trkpt lat="62.633821594539" lon="17.965712743677">
        <ele>61.6</ele>
        <time>2017-11-27T18:58:56Z</time>
      </trkpt>
      <trkpt lat="62.633825282575" lon="17.965661781725">
        <ele>61.4</ele>
        <time>2017-11-27T18:58:57Z</time>
      </trkpt>
      <trkpt lat="62.633826875136" lon="17.965606125909">
        <ele>61.4</ele>
        <time>2017-11-27T18:58:58Z</time>
      </trkpt>
      <trkpt lat="62.633827629507" lon="17.965561534201">
        <ele>61.4</ele>
        <time>2017-11-27T18:58:59Z</time>
      </trkpt>
      <trkpt lat="62.63382067253" lon="17.96550043015">
        <ele>61.2</ele>
        <time>2017-11-27T18:59:00Z</time>
      </trkpt>
      <trkpt lat="62.633817906503" lon="17.965443517049">
        <ele>61.2</ele>
        <time>2017-11-27T18:59:01Z</time>
      </trkpt>
      <trkpt lat="62.633810949526" lon="17.965395321124">
        <ele>60.8</ele>
        <time>2017-11-27T18:59:02Z</time>
      </trkpt>
      <trkpt lat="62.633804663101" lon="17.965339581489">
        <ele>60.8</ele>
        <time>2017-11-27T18:59:03Z</time>
      </trkpt>
      <trkpt lat="62.633801477979" lon="17.96528250075">
        <ele>60.6</ele>
        <time>2017-11-27T18:59:04Z</time>
      </trkpt>
      <trkpt lat="62.633797370848" lon="17.965240004517">
        <ele>60.2</ele>
        <time>2017-11-27T18:59:05Z</time>
      </trkpt>
      <trkpt lat="62.633794940097" lon="17.965175966801">
        <ele>60</ele>
        <time>2017-11-27T18:59:06Z</time>
      </trkpt>
      <trkpt lat="62.633795443011" lon="17.965117293501">
        <ele>59.8</ele>
        <time>2017-11-27T18:59:07Z</time>
      </trkpt>
      <trkpt lat="62.633789408043" lon="17.965070019585">
        <ele>59.6</ele>
        <time>2017-11-27T18:59:08Z</time>
      </trkpt>
      <trkpt lat="62.633786222921" lon="17.965009586086">
        <ele>59.4</ele>
        <time>2017-11-27T18:59:09Z</time>
      </trkpt>
      <trkpt lat="62.633791168242" lon="17.964954265546">
        <ele>59.2</ele>
        <time>2017-11-27T18:59:10Z</time>
      </trkpt>
      <trkpt lat="62.633796951753" lon="17.964909338562">
        <ele>59</ele>
        <time>2017-11-27T18:59:11Z</time>
      </trkpt>
      <trkpt lat="62.633818409417" lon="17.964840858439">
        <ele>58.8</ele>
        <time>2017-11-27T18:59:12Z</time>
      </trkpt>
      <trkpt lat="62.633845902049" lon="17.964813868721">
        <ele>58.6</ele>
        <time>2017-11-27T18:59:13Z</time>
      </trkpt>
      <trkpt lat="62.633869790464" lon="17.964785118804">
        <ele>58.2</ele>
        <time>2017-11-27T18:59:14Z</time>
      </trkpt>
      <trkpt lat="62.633900635856" lon="17.964782352777">
        <ele>58</ele>
        <time>2017-11-27T18:59:15Z</time>
      </trkpt>
      <trkpt lat="62.633928044669" lon="17.964778413284">
        <ele>58</ele>
        <time>2017-11-27T18:59:16Z</time>
      </trkpt>
      <trkpt lat="62.633964422115" lon="17.964785705537">
        <ele>57.8</ele>
        <time>2017-11-27T18:59:17Z</time>
      </trkpt>
      <trkpt lat="62.63399501605" lon="17.964793249247">
        <ele>57.6</ele>
        <time>2017-11-27T18:59:18Z</time>
      </trkpt>
      <trkpt lat="62.634022927777" lon="17.964802636975">
        <ele>57.4</ele>
        <time>2017-11-27T18:59:19Z</time>
      </trkpt>
      <trkpt lat="62.634048995486" lon="17.964800038586">
        <ele>57.4</ele>
        <time>2017-11-27T18:59:20Z</time>
      </trkpt>
      <trkpt lat="62.634078918869" lon="17.964795679998">
        <ele>57.4</ele>
        <time>2017-11-27T18:59:21Z</time>
      </trkpt>
      <trkpt lat="62.634103561655" lon="17.964794757989">
        <ele>57.2</ele>
        <time>2017-11-27T18:59:22Z</time>
      </trkpt>
      <trkpt lat="62.634133652676" lon="17.964791405229">
        <ele>57.2</ele>
        <time>2017-11-27T18:59:23Z</time>
      </trkpt>
      <trkpt lat="62.634159133652" lon="17.964791489048">
        <ele>57.2</ele>
        <time>2017-11-27T18:59:24Z</time>
      </trkpt>
      <trkpt lat="62.634181848601" lon="17.964792662514">
        <ele>57.2</ele>
        <time>2017-11-27T18:59:25Z</time>
      </trkpt>
      <trkpt lat="62.634215962934" lon="17.964794338894">
        <ele>57.2</ele>
        <time>2017-11-27T18:59:26Z</time>
      </trkpt>
      <trkpt lat="62.634243455566" lon="17.964800373862">
        <ele>57.2</ele>
        <time>2017-11-27T18:59:27Z</time>
      </trkpt>
      <trkpt lat="62.634266757248" lon="17.964790147944">
        <ele>57</ele>
        <time>2017-11-27T18:59:28Z</time>
      </trkpt>
      <trkpt lat="62.634292908776" lon="17.964790399401">
        <ele>57</ele>
        <time>2017-11-27T18:59:29Z</time>
      </trkpt>
      <trkpt lat="62.634320988141" lon="17.96478629227">
        <ele>57</ele>
        <time>2017-11-27T18:59:30Z</time>
      </trkpt>
      <trkpt lat="62.634348145497" lon="17.964781849863">
        <ele>56.8</ele>
        <time>2017-11-27T18:59:31Z</time>
      </trkpt>
      <trkpt lat="62.634378739432" lon="17.96477874856">
        <ele>56.8</ele>
        <time>2017-11-27T18:59:32Z</time>
      </trkpt>
      <trkpt lat="62.634405393874" lon="17.964778580922">
        <ele>56.8</ele>
        <time>2017-11-27T18:59:33Z</time>
      </trkpt>
      <trkpt lat="62.63443003666" lon="17.964780173483">
        <ele>56.8</ele>
        <time>2017-11-27T18:59:34Z</time>
      </trkpt>
      <trkpt lat="62.63444847684" lon="17.964777491275">
        <ele>56.8</ele>
        <time>2017-11-27T18:59:35Z</time>
      </trkpt>
      <trkpt lat="62.634482507354" lon="17.964774641429">
        <ele>56.8</ele>
        <time>2017-11-27T18:59:36Z</time>
      </trkpt>
      <trkpt lat="62.634506982502" lon="17.96476282295">
        <ele>56.6</ele>
        <time>2017-11-27T18:59:37Z</time>
      </trkpt>
      <trkpt lat="62.634537408799" lon="17.964760811294">
        <ele>56.4</ele>
        <time>2017-11-27T18:59:38Z</time>
      </trkpt>
      <trkpt lat="62.634566410173" lon="17.964763577321">
        <ele>56.4</ele>
        <time>2017-11-27T18:59:39Z</time>
      </trkpt>
      <trkpt lat="62.634590047131" lon="17.964770953393">
        <ele>56.4</ele>
        <time>2017-11-27T18:59:40Z</time>
      </trkpt>
      <trkpt lat="62.634616450116" lon="17.964768522642">
        <ele>56.4</ele>
        <time>2017-11-27T18:59:41Z</time>
      </trkpt>
      <trkpt lat="62.634652073191" lon="17.964772713592">
        <ele>56.4</ele>
        <time>2017-11-27T18:59:42Z</time>
      </trkpt>
      <trkpt lat="62.634676045425" lon="17.964771707764">
        <ele>56.2</ele>
        <time>2017-11-27T18:59:43Z</time>
      </trkpt>
      <trkpt lat="62.634708483378" lon="17.96476366114">
        <ele>56.2</ele>
        <time>2017-11-27T18:59:44Z</time>
      </trkpt>
      <trkpt lat="62.634735724553" lon="17.964766259529">
        <ele>56.2</ele>
        <time>2017-11-27T18:59:45Z</time>
      </trkpt>
      <trkpt lat="62.634765480298" lon="17.964767935909">
        <ele>56.2</ele>
        <time>2017-11-27T18:59:46Z</time>
      </trkpt>
      <trkpt lat="62.634793224387" lon="17.964769193194">
        <ele>56</ele>
        <time>2017-11-27T18:59:47Z</time>
      </trkpt>
      <trkpt lat="62.634818789182" lon="17.964763996416">
        <ele>55.8</ele>
        <time>2017-11-27T18:59:48Z</time>
      </trkpt>
      <trkpt lat="62.634841504131" lon="17.964756704163">
        <ele>56</ele>
        <time>2017-11-27T18:59:49Z</time>
      </trkpt>
      <trkpt lat="62.634868493849" lon="17.964753519041">
        <ele>55.8</ele>
        <time>2017-11-27T18:59:50Z</time>
      </trkpt>
      <trkpt lat="62.634897327585" lon="17.96475108829">
        <ele>55.8</ele>
        <time>2017-11-27T18:59:51Z</time>
      </trkpt>
      <trkpt lat="62.634922305647" lon="17.964740778553">
        <ele>56</ele>
        <time>2017-11-27T18:59:52Z</time>
      </trkpt>
      <trkpt lat="62.634949043908" lon="17.964735581775">
        <ele>56</ele>
        <time>2017-11-27T18:59:53Z</time>
      </trkpt>
      <trkpt lat="62.634976955635" lon="17.964732564291">
        <ele>55.8</ele>
        <time>2017-11-27T18:59:54Z</time>
      </trkpt>
      <trkpt lat="62.634998245661" lon="17.96472258983">
        <ele>55.8</ele>
        <time>2017-11-27T18:59:55Z</time>
      </trkpt>
      <trkpt lat="62.635030599795" lon="17.964719488527">
        <ele>55.8</ele>
        <time>2017-11-27T18:59:56Z</time>
      </trkpt>
      <trkpt lat="62.635060020264" lon="17.964713118283">
        <ele>55.6</ele>
        <time>2017-11-27T18:59:57Z</time>
      </trkpt>
      <trkpt lat="62.635085752697" lon="17.964705993668">
        <ele>55.6</ele>
        <time>2017-11-27T18:59:58Z</time>
      </trkpt>
      <trkpt lat="62.63511148513" lon="17.964700210157">
        <ele>55.6</ele>
        <time>2017-11-27T18:59:59Z</time>
      </trkpt>
      <trkpt lat="62.635134451536" lon="17.964691828257">
        <ele>55.4</ele>
        <time>2017-11-27T19:00:00Z</time>
      </trkpt>
      <trkpt lat="62.635164374919" lon="17.964679590683">
        <ele>55.4</ele>
        <time>2017-11-27T19:00:01Z</time>
      </trkpt>
      <trkpt lat="62.635194633578" lon="17.964666850195">
        <ele>55.4</ele>
        <time>2017-11-27T19:00:02Z</time>
      </trkpt>
      <trkpt lat="62.635220868925" lon="17.964663245978">
        <ele>55.2</ele>
        <time>2017-11-27T19:00:03Z</time>
      </trkpt>
      <trkpt lat="62.635245846987" lon="17.96465385825">
        <ele>55.2</ele>
        <time>2017-11-27T19:00:04Z</time>
      </trkpt>
      <trkpt lat="62.63526906485" lon="17.964643045599">
        <ele>55.2</ele>
        <time>2017-11-27T19:00:05Z</time>
      </trkpt>
      <trkpt lat="62.635296892758" lon="17.964628377274">
        <ele>55</ele>
        <time>2017-11-27T19:00:06Z</time>
      </trkpt>
      <trkpt lat="62.635325139761" lon="17.96461697789">
        <ele>54.8</ele>
        <time>2017-11-27T19:00:07Z</time>
      </trkpt>
      <trkpt lat="62.635351878022" lon="17.96460943418">
        <ele>54.8</ele>
        <time>2017-11-27T19:00:08Z</time>
      </trkpt>
      <trkpt lat="62.635375766437" lon="17.964600046452">
        <ele>54.6</ele>
        <time>2017-11-27T19:00:09Z</time>
      </trkpt>
      <trkpt lat="62.635400744499" lon="17.964592418923">
        <ele>54.6</ele>
        <time>2017-11-27T19:00:10Z</time>
      </trkpt>
      <trkpt lat="62.635425135828" lon="17.964583701747">
        <ele>54.6</ele>
        <time>2017-11-27T19:00:11Z</time>
      </trkpt>
      <trkpt lat="62.635454388659" lon="17.964566602671">
        <ele>54.6</ele>
        <time>2017-11-27T19:00:12Z</time>
      </trkpt>
      <trkpt lat="62.635477857979" lon="17.964557382581">
        <ele>54.6</ele>
        <time>2017-11-27T19:00:13Z</time>
      </trkpt>
      <trkpt lat="62.635501075842" lon="17.964543636265">
        <ele>54.6</ele>
        <time>2017-11-27T19:00:14Z</time>
      </trkpt>
      <trkpt lat="62.635523371696" lon="17.964529722311">
        <ele>54.6</ele>
        <time>2017-11-27T19:00:15Z</time>
      </trkpt>
      <trkpt lat="62.635551870156" lon="17.964515975995">
        <ele>54.4</ele>
        <time>2017-11-27T19:00:16Z</time>
      </trkpt>
      <trkpt lat="62.635577351132" lon="17.96449627853">
        <ele>54.4</ele>
        <time>2017-11-27T19:00:17Z</time>
      </trkpt>
      <trkpt lat="62.635602999746" lon="17.964478425083">
        <ele>54.4</ele>
        <time>2017-11-27T19:00:18Z</time>
      </trkpt>
      <trkpt lat="62.635626469066" lon="17.964463672939">
        <ele>54.2</ele>
        <time>2017-11-27T19:00:19Z</time>
      </trkpt>
      <trkpt lat="62.635650189843" lon="17.964450932451">
        <ele>54.2</ele>
        <time>2017-11-27T19:00:20Z</time>
      </trkpt>
      <trkpt lat="62.635672150421" lon="17.964438191963">
        <ele>54.2</ele>
        <time>2017-11-27T19:00:21Z</time>
      </trkpt>
      <trkpt lat="62.635696457931" lon="17.964422182534">
        <ele>54.2</ele>
        <time>2017-11-27T19:00:22Z</time>
      </trkpt>
      <trkpt lat="62.635719843432" lon="17.964407095114">
        <ele>54.2</ele>
        <time>2017-11-27T19:00:23Z</time>
      </trkpt>
      <trkpt lat="62.635747084607" lon="17.964383290518">
        <ele>54.2</ele>
        <time>2017-11-27T19:00:24Z</time>
      </trkpt>
      <trkpt lat="62.635768458452" lon="17.964356468438">
        <ele>54.2</ele>
        <time>2017-11-27T19:00:25Z</time>
      </trkpt>
      <trkpt lat="62.635794526161" lon="17.964342470665">
        <ele>54.2</ele>
        <time>2017-11-27T19:00:26Z</time>
      </trkpt>
      <trkpt lat="62.635820007137" lon="17.964313720748">
        <ele>54.2</ele>
        <time>2017-11-27T19:00:27Z</time>
      </trkpt>
      <trkpt lat="62.635847667407" lon="17.964284970831">
        <ele>54.2</ele>
        <time>2017-11-27T19:00:28Z</time>
      </trkpt>
      <trkpt lat="62.635873483659" lon="17.964275415465">
        <ele>54.2</ele>
        <time>2017-11-27T19:00:29Z</time>
      </trkpt>
      <trkpt lat="62.635894606047" lon="17.964258735484">
        <ele>54.2</ele>
        <time>2017-11-27T19:00:30Z</time>
      </trkpt>
      <trkpt lat="62.635924110335" lon="17.964233757422">
        <ele>54</ele>
        <time>2017-11-27T19:00:31Z</time>
      </trkpt>
      <trkpt lat="62.635950597139" lon="17.96421548488">
        <ele>54</ele>
        <time>2017-11-27T19:00:32Z</time>
      </trkpt>
      <trkpt lat="62.635972809174" lon="17.964198218166">
        <ele>54</ele>
        <time>2017-11-27T19:00:33Z</time>
      </trkpt>
      <trkpt lat="62.636001056177" lon="17.964169803525">
        <ele>53.8</ele>
        <time>2017-11-27T19:00:34Z</time>
      </trkpt>
      <trkpt lat="62.636027291524" lon="17.964146585662">
        <ele>53.8</ele>
        <time>2017-11-27T19:00:35Z</time>
      </trkpt>
      <trkpt lat="62.636027040067" lon="17.964144071092">
        <ele>53.8</ele>
        <time>2017-11-27T19:00:36Z</time>
      </trkpt>
      <trkpt lat="62.636062327866" lon="17.964107693646">
        <ele>53.8</ele>
        <time>2017-11-27T19:00:37Z</time>
      </trkpt>
      <trkpt lat="62.636093592353" lon="17.964068047259">
        <ele>53.6</ele>
        <time>2017-11-27T19:00:38Z</time>
      </trkpt>
      <trkpt lat="62.636119324786" lon="17.964039967894">
        <ele>53.6</ele>
        <time>2017-11-27T19:00:39Z</time>
      </trkpt>
      <trkpt lat="62.636141788278" lon="17.964017923497">
        <ele>53.6</ele>
        <time>2017-11-27T19:00:40Z</time>
      </trkpt>
      <trkpt lat="62.636160144639" lon="17.963989341218">
        <ele>53.6</ele>
        <time>2017-11-27T19:00:41Z</time>
      </trkpt>
      <trkpt lat="62.636184116873" lon="17.963956316532">
        <ele>53.4</ele>
        <time>2017-11-27T19:00:42Z</time>
      </trkpt>
      <trkpt lat="62.636213202066" lon="17.963930751737">
        <ele>53.4</ele>
        <time>2017-11-27T19:00:43Z</time>
      </trkpt>
      <trkpt lat="62.636235581739" lon="17.963896050671">
        <ele>53.4</ele>
        <time>2017-11-27T19:00:44Z</time>
      </trkpt>
      <trkpt lat="62.636253770462" lon="17.963869228591">
        <ele>53.2</ele>
        <time>2017-11-27T19:00:45Z</time>
      </trkpt>
      <trkpt lat="62.636282688017" lon="17.963835952448">
        <ele>53.2</ele>
        <time>2017-11-27T19:00:46Z</time>
      </trkpt>
      <trkpt lat="62.63630339131" lon="17.963808878911">
        <ele>53.2</ele>
        <time>2017-11-27T19:00:47Z</time>
      </trkpt>
      <trkpt lat="62.63632518425" lon="17.963782895021">
        <ele>53.2</ele>
        <time>2017-11-27T19:00:48Z</time>
      </trkpt>
      <trkpt lat="62.636349827036" lon="17.96374861305">
        <ele>53.2</ele>
        <time>2017-11-27T19:00:49Z</time>
      </trkpt>
      <trkpt lat="62.636365668827" lon="17.963725814282">
        <ele>53</ele>
        <time>2017-11-27T19:00:50Z</time>
      </trkpt>
      <trkpt lat="62.636387964681" lon="17.963700500944">
        <ele>53</ele>
        <time>2017-11-27T19:00:51Z</time>
      </trkpt>
      <trkpt lat="62.63641067963" lon="17.963657501797">
        <ele>52.8</ele>
        <time>2017-11-27T19:00:52Z</time>
      </trkpt>
      <trkpt lat="62.63642911981" lon="17.963636714685">
        <ele>52.8</ele>
        <time>2017-11-27T19:00:53Z</time>
      </trkpt>
      <trkpt lat="62.636450996569" lon="17.963616262849">
        <ele>52.8</ele>
        <time>2017-11-27T19:00:54Z</time>
      </trkpt>
      <trkpt lat="62.636473124785" lon="17.96360779713">
        <ele>52.6</ele>
        <time>2017-11-27T19:00:55Z</time>
      </trkpt>
      <trkpt lat="62.636495504458" lon="17.96360444437">
        <ele>52.6</ele>
        <time>2017-11-27T19:00:56Z</time>
      </trkpt>
      <trkpt lat="62.636518554683" lon="17.96361617903">
        <ele>52.6</ele>
        <time>2017-11-27T19:00:57Z</time>
      </trkpt>
      <trkpt lat="62.636545879677" lon="17.963650796277">
        <ele>52.6</ele>
        <time>2017-11-27T19:00:58Z</time>
      </trkpt>
      <trkpt lat="62.636557698156" lon="17.963700165668">
        <ele>52.6</ele>
        <time>2017-11-27T19:00:59Z</time>
      </trkpt>
      <trkpt lat="62.636568594626" lon="17.963739057684">
        <ele>52.6</ele>
        <time>2017-11-27T19:01:00Z</time>
      </trkpt>
      <trkpt lat="62.636585693702" lon="17.963778452614">
        <ele>52.4</ele>
        <time>2017-11-27T19:01:01Z</time>
      </trkpt>
      <trkpt lat="62.636595165249" lon="17.963808627454">
        <ele>52.4</ele>
        <time>2017-11-27T19:01:02Z</time>
      </trkpt>
      <trkpt lat="62.636614024524" lon="17.963826816177">
        <ele>52.4</ele>
        <time>2017-11-27T19:01:03Z</time>
      </trkpt>
      <trkpt lat="62.63662860903" lon="17.963832767326">
        <ele>52.4</ele>
        <time>2017-11-27T19:01:04Z</time>
      </trkpt>
      <trkpt lat="62.636639924595" lon="17.963843831434">
        <ele>52.4</ele>
        <time>2017-11-27T19:01:05Z</time>
      </trkpt>
      <trkpt lat="62.636651826893" lon="17.963853219162">
        <ele>52.6</ele>
        <time>2017-11-27T19:01:06Z</time>
      </trkpt>
      <trkpt lat="62.63667387129" lon="17.96390032544">
        <ele>52.4</ele>
        <time>2017-11-27T19:01:07Z</time>
      </trkpt>
      <trkpt lat="62.636699100809" lon="17.963950868297">
        <ele>52.6</ele>
        <time>2017-11-27T19:01:08Z</time>
      </trkpt>
      <trkpt lat="62.636715361695" lon="17.96398582082">
        <ele>52.6</ele>
        <time>2017-11-27T19:01:09Z</time>
      </trkpt>
      <trkpt lat="62.636731454943" lon="17.964024629017">
        <ele>52.8</ele>
        <time>2017-11-27T19:01:10Z</time>
      </trkpt>
      <trkpt lat="62.636744111612" lon="17.964060168273">
        <ele>52.8</ele>
        <time>2017-11-27T19:01:11Z</time>
      </trkpt>
      <trkpt lat="62.636762467973" lon="17.964110627311">
        <ele>52.6</ele>
        <time>2017-11-27T19:01:12Z</time>
      </trkpt>
      <trkpt lat="62.636777387755" lon="17.964152117716">
        <ele>52.8</ele>
        <time>2017-11-27T19:01:13Z</time>
      </trkpt>
      <trkpt lat="62.63679205608" lon="17.964185393859">
        <ele>52.8</ele>
        <time>2017-11-27T19:01:14Z</time>
      </trkpt>
      <trkpt lat="62.636805383301" lon="17.964224034418">
        <ele>52.8</ele>
        <time>2017-11-27T19:01:15Z</time>
      </trkpt>
      <trkpt lat="62.636827343879" lon="17.964260663321">
        <ele>53</ele>
        <time>2017-11-27T19:01:16Z</time>
      </trkpt>
      <trkpt lat="62.636844526774" lon="17.964289077962">
        <ele>52.8</ele>
        <time>2017-11-27T19:01:17Z</time>
      </trkpt>
      <trkpt lat="62.636869337198" lon="17.964328891987">
        <ele>52.8</ele>
        <time>2017-11-27T19:01:18Z</time>
      </trkpt>
      <trkpt lat="62.636887274464" lon="17.964369963297">
        <ele>52.8</ele>
        <time>2017-11-27T19:01:19Z</time>
      </trkpt>
      <trkpt lat="62.636910157051" lon="17.964388654934">
        <ele>52.8</ele>
        <time>2017-11-27T19:01:20Z</time>
      </trkpt>
      <trkpt lat="62.636932117629" lon="17.964410364055">
        <ele>52.8</ele>
        <time>2017-11-27T19:01:21Z</time>
      </trkpt>
      <trkpt lat="62.636956844234" lon="17.964422433991">
        <ele>52.8</ele>
        <time>2017-11-27T19:01:22Z</time>
      </trkpt>
      <trkpt lat="62.636977882803" lon="17.964418075403">
        <ele>52.6</ele>
        <time>2017-11-27T19:01:23Z</time>
      </trkpt>
      <trkpt lat="62.637005040159" lon="17.964413130082">
        <ele>52.4</ele>
        <time>2017-11-27T19:01:24Z</time>
      </trkpt>
      <trkpt lat="62.637028509479" lon="17.964401395422">
        <ele>52.4</ele>
        <time>2017-11-27T19:01:25Z</time>
      </trkpt>
      <trkpt lat="62.637050721514" lon="17.964388235839">
        <ele>52.4</ele>
        <time>2017-11-27T19:01:26Z</time>
      </trkpt>
      <trkpt lat="62.637072095359" lon="17.964368203098">
        <ele>52.4</ele>
        <time>2017-11-27T19:01:27Z</time>
      </trkpt>
      <trkpt lat="62.637089697349" lon="17.96433618424">
        <ele>52.2</ele>
        <time>2017-11-27T19:01:28Z</time>
      </trkpt>
      <trkpt lat="62.637103443665" lon="17.96431355311">
        <ele>52.2</ele>
        <time>2017-11-27T19:01:29Z</time>
      </trkpt>
      <trkpt lat="62.637122805854" lon="17.964282037166">
        <ele>52.2</ele>
        <time>2017-11-27T19:01:30Z</time>
      </trkpt>
      <trkpt lat="62.637149208839" lon="17.964241133494">
        <ele>52</ele>
        <time>2017-11-27T19:01:31Z</time>
      </trkpt>
      <trkpt lat="62.637163625707" lon="17.964210204283">
        <ele>52</ele>
        <time>2017-11-27T19:01:32Z</time>
      </trkpt>
      <trkpt lat="62.637176114738" lon="17.964174748846">
        <ele>51.8</ele>
        <time>2017-11-27T19:01:33Z</time>
      </trkpt>
      <trkpt lat="62.637198494411" lon="17.964149016413">
        <ele>51.6</ele>
        <time>2017-11-27T19:01:34Z</time>
      </trkpt>
      <trkpt lat="62.637208217415" lon="17.964132084975">
        <ele>51.6</ele>
        <time>2017-11-27T19:01:35Z</time>
      </trkpt>
      <trkpt lat="62.637220622627" lon="17.964113644795">
        <ele>51.4</ele>
        <time>2017-11-27T19:01:36Z</time>
      </trkpt>
      <trkpt lat="62.637235123314" lon="17.964099898479">
        <ele>51.4</ele>
        <time>2017-11-27T19:01:37Z</time>
      </trkpt>
      <trkpt lat="62.637243505214" lon="17.964093863511">
        <ele>51.2</ele>
        <time>2017-11-27T19:01:38Z</time>
      </trkpt>
      <trkpt lat="62.637254988417" lon="17.96407466896">
        <ele>51.2</ele>
        <time>2017-11-27T19:01:39Z</time>
      </trkpt>
      <trkpt lat="62.637266974534" lon="17.964059497721">
        <ele>51</ele>
        <time>2017-11-27T19:01:40Z</time>
      </trkpt>
      <trkpt lat="62.637282564868" lon="17.964052708382">
        <ele>51</ele>
        <time>2017-11-27T19:01:41Z</time>
      </trkpt>
      <trkpt lat="62.637296478822" lon="17.964049271803">
        <ele>51</ele>
        <time>2017-11-27T19:01:42Z</time>
      </trkpt>
      <trkpt lat="62.637309470767" lon="17.964056396418">
        <ele>50.8</ele>
        <time>2017-11-27T19:01:43Z</time>
      </trkpt>
      <trkpt lat="62.637321373065" lon="17.964075339512">
        <ele>50.8</ele>
        <time>2017-11-27T19:01:44Z</time>
      </trkpt>
      <trkpt lat="62.637330090241" lon="17.964086822715">
        <ele>50.8</ele>
        <time>2017-11-27T19:01:45Z</time>
      </trkpt>
      <trkpt lat="62.637338220684" lon="17.964111633139">
        <ele>50.8</ele>
        <time>2017-11-27T19:01:46Z</time>
      </trkpt>
      <trkpt lat="62.637342663091" lon="17.964134515726">
        <ele>50.6</ele>
        <time>2017-11-27T19:01:47Z</time>
      </trkpt>
      <trkpt lat="62.63734609967" lon="17.964153375001">
        <ele>50.6</ele>
        <time>2017-11-27T19:01:48Z</time>
      </trkpt>
      <trkpt lat="62.637357331416" lon="17.964168965335">
        <ele>50.6</ele>
        <time>2017-11-27T19:01:49Z</time>
      </trkpt>
      <trkpt lat="62.637364456031" lon="17.964183801298">
        <ele>50.6</ele>
        <time>2017-11-27T19:01:50Z</time>
      </trkpt>
      <trkpt lat="62.637378286166" lon="17.96418698642">
        <ele>50.4</ele>
        <time>2017-11-27T19:01:51Z</time>
      </trkpt>
      <trkpt lat="62.637390020826" lon="17.964189417171">
        <ele>50.4</ele>
        <time>2017-11-27T19:01:52Z</time>
      </trkpt>
      <trkpt lat="62.637400498201" lon="17.964188998076">
        <ele>50.2</ele>
        <time>2017-11-27T19:01:53Z</time>
      </trkpt>
      <trkpt lat="62.637412568137" lon="17.964183968936">
        <ele>50.4</ele>
        <time>2017-11-27T19:01:54Z</time>
      </trkpt>
      <trkpt lat="62.637425895358" lon="17.964186399687">
        <ele>50.2</ele>
        <time>2017-11-27T19:01:55Z</time>
      </trkpt>
      <trkpt lat="62.637437881475" lon="17.964185561497">
        <ele>50.2</ele>
        <time>2017-11-27T19:01:56Z</time>
      </trkpt>
      <trkpt lat="62.637446347194" lon="17.96417692814">
        <ele>50.4</ele>
        <time>2017-11-27T19:01:57Z</time>
      </trkpt>
      <trkpt lat="62.637458584768" lon="17.96417357538">
        <ele>50.4</ele>
        <time>2017-11-27T19:01:58Z</time>
      </trkpt>
      <trkpt lat="62.637468307772" lon="17.964173994475">
        <ele>50.4</ele>
        <time>2017-11-27T19:01:59Z</time>
      </trkpt>
      <trkpt lat="62.637479958613" lon="17.964173240104">
        <ele>50.4</ele>
        <time>2017-11-27T19:02:00Z</time>
      </trkpt>
      <trkpt lat="62.637492531463" lon="17.964187656972">
        <ele>50.4</ele>
        <time>2017-11-27T19:02:01Z</time>
      </trkpt>
      <trkpt lat="62.637497392965" lon="17.964215233423">
        <ele>50.4</ele>
        <time>2017-11-27T19:02:02Z</time>
      </trkpt>
      <trkpt lat="62.637493118196" lon="17.964219424373">
        <ele>50.4</ele>
        <time>2017-11-27T19:02:03Z</time>
      </trkpt>
      <trkpt lat="62.637502086829" lon="17.964207857351">
        <ele>50.6</ele>
        <time>2017-11-27T19:02:04Z</time>
      </trkpt>
    </trkseg>
  </trk>
</gpx>